<?xml version="1.0" encoding="UTF-8" standalone="no" ?>
<gpx xmlns="http://www.topografix.com/GPX/1/1" xmlns:xsi="http://www.w3.org/2001/XMLSchema-instance" xsi:schemaLocation="http://www.topografix.com/GPX/1/1 http://www.topografix.com/GPX/1/1/gpx.xsd" version="1.1" creator="VisuGPX - https://www.visugpx.com">
  <metadata>
    <name>2021-04-14 Gaillon Le Goulet La Chapelle Réanville Saint Marcel Mestrevile retour [Garmin]</name>
  </metadata>
  <trk>
    <name><![CDATA[2021-04-14 Gaillon Le Goulet La Chapelle Réanville Saint Marcel Mestrevile retour [Garmin]_1]]></name>
    <trkseg>
      <trkpt lat="49.14798" lon="1.35806">
        <ele>25.2</ele>
        <time>2021-04-14T13:23:42Z</time>
      </trkpt>
      <trkpt lat="49.14774" lon="1.35842">
        <ele>25.6</ele>
        <time>2021-04-14T13:23:49Z</time>
      </trkpt>
      <trkpt lat="49.14764" lon="1.35857">
        <ele>25.8</ele>
        <time>2021-04-14T13:23:52Z</time>
      </trkpt>
      <trkpt lat="49.14758" lon="1.35877">
        <ele>25.8</ele>
        <time>2021-04-14T13:23:55Z</time>
      </trkpt>
      <trkpt lat="49.14757" lon="1.35884">
        <ele>26</ele>
        <time>2021-04-14T13:23:56Z</time>
      </trkpt>
      <trkpt lat="49.14754" lon="1.35907">
        <ele>26.4</ele>
        <time>2021-04-14T13:23:59Z</time>
      </trkpt>
      <trkpt lat="49.14749" lon="1.3593">
        <ele>26.6</ele>
        <time>2021-04-14T13:24:02Z</time>
      </trkpt>
      <trkpt lat="49.14737" lon="1.35985">
        <ele>26.6</ele>
        <time>2021-04-14T13:24:09Z</time>
      </trkpt>
      <trkpt lat="49.14736" lon="1.35993">
        <ele>26.6</ele>
        <time>2021-04-14T13:24:10Z</time>
      </trkpt>
      <trkpt lat="49.14736" lon="1.36001">
        <ele>26.6</ele>
        <time>2021-04-14T13:24:11Z</time>
      </trkpt>
      <trkpt lat="49.14737" lon="1.36027">
        <ele>26.4</ele>
        <time>2021-04-14T13:24:14Z</time>
      </trkpt>
      <trkpt lat="49.14748" lon="1.36069">
        <ele>26.2</ele>
        <time>2021-04-14T13:24:19Z</time>
      </trkpt>
      <trkpt lat="49.14751" lon="1.36109">
        <ele>26</ele>
        <time>2021-04-14T13:24:24Z</time>
      </trkpt>
      <trkpt lat="49.14753" lon="1.36127">
        <ele>25.8</ele>
        <time>2021-04-14T13:24:27Z</time>
      </trkpt>
      <trkpt lat="49.14765" lon="1.36133">
        <ele>25.8</ele>
        <time>2021-04-14T13:24:30Z</time>
      </trkpt>
      <trkpt lat="49.14774" lon="1.36136">
        <ele>25.6</ele>
        <time>2021-04-14T13:24:32Z</time>
      </trkpt>
      <trkpt lat="49.14794" lon="1.36142">
        <ele>25.6</ele>
        <time>2021-04-14T13:24:36Z</time>
      </trkpt>
      <trkpt lat="49.14809" lon="1.36148">
        <ele>25.6</ele>
        <time>2021-04-14T13:24:39Z</time>
      </trkpt>
      <trkpt lat="49.1482" lon="1.36149">
        <ele>25.2</ele>
        <time>2021-04-14T13:24:41Z</time>
      </trkpt>
      <trkpt lat="49.14825" lon="1.3615">
        <ele>25</ele>
        <time>2021-04-14T13:24:42Z</time>
      </trkpt>
      <trkpt lat="49.1483" lon="1.36151">
        <ele>24.8</ele>
        <time>2021-04-14T13:24:43Z</time>
      </trkpt>
      <trkpt lat="49.14846" lon="1.36155">
        <ele>24</ele>
        <time>2021-04-14T13:24:46Z</time>
      </trkpt>
      <trkpt lat="49.14861" lon="1.3616">
        <ele>23.4</ele>
        <time>2021-04-14T13:24:49Z</time>
      </trkpt>
      <trkpt lat="49.14867" lon="1.36161">
        <ele>23.2</ele>
        <time>2021-04-14T13:24:50Z</time>
      </trkpt>
      <trkpt lat="49.14871" lon="1.36163">
        <ele>23</ele>
        <time>2021-04-14T13:24:51Z</time>
      </trkpt>
      <trkpt lat="49.1488" lon="1.36162">
        <ele>22.8</ele>
        <time>2021-04-14T13:24:53Z</time>
      </trkpt>
      <trkpt lat="49.14896" lon="1.36145">
        <ele>22</ele>
        <time>2021-04-14T13:24:57Z</time>
      </trkpt>
      <trkpt lat="49.149" lon="1.36139">
        <ele>22</ele>
        <time>2021-04-14T13:24:58Z</time>
      </trkpt>
      <trkpt lat="49.14926" lon="1.36106">
        <ele>21.4</ele>
        <time>2021-04-14T13:25:04Z</time>
      </trkpt>
      <trkpt lat="49.14943" lon="1.36107">
        <ele>21</ele>
        <time>2021-04-14T13:25:07Z</time>
      </trkpt>
      <trkpt lat="49.1496" lon="1.36111">
        <ele>20.8</ele>
        <time>2021-04-14T13:25:10Z</time>
      </trkpt>
      <trkpt lat="49.14993" lon="1.3612">
        <ele>19.8</ele>
        <time>2021-04-14T13:25:16Z</time>
      </trkpt>
      <trkpt lat="49.1501" lon="1.36125">
        <ele>19.8</ele>
        <time>2021-04-14T13:25:19Z</time>
      </trkpt>
      <trkpt lat="49.15051" lon="1.36137">
        <ele>19.8</ele>
        <time>2021-04-14T13:25:26Z</time>
      </trkpt>
      <trkpt lat="49.15105" lon="1.36156">
        <ele>19.6</ele>
        <time>2021-04-14T13:25:35Z</time>
      </trkpt>
      <trkpt lat="49.1515" lon="1.3618">
        <ele>19.4</ele>
        <time>2021-04-14T13:25:43Z</time>
      </trkpt>
      <trkpt lat="49.15203" lon="1.36214">
        <ele>19.2</ele>
        <time>2021-04-14T13:25:53Z</time>
      </trkpt>
      <trkpt lat="49.1524" lon="1.36237">
        <ele>19.4</ele>
        <time>2021-04-14T13:26:00Z</time>
      </trkpt>
      <trkpt lat="49.15244" lon="1.36237">
        <ele>19.4</ele>
        <time>2021-04-14T13:26:01Z</time>
      </trkpt>
      <trkpt lat="49.15249" lon="1.3623">
        <ele>19.4</ele>
        <time>2021-04-14T13:26:03Z</time>
      </trkpt>
      <trkpt lat="49.15246" lon="1.36218">
        <ele>19.4</ele>
        <time>2021-04-14T13:26:05Z</time>
      </trkpt>
      <trkpt lat="49.15243" lon="1.36212">
        <ele>19.6</ele>
        <time>2021-04-14T13:26:06Z</time>
      </trkpt>
      <trkpt lat="49.15226" lon="1.36165">
        <ele>20.4</ele>
        <time>2021-04-14T13:26:12Z</time>
      </trkpt>
      <trkpt lat="49.152" lon="1.36087">
        <ele>21</ele>
        <time>2021-04-14T13:26:22Z</time>
      </trkpt>
      <trkpt lat="49.15193" lon="1.36064">
        <ele>21</ele>
        <time>2021-04-14T13:26:25Z</time>
      </trkpt>
      <trkpt lat="49.15178" lon="1.36011">
        <ele>21</ele>
        <time>2021-04-14T13:26:32Z</time>
      </trkpt>
      <trkpt lat="49.15165" lon="1.35958">
        <ele>20.8</ele>
        <time>2021-04-14T13:26:39Z</time>
      </trkpt>
      <trkpt lat="49.15159" lon="1.35903">
        <ele>20.8</ele>
        <time>2021-04-14T13:26:46Z</time>
      </trkpt>
      <trkpt lat="49.1516" lon="1.35828">
        <ele>21</ele>
        <time>2021-04-14T13:26:55Z</time>
      </trkpt>
      <trkpt lat="49.15163" lon="1.35738">
        <ele>20.8</ele>
        <time>2021-04-14T13:27:06Z</time>
      </trkpt>
      <trkpt lat="49.15162" lon="1.35665">
        <ele>20.2</ele>
        <time>2021-04-14T13:27:15Z</time>
      </trkpt>
      <trkpt lat="49.15151" lon="1.35607">
        <ele>20.2</ele>
        <time>2021-04-14T13:27:23Z</time>
      </trkpt>
      <trkpt lat="49.15135" lon="1.3556">
        <ele>20.6</ele>
        <time>2021-04-14T13:27:30Z</time>
      </trkpt>
      <trkpt lat="49.15123" lon="1.35504">
        <ele>20.8</ele>
        <time>2021-04-14T13:27:38Z</time>
      </trkpt>
      <trkpt lat="49.15122" lon="1.35498">
        <ele>20.8</ele>
        <time>2021-04-14T13:27:39Z</time>
      </trkpt>
      <trkpt lat="49.15123" lon="1.35477">
        <ele>20.8</ele>
        <time>2021-04-14T13:27:42Z</time>
      </trkpt>
      <trkpt lat="49.15124" lon="1.3547">
        <ele>20.8</ele>
        <time>2021-04-14T13:27:43Z</time>
      </trkpt>
      <trkpt lat="49.15135" lon="1.35415">
        <ele>21.2</ele>
        <time>2021-04-14T13:27:51Z</time>
      </trkpt>
      <trkpt lat="49.15147" lon="1.3535">
        <ele>21.4</ele>
        <time>2021-04-14T13:28:00Z</time>
      </trkpt>
      <trkpt lat="49.15156" lon="1.35295">
        <ele>21.8</ele>
        <time>2021-04-14T13:28:07Z</time>
      </trkpt>
      <trkpt lat="49.15158" lon="1.35279">
        <ele>22</ele>
        <time>2021-04-14T13:28:09Z</time>
      </trkpt>
      <trkpt lat="49.1516" lon="1.35256">
        <ele>22.2</ele>
        <time>2021-04-14T13:28:12Z</time>
      </trkpt>
      <trkpt lat="49.1516" lon="1.35248">
        <ele>22.2</ele>
        <time>2021-04-14T13:28:13Z</time>
      </trkpt>
      <trkpt lat="49.15155" lon="1.35203">
        <ele>22.2</ele>
        <time>2021-04-14T13:28:19Z</time>
      </trkpt>
      <trkpt lat="49.1515" lon="1.35172">
        <ele>23</ele>
        <time>2021-04-14T13:28:23Z</time>
      </trkpt>
      <trkpt lat="49.15146" lon="1.3515">
        <ele>23.2</ele>
        <time>2021-04-14T13:28:26Z</time>
      </trkpt>
      <trkpt lat="49.15148" lon="1.35119">
        <ele>23.4</ele>
        <time>2021-04-14T13:28:30Z</time>
      </trkpt>
      <trkpt lat="49.15152" lon="1.35103">
        <ele>23.4</ele>
        <time>2021-04-14T13:28:32Z</time>
      </trkpt>
      <trkpt lat="49.15161" lon="1.35079">
        <ele>23.6</ele>
        <time>2021-04-14T13:28:35Z</time>
      </trkpt>
      <trkpt lat="49.15186" lon="1.35032">
        <ele>23.4</ele>
        <time>2021-04-14T13:28:41Z</time>
      </trkpt>
      <trkpt lat="49.15217" lon="1.34999">
        <ele>22.4</ele>
        <time>2021-04-14T13:28:47Z</time>
      </trkpt>
      <trkpt lat="49.15227" lon="1.3499">
        <ele>22.2</ele>
        <time>2021-04-14T13:28:49Z</time>
      </trkpt>
      <trkpt lat="49.15232" lon="1.34988">
        <ele>22</ele>
        <time>2021-04-14T13:28:50Z</time>
      </trkpt>
      <trkpt lat="49.15238" lon="1.34988">
        <ele>22</ele>
        <time>2021-04-14T13:28:51Z</time>
      </trkpt>
      <trkpt lat="49.15249" lon="1.3499">
        <ele>22</ele>
        <time>2021-04-14T13:28:53Z</time>
      </trkpt>
      <trkpt lat="49.15274" lon="1.34993">
        <ele>21.6</ele>
        <time>2021-04-14T13:28:57Z</time>
      </trkpt>
      <trkpt lat="49.15325" lon="1.34988">
        <ele>21.2</ele>
        <time>2021-04-14T13:29:05Z</time>
      </trkpt>
      <trkpt lat="49.15332" lon="1.34987">
        <ele>21</ele>
        <time>2021-04-14T13:29:06Z</time>
      </trkpt>
      <trkpt lat="49.1537" lon="1.34974">
        <ele>20.2</ele>
        <time>2021-04-14T13:29:12Z</time>
      </trkpt>
      <trkpt lat="49.15375" lon="1.34969">
        <ele>20.2</ele>
        <time>2021-04-14T13:29:13Z</time>
      </trkpt>
      <trkpt lat="49.15381" lon="1.34955">
        <ele>20</ele>
        <time>2021-04-14T13:29:15Z</time>
      </trkpt>
      <trkpt lat="49.15387" lon="1.3492">
        <ele>19.6</ele>
        <time>2021-04-14T13:29:19Z</time>
      </trkpt>
      <trkpt lat="49.15394" lon="1.34901">
        <ele>19.6</ele>
        <time>2021-04-14T13:29:21Z</time>
      </trkpt>
      <trkpt lat="49.15409" lon="1.34864">
        <ele>19.2</ele>
        <time>2021-04-14T13:29:25Z</time>
      </trkpt>
      <trkpt lat="49.15414" lon="1.34846">
        <ele>19.2</ele>
        <time>2021-04-14T13:29:27Z</time>
      </trkpt>
      <trkpt lat="49.15419" lon="1.34831">
        <ele>18.8</ele>
        <time>2021-04-14T13:29:29Z</time>
      </trkpt>
      <trkpt lat="49.15419" lon="1.34812">
        <ele>18.6</ele>
        <time>2021-04-14T13:29:32Z</time>
      </trkpt>
      <trkpt lat="49.15418" lon="1.34797">
        <ele>18.6</ele>
        <time>2021-04-14T13:29:35Z</time>
      </trkpt>
      <trkpt lat="49.15419" lon="1.34794">
        <ele>18.6</ele>
        <time>2021-04-14T13:29:36Z</time>
      </trkpt>
      <trkpt lat="49.1542" lon="1.3479">
        <ele>18.6</ele>
        <time>2021-04-14T13:29:37Z</time>
      </trkpt>
      <trkpt lat="49.15422" lon="1.34781">
        <ele>19</ele>
        <time>2021-04-14T13:29:39Z</time>
      </trkpt>
      <trkpt lat="49.15426" lon="1.3477">
        <ele>20</ele>
        <time>2021-04-14T13:29:41Z</time>
      </trkpt>
      <trkpt lat="49.15429" lon="1.3476">
        <ele>20.6</ele>
        <time>2021-04-14T13:29:43Z</time>
      </trkpt>
      <trkpt lat="49.15431" lon="1.34755">
        <ele>20.8</ele>
        <time>2021-04-14T13:29:44Z</time>
      </trkpt>
      <trkpt lat="49.15433" lon="1.34749">
        <ele>21</ele>
        <time>2021-04-14T13:29:45Z</time>
      </trkpt>
      <trkpt lat="49.15441" lon="1.34728">
        <ele>21.2</ele>
        <time>2021-04-14T13:29:49Z</time>
      </trkpt>
      <trkpt lat="49.15444" lon="1.34724">
        <ele>21.2</ele>
        <time>2021-04-14T13:29:50Z</time>
      </trkpt>
      <trkpt lat="49.15459" lon="1.34698">
        <ele>21</ele>
        <time>2021-04-14T13:29:55Z</time>
      </trkpt>
      <trkpt lat="49.15479" lon="1.34645">
        <ele>20.2</ele>
        <time>2021-04-14T13:30:02Z</time>
      </trkpt>
      <trkpt lat="49.15494" lon="1.34603">
        <ele>20</ele>
        <time>2021-04-14T13:30:07Z</time>
      </trkpt>
      <trkpt lat="49.15507" lon="1.34569">
        <ele>18.8</ele>
        <time>2021-04-14T13:30:11Z</time>
      </trkpt>
      <trkpt lat="49.1551" lon="1.34561">
        <ele>18.4</ele>
        <time>2021-04-14T13:30:12Z</time>
      </trkpt>
      <trkpt lat="49.15522" lon="1.34527">
        <ele>18</ele>
        <time>2021-04-14T13:30:16Z</time>
      </trkpt>
      <trkpt lat="49.15525" lon="1.3451">
        <ele>17.8</ele>
        <time>2021-04-14T13:30:18Z</time>
      </trkpt>
      <trkpt lat="49.15529" lon="1.34495">
        <ele>17.6</ele>
        <time>2021-04-14T13:30:20Z</time>
      </trkpt>
      <trkpt lat="49.15532" lon="1.34489">
        <ele>17.6</ele>
        <time>2021-04-14T13:30:21Z</time>
      </trkpt>
      <trkpt lat="49.15539" lon="1.3448">
        <ele>17.4</ele>
        <time>2021-04-14T13:30:23Z</time>
      </trkpt>
      <trkpt lat="49.15546" lon="1.34466">
        <ele>17.4</ele>
        <time>2021-04-14T13:30:26Z</time>
      </trkpt>
      <trkpt lat="49.15545" lon="1.34461">
        <ele>17.4</ele>
        <time>2021-04-14T13:30:27Z</time>
      </trkpt>
      <trkpt lat="49.15542" lon="1.34451">
        <ele>17.4</ele>
        <time>2021-04-14T13:30:29Z</time>
      </trkpt>
      <trkpt lat="49.1554" lon="1.34446">
        <ele>17.4</ele>
        <time>2021-04-14T13:30:30Z</time>
      </trkpt>
      <trkpt lat="49.1553" lon="1.34422">
        <ele>17.6</ele>
        <time>2021-04-14T13:30:34Z</time>
      </trkpt>
      <trkpt lat="49.15521" lon="1.34396">
        <ele>18.4</ele>
        <time>2021-04-14T13:30:38Z</time>
      </trkpt>
      <trkpt lat="49.15513" lon="1.34385">
        <ele>18.6</ele>
        <time>2021-04-14T13:30:40Z</time>
      </trkpt>
      <trkpt lat="49.15497" lon="1.34369">
        <ele>18.6</ele>
        <time>2021-04-14T13:30:44Z</time>
      </trkpt>
      <trkpt lat="49.15484" lon="1.34371">
        <ele>18.6</ele>
        <time>2021-04-14T13:30:47Z</time>
      </trkpt>
      <trkpt lat="49.15477" lon="1.3439">
        <ele>18.6</ele>
        <time>2021-04-14T13:30:50Z</time>
      </trkpt>
      <trkpt lat="49.15474" lon="1.34397">
        <ele>18.4</ele>
        <time>2021-04-14T13:30:51Z</time>
      </trkpt>
      <trkpt lat="49.15465" lon="1.34401">
        <ele>18.4</ele>
        <time>2021-04-14T13:30:53Z</time>
      </trkpt>
      <trkpt lat="49.15454" lon="1.34389">
        <ele>18.4</ele>
        <time>2021-04-14T13:30:56Z</time>
      </trkpt>
      <trkpt lat="49.1545" lon="1.34385">
        <ele>18.4</ele>
        <time>2021-04-14T13:30:57Z</time>
      </trkpt>
      <trkpt lat="49.15427" lon="1.34364">
        <ele>18.6</ele>
        <time>2021-04-14T13:31:03Z</time>
      </trkpt>
      <trkpt lat="49.1542" lon="1.34357">
        <ele>18.8</ele>
        <time>2021-04-14T13:31:05Z</time>
      </trkpt>
      <trkpt lat="49.15418" lon="1.34355">
        <ele>18.8</ele>
        <time>2021-04-14T13:31:06Z</time>
      </trkpt>
      <trkpt lat="49.15415" lon="1.34354">
        <ele>19</ele>
        <time>2021-04-14T13:31:07Z</time>
      </trkpt>
      <trkpt lat="49.15401" lon="1.34346">
        <ele>19.2</ele>
        <time>2021-04-14T13:31:12Z</time>
      </trkpt>
      <trkpt lat="49.1539" lon="1.34332">
        <ele>19.8</ele>
        <time>2021-04-14T13:31:16Z</time>
      </trkpt>
      <trkpt lat="49.15386" lon="1.34329">
        <ele>20</ele>
        <time>2021-04-14T13:31:17Z</time>
      </trkpt>
      <trkpt lat="49.15358" lon="1.34306">
        <ele>20.6</ele>
        <time>2021-04-14T13:31:24Z</time>
      </trkpt>
      <trkpt lat="49.15346" lon="1.34296">
        <ele>20.8</ele>
        <time>2021-04-14T13:31:27Z</time>
      </trkpt>
      <trkpt lat="49.15326" lon="1.34277">
        <ele>21.2</ele>
        <time>2021-04-14T13:31:32Z</time>
      </trkpt>
      <trkpt lat="49.15302" lon="1.34253">
        <ele>21.4</ele>
        <time>2021-04-14T13:31:39Z</time>
      </trkpt>
      <trkpt lat="49.15279" lon="1.34231">
        <ele>22.2</ele>
        <time>2021-04-14T13:31:47Z</time>
      </trkpt>
      <trkpt lat="49.1527" lon="1.34223">
        <ele>23</ele>
        <time>2021-04-14T13:31:50Z</time>
      </trkpt>
      <trkpt lat="49.15264" lon="1.34217">
        <ele>23.2</ele>
        <time>2021-04-14T13:31:52Z</time>
      </trkpt>
      <trkpt lat="49.15251" lon="1.34206">
        <ele>24</ele>
        <time>2021-04-14T13:31:57Z</time>
      </trkpt>
      <trkpt lat="49.15248" lon="1.34207">
        <ele>24.2</ele>
        <time>2021-04-14T13:31:58Z</time>
      </trkpt>
      <trkpt lat="49.15245" lon="1.34209">
        <ele>24.4</ele>
        <time>2021-04-14T13:31:59Z</time>
      </trkpt>
      <trkpt lat="49.15241" lon="1.34217">
        <ele>24.8</ele>
        <time>2021-04-14T13:32:01Z</time>
      </trkpt>
      <trkpt lat="49.15239" lon="1.34221">
        <ele>24.8</ele>
        <time>2021-04-14T13:32:02Z</time>
      </trkpt>
      <trkpt lat="49.15233" lon="1.34234">
        <ele>25.6</ele>
        <time>2021-04-14T13:32:05Z</time>
      </trkpt>
      <trkpt lat="49.15228" lon="1.34244">
        <ele>25.8</ele>
        <time>2021-04-14T13:32:07Z</time>
      </trkpt>
      <trkpt lat="49.15226" lon="1.34249">
        <ele>25.8</ele>
        <time>2021-04-14T13:32:08Z</time>
      </trkpt>
      <trkpt lat="49.15223" lon="1.34274">
        <ele>25.8</ele>
        <time>2021-04-14T13:32:12Z</time>
      </trkpt>
      <trkpt lat="49.15223" lon="1.34281">
        <ele>25.8</ele>
        <time>2021-04-14T13:32:13Z</time>
      </trkpt>
      <trkpt lat="49.15223" lon="1.34334">
        <ele>24.6</ele>
        <time>2021-04-14T13:32:20Z</time>
      </trkpt>
      <trkpt lat="49.15232" lon="1.3435">
        <ele>24</ele>
        <time>2021-04-14T13:32:23Z</time>
      </trkpt>
      <trkpt lat="49.15236" lon="1.34354">
        <ele>24</ele>
        <time>2021-04-14T13:32:24Z</time>
      </trkpt>
      <trkpt lat="49.15253" lon="1.34372">
        <ele>23.4</ele>
        <time>2021-04-14T13:32:28Z</time>
      </trkpt>
      <trkpt lat="49.15254" lon="1.34389">
        <ele>23</ele>
        <time>2021-04-14T13:32:31Z</time>
      </trkpt>
      <trkpt lat="49.15248" lon="1.344">
        <ele>22.6</ele>
        <time>2021-04-14T13:32:33Z</time>
      </trkpt>
      <trkpt lat="49.15239" lon="1.34412">
        <ele>22.4</ele>
        <time>2021-04-14T13:32:35Z</time>
      </trkpt>
      <trkpt lat="49.15226" lon="1.34432">
        <ele>22.2</ele>
        <time>2021-04-14T13:32:38Z</time>
      </trkpt>
      <trkpt lat="49.15218" lon="1.34449">
        <ele>22</ele>
        <time>2021-04-14T13:32:40Z</time>
      </trkpt>
      <trkpt lat="49.15201" lon="1.3448">
        <ele>21.2</ele>
        <time>2021-04-14T13:32:44Z</time>
      </trkpt>
      <trkpt lat="49.15191" lon="1.34495">
        <ele>20</ele>
        <time>2021-04-14T13:32:46Z</time>
      </trkpt>
      <trkpt lat="49.15186" lon="1.34501">
        <ele>19.6</ele>
        <time>2021-04-14T13:32:47Z</time>
      </trkpt>
      <trkpt lat="49.15178" lon="1.34515">
        <ele>19.2</ele>
        <time>2021-04-14T13:32:49Z</time>
      </trkpt>
      <trkpt lat="49.15172" lon="1.34527">
        <ele>19.2</ele>
        <time>2021-04-14T13:32:51Z</time>
      </trkpt>
      <trkpt lat="49.15155" lon="1.34553">
        <ele>19.2</ele>
        <time>2021-04-14T13:32:57Z</time>
      </trkpt>
      <trkpt lat="49.15137" lon="1.34579">
        <ele>21.2</ele>
        <time>2021-04-14T13:33:03Z</time>
      </trkpt>
      <trkpt lat="49.15131" lon="1.34588">
        <ele>22</ele>
        <time>2021-04-14T13:33:05Z</time>
      </trkpt>
      <trkpt lat="49.15127" lon="1.34593">
        <ele>22.2</ele>
        <time>2021-04-14T13:33:06Z</time>
      </trkpt>
      <trkpt lat="49.15106" lon="1.34622">
        <ele>23.4</ele>
        <time>2021-04-14T13:33:13Z</time>
      </trkpt>
      <trkpt lat="49.15097" lon="1.34635">
        <ele>23.8</ele>
        <time>2021-04-14T13:33:16Z</time>
      </trkpt>
      <trkpt lat="49.15085" lon="1.34651">
        <ele>24.4</ele>
        <time>2021-04-14T13:33:20Z</time>
      </trkpt>
      <trkpt lat="49.1507" lon="1.34671">
        <ele>25.2</ele>
        <time>2021-04-14T13:33:25Z</time>
      </trkpt>
      <trkpt lat="49.15067" lon="1.34675">
        <ele>25.4</ele>
        <time>2021-04-14T13:33:26Z</time>
      </trkpt>
      <trkpt lat="49.15044" lon="1.34706">
        <ele>26.6</ele>
        <time>2021-04-14T13:33:33Z</time>
      </trkpt>
      <trkpt lat="49.15041" lon="1.3471">
        <ele>26.6</ele>
        <time>2021-04-14T13:33:34Z</time>
      </trkpt>
      <trkpt lat="49.15008" lon="1.34755">
        <ele>27.6</ele>
        <time>2021-04-14T13:33:44Z</time>
      </trkpt>
      <trkpt lat="49.15001" lon="1.34764">
        <ele>27.8</ele>
        <time>2021-04-14T13:33:46Z</time>
      </trkpt>
      <trkpt lat="49.14981" lon="1.34797">
        <ele>28.2</ele>
        <time>2021-04-14T13:33:52Z</time>
      </trkpt>
      <trkpt lat="49.1498" lon="1.34804">
        <ele>28.2</ele>
        <time>2021-04-14T13:33:53Z</time>
      </trkpt>
      <trkpt lat="49.14978" lon="1.34837">
        <ele>28.2</ele>
        <time>2021-04-14T13:33:57Z</time>
      </trkpt>
      <trkpt lat="49.1498" lon="1.34863">
        <ele>28.2</ele>
        <time>2021-04-14T13:34:00Z</time>
      </trkpt>
      <trkpt lat="49.14984" lon="1.34881">
        <ele>28</ele>
        <time>2021-04-14T13:34:02Z</time>
      </trkpt>
      <trkpt lat="49.14978" lon="1.34902">
        <ele>27.2</ele>
        <time>2021-04-14T13:34:05Z</time>
      </trkpt>
      <trkpt lat="49.14962" lon="1.34903">
        <ele>27</ele>
        <time>2021-04-14T13:34:08Z</time>
      </trkpt>
      <trkpt lat="49.14956" lon="1.34901">
        <ele>26.8</ele>
        <time>2021-04-14T13:34:09Z</time>
      </trkpt>
      <trkpt lat="49.14911" lon="1.34886">
        <ele>26.6</ele>
        <time>2021-04-14T13:34:17Z</time>
      </trkpt>
      <trkpt lat="49.14894" lon="1.34882">
        <ele>26.8</ele>
        <time>2021-04-14T13:34:20Z</time>
      </trkpt>
      <trkpt lat="49.14878" lon="1.34881">
        <ele>26.8</ele>
        <time>2021-04-14T13:34:23Z</time>
      </trkpt>
      <trkpt lat="49.14856" lon="1.34877">
        <ele>27.2</ele>
        <time>2021-04-14T13:34:27Z</time>
      </trkpt>
      <trkpt lat="49.14846" lon="1.34872">
        <ele>27.6</ele>
        <time>2021-04-14T13:34:29Z</time>
      </trkpt>
      <trkpt lat="49.14832" lon="1.34858">
        <ele>28</ele>
        <time>2021-04-14T13:34:32Z</time>
      </trkpt>
      <trkpt lat="49.14819" lon="1.34843">
        <ele>28.2</ele>
        <time>2021-04-14T13:34:35Z</time>
      </trkpt>
      <trkpt lat="49.14814" lon="1.34839">
        <ele>28.4</ele>
        <time>2021-04-14T13:34:36Z</time>
      </trkpt>
      <trkpt lat="49.1481" lon="1.34835">
        <ele>28.6</ele>
        <time>2021-04-14T13:34:37Z</time>
      </trkpt>
      <trkpt lat="49.148" lon="1.34828">
        <ele>29</ele>
        <time>2021-04-14T13:34:39Z</time>
      </trkpt>
      <trkpt lat="49.14788" lon="1.34815">
        <ele>29.6</ele>
        <time>2021-04-14T13:34:43Z</time>
      </trkpt>
      <trkpt lat="49.14785" lon="1.34814">
        <ele>29.8</ele>
        <time>2021-04-14T13:34:44Z</time>
      </trkpt>
      <trkpt lat="49.14776" lon="1.34811">
        <ele>30.6</ele>
        <time>2021-04-14T13:34:48Z</time>
      </trkpt>
      <trkpt lat="49.14772" lon="1.34811">
        <ele>31.4</ele>
        <time>2021-04-14T13:34:50Z</time>
      </trkpt>
      <trkpt lat="49.1477" lon="1.34812">
        <ele>32</ele>
        <time>2021-04-14T13:34:51Z</time>
      </trkpt>
      <trkpt lat="49.14765" lon="1.34814">
        <ele>33.2</ele>
        <time>2021-04-14T13:34:54Z</time>
      </trkpt>
      <trkpt lat="49.14761" lon="1.34815">
        <ele>34.6</ele>
        <time>2021-04-14T13:34:57Z</time>
      </trkpt>
      <trkpt lat="49.14756" lon="1.34818">
        <ele>36</ele>
        <time>2021-04-14T13:35:01Z</time>
      </trkpt>
      <trkpt lat="49.14753" lon="1.34819">
        <ele>36.6</ele>
        <time>2021-04-14T13:35:03Z</time>
      </trkpt>
      <trkpt lat="49.14751" lon="1.3482">
        <ele>37</ele>
        <time>2021-04-14T13:35:04Z</time>
      </trkpt>
      <trkpt lat="49.14747" lon="1.34823">
        <ele>38.2</ele>
        <time>2021-04-14T13:35:07Z</time>
      </trkpt>
      <trkpt lat="49.14742" lon="1.34826">
        <ele>39.4</ele>
        <time>2021-04-14T13:35:10Z</time>
      </trkpt>
      <trkpt lat="49.14741" lon="1.34826">
        <ele>39.8</ele>
        <time>2021-04-14T13:35:11Z</time>
      </trkpt>
      <trkpt lat="49.14738" lon="1.34829">
        <ele>40.6</ele>
        <time>2021-04-14T13:35:14Z</time>
      </trkpt>
      <trkpt lat="49.14737" lon="1.3483">
        <ele>40.8</ele>
        <time>2021-04-14T13:35:15Z</time>
      </trkpt>
      <trkpt lat="49.14734" lon="1.34832">
        <ele>41.6</ele>
        <time>2021-04-14T13:35:17Z</time>
      </trkpt>
      <trkpt lat="49.14729" lon="1.34835">
        <ele>42.6</ele>
        <time>2021-04-14T13:35:20Z</time>
      </trkpt>
      <trkpt lat="49.14725" lon="1.34837">
        <ele>43.4</ele>
        <time>2021-04-14T13:35:23Z</time>
      </trkpt>
      <trkpt lat="49.14724" lon="1.34838">
        <ele>43.6</ele>
        <time>2021-04-14T13:35:24Z</time>
      </trkpt>
      <trkpt lat="49.14717" lon="1.34842">
        <ele>44.6</ele>
        <time>2021-04-14T13:35:28Z</time>
      </trkpt>
      <trkpt lat="49.14713" lon="1.34844">
        <ele>45.4</ele>
        <time>2021-04-14T13:35:31Z</time>
      </trkpt>
      <trkpt lat="49.14709" lon="1.34846">
        <ele>45.8</ele>
        <time>2021-04-14T13:35:33Z</time>
      </trkpt>
      <trkpt lat="49.14705" lon="1.34852">
        <ele>46.6</ele>
        <time>2021-04-14T13:35:37Z</time>
      </trkpt>
      <trkpt lat="49.14705" lon="1.34854">
        <ele>46.8</ele>
        <time>2021-04-14T13:35:38Z</time>
      </trkpt>
      <trkpt lat="49.14701" lon="1.34864">
        <ele>47.8</ele>
        <time>2021-04-14T13:35:43Z</time>
      </trkpt>
      <trkpt lat="49.147" lon="1.34868">
        <ele>48</ele>
        <time>2021-04-14T13:35:45Z</time>
      </trkpt>
      <trkpt lat="49.14698" lon="1.34876">
        <ele>48.8</ele>
        <time>2021-04-14T13:35:49Z</time>
      </trkpt>
      <trkpt lat="49.14697" lon="1.3488">
        <ele>49.2</ele>
        <time>2021-04-14T13:35:51Z</time>
      </trkpt>
      <trkpt lat="49.14694" lon="1.3489">
        <ele>50.2</ele>
        <time>2021-04-14T13:35:56Z</time>
      </trkpt>
      <trkpt lat="49.14694" lon="1.34893">
        <ele>50.4</ele>
        <time>2021-04-14T13:35:57Z</time>
      </trkpt>
      <trkpt lat="49.14693" lon="1.349">
        <ele>51.4</ele>
        <time>2021-04-14T13:36:01Z</time>
      </trkpt>
      <trkpt lat="49.14692" lon="1.34903">
        <ele>51.6</ele>
        <time>2021-04-14T13:36:02Z</time>
      </trkpt>
      <trkpt lat="49.14692" lon="1.34905">
        <ele>51.6</ele>
        <time>2021-04-14T13:36:03Z</time>
      </trkpt>
      <trkpt lat="49.14689" lon="1.34915">
        <ele>52.6</ele>
        <time>2021-04-14T13:36:07Z</time>
      </trkpt>
      <trkpt lat="49.14686" lon="1.34926">
        <ele>53.6</ele>
        <time>2021-04-14T13:36:12Z</time>
      </trkpt>
      <trkpt lat="49.14684" lon="1.34936">
        <ele>54.8</ele>
        <time>2021-04-14T13:36:17Z</time>
      </trkpt>
      <trkpt lat="49.14683" lon="1.34938">
        <ele>55</ele>
        <time>2021-04-14T13:36:18Z</time>
      </trkpt>
      <trkpt lat="49.14682" lon="1.34942">
        <ele>55.4</ele>
        <time>2021-04-14T13:36:20Z</time>
      </trkpt>
      <trkpt lat="49.14681" lon="1.34945">
        <ele>55.8</ele>
        <time>2021-04-14T13:36:22Z</time>
      </trkpt>
      <trkpt lat="49.14677" lon="1.34953">
        <ele>57</ele>
        <time>2021-04-14T13:36:26Z</time>
      </trkpt>
      <trkpt lat="49.14675" lon="1.34965">
        <ele>58.2</ele>
        <time>2021-04-14T13:36:31Z</time>
      </trkpt>
      <trkpt lat="49.14674" lon="1.34967">
        <ele>58.4</ele>
        <time>2021-04-14T13:36:32Z</time>
      </trkpt>
      <trkpt lat="49.14672" lon="1.34973">
        <ele>59.2</ele>
        <time>2021-04-14T13:36:35Z</time>
      </trkpt>
      <trkpt lat="49.14669" lon="1.34984">
        <ele>60.4</ele>
        <time>2021-04-14T13:36:40Z</time>
      </trkpt>
      <trkpt lat="49.14665" lon="1.34995">
        <ele>61.4</ele>
        <time>2021-04-14T13:36:45Z</time>
      </trkpt>
      <trkpt lat="49.14662" lon="1.35003">
        <ele>62.4</ele>
        <time>2021-04-14T13:36:49Z</time>
      </trkpt>
      <trkpt lat="49.14662" lon="1.35005">
        <ele>62.4</ele>
        <time>2021-04-14T13:36:50Z</time>
      </trkpt>
      <trkpt lat="49.14658" lon="1.35018">
        <ele>63.4</ele>
        <time>2021-04-14T13:36:56Z</time>
      </trkpt>
      <trkpt lat="49.14657" lon="1.35023">
        <ele>64</ele>
        <time>2021-04-14T13:36:58Z</time>
      </trkpt>
      <trkpt lat="49.14654" lon="1.3503">
        <ele>64.6</ele>
        <time>2021-04-14T13:37:01Z</time>
      </trkpt>
      <trkpt lat="49.14651" lon="1.35037">
        <ele>66</ele>
        <time>2021-04-14T13:37:05Z</time>
      </trkpt>
      <trkpt lat="49.14646" lon="1.35045">
        <ele>67</ele>
        <time>2021-04-14T13:37:10Z</time>
      </trkpt>
      <trkpt lat="49.14646" lon="1.35047">
        <ele>67.2</ele>
        <time>2021-04-14T13:37:11Z</time>
      </trkpt>
      <trkpt lat="49.14644" lon="1.35054">
        <ele>68</ele>
        <time>2021-04-14T13:37:14Z</time>
      </trkpt>
      <trkpt lat="49.14641" lon="1.3506">
        <ele>68.6</ele>
        <time>2021-04-14T13:37:17Z</time>
      </trkpt>
      <trkpt lat="49.14638" lon="1.35067">
        <ele>69.2</ele>
        <time>2021-04-14T13:37:20Z</time>
      </trkpt>
      <trkpt lat="49.14634" lon="1.35079">
        <ele>70.2</ele>
        <time>2021-04-14T13:37:26Z</time>
      </trkpt>
      <trkpt lat="49.14629" lon="1.35093">
        <ele>71.4</ele>
        <time>2021-04-14T13:37:32Z</time>
      </trkpt>
      <trkpt lat="49.14625" lon="1.35103">
        <ele>72.2</ele>
        <time>2021-04-14T13:37:37Z</time>
      </trkpt>
      <trkpt lat="49.14624" lon="1.35107">
        <ele>72.4</ele>
        <time>2021-04-14T13:37:39Z</time>
      </trkpt>
      <trkpt lat="49.14619" lon="1.35116">
        <ele>73.4</ele>
        <time>2021-04-14T13:37:44Z</time>
      </trkpt>
      <trkpt lat="49.14618" lon="1.35118">
        <ele>73.6</ele>
        <time>2021-04-14T13:37:45Z</time>
      </trkpt>
      <trkpt lat="49.14612" lon="1.35127">
        <ele>74.8</ele>
        <time>2021-04-14T13:37:50Z</time>
      </trkpt>
      <trkpt lat="49.14609" lon="1.3513">
        <ele>75.2</ele>
        <time>2021-04-14T13:37:52Z</time>
      </trkpt>
      <trkpt lat="49.14604" lon="1.35136">
        <ele>76</ele>
        <time>2021-04-14T13:37:56Z</time>
      </trkpt>
      <trkpt lat="49.146" lon="1.35139">
        <ele>76.4</ele>
        <time>2021-04-14T13:37:58Z</time>
      </trkpt>
      <trkpt lat="49.14596" lon="1.35141">
        <ele>77.2</ele>
        <time>2021-04-14T13:38:01Z</time>
      </trkpt>
      <trkpt lat="49.14589" lon="1.35147">
        <ele>78</ele>
        <time>2021-04-14T13:38:06Z</time>
      </trkpt>
      <trkpt lat="49.14585" lon="1.3515">
        <ele>78.2</ele>
        <time>2021-04-14T13:38:09Z</time>
      </trkpt>
      <trkpt lat="49.1458" lon="1.35152">
        <ele>78.8</ele>
        <time>2021-04-14T13:38:12Z</time>
      </trkpt>
      <trkpt lat="49.14577" lon="1.35155">
        <ele>79.4</ele>
        <time>2021-04-14T13:38:15Z</time>
      </trkpt>
      <trkpt lat="49.14572" lon="1.35159">
        <ele>79.8</ele>
        <time>2021-04-14T13:38:18Z</time>
      </trkpt>
      <trkpt lat="49.14564" lon="1.35163">
        <ele>80.4</ele>
        <time>2021-04-14T13:38:23Z</time>
      </trkpt>
      <trkpt lat="49.14553" lon="1.35169">
        <ele>81.4</ele>
        <time>2021-04-14T13:38:29Z</time>
      </trkpt>
      <trkpt lat="49.14551" lon="1.35171">
        <ele>81.8</ele>
        <time>2021-04-14T13:38:30Z</time>
      </trkpt>
      <trkpt lat="49.14539" lon="1.35177">
        <ele>82.4</ele>
        <time>2021-04-14T13:38:36Z</time>
      </trkpt>
      <trkpt lat="49.14537" lon="1.35178">
        <ele>82.4</ele>
        <time>2021-04-14T13:38:37Z</time>
      </trkpt>
      <trkpt lat="49.14523" lon="1.3519">
        <ele>83.2</ele>
        <time>2021-04-14T13:38:44Z</time>
      </trkpt>
      <trkpt lat="49.1452" lon="1.35193">
        <ele>83.4</ele>
        <time>2021-04-14T13:38:46Z</time>
      </trkpt>
      <trkpt lat="49.14515" lon="1.35197">
        <ele>83.8</ele>
        <time>2021-04-14T13:38:49Z</time>
      </trkpt>
      <trkpt lat="49.14509" lon="1.35203">
        <ele>84.4</ele>
        <time>2021-04-14T13:38:53Z</time>
      </trkpt>
      <trkpt lat="49.14503" lon="1.35208">
        <ele>85</ele>
        <time>2021-04-14T13:38:57Z</time>
      </trkpt>
      <trkpt lat="49.14501" lon="1.35209">
        <ele>85.6</ele>
        <time>2021-04-14T13:38:58Z</time>
      </trkpt>
      <trkpt lat="49.14494" lon="1.35216">
        <ele>86.6</ele>
        <time>2021-04-14T13:39:03Z</time>
      </trkpt>
      <trkpt lat="49.14493" lon="1.35218">
        <ele>86.8</ele>
        <time>2021-04-14T13:39:04Z</time>
      </trkpt>
      <trkpt lat="49.14483" lon="1.35228">
        <ele>87.6</ele>
        <time>2021-04-14T13:39:10Z</time>
      </trkpt>
      <trkpt lat="49.14482" lon="1.3523">
        <ele>87.8</ele>
        <time>2021-04-14T13:39:11Z</time>
      </trkpt>
      <trkpt lat="49.14476" lon="1.35236">
        <ele>88.2</ele>
        <time>2021-04-14T13:39:15Z</time>
      </trkpt>
      <trkpt lat="49.14474" lon="1.35238">
        <ele>88.6</ele>
        <time>2021-04-14T13:39:17Z</time>
      </trkpt>
      <trkpt lat="49.14468" lon="1.35243">
        <ele>89.2</ele>
        <time>2021-04-14T13:39:20Z</time>
      </trkpt>
      <trkpt lat="49.14464" lon="1.35248">
        <ele>89.8</ele>
        <time>2021-04-14T13:39:23Z</time>
      </trkpt>
      <trkpt lat="49.14459" lon="1.35256">
        <ele>90.8</ele>
        <time>2021-04-14T13:39:27Z</time>
      </trkpt>
      <trkpt lat="49.14457" lon="1.35258">
        <ele>91</ele>
        <time>2021-04-14T13:39:28Z</time>
      </trkpt>
      <trkpt lat="49.1445" lon="1.3527">
        <ele>92.2</ele>
        <time>2021-04-14T13:39:33Z</time>
      </trkpt>
      <trkpt lat="49.14442" lon="1.3528">
        <ele>93.2</ele>
        <time>2021-04-14T13:39:38Z</time>
      </trkpt>
      <trkpt lat="49.14437" lon="1.35294">
        <ele>93.8</ele>
        <time>2021-04-14T13:39:42Z</time>
      </trkpt>
      <trkpt lat="49.14433" lon="1.35306">
        <ele>94.2</ele>
        <time>2021-04-14T13:39:45Z</time>
      </trkpt>
      <trkpt lat="49.14429" lon="1.35318">
        <ele>94.8</ele>
        <time>2021-04-14T13:39:48Z</time>
      </trkpt>
      <trkpt lat="49.14423" lon="1.35335">
        <ele>95.4</ele>
        <time>2021-04-14T13:39:52Z</time>
      </trkpt>
      <trkpt lat="49.14421" lon="1.35343">
        <ele>95.8</ele>
        <time>2021-04-14T13:39:54Z</time>
      </trkpt>
      <trkpt lat="49.14419" lon="1.35351">
        <ele>96.4</ele>
        <time>2021-04-14T13:39:56Z</time>
      </trkpt>
      <trkpt lat="49.14414" lon="1.35362">
        <ele>97.2</ele>
        <time>2021-04-14T13:39:59Z</time>
      </trkpt>
      <trkpt lat="49.14402" lon="1.35364">
        <ele>97.4</ele>
        <time>2021-04-14T13:40:03Z</time>
      </trkpt>
      <trkpt lat="49.14388" lon="1.35356">
        <ele>97.4</ele>
        <time>2021-04-14T13:40:07Z</time>
      </trkpt>
      <trkpt lat="49.14385" lon="1.35352">
        <ele>97.6</ele>
        <time>2021-04-14T13:40:08Z</time>
      </trkpt>
      <trkpt lat="49.14375" lon="1.35347">
        <ele>97.6</ele>
        <time>2021-04-14T13:40:10Z</time>
      </trkpt>
      <trkpt lat="49.14371" lon="1.35344">
        <ele>97.6</ele>
        <time>2021-04-14T13:40:11Z</time>
      </trkpt>
      <trkpt lat="49.14365" lon="1.35341">
        <ele>97.6</ele>
        <time>2021-04-14T13:40:12Z</time>
      </trkpt>
      <trkpt lat="49.14347" lon="1.35324">
        <ele>97.6</ele>
        <time>2021-04-14T13:40:15Z</time>
      </trkpt>
      <trkpt lat="49.14335" lon="1.35311">
        <ele>97.6</ele>
        <time>2021-04-14T13:40:17Z</time>
      </trkpt>
      <trkpt lat="49.1432" lon="1.35288">
        <ele>96.8</ele>
        <time>2021-04-14T13:40:20Z</time>
      </trkpt>
      <trkpt lat="49.14314" lon="1.35282">
        <ele>96.4</ele>
        <time>2021-04-14T13:40:21Z</time>
      </trkpt>
      <trkpt lat="49.14307" lon="1.35277">
        <ele>96</ele>
        <time>2021-04-14T13:40:22Z</time>
      </trkpt>
      <trkpt lat="49.14299" lon="1.35273">
        <ele>95.2</ele>
        <time>2021-04-14T13:40:23Z</time>
      </trkpt>
      <trkpt lat="49.14291" lon="1.35269">
        <ele>93.2</ele>
        <time>2021-04-14T13:40:24Z</time>
      </trkpt>
      <trkpt lat="49.14284" lon="1.35264">
        <ele>92.2</ele>
        <time>2021-04-14T13:40:25Z</time>
      </trkpt>
      <trkpt lat="49.1428" lon="1.35261">
        <ele>91.2</ele>
        <time>2021-04-14T13:40:26Z</time>
      </trkpt>
      <trkpt lat="49.14276" lon="1.3526">
        <ele>89.2</ele>
        <time>2021-04-14T13:40:28Z</time>
      </trkpt>
      <trkpt lat="49.14275" lon="1.35263">
        <ele>88.2</ele>
        <time>2021-04-14T13:40:29Z</time>
      </trkpt>
      <trkpt lat="49.14275" lon="1.35267">
        <ele>86.8</ele>
        <time>2021-04-14T13:40:30Z</time>
      </trkpt>
      <trkpt lat="49.14275" lon="1.3527">
        <ele>85.4</ele>
        <time>2021-04-14T13:40:31Z</time>
      </trkpt>
      <trkpt lat="49.14275" lon="1.35273">
        <ele>84.2</ele>
        <time>2021-04-14T13:40:32Z</time>
      </trkpt>
      <trkpt lat="49.14275" lon="1.35277">
        <ele>83</ele>
        <time>2021-04-14T13:40:33Z</time>
      </trkpt>
      <trkpt lat="49.14275" lon="1.35283">
        <ele>81.6</ele>
        <time>2021-04-14T13:40:35Z</time>
      </trkpt>
      <trkpt lat="49.14276" lon="1.35297">
        <ele>81.2</ele>
        <time>2021-04-14T13:40:41Z</time>
      </trkpt>
      <trkpt lat="49.14277" lon="1.35314">
        <ele>82.2</ele>
        <time>2021-04-14T13:40:47Z</time>
      </trkpt>
      <trkpt lat="49.14277" lon="1.35317">
        <ele>82.6</ele>
        <time>2021-04-14T13:40:48Z</time>
      </trkpt>
      <trkpt lat="49.14277" lon="1.3532">
        <ele>82.8</ele>
        <time>2021-04-14T13:40:49Z</time>
      </trkpt>
      <trkpt lat="49.14277" lon="1.35327">
        <ele>83.6</ele>
        <time>2021-04-14T13:40:51Z</time>
      </trkpt>
      <trkpt lat="49.14276" lon="1.35329">
        <ele>84</ele>
        <time>2021-04-14T13:40:52Z</time>
      </trkpt>
      <trkpt lat="49.14274" lon="1.35337">
        <ele>85</ele>
        <time>2021-04-14T13:40:55Z</time>
      </trkpt>
      <trkpt lat="49.14269" lon="1.35348">
        <ele>86.2</ele>
        <time>2021-04-14T13:40:59Z</time>
      </trkpt>
      <trkpt lat="49.14264" lon="1.3536">
        <ele>87</ele>
        <time>2021-04-14T13:41:02Z</time>
      </trkpt>
      <trkpt lat="49.14253" lon="1.35373">
        <ele>87.2</ele>
        <time>2021-04-14T13:41:06Z</time>
      </trkpt>
      <trkpt lat="49.14238" lon="1.35368">
        <ele>87.2</ele>
        <time>2021-04-14T13:41:09Z</time>
      </trkpt>
      <trkpt lat="49.14232" lon="1.35363">
        <ele>87.2</ele>
        <time>2021-04-14T13:41:10Z</time>
      </trkpt>
      <trkpt lat="49.14218" lon="1.3535">
        <ele>87.2</ele>
        <time>2021-04-14T13:41:12Z</time>
      </trkpt>
      <trkpt lat="49.14199" lon="1.35329">
        <ele>86.8</ele>
        <time>2021-04-14T13:41:15Z</time>
      </trkpt>
      <trkpt lat="49.14194" lon="1.35321">
        <ele>86.6</ele>
        <time>2021-04-14T13:41:16Z</time>
      </trkpt>
      <trkpt lat="49.14178" lon="1.35303">
        <ele>84.6</ele>
        <time>2021-04-14T13:41:19Z</time>
      </trkpt>
      <trkpt lat="49.14173" lon="1.35298">
        <ele>83.4</ele>
        <time>2021-04-14T13:41:20Z</time>
      </trkpt>
      <trkpt lat="49.14168" lon="1.35293">
        <ele>82</ele>
        <time>2021-04-14T13:41:21Z</time>
      </trkpt>
      <trkpt lat="49.14163" lon="1.35288">
        <ele>79.4</ele>
        <time>2021-04-14T13:41:22Z</time>
      </trkpt>
      <trkpt lat="49.14159" lon="1.35283">
        <ele>78</ele>
        <time>2021-04-14T13:41:23Z</time>
      </trkpt>
      <trkpt lat="49.14155" lon="1.3528">
        <ele>76.6</ele>
        <time>2021-04-14T13:41:24Z</time>
      </trkpt>
      <trkpt lat="49.14153" lon="1.35279">
        <ele>75.2</ele>
        <time>2021-04-14T13:41:25Z</time>
      </trkpt>
      <trkpt lat="49.14151" lon="1.35281">
        <ele>73.6</ele>
        <time>2021-04-14T13:41:26Z</time>
      </trkpt>
      <trkpt lat="49.14148" lon="1.35285">
        <ele>72</ele>
        <time>2021-04-14T13:41:27Z</time>
      </trkpt>
      <trkpt lat="49.14146" lon="1.3529">
        <ele>70.4</ele>
        <time>2021-04-14T13:41:28Z</time>
      </trkpt>
      <trkpt lat="49.14146" lon="1.35293">
        <ele>68.6</ele>
        <time>2021-04-14T13:41:29Z</time>
      </trkpt>
      <trkpt lat="49.14145" lon="1.35297">
        <ele>67</ele>
        <time>2021-04-14T13:41:30Z</time>
      </trkpt>
      <trkpt lat="49.14145" lon="1.35301">
        <ele>65.4</ele>
        <time>2021-04-14T13:41:31Z</time>
      </trkpt>
      <trkpt lat="49.14144" lon="1.35305">
        <ele>63.8</ele>
        <time>2021-04-14T13:41:32Z</time>
      </trkpt>
      <trkpt lat="49.14144" lon="1.35309">
        <ele>62.4</ele>
        <time>2021-04-14T13:41:33Z</time>
      </trkpt>
      <trkpt lat="49.14143" lon="1.3532">
        <ele>61.2</ele>
        <time>2021-04-14T13:41:35Z</time>
      </trkpt>
      <trkpt lat="49.14138" lon="1.3534">
        <ele>60.6</ele>
        <time>2021-04-14T13:41:39Z</time>
      </trkpt>
      <trkpt lat="49.14135" lon="1.35358">
        <ele>60.6</ele>
        <time>2021-04-14T13:41:43Z</time>
      </trkpt>
      <trkpt lat="49.14134" lon="1.35362">
        <ele>60.8</ele>
        <time>2021-04-14T13:41:44Z</time>
      </trkpt>
      <trkpt lat="49.14131" lon="1.35384">
        <ele>61.4</ele>
        <time>2021-04-14T13:41:48Z</time>
      </trkpt>
      <trkpt lat="49.14128" lon="1.35403">
        <ele>62.2</ele>
        <time>2021-04-14T13:41:52Z</time>
      </trkpt>
      <trkpt lat="49.14127" lon="1.35409">
        <ele>62.2</ele>
        <time>2021-04-14T13:41:53Z</time>
      </trkpt>
      <trkpt lat="49.14121" lon="1.35442">
        <ele>63.2</ele>
        <time>2021-04-14T13:41:59Z</time>
      </trkpt>
      <trkpt lat="49.14121" lon="1.35447">
        <ele>63.4</ele>
        <time>2021-04-14T13:42:00Z</time>
      </trkpt>
      <trkpt lat="49.14117" lon="1.35474">
        <ele>63.8</ele>
        <time>2021-04-14T13:42:05Z</time>
      </trkpt>
      <trkpt lat="49.14115" lon="1.35483">
        <ele>64.2</ele>
        <time>2021-04-14T13:42:07Z</time>
      </trkpt>
      <trkpt lat="49.14111" lon="1.355">
        <ele>64.8</ele>
        <time>2021-04-14T13:42:10Z</time>
      </trkpt>
      <trkpt lat="49.14106" lon="1.35516">
        <ele>65</ele>
        <time>2021-04-14T13:42:13Z</time>
      </trkpt>
      <trkpt lat="49.14099" lon="1.3553">
        <ele>65.6</ele>
        <time>2021-04-14T13:42:16Z</time>
      </trkpt>
      <trkpt lat="49.14093" lon="1.35545">
        <ele>66.2</ele>
        <time>2021-04-14T13:42:19Z</time>
      </trkpt>
      <trkpt lat="49.14087" lon="1.35557">
        <ele>66.4</ele>
        <time>2021-04-14T13:42:22Z</time>
      </trkpt>
      <trkpt lat="49.1408" lon="1.35573">
        <ele>66.8</ele>
        <time>2021-04-14T13:42:27Z</time>
      </trkpt>
      <trkpt lat="49.14078" lon="1.35586">
        <ele>67.2</ele>
        <time>2021-04-14T13:42:31Z</time>
      </trkpt>
      <trkpt lat="49.14078" lon="1.35589">
        <ele>67.4</ele>
        <time>2021-04-14T13:42:32Z</time>
      </trkpt>
      <trkpt lat="49.14075" lon="1.35598">
        <ele>68.4</ele>
        <time>2021-04-14T13:42:36Z</time>
      </trkpt>
      <trkpt lat="49.14073" lon="1.35601">
        <ele>69</ele>
        <time>2021-04-14T13:42:38Z</time>
      </trkpt>
      <trkpt lat="49.14071" lon="1.35603">
        <ele>69.4</ele>
        <time>2021-04-14T13:42:39Z</time>
      </trkpt>
      <trkpt lat="49.14067" lon="1.3561">
        <ele>70.8</ele>
        <time>2021-04-14T13:42:42Z</time>
      </trkpt>
      <trkpt lat="49.14066" lon="1.35613">
        <ele>71</ele>
        <time>2021-04-14T13:42:43Z</time>
      </trkpt>
      <trkpt lat="49.14064" lon="1.35619">
        <ele>71.8</ele>
        <time>2021-04-14T13:42:45Z</time>
      </trkpt>
      <trkpt lat="49.14059" lon="1.35628">
        <ele>72.6</ele>
        <time>2021-04-14T13:42:48Z</time>
      </trkpt>
      <trkpt lat="49.14058" lon="1.35631">
        <ele>72.6</ele>
        <time>2021-04-14T13:42:49Z</time>
      </trkpt>
      <trkpt lat="49.14056" lon="1.35633">
        <ele>73</ele>
        <time>2021-04-14T13:42:50Z</time>
      </trkpt>
      <trkpt lat="49.14049" lon="1.35639">
        <ele>73.8</ele>
        <time>2021-04-14T13:42:54Z</time>
      </trkpt>
      <trkpt lat="49.14046" lon="1.35639">
        <ele>74</ele>
        <time>2021-04-14T13:42:55Z</time>
      </trkpt>
      <trkpt lat="49.14041" lon="1.35643">
        <ele>74.4</ele>
        <time>2021-04-14T13:42:57Z</time>
      </trkpt>
      <trkpt lat="49.14034" lon="1.35656">
        <ele>74.6</ele>
        <time>2021-04-14T13:43:01Z</time>
      </trkpt>
      <trkpt lat="49.14027" lon="1.35679">
        <ele>75</ele>
        <time>2021-04-14T13:43:06Z</time>
      </trkpt>
      <trkpt lat="49.14021" lon="1.35693">
        <ele>75</ele>
        <time>2021-04-14T13:43:09Z</time>
      </trkpt>
      <trkpt lat="49.14018" lon="1.35698">
        <ele>75.2</ele>
        <time>2021-04-14T13:43:10Z</time>
      </trkpt>
      <trkpt lat="49.14005" lon="1.35717">
        <ele>75.4</ele>
        <time>2021-04-14T13:43:15Z</time>
      </trkpt>
      <trkpt lat="49.13989" lon="1.35741">
        <ele>75.6</ele>
        <time>2021-04-14T13:43:22Z</time>
      </trkpt>
      <trkpt lat="49.13983" lon="1.35749">
        <ele>76</ele>
        <time>2021-04-14T13:43:25Z</time>
      </trkpt>
      <trkpt lat="49.1398" lon="1.35753">
        <ele>76.2</ele>
        <time>2021-04-14T13:43:27Z</time>
      </trkpt>
      <trkpt lat="49.13977" lon="1.35757">
        <ele>76.8</ele>
        <time>2021-04-14T13:43:29Z</time>
      </trkpt>
      <trkpt lat="49.13973" lon="1.35762">
        <ele>77.2</ele>
        <time>2021-04-14T13:43:31Z</time>
      </trkpt>
      <trkpt lat="49.13972" lon="1.35765">
        <ele>77.8</ele>
        <time>2021-04-14T13:43:32Z</time>
      </trkpt>
      <trkpt lat="49.13969" lon="1.35771">
        <ele>78.4</ele>
        <time>2021-04-14T13:43:34Z</time>
      </trkpt>
      <trkpt lat="49.13962" lon="1.35783">
        <ele>79.4</ele>
        <time>2021-04-14T13:43:38Z</time>
      </trkpt>
      <trkpt lat="49.13961" lon="1.35787">
        <ele>79.6</ele>
        <time>2021-04-14T13:43:39Z</time>
      </trkpt>
      <trkpt lat="49.13955" lon="1.35803">
        <ele>80.2</ele>
        <time>2021-04-14T13:43:44Z</time>
      </trkpt>
      <trkpt lat="49.1395" lon="1.35816">
        <ele>80.6</ele>
        <time>2021-04-14T13:43:47Z</time>
      </trkpt>
      <trkpt lat="49.13946" lon="1.35825">
        <ele>81</ele>
        <time>2021-04-14T13:43:50Z</time>
      </trkpt>
      <trkpt lat="49.13938" lon="1.35842">
        <ele>81.6</ele>
        <time>2021-04-14T13:43:56Z</time>
      </trkpt>
      <trkpt lat="49.13937" lon="1.35845">
        <ele>81.8</ele>
        <time>2021-04-14T13:43:57Z</time>
      </trkpt>
      <trkpt lat="49.13929" lon="1.35864">
        <ele>82.6</ele>
        <time>2021-04-14T13:44:03Z</time>
      </trkpt>
      <trkpt lat="49.13928" lon="1.35868">
        <ele>83</ele>
        <time>2021-04-14T13:44:04Z</time>
      </trkpt>
      <trkpt lat="49.13923" lon="1.35878">
        <ele>83.6</ele>
        <time>2021-04-14T13:44:08Z</time>
      </trkpt>
      <trkpt lat="49.13919" lon="1.3589">
        <ele>83.8</ele>
        <time>2021-04-14T13:44:12Z</time>
      </trkpt>
      <trkpt lat="49.13915" lon="1.359">
        <ele>84.8</ele>
        <time>2021-04-14T13:44:15Z</time>
      </trkpt>
      <trkpt lat="49.13913" lon="1.35905">
        <ele>85</ele>
        <time>2021-04-14T13:44:17Z</time>
      </trkpt>
      <trkpt lat="49.13907" lon="1.35919">
        <ele>85.6</ele>
        <time>2021-04-14T13:44:21Z</time>
      </trkpt>
      <trkpt lat="49.13899" lon="1.35941">
        <ele>85.8</ele>
        <time>2021-04-14T13:44:26Z</time>
      </trkpt>
      <trkpt lat="49.13897" lon="1.35951">
        <ele>86</ele>
        <time>2021-04-14T13:44:28Z</time>
      </trkpt>
      <trkpt lat="49.13894" lon="1.35962">
        <ele>86.2</ele>
        <time>2021-04-14T13:44:31Z</time>
      </trkpt>
      <trkpt lat="49.13888" lon="1.3598">
        <ele>87</ele>
        <time>2021-04-14T13:44:37Z</time>
      </trkpt>
      <trkpt lat="49.13887" lon="1.35983">
        <ele>87.2</ele>
        <time>2021-04-14T13:44:38Z</time>
      </trkpt>
      <trkpt lat="49.13886" lon="1.35993">
        <ele>88.6</ele>
        <time>2021-04-14T13:44:42Z</time>
      </trkpt>
      <trkpt lat="49.13886" lon="1.35995">
        <ele>88.8</ele>
        <time>2021-04-14T13:44:43Z</time>
      </trkpt>
      <trkpt lat="49.13884" lon="1.36001">
        <ele>89.6</ele>
        <time>2021-04-14T13:44:46Z</time>
      </trkpt>
      <trkpt lat="49.13882" lon="1.36006">
        <ele>90</ele>
        <time>2021-04-14T13:44:48Z</time>
      </trkpt>
      <trkpt lat="49.13881" lon="1.36012">
        <ele>90.6</ele>
        <time>2021-04-14T13:44:50Z</time>
      </trkpt>
      <trkpt lat="49.1388" lon="1.36015">
        <ele>90.8</ele>
        <time>2021-04-14T13:44:51Z</time>
      </trkpt>
      <trkpt lat="49.13882" lon="1.36026">
        <ele>91.6</ele>
        <time>2021-04-14T13:44:55Z</time>
      </trkpt>
      <trkpt lat="49.13886" lon="1.36031">
        <ele>92.4</ele>
        <time>2021-04-14T13:44:58Z</time>
      </trkpt>
      <trkpt lat="49.13888" lon="1.36033">
        <ele>92.8</ele>
        <time>2021-04-14T13:45:00Z</time>
      </trkpt>
      <trkpt lat="49.13889" lon="1.36034">
        <ele>93</ele>
        <time>2021-04-14T13:45:01Z</time>
      </trkpt>
      <trkpt lat="49.13898" lon="1.36038">
        <ele>93.8</ele>
        <time>2021-04-14T13:45:06Z</time>
      </trkpt>
      <trkpt lat="49.139" lon="1.36039">
        <ele>94.2</ele>
        <time>2021-04-14T13:45:07Z</time>
      </trkpt>
      <trkpt lat="49.13906" lon="1.36044">
        <ele>95</ele>
        <time>2021-04-14T13:45:12Z</time>
      </trkpt>
      <trkpt lat="49.13912" lon="1.36049">
        <ele>95.8</ele>
        <time>2021-04-14T13:45:16Z</time>
      </trkpt>
      <trkpt lat="49.13914" lon="1.3605">
        <ele>96.2</ele>
        <time>2021-04-14T13:45:18Z</time>
      </trkpt>
      <trkpt lat="49.13918" lon="1.36053">
        <ele>97.2</ele>
        <time>2021-04-14T13:45:22Z</time>
      </trkpt>
      <trkpt lat="49.13924" lon="1.36057">
        <ele>98.4</ele>
        <time>2021-04-14T13:45:26Z</time>
      </trkpt>
      <trkpt lat="49.13928" lon="1.3606">
        <ele>99.4</ele>
        <time>2021-04-14T13:45:29Z</time>
      </trkpt>
      <trkpt lat="49.13929" lon="1.36061">
        <ele>99.8</ele>
        <time>2021-04-14T13:45:30Z</time>
      </trkpt>
      <trkpt lat="49.13935" lon="1.36065">
        <ele>100.6</ele>
        <time>2021-04-14T13:45:34Z</time>
      </trkpt>
      <trkpt lat="49.13937" lon="1.36065">
        <ele>101</ele>
        <time>2021-04-14T13:45:35Z</time>
      </trkpt>
      <trkpt lat="49.13942" lon="1.36067">
        <ele>101.8</ele>
        <time>2021-04-14T13:45:38Z</time>
      </trkpt>
      <trkpt lat="49.13945" lon="1.36068">
        <ele>102.4</ele>
        <time>2021-04-14T13:45:40Z</time>
      </trkpt>
      <trkpt lat="49.13949" lon="1.36069">
        <ele>103</ele>
        <time>2021-04-14T13:45:42Z</time>
      </trkpt>
      <trkpt lat="49.13958" lon="1.36072">
        <ele>104</ele>
        <time>2021-04-14T13:45:47Z</time>
      </trkpt>
      <trkpt lat="49.13972" lon="1.36071">
        <ele>105</ele>
        <time>2021-04-14T13:45:53Z</time>
      </trkpt>
      <trkpt lat="49.13974" lon="1.36071">
        <ele>105.2</ele>
        <time>2021-04-14T13:45:54Z</time>
      </trkpt>
      <trkpt lat="49.13981" lon="1.36073">
        <ele>106.2</ele>
        <time>2021-04-14T13:45:57Z</time>
      </trkpt>
      <trkpt lat="49.13989" lon="1.36072">
        <ele>106.6</ele>
        <time>2021-04-14T13:46:00Z</time>
      </trkpt>
      <trkpt lat="49.14" lon="1.36074">
        <ele>107</ele>
        <time>2021-04-14T13:46:04Z</time>
      </trkpt>
      <trkpt lat="49.14002" lon="1.36073">
        <ele>107.2</ele>
        <time>2021-04-14T13:46:05Z</time>
      </trkpt>
      <trkpt lat="49.14013" lon="1.36074">
        <ele>107.6</ele>
        <time>2021-04-14T13:46:09Z</time>
      </trkpt>
      <trkpt lat="49.14024" lon="1.36075">
        <ele>107.8</ele>
        <time>2021-04-14T13:46:13Z</time>
      </trkpt>
      <trkpt lat="49.14027" lon="1.36076">
        <ele>108</ele>
        <time>2021-04-14T13:46:14Z</time>
      </trkpt>
      <trkpt lat="49.14032" lon="1.36076">
        <ele>108.2</ele>
        <time>2021-04-14T13:46:16Z</time>
      </trkpt>
      <trkpt lat="49.14042" lon="1.36079">
        <ele>109</ele>
        <time>2021-04-14T13:46:20Z</time>
      </trkpt>
      <trkpt lat="49.14044" lon="1.36079">
        <ele>109.4</ele>
        <time>2021-04-14T13:46:21Z</time>
      </trkpt>
      <trkpt lat="49.14054" lon="1.36082">
        <ele>110.4</ele>
        <time>2021-04-14T13:46:26Z</time>
      </trkpt>
      <trkpt lat="49.14063" lon="1.36083">
        <ele>111.4</ele>
        <time>2021-04-14T13:46:31Z</time>
      </trkpt>
      <trkpt lat="49.14068" lon="1.36083">
        <ele>111.8</ele>
        <time>2021-04-14T13:46:33Z</time>
      </trkpt>
      <trkpt lat="49.14077" lon="1.36085">
        <ele>112.6</ele>
        <time>2021-04-14T13:46:37Z</time>
      </trkpt>
      <trkpt lat="49.14079" lon="1.36086">
        <ele>112.8</ele>
        <time>2021-04-14T13:46:38Z</time>
      </trkpt>
      <trkpt lat="49.14088" lon="1.36089">
        <ele>113.6</ele>
        <time>2021-04-14T13:46:42Z</time>
      </trkpt>
      <trkpt lat="49.14095" lon="1.36092">
        <ele>114.2</ele>
        <time>2021-04-14T13:46:45Z</time>
      </trkpt>
      <trkpt lat="49.14099" lon="1.36095">
        <ele>114.8</ele>
        <time>2021-04-14T13:46:47Z</time>
      </trkpt>
      <trkpt lat="49.14106" lon="1.361">
        <ele>116</ele>
        <time>2021-04-14T13:46:51Z</time>
      </trkpt>
      <trkpt lat="49.14107" lon="1.3611">
        <ele>116.8</ele>
        <time>2021-04-14T13:46:55Z</time>
      </trkpt>
      <trkpt lat="49.14105" lon="1.36117">
        <ele>117</ele>
        <time>2021-04-14T13:46:58Z</time>
      </trkpt>
      <trkpt lat="49.14103" lon="1.36121">
        <ele>117.4</ele>
        <time>2021-04-14T13:47:00Z</time>
      </trkpt>
      <trkpt lat="49.14102" lon="1.36124">
        <ele>117.6</ele>
        <time>2021-04-14T13:47:01Z</time>
      </trkpt>
      <trkpt lat="49.141" lon="1.3613">
        <ele>117.8</ele>
        <time>2021-04-14T13:47:03Z</time>
      </trkpt>
      <trkpt lat="49.14099" lon="1.36137">
        <ele>118.2</ele>
        <time>2021-04-14T13:47:05Z</time>
      </trkpt>
      <trkpt lat="49.1409" lon="1.36151">
        <ele>118.4</ele>
        <time>2021-04-14T13:47:10Z</time>
      </trkpt>
      <trkpt lat="49.14085" lon="1.36159">
        <ele>118.8</ele>
        <time>2021-04-14T13:47:13Z</time>
      </trkpt>
      <trkpt lat="49.14082" lon="1.36165">
        <ele>119.2</ele>
        <time>2021-04-14T13:47:15Z</time>
      </trkpt>
      <trkpt lat="49.14079" lon="1.36171">
        <ele>119.2</ele>
        <time>2021-04-14T13:47:17Z</time>
      </trkpt>
      <trkpt lat="49.14076" lon="1.3618">
        <ele>119.6</ele>
        <time>2021-04-14T13:47:20Z</time>
      </trkpt>
      <trkpt lat="49.1407" lon="1.36189">
        <ele>120</ele>
        <time>2021-04-14T13:47:23Z</time>
      </trkpt>
      <trkpt lat="49.14069" lon="1.36194">
        <ele>120.2</ele>
        <time>2021-04-14T13:47:24Z</time>
      </trkpt>
      <trkpt lat="49.14068" lon="1.36198">
        <ele>120.4</ele>
        <time>2021-04-14T13:47:25Z</time>
      </trkpt>
      <trkpt lat="49.14059" lon="1.36224">
        <ele>121</ele>
        <time>2021-04-14T13:47:31Z</time>
      </trkpt>
      <trkpt lat="49.14056" lon="1.36232">
        <ele>121.2</ele>
        <time>2021-04-14T13:47:33Z</time>
      </trkpt>
      <trkpt lat="49.14052" lon="1.36242">
        <ele>121.6</ele>
        <time>2021-04-14T13:47:36Z</time>
      </trkpt>
      <trkpt lat="49.14041" lon="1.36259">
        <ele>122</ele>
        <time>2021-04-14T13:47:41Z</time>
      </trkpt>
      <trkpt lat="49.1404" lon="1.36262">
        <ele>122.2</ele>
        <time>2021-04-14T13:47:42Z</time>
      </trkpt>
      <trkpt lat="49.14032" lon="1.36277">
        <ele>123.2</ele>
        <time>2021-04-14T13:47:46Z</time>
      </trkpt>
      <trkpt lat="49.14029" lon="1.36287">
        <ele>123.6</ele>
        <time>2021-04-14T13:47:48Z</time>
      </trkpt>
      <trkpt lat="49.14012" lon="1.36324">
        <ele>124</ele>
        <time>2021-04-14T13:47:55Z</time>
      </trkpt>
      <trkpt lat="49.13993" lon="1.36358">
        <ele>123.6</ele>
        <time>2021-04-14T13:48:02Z</time>
      </trkpt>
      <trkpt lat="49.13976" lon="1.36393">
        <ele>123.6</ele>
        <time>2021-04-14T13:48:09Z</time>
      </trkpt>
      <trkpt lat="49.13975" lon="1.36398">
        <ele>123.6</ele>
        <time>2021-04-14T13:48:10Z</time>
      </trkpt>
      <trkpt lat="49.13977" lon="1.36406">
        <ele>123.6</ele>
        <time>2021-04-14T13:48:12Z</time>
      </trkpt>
      <trkpt lat="49.1399" lon="1.36413">
        <ele>124</ele>
        <time>2021-04-14T13:48:16Z</time>
      </trkpt>
      <trkpt lat="49.13998" lon="1.36413">
        <ele>124.2</ele>
        <time>2021-04-14T13:48:18Z</time>
      </trkpt>
      <trkpt lat="49.14013" lon="1.36413">
        <ele>124.4</ele>
        <time>2021-04-14T13:48:21Z</time>
      </trkpt>
      <trkpt lat="49.14041" lon="1.36411">
        <ele>124.4</ele>
        <time>2021-04-14T13:48:26Z</time>
      </trkpt>
      <trkpt lat="49.14064" lon="1.36407">
        <ele>124</ele>
        <time>2021-04-14T13:48:30Z</time>
      </trkpt>
      <trkpt lat="49.14073" lon="1.36411">
        <ele>123.4</ele>
        <time>2021-04-14T13:48:32Z</time>
      </trkpt>
      <trkpt lat="49.14083" lon="1.36416">
        <ele>122.8</ele>
        <time>2021-04-14T13:48:34Z</time>
      </trkpt>
      <trkpt lat="49.14095" lon="1.3642">
        <ele>122.2</ele>
        <time>2021-04-14T13:48:36Z</time>
      </trkpt>
      <trkpt lat="49.14106" lon="1.36426">
        <ele>121.6</ele>
        <time>2021-04-14T13:48:38Z</time>
      </trkpt>
      <trkpt lat="49.14111" lon="1.36428">
        <ele>121.2</ele>
        <time>2021-04-14T13:48:39Z</time>
      </trkpt>
      <trkpt lat="49.14117" lon="1.3643">
        <ele>120.8</ele>
        <time>2021-04-14T13:48:40Z</time>
      </trkpt>
      <trkpt lat="49.14123" lon="1.36431">
        <ele>120.6</ele>
        <time>2021-04-14T13:48:41Z</time>
      </trkpt>
      <trkpt lat="49.14134" lon="1.36428">
        <ele>119.8</ele>
        <time>2021-04-14T13:48:43Z</time>
      </trkpt>
      <trkpt lat="49.1414" lon="1.36426">
        <ele>119.4</ele>
        <time>2021-04-14T13:48:44Z</time>
      </trkpt>
      <trkpt lat="49.14146" lon="1.36423">
        <ele>119</ele>
        <time>2021-04-14T13:48:45Z</time>
      </trkpt>
      <trkpt lat="49.14157" lon="1.36415">
        <ele>118.2</ele>
        <time>2021-04-14T13:48:47Z</time>
      </trkpt>
      <trkpt lat="49.14163" lon="1.36408">
        <ele>117.8</ele>
        <time>2021-04-14T13:48:48Z</time>
      </trkpt>
      <trkpt lat="49.14174" lon="1.36399">
        <ele>116.8</ele>
        <time>2021-04-14T13:48:50Z</time>
      </trkpt>
      <trkpt lat="49.1418" lon="1.36398">
        <ele>116.2</ele>
        <time>2021-04-14T13:48:51Z</time>
      </trkpt>
      <trkpt lat="49.14187" lon="1.364">
        <ele>115.4</ele>
        <time>2021-04-14T13:48:52Z</time>
      </trkpt>
      <trkpt lat="49.14195" lon="1.36402">
        <ele>114.6</ele>
        <time>2021-04-14T13:48:53Z</time>
      </trkpt>
      <trkpt lat="49.14203" lon="1.36405">
        <ele>113.8</ele>
        <time>2021-04-14T13:48:54Z</time>
      </trkpt>
      <trkpt lat="49.14219" lon="1.3641">
        <ele>112</ele>
        <time>2021-04-14T13:48:56Z</time>
      </trkpt>
      <trkpt lat="49.14234" lon="1.36416">
        <ele>110.2</ele>
        <time>2021-04-14T13:48:58Z</time>
      </trkpt>
      <trkpt lat="49.1424" lon="1.3642">
        <ele>108.4</ele>
        <time>2021-04-14T13:48:59Z</time>
      </trkpt>
      <trkpt lat="49.14243" lon="1.36426">
        <ele>107.2</ele>
        <time>2021-04-14T13:49:00Z</time>
      </trkpt>
      <trkpt lat="49.14246" lon="1.36434">
        <ele>106.2</ele>
        <time>2021-04-14T13:49:01Z</time>
      </trkpt>
      <trkpt lat="49.14246" lon="1.36442">
        <ele>104.8</ele>
        <time>2021-04-14T13:49:02Z</time>
      </trkpt>
      <trkpt lat="49.14247" lon="1.36451">
        <ele>103.8</ele>
        <time>2021-04-14T13:49:03Z</time>
      </trkpt>
      <trkpt lat="49.14247" lon="1.36459">
        <ele>102.6</ele>
        <time>2021-04-14T13:49:04Z</time>
      </trkpt>
      <trkpt lat="49.14247" lon="1.36471">
        <ele>101.2</ele>
        <time>2021-04-14T13:49:06Z</time>
      </trkpt>
      <trkpt lat="49.14247" lon="1.36476">
        <ele>100.8</ele>
        <time>2021-04-14T13:49:07Z</time>
      </trkpt>
      <trkpt lat="49.14249" lon="1.36502">
        <ele>100.6</ele>
        <time>2021-04-14T13:49:12Z</time>
      </trkpt>
      <trkpt lat="49.1425" lon="1.3654">
        <ele>101.8</ele>
        <time>2021-04-14T13:49:18Z</time>
      </trkpt>
      <trkpt lat="49.14252" lon="1.36555">
        <ele>102.2</ele>
        <time>2021-04-14T13:49:20Z</time>
      </trkpt>
      <trkpt lat="49.14252" lon="1.36563">
        <ele>102.2</ele>
        <time>2021-04-14T13:49:21Z</time>
      </trkpt>
      <trkpt lat="49.14252" lon="1.36588">
        <ele>102.2</ele>
        <time>2021-04-14T13:49:24Z</time>
      </trkpt>
      <trkpt lat="49.14247" lon="1.36622">
        <ele>102.2</ele>
        <time>2021-04-14T13:49:28Z</time>
      </trkpt>
      <trkpt lat="49.14248" lon="1.36627">
        <ele>102.2</ele>
        <time>2021-04-14T13:49:29Z</time>
      </trkpt>
      <trkpt lat="49.14257" lon="1.36634">
        <ele>101.6</ele>
        <time>2021-04-14T13:49:32Z</time>
      </trkpt>
      <trkpt lat="49.14272" lon="1.36626">
        <ele>101</ele>
        <time>2021-04-14T13:49:35Z</time>
      </trkpt>
      <trkpt lat="49.14292" lon="1.36606">
        <ele>100.6</ele>
        <time>2021-04-14T13:49:39Z</time>
      </trkpt>
      <trkpt lat="49.14303" lon="1.36593">
        <ele>99.8</ele>
        <time>2021-04-14T13:49:41Z</time>
      </trkpt>
      <trkpt lat="49.1431" lon="1.36588">
        <ele>99.2</ele>
        <time>2021-04-14T13:49:42Z</time>
      </trkpt>
      <trkpt lat="49.14315" lon="1.36584">
        <ele>98.6</ele>
        <time>2021-04-14T13:49:43Z</time>
      </trkpt>
      <trkpt lat="49.14325" lon="1.36575">
        <ele>97.4</ele>
        <time>2021-04-14T13:49:45Z</time>
      </trkpt>
      <trkpt lat="49.1433" lon="1.36571">
        <ele>96.6</ele>
        <time>2021-04-14T13:49:46Z</time>
      </trkpt>
      <trkpt lat="49.14337" lon="1.36567">
        <ele>95.8</ele>
        <time>2021-04-14T13:49:47Z</time>
      </trkpt>
      <trkpt lat="49.14351" lon="1.36559">
        <ele>94.2</ele>
        <time>2021-04-14T13:49:49Z</time>
      </trkpt>
      <trkpt lat="49.14358" lon="1.36554">
        <ele>93.6</ele>
        <time>2021-04-14T13:49:50Z</time>
      </trkpt>
      <trkpt lat="49.14366" lon="1.3655">
        <ele>93</ele>
        <time>2021-04-14T13:49:51Z</time>
      </trkpt>
      <trkpt lat="49.14392" lon="1.3654">
        <ele>91.8</ele>
        <time>2021-04-14T13:49:54Z</time>
      </trkpt>
      <trkpt lat="49.1441" lon="1.36535">
        <ele>89.8</ele>
        <time>2021-04-14T13:49:56Z</time>
      </trkpt>
      <trkpt lat="49.14427" lon="1.36528">
        <ele>88.4</ele>
        <time>2021-04-14T13:49:58Z</time>
      </trkpt>
      <trkpt lat="49.14433" lon="1.36526">
        <ele>87.6</ele>
        <time>2021-04-14T13:49:59Z</time>
      </trkpt>
      <trkpt lat="49.14438" lon="1.36525">
        <ele>86.4</ele>
        <time>2021-04-14T13:50:00Z</time>
      </trkpt>
      <trkpt lat="49.14441" lon="1.36527">
        <ele>85.2</ele>
        <time>2021-04-14T13:50:01Z</time>
      </trkpt>
      <trkpt lat="49.14443" lon="1.3653">
        <ele>84.2</ele>
        <time>2021-04-14T13:50:02Z</time>
      </trkpt>
      <trkpt lat="49.14445" lon="1.36536">
        <ele>83</ele>
        <time>2021-04-14T13:50:03Z</time>
      </trkpt>
      <trkpt lat="49.14447" lon="1.36543">
        <ele>81.8</ele>
        <time>2021-04-14T13:50:04Z</time>
      </trkpt>
      <trkpt lat="49.14448" lon="1.3655">
        <ele>80.8</ele>
        <time>2021-04-14T13:50:05Z</time>
      </trkpt>
      <trkpt lat="49.14451" lon="1.36554">
        <ele>79.6</ele>
        <time>2021-04-14T13:50:06Z</time>
      </trkpt>
      <trkpt lat="49.14454" lon="1.36557">
        <ele>78.8</ele>
        <time>2021-04-14T13:50:07Z</time>
      </trkpt>
      <trkpt lat="49.14459" lon="1.36559">
        <ele>78.4</ele>
        <time>2021-04-14T13:50:08Z</time>
      </trkpt>
      <trkpt lat="49.14465" lon="1.3656">
        <ele>78</ele>
        <time>2021-04-14T13:50:09Z</time>
      </trkpt>
      <trkpt lat="49.14471" lon="1.36562">
        <ele>77.6</ele>
        <time>2021-04-14T13:50:10Z</time>
      </trkpt>
      <trkpt lat="49.14484" lon="1.36571">
        <ele>77.2</ele>
        <time>2021-04-14T13:50:12Z</time>
      </trkpt>
      <trkpt lat="49.1449" lon="1.36577">
        <ele>77</ele>
        <time>2021-04-14T13:50:13Z</time>
      </trkpt>
      <trkpt lat="49.14495" lon="1.36583">
        <ele>76.6</ele>
        <time>2021-04-14T13:50:14Z</time>
      </trkpt>
      <trkpt lat="49.145" lon="1.36586">
        <ele>76.4</ele>
        <time>2021-04-14T13:50:15Z</time>
      </trkpt>
      <trkpt lat="49.14505" lon="1.36586">
        <ele>76</ele>
        <time>2021-04-14T13:50:16Z</time>
      </trkpt>
      <trkpt lat="49.14513" lon="1.36574">
        <ele>74.8</ele>
        <time>2021-04-14T13:50:18Z</time>
      </trkpt>
      <trkpt lat="49.14517" lon="1.36567">
        <ele>73.8</ele>
        <time>2021-04-14T13:50:19Z</time>
      </trkpt>
      <trkpt lat="49.14521" lon="1.36561">
        <ele>72.6</ele>
        <time>2021-04-14T13:50:20Z</time>
      </trkpt>
      <trkpt lat="49.14525" lon="1.36554">
        <ele>71.4</ele>
        <time>2021-04-14T13:50:21Z</time>
      </trkpt>
      <trkpt lat="49.1453" lon="1.36547">
        <ele>70.2</ele>
        <time>2021-04-14T13:50:22Z</time>
      </trkpt>
      <trkpt lat="49.14539" lon="1.36533">
        <ele>68.8</ele>
        <time>2021-04-14T13:50:24Z</time>
      </trkpt>
      <trkpt lat="49.14543" lon="1.36524">
        <ele>67.6</ele>
        <time>2021-04-14T13:50:25Z</time>
      </trkpt>
      <trkpt lat="49.14546" lon="1.36502">
        <ele>66.4</ele>
        <time>2021-04-14T13:50:27Z</time>
      </trkpt>
      <trkpt lat="49.14544" lon="1.36469">
        <ele>65</ele>
        <time>2021-04-14T13:50:30Z</time>
      </trkpt>
      <trkpt lat="49.14544" lon="1.36457">
        <ele>64.4</ele>
        <time>2021-04-14T13:50:31Z</time>
      </trkpt>
      <trkpt lat="49.14544" lon="1.36446">
        <ele>63.6</ele>
        <time>2021-04-14T13:50:32Z</time>
      </trkpt>
      <trkpt lat="49.14545" lon="1.36423">
        <ele>62.2</ele>
        <time>2021-04-14T13:50:34Z</time>
      </trkpt>
      <trkpt lat="49.14545" lon="1.36411">
        <ele>61.4</ele>
        <time>2021-04-14T13:50:35Z</time>
      </trkpt>
      <trkpt lat="49.14544" lon="1.364">
        <ele>61</ele>
        <time>2021-04-14T13:50:36Z</time>
      </trkpt>
      <trkpt lat="49.14539" lon="1.36384">
        <ele>60.2</ele>
        <time>2021-04-14T13:50:38Z</time>
      </trkpt>
      <trkpt lat="49.14536" lon="1.36377">
        <ele>60</ele>
        <time>2021-04-14T13:50:39Z</time>
      </trkpt>
      <trkpt lat="49.14531" lon="1.36349">
        <ele>59</ele>
        <time>2021-04-14T13:50:42Z</time>
      </trkpt>
      <trkpt lat="49.14534" lon="1.36337">
        <ele>58.6</ele>
        <time>2021-04-14T13:50:44Z</time>
      </trkpt>
      <trkpt lat="49.1455" lon="1.36332">
        <ele>58.2</ele>
        <time>2021-04-14T13:50:47Z</time>
      </trkpt>
      <trkpt lat="49.14563" lon="1.36336">
        <ele>57.8</ele>
        <time>2021-04-14T13:50:49Z</time>
      </trkpt>
      <trkpt lat="49.14576" lon="1.36346">
        <ele>56.4</ele>
        <time>2021-04-14T13:50:51Z</time>
      </trkpt>
      <trkpt lat="49.14585" lon="1.36364">
        <ele>54.6</ele>
        <time>2021-04-14T13:50:53Z</time>
      </trkpt>
      <trkpt lat="49.14589" lon="1.36374">
        <ele>53.8</ele>
        <time>2021-04-14T13:50:54Z</time>
      </trkpt>
      <trkpt lat="49.14594" lon="1.36384">
        <ele>52.8</ele>
        <time>2021-04-14T13:50:55Z</time>
      </trkpt>
      <trkpt lat="49.14599" lon="1.36394">
        <ele>51.6</ele>
        <time>2021-04-14T13:50:56Z</time>
      </trkpt>
      <trkpt lat="49.14604" lon="1.36404">
        <ele>50.6</ele>
        <time>2021-04-14T13:50:57Z</time>
      </trkpt>
      <trkpt lat="49.1461" lon="1.36411">
        <ele>49.4</ele>
        <time>2021-04-14T13:50:58Z</time>
      </trkpt>
      <trkpt lat="49.14617" lon="1.36416">
        <ele>48.2</ele>
        <time>2021-04-14T13:50:59Z</time>
      </trkpt>
      <trkpt lat="49.14624" lon="1.36418">
        <ele>46.8</ele>
        <time>2021-04-14T13:51:00Z</time>
      </trkpt>
      <trkpt lat="49.14632" lon="1.36417">
        <ele>45.6</ele>
        <time>2021-04-14T13:51:01Z</time>
      </trkpt>
      <trkpt lat="49.14641" lon="1.36416">
        <ele>44.4</ele>
        <time>2021-04-14T13:51:02Z</time>
      </trkpt>
      <trkpt lat="49.14649" lon="1.36415">
        <ele>43.4</ele>
        <time>2021-04-14T13:51:03Z</time>
      </trkpt>
      <trkpt lat="49.14667" lon="1.36412">
        <ele>41.4</ele>
        <time>2021-04-14T13:51:05Z</time>
      </trkpt>
      <trkpt lat="49.14684" lon="1.36414">
        <ele>39.8</ele>
        <time>2021-04-14T13:51:07Z</time>
      </trkpt>
      <trkpt lat="49.14698" lon="1.36419">
        <ele>37.8</ele>
        <time>2021-04-14T13:51:09Z</time>
      </trkpt>
      <trkpt lat="49.14703" lon="1.36422">
        <ele>36.6</ele>
        <time>2021-04-14T13:51:10Z</time>
      </trkpt>
      <trkpt lat="49.14707" lon="1.36426">
        <ele>35.4</ele>
        <time>2021-04-14T13:51:11Z</time>
      </trkpt>
      <trkpt lat="49.14709" lon="1.36432">
        <ele>34.2</ele>
        <time>2021-04-14T13:51:12Z</time>
      </trkpt>
      <trkpt lat="49.14709" lon="1.36439">
        <ele>33.4</ele>
        <time>2021-04-14T13:51:13Z</time>
      </trkpt>
      <trkpt lat="49.14709" lon="1.36446">
        <ele>32.6</ele>
        <time>2021-04-14T13:51:14Z</time>
      </trkpt>
      <trkpt lat="49.1471" lon="1.36466">
        <ele>31.4</ele>
        <time>2021-04-14T13:51:16Z</time>
      </trkpt>
      <trkpt lat="49.14711" lon="1.36477">
        <ele>30.8</ele>
        <time>2021-04-14T13:51:17Z</time>
      </trkpt>
      <trkpt lat="49.14715" lon="1.36499">
        <ele>30</ele>
        <time>2021-04-14T13:51:19Z</time>
      </trkpt>
      <trkpt lat="49.14718" lon="1.36509">
        <ele>29.8</ele>
        <time>2021-04-14T13:51:20Z</time>
      </trkpt>
      <trkpt lat="49.14722" lon="1.36518">
        <ele>29.4</ele>
        <time>2021-04-14T13:51:21Z</time>
      </trkpt>
      <trkpt lat="49.1474" lon="1.36534">
        <ele>29</ele>
        <time>2021-04-14T13:51:24Z</time>
      </trkpt>
      <trkpt lat="49.14747" lon="1.36536">
        <ele>29</ele>
        <time>2021-04-14T13:51:25Z</time>
      </trkpt>
      <trkpt lat="49.14761" lon="1.3654">
        <ele>28</ele>
        <time>2021-04-14T13:51:27Z</time>
      </trkpt>
      <trkpt lat="49.14776" lon="1.36541">
        <ele>26.8</ele>
        <time>2021-04-14T13:51:29Z</time>
      </trkpt>
      <trkpt lat="49.14783" lon="1.36542">
        <ele>26.2</ele>
        <time>2021-04-14T13:51:30Z</time>
      </trkpt>
      <trkpt lat="49.1479" lon="1.36543">
        <ele>25.6</ele>
        <time>2021-04-14T13:51:31Z</time>
      </trkpt>
      <trkpt lat="49.1481" lon="1.36547">
        <ele>24.6</ele>
        <time>2021-04-14T13:51:34Z</time>
      </trkpt>
      <trkpt lat="49.14815" lon="1.36552">
        <ele>24.2</ele>
        <time>2021-04-14T13:51:35Z</time>
      </trkpt>
      <trkpt lat="49.14819" lon="1.36577">
        <ele>23.2</ele>
        <time>2021-04-14T13:51:38Z</time>
      </trkpt>
      <trkpt lat="49.14818" lon="1.36587">
        <ele>23</ele>
        <time>2021-04-14T13:51:39Z</time>
      </trkpt>
      <trkpt lat="49.14816" lon="1.36646">
        <ele>22.6</ele>
        <time>2021-04-14T13:51:45Z</time>
      </trkpt>
      <trkpt lat="49.14815" lon="1.36655">
        <ele>22.6</ele>
        <time>2021-04-14T13:51:46Z</time>
      </trkpt>
      <trkpt lat="49.14815" lon="1.36733">
        <ele>23</ele>
        <time>2021-04-14T13:51:54Z</time>
      </trkpt>
      <trkpt lat="49.14816" lon="1.36772">
        <ele>23.2</ele>
        <time>2021-04-14T13:51:58Z</time>
      </trkpt>
      <trkpt lat="49.1482" lon="1.3679">
        <ele>23.4</ele>
        <time>2021-04-14T13:52:00Z</time>
      </trkpt>
      <trkpt lat="49.14826" lon="1.36829">
        <ele>24</ele>
        <time>2021-04-14T13:52:04Z</time>
      </trkpt>
      <trkpt lat="49.14826" lon="1.36848">
        <ele>24.2</ele>
        <time>2021-04-14T13:52:06Z</time>
      </trkpt>
      <trkpt lat="49.14825" lon="1.36887">
        <ele>24.4</ele>
        <time>2021-04-14T13:52:10Z</time>
      </trkpt>
      <trkpt lat="49.14826" lon="1.36907">
        <ele>24.4</ele>
        <time>2021-04-14T13:52:12Z</time>
      </trkpt>
      <trkpt lat="49.14829" lon="1.36986">
        <ele>25</ele>
        <time>2021-04-14T13:52:20Z</time>
      </trkpt>
      <trkpt lat="49.14829" lon="1.36995">
        <ele>25</ele>
        <time>2021-04-14T13:52:21Z</time>
      </trkpt>
      <trkpt lat="49.14831" lon="1.37048">
        <ele>25.8</ele>
        <time>2021-04-14T13:52:27Z</time>
      </trkpt>
      <trkpt lat="49.1484" lon="1.37069">
        <ele>25.8</ele>
        <time>2021-04-14T13:52:30Z</time>
      </trkpt>
      <trkpt lat="49.14845" lon="1.37075">
        <ele>25.8</ele>
        <time>2021-04-14T13:52:31Z</time>
      </trkpt>
      <trkpt lat="49.14881" lon="1.37125">
        <ele>25.8</ele>
        <time>2021-04-14T13:52:39Z</time>
      </trkpt>
      <trkpt lat="49.14906" lon="1.37177">
        <ele>25.4</ele>
        <time>2021-04-14T13:52:46Z</time>
      </trkpt>
      <trkpt lat="49.14935" lon="1.37255">
        <ele>25.2</ele>
        <time>2021-04-14T13:52:56Z</time>
      </trkpt>
      <trkpt lat="49.14941" lon="1.3727">
        <ele>25.2</ele>
        <time>2021-04-14T13:52:58Z</time>
      </trkpt>
      <trkpt lat="49.14971" lon="1.37339">
        <ele>24.8</ele>
        <time>2021-04-14T13:53:07Z</time>
      </trkpt>
      <trkpt lat="49.14974" lon="1.37347">
        <ele>24.8</ele>
        <time>2021-04-14T13:53:08Z</time>
      </trkpt>
      <trkpt lat="49.15003" lon="1.37417">
        <ele>24.2</ele>
        <time>2021-04-14T13:53:17Z</time>
      </trkpt>
      <trkpt lat="49.15009" lon="1.37431">
        <ele>24.2</ele>
        <time>2021-04-14T13:53:19Z</time>
      </trkpt>
      <trkpt lat="49.15035" lon="1.37496">
        <ele>25.2</ele>
        <time>2021-04-14T13:53:28Z</time>
      </trkpt>
      <trkpt lat="49.15049" lon="1.37531">
        <ele>25.8</ele>
        <time>2021-04-14T13:53:33Z</time>
      </trkpt>
      <trkpt lat="49.15055" lon="1.37544">
        <ele>25.8</ele>
        <time>2021-04-14T13:53:35Z</time>
      </trkpt>
      <trkpt lat="49.15063" lon="1.37574">
        <ele>25.8</ele>
        <time>2021-04-14T13:53:39Z</time>
      </trkpt>
      <trkpt lat="49.15066" lon="1.37581">
        <ele>25.8</ele>
        <time>2021-04-14T13:53:40Z</time>
      </trkpt>
      <trkpt lat="49.15069" lon="1.37587">
        <ele>25.8</ele>
        <time>2021-04-14T13:53:41Z</time>
      </trkpt>
      <trkpt lat="49.15076" lon="1.37608">
        <ele>25.8</ele>
        <time>2021-04-14T13:53:44Z</time>
      </trkpt>
      <trkpt lat="49.15091" lon="1.37638">
        <ele>25.8</ele>
        <time>2021-04-14T13:53:49Z</time>
      </trkpt>
      <trkpt lat="49.15095" lon="1.37643">
        <ele>25.8</ele>
        <time>2021-04-14T13:53:50Z</time>
      </trkpt>
      <trkpt lat="49.15103" lon="1.37653">
        <ele>25.8</ele>
        <time>2021-04-14T13:53:52Z</time>
      </trkpt>
      <trkpt lat="49.15106" lon="1.37664">
        <ele>25.8</ele>
        <time>2021-04-14T13:53:54Z</time>
      </trkpt>
      <trkpt lat="49.15104" lon="1.37676">
        <ele>25.8</ele>
        <time>2021-04-14T13:53:56Z</time>
      </trkpt>
      <trkpt lat="49.15103" lon="1.37682">
        <ele>26</ele>
        <time>2021-04-14T13:53:58Z</time>
      </trkpt>
      <trkpt lat="49.15104" lon="1.37685">
        <ele>26</ele>
        <time>2021-04-14T13:53:59Z</time>
      </trkpt>
      <trkpt lat="49.1511" lon="1.37686">
        <ele>26.2</ele>
        <time>2021-04-14T13:54:01Z</time>
      </trkpt>
      <trkpt lat="49.15115" lon="1.37687">
        <ele>26.2</ele>
        <time>2021-04-14T13:54:02Z</time>
      </trkpt>
      <trkpt lat="49.15127" lon="1.37694">
        <ele>26.2</ele>
        <time>2021-04-14T13:54:04Z</time>
      </trkpt>
      <trkpt lat="49.15169" lon="1.37724">
        <ele>25.6</ele>
        <time>2021-04-14T13:54:11Z</time>
      </trkpt>
      <trkpt lat="49.15187" lon="1.37738">
        <ele>24.6</ele>
        <time>2021-04-14T13:54:14Z</time>
      </trkpt>
      <trkpt lat="49.15212" lon="1.37757">
        <ele>23.4</ele>
        <time>2021-04-14T13:54:18Z</time>
      </trkpt>
      <trkpt lat="49.15231" lon="1.37772">
        <ele>23</ele>
        <time>2021-04-14T13:54:21Z</time>
      </trkpt>
      <trkpt lat="49.15267" lon="1.37798">
        <ele>22.4</ele>
        <time>2021-04-14T13:54:27Z</time>
      </trkpt>
      <trkpt lat="49.15273" lon="1.37802">
        <ele>22.2</ele>
        <time>2021-04-14T13:54:28Z</time>
      </trkpt>
      <trkpt lat="49.15317" lon="1.37833">
        <ele>21.8</ele>
        <time>2021-04-14T13:54:35Z</time>
      </trkpt>
      <trkpt lat="49.15346" lon="1.37852">
        <ele>21.2</ele>
        <time>2021-04-14T13:54:40Z</time>
      </trkpt>
      <trkpt lat="49.15352" lon="1.37857">
        <ele>20.8</ele>
        <time>2021-04-14T13:54:41Z</time>
      </trkpt>
      <trkpt lat="49.15364" lon="1.37865">
        <ele>20</ele>
        <time>2021-04-14T13:54:43Z</time>
      </trkpt>
      <trkpt lat="49.15394" lon="1.37887">
        <ele>19.6</ele>
        <time>2021-04-14T13:54:48Z</time>
      </trkpt>
      <trkpt lat="49.15431" lon="1.37904">
        <ele>19.2</ele>
        <time>2021-04-14T13:54:54Z</time>
      </trkpt>
      <trkpt lat="49.15466" lon="1.37925">
        <ele>18.8</ele>
        <time>2021-04-14T13:55:00Z</time>
      </trkpt>
      <trkpt lat="49.15496" lon="1.37953">
        <ele>18.2</ele>
        <time>2021-04-14T13:55:06Z</time>
      </trkpt>
      <trkpt lat="49.15521" lon="1.37976">
        <ele>18.2</ele>
        <time>2021-04-14T13:55:11Z</time>
      </trkpt>
      <trkpt lat="49.15525" lon="1.3798">
        <ele>18</ele>
        <time>2021-04-14T13:55:12Z</time>
      </trkpt>
      <trkpt lat="49.15549" lon="1.38004">
        <ele>18</ele>
        <time>2021-04-14T13:55:17Z</time>
      </trkpt>
      <trkpt lat="49.15553" lon="1.3801">
        <ele>18</ele>
        <time>2021-04-14T13:55:18Z</time>
      </trkpt>
      <trkpt lat="49.1557" lon="1.38026">
        <ele>18</ele>
        <time>2021-04-14T13:55:22Z</time>
      </trkpt>
      <trkpt lat="49.15575" lon="1.3803">
        <ele>18</ele>
        <time>2021-04-14T13:55:23Z</time>
      </trkpt>
      <trkpt lat="49.15602" lon="1.38053">
        <ele>17.8</ele>
        <time>2021-04-14T13:55:29Z</time>
      </trkpt>
      <trkpt lat="49.15606" lon="1.38056">
        <ele>17.8</ele>
        <time>2021-04-14T13:55:30Z</time>
      </trkpt>
      <trkpt lat="49.15626" lon="1.38069">
        <ele>17.8</ele>
        <time>2021-04-14T13:55:34Z</time>
      </trkpt>
      <trkpt lat="49.1566" lon="1.38094">
        <ele>17.4</ele>
        <time>2021-04-14T13:55:41Z</time>
      </trkpt>
      <trkpt lat="49.15697" lon="1.3812">
        <ele>17.4</ele>
        <time>2021-04-14T13:55:48Z</time>
      </trkpt>
      <trkpt lat="49.15734" lon="1.38147">
        <ele>17.4</ele>
        <time>2021-04-14T13:55:55Z</time>
      </trkpt>
      <trkpt lat="49.1576" lon="1.38165">
        <ele>17.4</ele>
        <time>2021-04-14T13:56:00Z</time>
      </trkpt>
      <trkpt lat="49.15798" lon="1.3819">
        <ele>17.8</ele>
        <time>2021-04-14T13:56:07Z</time>
      </trkpt>
      <trkpt lat="49.15846" lon="1.38225">
        <ele>17.8</ele>
        <time>2021-04-14T13:56:16Z</time>
      </trkpt>
      <trkpt lat="49.1589" lon="1.38254">
        <ele>17.6</ele>
        <time>2021-04-14T13:56:24Z</time>
      </trkpt>
      <trkpt lat="49.15939" lon="1.38288">
        <ele>17.6</ele>
        <time>2021-04-14T13:56:33Z</time>
      </trkpt>
      <trkpt lat="49.15982" lon="1.38317">
        <ele>17.8</ele>
        <time>2021-04-14T13:56:41Z</time>
      </trkpt>
      <trkpt lat="49.16026" lon="1.38346">
        <ele>17.8</ele>
        <time>2021-04-14T13:56:50Z</time>
      </trkpt>
      <trkpt lat="49.16062" lon="1.38372">
        <ele>18</ele>
        <time>2021-04-14T13:56:57Z</time>
      </trkpt>
      <trkpt lat="49.16099" lon="1.38399">
        <ele>18.4</ele>
        <time>2021-04-14T13:57:04Z</time>
      </trkpt>
      <trkpt lat="49.16145" lon="1.38426">
        <ele>18.2</ele>
        <time>2021-04-14T13:57:12Z</time>
      </trkpt>
      <trkpt lat="49.16157" lon="1.38433">
        <ele>18.2</ele>
        <time>2021-04-14T13:57:14Z</time>
      </trkpt>
      <trkpt lat="49.16161" lon="1.3844">
        <ele>18</ele>
        <time>2021-04-14T13:57:15Z</time>
      </trkpt>
      <trkpt lat="49.16162" lon="1.38456">
        <ele>17.8</ele>
        <time>2021-04-14T13:57:17Z</time>
      </trkpt>
      <trkpt lat="49.16159" lon="1.3847">
        <ele>17.4</ele>
        <time>2021-04-14T13:57:19Z</time>
      </trkpt>
      <trkpt lat="49.16156" lon="1.38476">
        <ele>17</ele>
        <time>2021-04-14T13:57:20Z</time>
      </trkpt>
      <trkpt lat="49.16151" lon="1.38488">
        <ele>16.8</ele>
        <time>2021-04-14T13:57:22Z</time>
      </trkpt>
      <trkpt lat="49.16146" lon="1.38499">
        <ele>16.8</ele>
        <time>2021-04-14T13:57:24Z</time>
      </trkpt>
      <trkpt lat="49.16135" lon="1.38521">
        <ele>16.8</ele>
        <time>2021-04-14T13:57:28Z</time>
      </trkpt>
      <trkpt lat="49.16118" lon="1.38557">
        <ele>17.8</ele>
        <time>2021-04-14T13:57:34Z</time>
      </trkpt>
      <trkpt lat="49.16106" lon="1.38581">
        <ele>18</ele>
        <time>2021-04-14T13:57:38Z</time>
      </trkpt>
      <trkpt lat="49.16098" lon="1.386">
        <ele>18</ele>
        <time>2021-04-14T13:57:41Z</time>
      </trkpt>
      <trkpt lat="49.16093" lon="1.38614">
        <ele>18</ele>
        <time>2021-04-14T13:57:43Z</time>
      </trkpt>
      <trkpt lat="49.16082" lon="1.38645">
        <ele>18</ele>
        <time>2021-04-14T13:57:47Z</time>
      </trkpt>
      <trkpt lat="49.16066" lon="1.38691">
        <ele>17.8</ele>
        <time>2021-04-14T13:57:53Z</time>
      </trkpt>
      <trkpt lat="49.16061" lon="1.38706">
        <ele>17.4</ele>
        <time>2021-04-14T13:57:55Z</time>
      </trkpt>
      <trkpt lat="49.16051" lon="1.38738">
        <ele>17</ele>
        <time>2021-04-14T13:57:59Z</time>
      </trkpt>
      <trkpt lat="49.16026" lon="1.38802">
        <ele>16.8</ele>
        <time>2021-04-14T13:58:07Z</time>
      </trkpt>
      <trkpt lat="49.16003" lon="1.38854">
        <ele>16.8</ele>
        <time>2021-04-14T13:58:14Z</time>
      </trkpt>
      <trkpt lat="49.15982" lon="1.389">
        <ele>16.8</ele>
        <time>2021-04-14T13:58:21Z</time>
      </trkpt>
      <trkpt lat="49.15965" lon="1.38909">
        <ele>17</ele>
        <time>2021-04-14T13:58:25Z</time>
      </trkpt>
      <trkpt lat="49.15948" lon="1.38915">
        <ele>17</ele>
        <time>2021-04-14T13:58:29Z</time>
      </trkpt>
      <trkpt lat="49.15945" lon="1.38917">
        <ele>17.2</ele>
        <time>2021-04-14T13:58:30Z</time>
      </trkpt>
      <trkpt lat="49.15923" lon="1.38928">
        <ele>18.2</ele>
        <time>2021-04-14T13:58:35Z</time>
      </trkpt>
      <trkpt lat="49.15892" lon="1.38932">
        <ele>19</ele>
        <time>2021-04-14T13:58:42Z</time>
      </trkpt>
      <trkpt lat="49.15883" lon="1.38933">
        <ele>19.2</ele>
        <time>2021-04-14T13:58:44Z</time>
      </trkpt>
      <trkpt lat="49.15871" lon="1.38933">
        <ele>20</ele>
        <time>2021-04-14T13:58:47Z</time>
      </trkpt>
      <trkpt lat="49.15851" lon="1.38934">
        <ele>20.2</ele>
        <time>2021-04-14T13:58:52Z</time>
      </trkpt>
      <trkpt lat="49.15847" lon="1.38936">
        <ele>20.2</ele>
        <time>2021-04-14T13:58:53Z</time>
      </trkpt>
      <trkpt lat="49.15832" lon="1.38938">
        <ele>20.4</ele>
        <time>2021-04-14T13:58:57Z</time>
      </trkpt>
      <trkpt lat="49.1581" lon="1.38941">
        <ele>20.8</ele>
        <time>2021-04-14T13:59:02Z</time>
      </trkpt>
      <trkpt lat="49.15806" lon="1.38942">
        <ele>20.8</ele>
        <time>2021-04-14T13:59:03Z</time>
      </trkpt>
      <trkpt lat="49.15791" lon="1.38945">
        <ele>21</ele>
        <time>2021-04-14T13:59:06Z</time>
      </trkpt>
      <trkpt lat="49.15772" lon="1.38953">
        <ele>21.2</ele>
        <time>2021-04-14T13:59:10Z</time>
      </trkpt>
      <trkpt lat="49.15767" lon="1.38955">
        <ele>21.4</ele>
        <time>2021-04-14T13:59:11Z</time>
      </trkpt>
      <trkpt lat="49.15734" lon="1.38966">
        <ele>22</ele>
        <time>2021-04-14T13:59:18Z</time>
      </trkpt>
      <trkpt lat="49.15698" lon="1.38983">
        <ele>22.2</ele>
        <time>2021-04-14T13:59:26Z</time>
      </trkpt>
      <trkpt lat="49.15663" lon="1.39001">
        <ele>23.2</ele>
        <time>2021-04-14T13:59:34Z</time>
      </trkpt>
      <trkpt lat="49.15659" lon="1.39004">
        <ele>23.4</ele>
        <time>2021-04-14T13:59:35Z</time>
      </trkpt>
      <trkpt lat="49.15618" lon="1.39026">
        <ele>24.4</ele>
        <time>2021-04-14T13:59:44Z</time>
      </trkpt>
      <trkpt lat="49.15614" lon="1.39029">
        <ele>24.4</ele>
        <time>2021-04-14T13:59:45Z</time>
      </trkpt>
      <trkpt lat="49.15569" lon="1.39054">
        <ele>25.2</ele>
        <time>2021-04-14T13:59:55Z</time>
      </trkpt>
      <trkpt lat="49.15556" lon="1.39062">
        <ele>25.6</ele>
        <time>2021-04-14T13:59:58Z</time>
      </trkpt>
      <trkpt lat="49.1553" lon="1.39075">
        <ele>26</ele>
        <time>2021-04-14T14:00:04Z</time>
      </trkpt>
      <trkpt lat="49.15521" lon="1.39079">
        <ele>26</ele>
        <time>2021-04-14T14:00:06Z</time>
      </trkpt>
      <trkpt lat="49.15512" lon="1.39084">
        <ele>26.2</ele>
        <time>2021-04-14T14:00:08Z</time>
      </trkpt>
      <trkpt lat="49.15503" lon="1.39087">
        <ele>26.2</ele>
        <time>2021-04-14T14:00:10Z</time>
      </trkpt>
      <trkpt lat="49.15483" lon="1.39094">
        <ele>26.4</ele>
        <time>2021-04-14T14:00:14Z</time>
      </trkpt>
      <trkpt lat="49.15478" lon="1.39096">
        <ele>26.6</ele>
        <time>2021-04-14T14:00:15Z</time>
      </trkpt>
      <trkpt lat="49.15468" lon="1.39099">
        <ele>27</ele>
        <time>2021-04-14T14:00:17Z</time>
      </trkpt>
      <trkpt lat="49.15422" lon="1.39114">
        <ele>27.4</ele>
        <time>2021-04-14T14:00:26Z</time>
      </trkpt>
      <trkpt lat="49.15408" lon="1.39121">
        <ele>27.6</ele>
        <time>2021-04-14T14:00:29Z</time>
      </trkpt>
      <trkpt lat="49.15373" lon="1.39137">
        <ele>28</ele>
        <time>2021-04-14T14:00:36Z</time>
      </trkpt>
      <trkpt lat="49.15333" lon="1.39159">
        <ele>28.8</ele>
        <time>2021-04-14T14:00:44Z</time>
      </trkpt>
      <trkpt lat="49.15309" lon="1.39174">
        <ele>29</ele>
        <time>2021-04-14T14:00:49Z</time>
      </trkpt>
      <trkpt lat="49.153" lon="1.39179">
        <ele>29.2</ele>
        <time>2021-04-14T14:00:51Z</time>
      </trkpt>
      <trkpt lat="49.15287" lon="1.39189">
        <ele>29.8</ele>
        <time>2021-04-14T14:00:54Z</time>
      </trkpt>
      <trkpt lat="49.15282" lon="1.39191">
        <ele>29.8</ele>
        <time>2021-04-14T14:00:55Z</time>
      </trkpt>
      <trkpt lat="49.15273" lon="1.39196">
        <ele>30</ele>
        <time>2021-04-14T14:00:57Z</time>
      </trkpt>
      <trkpt lat="49.15249" lon="1.39213">
        <ele>30.6</ele>
        <time>2021-04-14T14:01:03Z</time>
      </trkpt>
      <trkpt lat="49.15241" lon="1.39219">
        <ele>31.2</ele>
        <time>2021-04-14T14:01:05Z</time>
      </trkpt>
      <trkpt lat="49.15212" lon="1.39236">
        <ele>32.2</ele>
        <time>2021-04-14T14:01:12Z</time>
      </trkpt>
      <trkpt lat="49.15208" lon="1.39238">
        <ele>32.2</ele>
        <time>2021-04-14T14:01:13Z</time>
      </trkpt>
      <trkpt lat="49.15181" lon="1.39248">
        <ele>32.6</ele>
        <time>2021-04-14T14:01:20Z</time>
      </trkpt>
      <trkpt lat="49.1516" lon="1.39255">
        <ele>33.4</ele>
        <time>2021-04-14T14:01:25Z</time>
      </trkpt>
      <trkpt lat="49.15139" lon="1.39263">
        <ele>34.2</ele>
        <time>2021-04-14T14:01:30Z</time>
      </trkpt>
      <trkpt lat="49.15123" lon="1.39274">
        <ele>34.6</ele>
        <time>2021-04-14T14:01:34Z</time>
      </trkpt>
      <trkpt lat="49.15112" lon="1.39284">
        <ele>35</ele>
        <time>2021-04-14T14:01:37Z</time>
      </trkpt>
      <trkpt lat="49.15084" lon="1.39308">
        <ele>35.6</ele>
        <time>2021-04-14T14:01:45Z</time>
      </trkpt>
      <trkpt lat="49.1508" lon="1.39311">
        <ele>35.8</ele>
        <time>2021-04-14T14:01:46Z</time>
      </trkpt>
      <trkpt lat="49.15052" lon="1.39329">
        <ele>37.2</ele>
        <time>2021-04-14T14:01:54Z</time>
      </trkpt>
      <trkpt lat="49.15041" lon="1.39335">
        <ele>37.6</ele>
        <time>2021-04-14T14:01:57Z</time>
      </trkpt>
      <trkpt lat="49.15028" lon="1.39342">
        <ele>38.2</ele>
        <time>2021-04-14T14:02:01Z</time>
      </trkpt>
      <trkpt lat="49.15009" lon="1.39353">
        <ele>39.4</ele>
        <time>2021-04-14T14:02:07Z</time>
      </trkpt>
      <trkpt lat="49.15006" lon="1.39354">
        <ele>39.6</ele>
        <time>2021-04-14T14:02:08Z</time>
      </trkpt>
      <trkpt lat="49.14994" lon="1.39361">
        <ele>40.6</ele>
        <time>2021-04-14T14:02:12Z</time>
      </trkpt>
      <trkpt lat="49.14981" lon="1.39368">
        <ele>41.8</ele>
        <time>2021-04-14T14:02:16Z</time>
      </trkpt>
      <trkpt lat="49.14978" lon="1.3937">
        <ele>42</ele>
        <time>2021-04-14T14:02:17Z</time>
      </trkpt>
      <trkpt lat="49.14961" lon="1.3938">
        <ele>43</ele>
        <time>2021-04-14T14:02:22Z</time>
      </trkpt>
      <trkpt lat="49.14939" lon="1.39392">
        <ele>43.6</ele>
        <time>2021-04-14T14:02:29Z</time>
      </trkpt>
      <trkpt lat="49.14925" lon="1.394">
        <ele>44</ele>
        <time>2021-04-14T14:02:33Z</time>
      </trkpt>
      <trkpt lat="49.14912" lon="1.39407">
        <ele>44.6</ele>
        <time>2021-04-14T14:02:37Z</time>
      </trkpt>
      <trkpt lat="49.14899" lon="1.39414">
        <ele>45</ele>
        <time>2021-04-14T14:02:41Z</time>
      </trkpt>
      <trkpt lat="49.14886" lon="1.39421">
        <ele>45.4</ele>
        <time>2021-04-14T14:02:45Z</time>
      </trkpt>
      <trkpt lat="49.14863" lon="1.39433">
        <ele>46.2</ele>
        <time>2021-04-14T14:02:52Z</time>
      </trkpt>
      <trkpt lat="49.14853" lon="1.39438">
        <ele>46.6</ele>
        <time>2021-04-14T14:02:55Z</time>
      </trkpt>
      <trkpt lat="49.14831" lon="1.39449">
        <ele>47.4</ele>
        <time>2021-04-14T14:03:02Z</time>
      </trkpt>
      <trkpt lat="49.14828" lon="1.3945">
        <ele>47.6</ele>
        <time>2021-04-14T14:03:03Z</time>
      </trkpt>
      <trkpt lat="49.14815" lon="1.39452">
        <ele>48.4</ele>
        <time>2021-04-14T14:03:07Z</time>
      </trkpt>
      <trkpt lat="49.14798" lon="1.39455">
        <ele>49.8</ele>
        <time>2021-04-14T14:03:12Z</time>
      </trkpt>
      <trkpt lat="49.14782" lon="1.39457">
        <ele>50.8</ele>
        <time>2021-04-14T14:03:17Z</time>
      </trkpt>
      <trkpt lat="49.14778" lon="1.39456">
        <ele>51</ele>
        <time>2021-04-14T14:03:18Z</time>
      </trkpt>
      <trkpt lat="49.14768" lon="1.39454">
        <ele>51.6</ele>
        <time>2021-04-14T14:03:21Z</time>
      </trkpt>
      <trkpt lat="49.14758" lon="1.39452">
        <ele>52.2</ele>
        <time>2021-04-14T14:03:24Z</time>
      </trkpt>
      <trkpt lat="49.14745" lon="1.39448">
        <ele>53.2</ele>
        <time>2021-04-14T14:03:28Z</time>
      </trkpt>
      <trkpt lat="49.14741" lon="1.39447">
        <ele>53.4</ele>
        <time>2021-04-14T14:03:29Z</time>
      </trkpt>
      <trkpt lat="49.14714" lon="1.39447">
        <ele>54.4</ele>
        <time>2021-04-14T14:03:37Z</time>
      </trkpt>
      <trkpt lat="49.14712" lon="1.3945">
        <ele>54.4</ele>
        <time>2021-04-14T14:03:38Z</time>
      </trkpt>
      <trkpt lat="49.14709" lon="1.39458">
        <ele>54.6</ele>
        <time>2021-04-14T14:03:40Z</time>
      </trkpt>
      <trkpt lat="49.14704" lon="1.39482">
        <ele>55.6</ele>
        <time>2021-04-14T14:03:46Z</time>
      </trkpt>
      <trkpt lat="49.14703" lon="1.39482">
        <ele>55.6</ele>
        <time>2021-04-14T14:03:47Z</time>
      </trkpt>
      <trkpt lat="49.14697" lon="1.39473">
        <ele>56</ele>
        <time>2021-04-14T14:03:50Z</time>
      </trkpt>
      <trkpt lat="49.14684" lon="1.39461">
        <ele>56.4</ele>
        <time>2021-04-14T14:03:54Z</time>
      </trkpt>
      <trkpt lat="49.14671" lon="1.39455">
        <ele>56.6</ele>
        <time>2021-04-14T14:03:58Z</time>
      </trkpt>
      <trkpt lat="49.14664" lon="1.39452">
        <ele>56.6</ele>
        <time>2021-04-14T14:04:00Z</time>
      </trkpt>
      <trkpt lat="49.14641" lon="1.39443">
        <ele>57.6</ele>
        <time>2021-04-14T14:04:07Z</time>
      </trkpt>
      <trkpt lat="49.1463" lon="1.39439">
        <ele>58</ele>
        <time>2021-04-14T14:04:10Z</time>
      </trkpt>
      <trkpt lat="49.14617" lon="1.39429">
        <ele>58.6</ele>
        <time>2021-04-14T14:04:14Z</time>
      </trkpt>
      <trkpt lat="49.14615" lon="1.39425">
        <ele>58.8</ele>
        <time>2021-04-14T14:04:15Z</time>
      </trkpt>
      <trkpt lat="49.14608" lon="1.39399">
        <ele>59.2</ele>
        <time>2021-04-14T14:04:20Z</time>
      </trkpt>
      <trkpt lat="49.14606" lon="1.39378">
        <ele>59.8</ele>
        <time>2021-04-14T14:04:24Z</time>
      </trkpt>
      <trkpt lat="49.14601" lon="1.39351">
        <ele>60.4</ele>
        <time>2021-04-14T14:04:29Z</time>
      </trkpt>
      <trkpt lat="49.14595" lon="1.39343">
        <ele>60.8</ele>
        <time>2021-04-14T14:04:31Z</time>
      </trkpt>
      <trkpt lat="49.14588" lon="1.39337">
        <ele>61.2</ele>
        <time>2021-04-14T14:04:33Z</time>
      </trkpt>
      <trkpt lat="49.14569" lon="1.39324">
        <ele>62</ele>
        <time>2021-04-14T14:04:38Z</time>
      </trkpt>
      <trkpt lat="49.14558" lon="1.39317">
        <ele>62.4</ele>
        <time>2021-04-14T14:04:41Z</time>
      </trkpt>
      <trkpt lat="49.1453" lon="1.39296">
        <ele>63</ele>
        <time>2021-04-14T14:04:48Z</time>
      </trkpt>
      <trkpt lat="49.14526" lon="1.39293">
        <ele>63.2</ele>
        <time>2021-04-14T14:04:49Z</time>
      </trkpt>
      <trkpt lat="49.14508" lon="1.39276">
        <ele>64</ele>
        <time>2021-04-14T14:04:54Z</time>
      </trkpt>
      <trkpt lat="49.14494" lon="1.39262">
        <ele>64.6</ele>
        <time>2021-04-14T14:04:58Z</time>
      </trkpt>
      <trkpt lat="49.14483" lon="1.39251">
        <ele>65.2</ele>
        <time>2021-04-14T14:05:01Z</time>
      </trkpt>
      <trkpt lat="49.14461" lon="1.39228">
        <ele>66.4</ele>
        <time>2021-04-14T14:05:07Z</time>
      </trkpt>
      <trkpt lat="49.14457" lon="1.39224">
        <ele>66.6</ele>
        <time>2021-04-14T14:05:08Z</time>
      </trkpt>
      <trkpt lat="49.14451" lon="1.39217">
        <ele>66.8</ele>
        <time>2021-04-14T14:05:11Z</time>
      </trkpt>
      <trkpt lat="49.14436" lon="1.39204">
        <ele>67.2</ele>
        <time>2021-04-14T14:05:16Z</time>
      </trkpt>
      <trkpt lat="49.14424" lon="1.39194">
        <ele>67.8</ele>
        <time>2021-04-14T14:05:20Z</time>
      </trkpt>
      <trkpt lat="49.14413" lon="1.39184">
        <ele>68.6</ele>
        <time>2021-04-14T14:05:24Z</time>
      </trkpt>
      <trkpt lat="49.14407" lon="1.39179">
        <ele>68.8</ele>
        <time>2021-04-14T14:05:26Z</time>
      </trkpt>
      <trkpt lat="49.14392" lon="1.39169">
        <ele>69.2</ele>
        <time>2021-04-14T14:05:31Z</time>
      </trkpt>
      <trkpt lat="49.14378" lon="1.39158">
        <ele>69.8</ele>
        <time>2021-04-14T14:05:36Z</time>
      </trkpt>
      <trkpt lat="49.14368" lon="1.39152">
        <ele>70.4</ele>
        <time>2021-04-14T14:05:39Z</time>
      </trkpt>
      <trkpt lat="49.14362" lon="1.39148">
        <ele>70.8</ele>
        <time>2021-04-14T14:05:41Z</time>
      </trkpt>
      <trkpt lat="49.14344" lon="1.39135">
        <ele>72</ele>
        <time>2021-04-14T14:05:48Z</time>
      </trkpt>
      <trkpt lat="49.14334" lon="1.39127">
        <ele>73</ele>
        <time>2021-04-14T14:05:54Z</time>
      </trkpt>
      <trkpt lat="49.14333" lon="1.39126">
        <ele>73.4</ele>
        <time>2021-04-14T14:05:55Z</time>
      </trkpt>
      <trkpt lat="49.14328" lon="1.39122">
        <ele>74.2</ele>
        <time>2021-04-14T14:05:58Z</time>
      </trkpt>
      <trkpt lat="49.14326" lon="1.39119">
        <ele>74.8</ele>
        <time>2021-04-14T14:06:00Z</time>
      </trkpt>
      <trkpt lat="49.14323" lon="1.39117">
        <ele>75.2</ele>
        <time>2021-04-14T14:06:02Z</time>
      </trkpt>
      <trkpt lat="49.14316" lon="1.39111">
        <ele>76.6</ele>
        <time>2021-04-14T14:06:06Z</time>
      </trkpt>
      <trkpt lat="49.14315" lon="1.3911">
        <ele>76.6</ele>
        <time>2021-04-14T14:06:07Z</time>
      </trkpt>
      <trkpt lat="49.14309" lon="1.39107">
        <ele>77.6</ele>
        <time>2021-04-14T14:06:11Z</time>
      </trkpt>
      <trkpt lat="49.14307" lon="1.39106">
        <ele>78.4</ele>
        <time>2021-04-14T14:06:13Z</time>
      </trkpt>
      <trkpt lat="49.14304" lon="1.39104">
        <ele>78.8</ele>
        <time>2021-04-14T14:06:15Z</time>
      </trkpt>
      <trkpt lat="49.14299" lon="1.39103">
        <ele>79.8</ele>
        <time>2021-04-14T14:06:19Z</time>
      </trkpt>
      <trkpt lat="49.14292" lon="1.39101">
        <ele>81.2</ele>
        <time>2021-04-14T14:06:23Z</time>
      </trkpt>
      <trkpt lat="49.14288" lon="1.39099">
        <ele>81.8</ele>
        <time>2021-04-14T14:06:26Z</time>
      </trkpt>
      <trkpt lat="49.14287" lon="1.39099">
        <ele>82.2</ele>
        <time>2021-04-14T14:06:27Z</time>
      </trkpt>
      <trkpt lat="49.14281" lon="1.39096">
        <ele>83.2</ele>
        <time>2021-04-14T14:06:31Z</time>
      </trkpt>
      <trkpt lat="49.14278" lon="1.39096">
        <ele>83.8</ele>
        <time>2021-04-14T14:06:33Z</time>
      </trkpt>
      <trkpt lat="49.14274" lon="1.39094">
        <ele>84.4</ele>
        <time>2021-04-14T14:06:36Z</time>
      </trkpt>
      <trkpt lat="49.14269" lon="1.39091">
        <ele>85</ele>
        <time>2021-04-14T14:06:39Z</time>
      </trkpt>
      <trkpt lat="49.14263" lon="1.39088">
        <ele>85.6</ele>
        <time>2021-04-14T14:06:42Z</time>
      </trkpt>
      <trkpt lat="49.14257" lon="1.39086">
        <ele>86.2</ele>
        <time>2021-04-14T14:06:46Z</time>
      </trkpt>
      <trkpt lat="49.14252" lon="1.39083">
        <ele>86.6</ele>
        <time>2021-04-14T14:06:49Z</time>
      </trkpt>
      <trkpt lat="49.14245" lon="1.3908">
        <ele>87</ele>
        <time>2021-04-14T14:06:53Z</time>
      </trkpt>
      <trkpt lat="49.14239" lon="1.39078">
        <ele>87.6</ele>
        <time>2021-04-14T14:06:56Z</time>
      </trkpt>
      <trkpt lat="49.14229" lon="1.39075">
        <ele>88.8</ele>
        <time>2021-04-14T14:07:01Z</time>
      </trkpt>
      <trkpt lat="49.14217" lon="1.39071">
        <ele>90</ele>
        <time>2021-04-14T14:07:08Z</time>
      </trkpt>
      <trkpt lat="49.14207" lon="1.39067">
        <ele>90.8</ele>
        <time>2021-04-14T14:07:14Z</time>
      </trkpt>
      <trkpt lat="49.14204" lon="1.39066">
        <ele>91</ele>
        <time>2021-04-14T14:07:16Z</time>
      </trkpt>
      <trkpt lat="49.14196" lon="1.39064">
        <ele>91.8</ele>
        <time>2021-04-14T14:07:21Z</time>
      </trkpt>
      <trkpt lat="49.14194" lon="1.39063">
        <ele>92</ele>
        <time>2021-04-14T14:07:22Z</time>
      </trkpt>
      <trkpt lat="49.14185" lon="1.3906">
        <ele>93.2</ele>
        <time>2021-04-14T14:07:28Z</time>
      </trkpt>
      <trkpt lat="49.14182" lon="1.39058">
        <ele>93.6</ele>
        <time>2021-04-14T14:07:30Z</time>
      </trkpt>
      <trkpt lat="49.14176" lon="1.39056">
        <ele>94.2</ele>
        <time>2021-04-14T14:07:34Z</time>
      </trkpt>
      <trkpt lat="49.14172" lon="1.39055">
        <ele>95.2</ele>
        <time>2021-04-14T14:07:37Z</time>
      </trkpt>
      <trkpt lat="49.14171" lon="1.39055">
        <ele>95.4</ele>
        <time>2021-04-14T14:07:38Z</time>
      </trkpt>
      <trkpt lat="49.14166" lon="1.39054">
        <ele>96.4</ele>
        <time>2021-04-14T14:07:42Z</time>
      </trkpt>
      <trkpt lat="49.14164" lon="1.39054">
        <ele>96.8</ele>
        <time>2021-04-14T14:07:43Z</time>
      </trkpt>
      <trkpt lat="49.1416" lon="1.39052">
        <ele>97.6</ele>
        <time>2021-04-14T14:07:46Z</time>
      </trkpt>
      <trkpt lat="49.14154" lon="1.3905">
        <ele>98.8</ele>
        <time>2021-04-14T14:07:50Z</time>
      </trkpt>
      <trkpt lat="49.14147" lon="1.39047">
        <ele>99.8</ele>
        <time>2021-04-14T14:07:54Z</time>
      </trkpt>
      <trkpt lat="49.1414" lon="1.39045">
        <ele>100.4</ele>
        <time>2021-04-14T14:07:57Z</time>
      </trkpt>
      <trkpt lat="49.14136" lon="1.39044">
        <ele>100.8</ele>
        <time>2021-04-14T14:07:59Z</time>
      </trkpt>
      <trkpt lat="49.14125" lon="1.39042">
        <ele>101.4</ele>
        <time>2021-04-14T14:08:04Z</time>
      </trkpt>
      <trkpt lat="49.14117" lon="1.3904">
        <ele>102</ele>
        <time>2021-04-14T14:08:08Z</time>
      </trkpt>
      <trkpt lat="49.14111" lon="1.39039">
        <ele>102.6</ele>
        <time>2021-04-14T14:08:11Z</time>
      </trkpt>
      <trkpt lat="49.14106" lon="1.39038">
        <ele>103</ele>
        <time>2021-04-14T14:08:14Z</time>
      </trkpt>
      <trkpt lat="49.14101" lon="1.39038">
        <ele>103.6</ele>
        <time>2021-04-14T14:08:17Z</time>
      </trkpt>
      <trkpt lat="49.14094" lon="1.39036">
        <ele>104.2</ele>
        <time>2021-04-14T14:08:21Z</time>
      </trkpt>
      <trkpt lat="49.14092" lon="1.39036">
        <ele>104.4</ele>
        <time>2021-04-14T14:08:22Z</time>
      </trkpt>
      <trkpt lat="49.14082" lon="1.39034">
        <ele>105.2</ele>
        <time>2021-04-14T14:08:27Z</time>
      </trkpt>
      <trkpt lat="49.14078" lon="1.39033">
        <ele>105.6</ele>
        <time>2021-04-14T14:08:29Z</time>
      </trkpt>
      <trkpt lat="49.14071" lon="1.39031">
        <ele>106.6</ele>
        <time>2021-04-14T14:08:33Z</time>
      </trkpt>
      <trkpt lat="49.14067" lon="1.39031">
        <ele>107</ele>
        <time>2021-04-14T14:08:35Z</time>
      </trkpt>
      <trkpt lat="49.14063" lon="1.3903">
        <ele>107.6</ele>
        <time>2021-04-14T14:08:37Z</time>
      </trkpt>
      <trkpt lat="49.1405" lon="1.39029">
        <ele>108.8</ele>
        <time>2021-04-14T14:08:44Z</time>
      </trkpt>
      <trkpt lat="49.14046" lon="1.39028">
        <ele>109</ele>
        <time>2021-04-14T14:08:46Z</time>
      </trkpt>
      <trkpt lat="49.1404" lon="1.39026">
        <ele>109.8</ele>
        <time>2021-04-14T14:08:49Z</time>
      </trkpt>
      <trkpt lat="49.14029" lon="1.39023">
        <ele>110.4</ele>
        <time>2021-04-14T14:08:54Z</time>
      </trkpt>
      <trkpt lat="49.14025" lon="1.39021">
        <ele>110.8</ele>
        <time>2021-04-14T14:08:56Z</time>
      </trkpt>
      <trkpt lat="49.14013" lon="1.39021">
        <ele>111.4</ele>
        <time>2021-04-14T14:09:01Z</time>
      </trkpt>
      <trkpt lat="49.14005" lon="1.39023">
        <ele>111.8</ele>
        <time>2021-04-14T14:09:04Z</time>
      </trkpt>
      <trkpt lat="49.13995" lon="1.39026">
        <ele>112.4</ele>
        <time>2021-04-14T14:09:08Z</time>
      </trkpt>
      <trkpt lat="49.13981" lon="1.3903">
        <ele>113</ele>
        <time>2021-04-14T14:09:13Z</time>
      </trkpt>
      <trkpt lat="49.13976" lon="1.3903">
        <ele>113.4</ele>
        <time>2021-04-14T14:09:15Z</time>
      </trkpt>
      <trkpt lat="49.13968" lon="1.39032">
        <ele>114</ele>
        <time>2021-04-14T14:09:18Z</time>
      </trkpt>
      <trkpt lat="49.1396" lon="1.39035">
        <ele>114.6</ele>
        <time>2021-04-14T14:09:21Z</time>
      </trkpt>
      <trkpt lat="49.13952" lon="1.39038">
        <ele>115.2</ele>
        <time>2021-04-14T14:09:24Z</time>
      </trkpt>
      <trkpt lat="49.13939" lon="1.39043">
        <ele>116.2</ele>
        <time>2021-04-14T14:09:29Z</time>
      </trkpt>
      <trkpt lat="49.1393" lon="1.39047">
        <ele>116.2</ele>
        <time>2021-04-14T14:09:32Z</time>
      </trkpt>
      <trkpt lat="49.13918" lon="1.39051">
        <ele>116.8</ele>
        <time>2021-04-14T14:09:36Z</time>
      </trkpt>
      <trkpt lat="49.139" lon="1.39048">
        <ele>117.4</ele>
        <time>2021-04-14T14:09:42Z</time>
      </trkpt>
      <trkpt lat="49.13871" lon="1.39041">
        <ele>118.8</ele>
        <time>2021-04-14T14:09:51Z</time>
      </trkpt>
      <trkpt lat="49.13852" lon="1.39035">
        <ele>119.4</ele>
        <time>2021-04-14T14:09:57Z</time>
      </trkpt>
      <trkpt lat="49.13845" lon="1.39033">
        <ele>119.8</ele>
        <time>2021-04-14T14:09:59Z</time>
      </trkpt>
      <trkpt lat="49.13829" lon="1.39029">
        <ele>120.6</ele>
        <time>2021-04-14T14:10:05Z</time>
      </trkpt>
      <trkpt lat="49.13826" lon="1.39029">
        <ele>120.8</ele>
        <time>2021-04-14T14:10:06Z</time>
      </trkpt>
      <trkpt lat="49.13814" lon="1.39026">
        <ele>121.4</ele>
        <time>2021-04-14T14:10:11Z</time>
      </trkpt>
      <trkpt lat="49.13809" lon="1.39024">
        <ele>121.8</ele>
        <time>2021-04-14T14:10:13Z</time>
      </trkpt>
      <trkpt lat="49.13798" lon="1.39021">
        <ele>122.6</ele>
        <time>2021-04-14T14:10:17Z</time>
      </trkpt>
      <trkpt lat="49.13795" lon="1.3902">
        <ele>123</ele>
        <time>2021-04-14T14:10:18Z</time>
      </trkpt>
      <trkpt lat="49.13778" lon="1.39015">
        <ele>124</ele>
        <time>2021-04-14T14:10:24Z</time>
      </trkpt>
      <trkpt lat="49.13772" lon="1.39013">
        <ele>124.4</ele>
        <time>2021-04-14T14:10:26Z</time>
      </trkpt>
      <trkpt lat="49.1376" lon="1.39007">
        <ele>125.2</ele>
        <time>2021-04-14T14:10:30Z</time>
      </trkpt>
      <trkpt lat="49.13751" lon="1.39004">
        <ele>125.8</ele>
        <time>2021-04-14T14:10:33Z</time>
      </trkpt>
      <trkpt lat="49.13736" lon="1.38999">
        <ele>126.2</ele>
        <time>2021-04-14T14:10:38Z</time>
      </trkpt>
      <trkpt lat="49.1373" lon="1.38996">
        <ele>126</ele>
        <time>2021-04-14T14:10:40Z</time>
      </trkpt>
      <trkpt lat="49.13709" lon="1.38985">
        <ele>127.2</ele>
        <time>2021-04-14T14:10:47Z</time>
      </trkpt>
      <trkpt lat="49.13703" lon="1.38979">
        <ele>127.4</ele>
        <time>2021-04-14T14:10:49Z</time>
      </trkpt>
      <trkpt lat="49.13684" lon="1.38957">
        <ele>127.8</ele>
        <time>2021-04-14T14:10:55Z</time>
      </trkpt>
      <trkpt lat="49.13664" lon="1.38937">
        <ele>128</ele>
        <time>2021-04-14T14:11:02Z</time>
      </trkpt>
      <trkpt lat="49.13647" lon="1.3892">
        <ele>128.4</ele>
        <time>2021-04-14T14:11:07Z</time>
      </trkpt>
      <trkpt lat="49.1364" lon="1.38913">
        <ele>128.4</ele>
        <time>2021-04-14T14:11:09Z</time>
      </trkpt>
      <trkpt lat="49.13624" lon="1.38896">
        <ele>129.2</ele>
        <time>2021-04-14T14:11:14Z</time>
      </trkpt>
      <trkpt lat="49.1362" lon="1.38893">
        <ele>129.2</ele>
        <time>2021-04-14T14:11:15Z</time>
      </trkpt>
      <trkpt lat="49.1361" lon="1.38881">
        <ele>129.2</ele>
        <time>2021-04-14T14:11:18Z</time>
      </trkpt>
      <trkpt lat="49.13589" lon="1.38859">
        <ele>129.8</ele>
        <time>2021-04-14T14:11:24Z</time>
      </trkpt>
      <trkpt lat="49.13578" lon="1.38848">
        <ele>130</ele>
        <time>2021-04-14T14:11:27Z</time>
      </trkpt>
      <trkpt lat="49.13567" lon="1.38837">
        <ele>130</ele>
        <time>2021-04-14T14:11:30Z</time>
      </trkpt>
      <trkpt lat="49.13549" lon="1.38816">
        <ele>130.4</ele>
        <time>2021-04-14T14:11:35Z</time>
      </trkpt>
      <trkpt lat="49.13534" lon="1.38797">
        <ele>130.6</ele>
        <time>2021-04-14T14:11:39Z</time>
      </trkpt>
      <trkpt lat="49.135" lon="1.38753">
        <ele>130.8</ele>
        <time>2021-04-14T14:11:49Z</time>
      </trkpt>
      <trkpt lat="49.13472" lon="1.38718">
        <ele>131.4</ele>
        <time>2021-04-14T14:11:57Z</time>
      </trkpt>
      <trkpt lat="49.13468" lon="1.38714">
        <ele>131.6</ele>
        <time>2021-04-14T14:11:58Z</time>
      </trkpt>
      <trkpt lat="49.13442" lon="1.38688">
        <ele>132.6</ele>
        <time>2021-04-14T14:12:05Z</time>
      </trkpt>
      <trkpt lat="49.13435" lon="1.3868">
        <ele>132.6</ele>
        <time>2021-04-14T14:12:07Z</time>
      </trkpt>
      <trkpt lat="49.13425" lon="1.3867">
        <ele>132.8</ele>
        <time>2021-04-14T14:12:10Z</time>
      </trkpt>
      <trkpt lat="49.13412" lon="1.38662">
        <ele>133</ele>
        <time>2021-04-14T14:12:13Z</time>
      </trkpt>
      <trkpt lat="49.13401" lon="1.38655">
        <ele>133.4</ele>
        <time>2021-04-14T14:12:16Z</time>
      </trkpt>
      <trkpt lat="49.13398" lon="1.38655">
        <ele>133.6</ele>
        <time>2021-04-14T14:12:17Z</time>
      </trkpt>
      <trkpt lat="49.13394" lon="1.38667">
        <ele>133.8</ele>
        <time>2021-04-14T14:12:20Z</time>
      </trkpt>
      <trkpt lat="49.13398" lon="1.38677">
        <ele>134</ele>
        <time>2021-04-14T14:12:22Z</time>
      </trkpt>
      <trkpt lat="49.13407" lon="1.38703">
        <ele>134</ele>
        <time>2021-04-14T14:12:26Z</time>
      </trkpt>
      <trkpt lat="49.1341" lon="1.38709">
        <ele>134</ele>
        <time>2021-04-14T14:12:27Z</time>
      </trkpt>
      <trkpt lat="49.1342" lon="1.38735">
        <ele>133.4</ele>
        <time>2021-04-14T14:12:31Z</time>
      </trkpt>
      <trkpt lat="49.13422" lon="1.38741">
        <ele>133.2</ele>
        <time>2021-04-14T14:12:32Z</time>
      </trkpt>
      <trkpt lat="49.13429" lon="1.38763">
        <ele>132.4</ele>
        <time>2021-04-14T14:12:35Z</time>
      </trkpt>
      <trkpt lat="49.13436" lon="1.38786">
        <ele>132</ele>
        <time>2021-04-14T14:12:38Z</time>
      </trkpt>
      <trkpt lat="49.13458" lon="1.38861">
        <ele>132.4</ele>
        <time>2021-04-14T14:12:48Z</time>
      </trkpt>
      <trkpt lat="49.13465" lon="1.38884">
        <ele>132.4</ele>
        <time>2021-04-14T14:12:51Z</time>
      </trkpt>
      <trkpt lat="49.13489" lon="1.38954">
        <ele>132.6</ele>
        <time>2021-04-14T14:13:00Z</time>
      </trkpt>
      <trkpt lat="49.1352" lon="1.39024">
        <ele>132.2</ele>
        <time>2021-04-14T14:13:09Z</time>
      </trkpt>
      <trkpt lat="49.13533" lon="1.39056">
        <ele>131.8</ele>
        <time>2021-04-14T14:13:13Z</time>
      </trkpt>
      <trkpt lat="49.13536" lon="1.39066">
        <ele>131.6</ele>
        <time>2021-04-14T14:13:14Z</time>
      </trkpt>
      <trkpt lat="49.13539" lon="1.39075">
        <ele>131.6</ele>
        <time>2021-04-14T14:13:15Z</time>
      </trkpt>
      <trkpt lat="49.13548" lon="1.39109">
        <ele>131.2</ele>
        <time>2021-04-14T14:13:19Z</time>
      </trkpt>
      <trkpt lat="49.13549" lon="1.39127">
        <ele>131</ele>
        <time>2021-04-14T14:13:21Z</time>
      </trkpt>
      <trkpt lat="49.13548" lon="1.39145">
        <ele>130.8</ele>
        <time>2021-04-14T14:13:23Z</time>
      </trkpt>
      <trkpt lat="49.13547" lon="1.39163">
        <ele>130.6</ele>
        <time>2021-04-14T14:13:25Z</time>
      </trkpt>
      <trkpt lat="49.13545" lon="1.39171">
        <ele>130.4</ele>
        <time>2021-04-14T14:13:26Z</time>
      </trkpt>
      <trkpt lat="49.13532" lon="1.3918">
        <ele>130.2</ele>
        <time>2021-04-14T14:13:29Z</time>
      </trkpt>
      <trkpt lat="49.13527" lon="1.39179">
        <ele>130.2</ele>
        <time>2021-04-14T14:13:30Z</time>
      </trkpt>
      <trkpt lat="49.13491" lon="1.39168">
        <ele>130</ele>
        <time>2021-04-14T14:13:37Z</time>
      </trkpt>
      <trkpt lat="49.13455" lon="1.39154">
        <ele>131</ele>
        <time>2021-04-14T14:13:44Z</time>
      </trkpt>
      <trkpt lat="49.13439" lon="1.3915">
        <ele>131.4</ele>
        <time>2021-04-14T14:13:47Z</time>
      </trkpt>
      <trkpt lat="49.13423" lon="1.39145">
        <ele>131.4</ele>
        <time>2021-04-14T14:13:50Z</time>
      </trkpt>
      <trkpt lat="49.13403" lon="1.39138">
        <ele>131.6</ele>
        <time>2021-04-14T14:13:54Z</time>
      </trkpt>
      <trkpt lat="49.13373" lon="1.39127">
        <ele>131.6</ele>
        <time>2021-04-14T14:14:00Z</time>
      </trkpt>
      <trkpt lat="49.13337" lon="1.39114">
        <ele>131.8</ele>
        <time>2021-04-14T14:14:08Z</time>
      </trkpt>
      <trkpt lat="49.13295" lon="1.39098">
        <ele>132</ele>
        <time>2021-04-14T14:14:17Z</time>
      </trkpt>
      <trkpt lat="49.13265" lon="1.39087">
        <ele>132</ele>
        <time>2021-04-14T14:14:24Z</time>
      </trkpt>
      <trkpt lat="49.13221" lon="1.39071">
        <ele>132.6</ele>
        <time>2021-04-14T14:14:34Z</time>
      </trkpt>
      <trkpt lat="49.13199" lon="1.39064">
        <ele>133</ele>
        <time>2021-04-14T14:14:39Z</time>
      </trkpt>
      <trkpt lat="49.13181" lon="1.39057">
        <ele>133.2</ele>
        <time>2021-04-14T14:14:43Z</time>
      </trkpt>
      <trkpt lat="49.13143" lon="1.39053">
        <ele>133.4</ele>
        <time>2021-04-14T14:14:50Z</time>
      </trkpt>
      <trkpt lat="49.13103" lon="1.39065">
        <ele>133.2</ele>
        <time>2021-04-14T14:14:57Z</time>
      </trkpt>
      <trkpt lat="49.13069" lon="1.39082">
        <ele>132.6</ele>
        <time>2021-04-14T14:15:03Z</time>
      </trkpt>
      <trkpt lat="49.13039" lon="1.39094">
        <ele>132</ele>
        <time>2021-04-14T14:15:08Z</time>
      </trkpt>
      <trkpt lat="49.13033" lon="1.39096">
        <ele>131.8</ele>
        <time>2021-04-14T14:15:09Z</time>
      </trkpt>
      <trkpt lat="49.13027" lon="1.39097">
        <ele>131.8</ele>
        <time>2021-04-14T14:15:10Z</time>
      </trkpt>
      <trkpt lat="49.12999" lon="1.39109">
        <ele>131</ele>
        <time>2021-04-14T14:15:15Z</time>
      </trkpt>
      <trkpt lat="49.12972" lon="1.39118">
        <ele>130.8</ele>
        <time>2021-04-14T14:15:20Z</time>
      </trkpt>
      <trkpt lat="49.12967" lon="1.3912">
        <ele>130.6</ele>
        <time>2021-04-14T14:15:21Z</time>
      </trkpt>
      <trkpt lat="49.12962" lon="1.39128">
        <ele>130.4</ele>
        <time>2021-04-14T14:15:23Z</time>
      </trkpt>
      <trkpt lat="49.1297" lon="1.39141">
        <ele>130.2</ele>
        <time>2021-04-14T14:15:26Z</time>
      </trkpt>
      <trkpt lat="49.12984" lon="1.39154">
        <ele>130</ele>
        <time>2021-04-14T14:15:29Z</time>
      </trkpt>
      <trkpt lat="49.12995" lon="1.39163">
        <ele>129.8</ele>
        <time>2021-04-14T14:15:31Z</time>
      </trkpt>
      <trkpt lat="49.13033" lon="1.39208">
        <ele>128.8</ele>
        <time>2021-04-14T14:15:39Z</time>
      </trkpt>
      <trkpt lat="49.13051" lon="1.39232">
        <ele>127.8</ele>
        <time>2021-04-14T14:15:43Z</time>
      </trkpt>
      <trkpt lat="49.1306" lon="1.39242">
        <ele>127.4</ele>
        <time>2021-04-14T14:15:45Z</time>
      </trkpt>
      <trkpt lat="49.13065" lon="1.39246">
        <ele>127.4</ele>
        <time>2021-04-14T14:15:46Z</time>
      </trkpt>
      <trkpt lat="49.13075" lon="1.39262">
        <ele>127.2</ele>
        <time>2021-04-14T14:15:49Z</time>
      </trkpt>
      <trkpt lat="49.13064" lon="1.39282">
        <ele>127.2</ele>
        <time>2021-04-14T14:15:52Z</time>
      </trkpt>
      <trkpt lat="49.13059" lon="1.39289">
        <ele>127</ele>
        <time>2021-04-14T14:15:53Z</time>
      </trkpt>
      <trkpt lat="49.1304" lon="1.39307">
        <ele>127</ele>
        <time>2021-04-14T14:15:56Z</time>
      </trkpt>
      <trkpt lat="49.13007" lon="1.39344">
        <ele>127</ele>
        <time>2021-04-14T14:16:01Z</time>
      </trkpt>
      <trkpt lat="49.13001" lon="1.39353">
        <ele>126.8</ele>
        <time>2021-04-14T14:16:02Z</time>
      </trkpt>
      <trkpt lat="49.12997" lon="1.39362">
        <ele>126.6</ele>
        <time>2021-04-14T14:16:03Z</time>
      </trkpt>
      <trkpt lat="49.12992" lon="1.39372">
        <ele>126.4</ele>
        <time>2021-04-14T14:16:04Z</time>
      </trkpt>
      <trkpt lat="49.12989" lon="1.39382">
        <ele>126</ele>
        <time>2021-04-14T14:16:05Z</time>
      </trkpt>
      <trkpt lat="49.12982" lon="1.394">
        <ele>124.8</ele>
        <time>2021-04-14T14:16:07Z</time>
      </trkpt>
      <trkpt lat="49.12975" lon="1.39415">
        <ele>123.8</ele>
        <time>2021-04-14T14:16:09Z</time>
      </trkpt>
      <trkpt lat="49.12972" lon="1.39422">
        <ele>123.6</ele>
        <time>2021-04-14T14:16:10Z</time>
      </trkpt>
      <trkpt lat="49.12958" lon="1.39449">
        <ele>123.4</ele>
        <time>2021-04-14T14:16:14Z</time>
      </trkpt>
      <trkpt lat="49.12956" lon="1.39456">
        <ele>123.4</ele>
        <time>2021-04-14T14:16:15Z</time>
      </trkpt>
      <trkpt lat="49.12953" lon="1.39471">
        <ele>123.4</ele>
        <time>2021-04-14T14:16:17Z</time>
      </trkpt>
      <trkpt lat="49.12948" lon="1.39496">
        <ele>124.2</ele>
        <time>2021-04-14T14:16:20Z</time>
      </trkpt>
      <trkpt lat="49.12937" lon="1.39562">
        <ele>124.6</ele>
        <time>2021-04-14T14:16:27Z</time>
      </trkpt>
      <trkpt lat="49.12927" lon="1.39628">
        <ele>124.6</ele>
        <time>2021-04-14T14:16:33Z</time>
      </trkpt>
      <trkpt lat="49.12927" lon="1.3964">
        <ele>124.6</ele>
        <time>2021-04-14T14:16:34Z</time>
      </trkpt>
      <trkpt lat="49.12928" lon="1.39677">
        <ele>124</ele>
        <time>2021-04-14T14:16:37Z</time>
      </trkpt>
      <trkpt lat="49.1293" lon="1.39728">
        <ele>122</ele>
        <time>2021-04-14T14:16:41Z</time>
      </trkpt>
      <trkpt lat="49.12932" lon="1.39754">
        <ele>121</ele>
        <time>2021-04-14T14:16:43Z</time>
      </trkpt>
      <trkpt lat="49.12934" lon="1.39779">
        <ele>119.6</ele>
        <time>2021-04-14T14:16:45Z</time>
      </trkpt>
      <trkpt lat="49.12936" lon="1.39806">
        <ele>118.4</ele>
        <time>2021-04-14T14:16:47Z</time>
      </trkpt>
      <trkpt lat="49.12939" lon="1.39835">
        <ele>117</ele>
        <time>2021-04-14T14:16:49Z</time>
      </trkpt>
      <trkpt lat="49.1294" lon="1.39849">
        <ele>116.4</ele>
        <time>2021-04-14T14:16:50Z</time>
      </trkpt>
      <trkpt lat="49.12942" lon="1.39862">
        <ele>115.8</ele>
        <time>2021-04-14T14:16:51Z</time>
      </trkpt>
      <trkpt lat="49.12944" lon="1.39887">
        <ele>114.4</ele>
        <time>2021-04-14T14:16:53Z</time>
      </trkpt>
      <trkpt lat="49.12944" lon="1.399">
        <ele>113.6</ele>
        <time>2021-04-14T14:16:54Z</time>
      </trkpt>
      <trkpt lat="49.12944" lon="1.39912">
        <ele>112.8</ele>
        <time>2021-04-14T14:16:55Z</time>
      </trkpt>
      <trkpt lat="49.12942" lon="1.39934">
        <ele>111</ele>
        <time>2021-04-14T14:16:57Z</time>
      </trkpt>
      <trkpt lat="49.1294" lon="1.39942">
        <ele>109.8</ele>
        <time>2021-04-14T14:16:58Z</time>
      </trkpt>
      <trkpt lat="49.12938" lon="1.39949">
        <ele>108.6</ele>
        <time>2021-04-14T14:16:59Z</time>
      </trkpt>
      <trkpt lat="49.12934" lon="1.3996">
        <ele>106.8</ele>
        <time>2021-04-14T14:17:01Z</time>
      </trkpt>
      <trkpt lat="49.12931" lon="1.39975">
        <ele>104.8</ele>
        <time>2021-04-14T14:17:03Z</time>
      </trkpt>
      <trkpt lat="49.12928" lon="1.39984">
        <ele>103.8</ele>
        <time>2021-04-14T14:17:04Z</time>
      </trkpt>
      <trkpt lat="49.12923" lon="1.40003">
        <ele>102.2</ele>
        <time>2021-04-14T14:17:06Z</time>
      </trkpt>
      <trkpt lat="49.12915" lon="1.40025">
        <ele>100.8</ele>
        <time>2021-04-14T14:17:08Z</time>
      </trkpt>
      <trkpt lat="49.12908" lon="1.40046">
        <ele>99.2</ele>
        <time>2021-04-14T14:17:10Z</time>
      </trkpt>
      <trkpt lat="49.12899" lon="1.40068">
        <ele>97.8</ele>
        <time>2021-04-14T14:17:12Z</time>
      </trkpt>
      <trkpt lat="49.12889" lon="1.40092">
        <ele>96.4</ele>
        <time>2021-04-14T14:17:14Z</time>
      </trkpt>
      <trkpt lat="49.12879" lon="1.40112">
        <ele>94.8</ele>
        <time>2021-04-14T14:17:16Z</time>
      </trkpt>
      <trkpt lat="49.12875" lon="1.40121">
        <ele>93.8</ele>
        <time>2021-04-14T14:17:17Z</time>
      </trkpt>
      <trkpt lat="49.12872" lon="1.4013">
        <ele>92.6</ele>
        <time>2021-04-14T14:17:18Z</time>
      </trkpt>
      <trkpt lat="49.1287" lon="1.40139">
        <ele>91.2</ele>
        <time>2021-04-14T14:17:19Z</time>
      </trkpt>
      <trkpt lat="49.12869" lon="1.40147">
        <ele>90</ele>
        <time>2021-04-14T14:17:20Z</time>
      </trkpt>
      <trkpt lat="49.12868" lon="1.40157">
        <ele>88.4</ele>
        <time>2021-04-14T14:17:21Z</time>
      </trkpt>
      <trkpt lat="49.12866" lon="1.40165">
        <ele>87.2</ele>
        <time>2021-04-14T14:17:22Z</time>
      </trkpt>
      <trkpt lat="49.12862" lon="1.40174">
        <ele>85.8</ele>
        <time>2021-04-14T14:17:23Z</time>
      </trkpt>
      <trkpt lat="49.12858" lon="1.40184">
        <ele>84.6</ele>
        <time>2021-04-14T14:17:24Z</time>
      </trkpt>
      <trkpt lat="49.12853" lon="1.40194">
        <ele>83.6</ele>
        <time>2021-04-14T14:17:25Z</time>
      </trkpt>
      <trkpt lat="49.12849" lon="1.40202">
        <ele>82.4</ele>
        <time>2021-04-14T14:17:26Z</time>
      </trkpt>
      <trkpt lat="49.12844" lon="1.4021">
        <ele>81.2</ele>
        <time>2021-04-14T14:17:27Z</time>
      </trkpt>
      <trkpt lat="49.12841" lon="1.40218">
        <ele>80.4</ele>
        <time>2021-04-14T14:17:28Z</time>
      </trkpt>
      <trkpt lat="49.12838" lon="1.40224">
        <ele>79.6</ele>
        <time>2021-04-14T14:17:29Z</time>
      </trkpt>
      <trkpt lat="49.12835" lon="1.40228">
        <ele>78.4</ele>
        <time>2021-04-14T14:17:30Z</time>
      </trkpt>
      <trkpt lat="49.12831" lon="1.4023">
        <ele>77.2</ele>
        <time>2021-04-14T14:17:31Z</time>
      </trkpt>
      <trkpt lat="49.12828" lon="1.40231">
        <ele>75.6</ele>
        <time>2021-04-14T14:17:32Z</time>
      </trkpt>
      <trkpt lat="49.12824" lon="1.40231">
        <ele>74</ele>
        <time>2021-04-14T14:17:33Z</time>
      </trkpt>
      <trkpt lat="49.12818" lon="1.4023">
        <ele>72.4</ele>
        <time>2021-04-14T14:17:34Z</time>
      </trkpt>
      <trkpt lat="49.12812" lon="1.40228">
        <ele>70.8</ele>
        <time>2021-04-14T14:17:35Z</time>
      </trkpt>
      <trkpt lat="49.12805" lon="1.40227">
        <ele>69.6</ele>
        <time>2021-04-14T14:17:36Z</time>
      </trkpt>
      <trkpt lat="49.12798" lon="1.40228">
        <ele>68.6</ele>
        <time>2021-04-14T14:17:37Z</time>
      </trkpt>
      <trkpt lat="49.12791" lon="1.4023">
        <ele>66.8</ele>
        <time>2021-04-14T14:17:38Z</time>
      </trkpt>
      <trkpt lat="49.12785" lon="1.40232">
        <ele>66</ele>
        <time>2021-04-14T14:17:39Z</time>
      </trkpt>
      <trkpt lat="49.12779" lon="1.40233">
        <ele>64.8</ele>
        <time>2021-04-14T14:17:40Z</time>
      </trkpt>
      <trkpt lat="49.12775" lon="1.40234">
        <ele>63.6</ele>
        <time>2021-04-14T14:17:41Z</time>
      </trkpt>
      <trkpt lat="49.12773" lon="1.40236">
        <ele>62.2</ele>
        <time>2021-04-14T14:17:42Z</time>
      </trkpt>
      <trkpt lat="49.12772" lon="1.40239">
        <ele>61</ele>
        <time>2021-04-14T14:17:43Z</time>
      </trkpt>
      <trkpt lat="49.12772" lon="1.40242">
        <ele>59.2</ele>
        <time>2021-04-14T14:17:44Z</time>
      </trkpt>
      <trkpt lat="49.12774" lon="1.40244">
        <ele>57.4</ele>
        <time>2021-04-14T14:17:45Z</time>
      </trkpt>
      <trkpt lat="49.12776" lon="1.40247">
        <ele>55.6</ele>
        <time>2021-04-14T14:17:46Z</time>
      </trkpt>
      <trkpt lat="49.12779" lon="1.4025">
        <ele>54</ele>
        <time>2021-04-14T14:17:47Z</time>
      </trkpt>
      <trkpt lat="49.12782" lon="1.40252">
        <ele>52.6</ele>
        <time>2021-04-14T14:17:48Z</time>
      </trkpt>
      <trkpt lat="49.12785" lon="1.40255">
        <ele>51.4</ele>
        <time>2021-04-14T14:17:49Z</time>
      </trkpt>
      <trkpt lat="49.12788" lon="1.40258">
        <ele>50.4</ele>
        <time>2021-04-14T14:17:50Z</time>
      </trkpt>
      <trkpt lat="49.12795" lon="1.40265">
        <ele>48.8</ele>
        <time>2021-04-14T14:17:52Z</time>
      </trkpt>
      <trkpt lat="49.12798" lon="1.40269">
        <ele>48.2</ele>
        <time>2021-04-14T14:17:53Z</time>
      </trkpt>
      <trkpt lat="49.12802" lon="1.40273">
        <ele>47.8</ele>
        <time>2021-04-14T14:17:54Z</time>
      </trkpt>
      <trkpt lat="49.12813" lon="1.40284">
        <ele>47</ele>
        <time>2021-04-14T14:17:57Z</time>
      </trkpt>
      <trkpt lat="49.12845" lon="1.4031">
        <ele>47</ele>
        <time>2021-04-14T14:18:05Z</time>
      </trkpt>
      <trkpt lat="49.12869" lon="1.40327">
        <ele>46.8</ele>
        <time>2021-04-14T14:18:10Z</time>
      </trkpt>
      <trkpt lat="49.12874" lon="1.40331">
        <ele>46.8</ele>
        <time>2021-04-14T14:18:11Z</time>
      </trkpt>
      <trkpt lat="49.12895" lon="1.40347">
        <ele>46.6</ele>
        <time>2021-04-14T14:18:15Z</time>
      </trkpt>
      <trkpt lat="49.12919" lon="1.40367">
        <ele>46</ele>
        <time>2021-04-14T14:18:20Z</time>
      </trkpt>
      <trkpt lat="49.12952" lon="1.40385">
        <ele>46</ele>
        <time>2021-04-14T14:18:28Z</time>
      </trkpt>
      <trkpt lat="49.12966" lon="1.40392">
        <ele>47.6</ele>
        <time>2021-04-14T14:18:32Z</time>
      </trkpt>
      <trkpt lat="49.12969" lon="1.40395">
        <ele>47.8</ele>
        <time>2021-04-14T14:18:33Z</time>
      </trkpt>
      <trkpt lat="49.12985" lon="1.40409">
        <ele>48.8</ele>
        <time>2021-04-14T14:18:38Z</time>
      </trkpt>
      <trkpt lat="49.13001" lon="1.40418">
        <ele>49.4</ele>
        <time>2021-04-14T14:18:43Z</time>
      </trkpt>
      <trkpt lat="49.13018" lon="1.40424">
        <ele>50</ele>
        <time>2021-04-14T14:18:48Z</time>
      </trkpt>
      <trkpt lat="49.13022" lon="1.40425">
        <ele>50.2</ele>
        <time>2021-04-14T14:18:49Z</time>
      </trkpt>
      <trkpt lat="49.13039" lon="1.40426">
        <ele>50.4</ele>
        <time>2021-04-14T14:18:53Z</time>
      </trkpt>
      <trkpt lat="49.13073" lon="1.40418">
        <ele>50.4</ele>
        <time>2021-04-14T14:18:58Z</time>
      </trkpt>
      <trkpt lat="49.13113" lon="1.40411">
        <ele>49.8</ele>
        <time>2021-04-14T14:19:03Z</time>
      </trkpt>
      <trkpt lat="49.1312" lon="1.40409">
        <ele>49</ele>
        <time>2021-04-14T14:19:04Z</time>
      </trkpt>
      <trkpt lat="49.13133" lon="1.40406">
        <ele>47.6</ele>
        <time>2021-04-14T14:19:06Z</time>
      </trkpt>
      <trkpt lat="49.13139" lon="1.40404">
        <ele>47</ele>
        <time>2021-04-14T14:19:07Z</time>
      </trkpt>
      <trkpt lat="49.13144" lon="1.40402">
        <ele>46.4</ele>
        <time>2021-04-14T14:19:08Z</time>
      </trkpt>
      <trkpt lat="49.13151" lon="1.40406">
        <ele>45.4</ele>
        <time>2021-04-14T14:19:10Z</time>
      </trkpt>
      <trkpt lat="49.13154" lon="1.40418">
        <ele>45</ele>
        <time>2021-04-14T14:19:12Z</time>
      </trkpt>
      <trkpt lat="49.13157" lon="1.40425">
        <ele>44.8</ele>
        <time>2021-04-14T14:19:13Z</time>
      </trkpt>
      <trkpt lat="49.13168" lon="1.40432">
        <ele>44.4</ele>
        <time>2021-04-14T14:19:16Z</time>
      </trkpt>
      <trkpt lat="49.13194" lon="1.40433">
        <ele>43.8</ele>
        <time>2021-04-14T14:19:20Z</time>
      </trkpt>
      <trkpt lat="49.13205" lon="1.4044">
        <ele>42.8</ele>
        <time>2021-04-14T14:19:22Z</time>
      </trkpt>
      <trkpt lat="49.13211" lon="1.40442">
        <ele>42.4</ele>
        <time>2021-04-14T14:19:23Z</time>
      </trkpt>
      <trkpt lat="49.13216" lon="1.40444">
        <ele>41.8</ele>
        <time>2021-04-14T14:19:24Z</time>
      </trkpt>
      <trkpt lat="49.13221" lon="1.40445">
        <ele>41.4</ele>
        <time>2021-04-14T14:19:25Z</time>
      </trkpt>
      <trkpt lat="49.1324" lon="1.40451">
        <ele>40</ele>
        <time>2021-04-14T14:19:28Z</time>
      </trkpt>
      <trkpt lat="49.13252" lon="1.40453">
        <ele>38.8</ele>
        <time>2021-04-14T14:19:30Z</time>
      </trkpt>
      <trkpt lat="49.13268" lon="1.40458">
        <ele>37.6</ele>
        <time>2021-04-14T14:19:33Z</time>
      </trkpt>
      <trkpt lat="49.13298" lon="1.40468">
        <ele>37.6</ele>
        <time>2021-04-14T14:19:39Z</time>
      </trkpt>
      <trkpt lat="49.13304" lon="1.40469">
        <ele>37.6</ele>
        <time>2021-04-14T14:19:40Z</time>
      </trkpt>
      <trkpt lat="49.13334" lon="1.40478">
        <ele>38.6</ele>
        <time>2021-04-14T14:19:46Z</time>
      </trkpt>
      <trkpt lat="49.13338" lon="1.4048">
        <ele>38.8</ele>
        <time>2021-04-14T14:19:47Z</time>
      </trkpt>
      <trkpt lat="49.1334" lon="1.40483">
        <ele>39</ele>
        <time>2021-04-14T14:19:48Z</time>
      </trkpt>
      <trkpt lat="49.13341" lon="1.40488">
        <ele>39</ele>
        <time>2021-04-14T14:19:49Z</time>
      </trkpt>
      <trkpt lat="49.13341" lon="1.40508">
        <ele>39.2</ele>
        <time>2021-04-14T14:19:52Z</time>
      </trkpt>
      <trkpt lat="49.13355" lon="1.40519">
        <ele>39.2</ele>
        <time>2021-04-14T14:19:55Z</time>
      </trkpt>
      <trkpt lat="49.13388" lon="1.40534">
        <ele>37</ele>
        <time>2021-04-14T14:20:01Z</time>
      </trkpt>
      <trkpt lat="49.13399" lon="1.4054">
        <ele>35.8</ele>
        <time>2021-04-14T14:20:03Z</time>
      </trkpt>
      <trkpt lat="49.13417" lon="1.4055">
        <ele>34.8</ele>
        <time>2021-04-14T14:20:06Z</time>
      </trkpt>
      <trkpt lat="49.13423" lon="1.40554">
        <ele>34.6</ele>
        <time>2021-04-14T14:20:07Z</time>
      </trkpt>
      <trkpt lat="49.13429" lon="1.40557">
        <ele>34.6</ele>
        <time>2021-04-14T14:20:08Z</time>
      </trkpt>
      <trkpt lat="49.13441" lon="1.40564">
        <ele>34.2</ele>
        <time>2021-04-14T14:20:10Z</time>
      </trkpt>
      <trkpt lat="49.13447" lon="1.40566">
        <ele>34.2</ele>
        <time>2021-04-14T14:20:11Z</time>
      </trkpt>
      <trkpt lat="49.13465" lon="1.40575">
        <ele>33.6</ele>
        <time>2021-04-14T14:20:14Z</time>
      </trkpt>
      <trkpt lat="49.13471" lon="1.40578">
        <ele>33.4</ele>
        <time>2021-04-14T14:20:15Z</time>
      </trkpt>
      <trkpt lat="49.13477" lon="1.40582">
        <ele>33</ele>
        <time>2021-04-14T14:20:16Z</time>
      </trkpt>
      <trkpt lat="49.1349" lon="1.40589">
        <ele>32</ele>
        <time>2021-04-14T14:20:18Z</time>
      </trkpt>
      <trkpt lat="49.13515" lon="1.40608">
        <ele>31</ele>
        <time>2021-04-14T14:20:22Z</time>
      </trkpt>
      <trkpt lat="49.13522" lon="1.40614">
        <ele>30.8</ele>
        <time>2021-04-14T14:20:23Z</time>
      </trkpt>
      <trkpt lat="49.13529" lon="1.4062">
        <ele>30.6</ele>
        <time>2021-04-14T14:20:24Z</time>
      </trkpt>
      <trkpt lat="49.13549" lon="1.40637">
        <ele>30</ele>
        <time>2021-04-14T14:20:27Z</time>
      </trkpt>
      <trkpt lat="49.13555" lon="1.40643">
        <ele>29.6</ele>
        <time>2021-04-14T14:20:28Z</time>
      </trkpt>
      <trkpt lat="49.13566" lon="1.40654">
        <ele>28.6</ele>
        <time>2021-04-14T14:20:30Z</time>
      </trkpt>
      <trkpt lat="49.13579" lon="1.40663">
        <ele>27.8</ele>
        <time>2021-04-14T14:20:32Z</time>
      </trkpt>
      <trkpt lat="49.13585" lon="1.40668">
        <ele>27.4</ele>
        <time>2021-04-14T14:20:33Z</time>
      </trkpt>
      <trkpt lat="49.13607" lon="1.40685">
        <ele>26.2</ele>
        <time>2021-04-14T14:20:37Z</time>
      </trkpt>
      <trkpt lat="49.13611" lon="1.4069">
        <ele>26</ele>
        <time>2021-04-14T14:20:38Z</time>
      </trkpt>
      <trkpt lat="49.1362" lon="1.40699">
        <ele>25.8</ele>
        <time>2021-04-14T14:20:40Z</time>
      </trkpt>
      <trkpt lat="49.1363" lon="1.40708">
        <ele>25.8</ele>
        <time>2021-04-14T14:20:42Z</time>
      </trkpt>
      <trkpt lat="49.13647" lon="1.40726">
        <ele>25.6</ele>
        <time>2021-04-14T14:20:46Z</time>
      </trkpt>
      <trkpt lat="49.13652" lon="1.4073">
        <ele>25.6</ele>
        <time>2021-04-14T14:20:47Z</time>
      </trkpt>
      <trkpt lat="49.13685" lon="1.40761">
        <ele>25.2</ele>
        <time>2021-04-14T14:20:54Z</time>
      </trkpt>
      <trkpt lat="49.13689" lon="1.40765">
        <ele>25.2</ele>
        <time>2021-04-14T14:20:55Z</time>
      </trkpt>
      <trkpt lat="49.13726" lon="1.40802">
        <ele>25.2</ele>
        <time>2021-04-14T14:21:03Z</time>
      </trkpt>
      <trkpt lat="49.13754" lon="1.40834">
        <ele>25.6</ele>
        <time>2021-04-14T14:21:09Z</time>
      </trkpt>
      <trkpt lat="49.13786" lon="1.40866">
        <ele>25.4</ele>
        <time>2021-04-14T14:21:15Z</time>
      </trkpt>
      <trkpt lat="49.13813" lon="1.40893">
        <ele>25</ele>
        <time>2021-04-14T14:21:20Z</time>
      </trkpt>
      <trkpt lat="49.13833" lon="1.40918">
        <ele>24.2</ele>
        <time>2021-04-14T14:21:24Z</time>
      </trkpt>
      <trkpt lat="49.13845" lon="1.40934">
        <ele>23.6</ele>
        <time>2021-04-14T14:21:27Z</time>
      </trkpt>
      <trkpt lat="49.13854" lon="1.40946">
        <ele>23.6</ele>
        <time>2021-04-14T14:21:29Z</time>
      </trkpt>
      <trkpt lat="49.13862" lon="1.40961">
        <ele>23.6</ele>
        <time>2021-04-14T14:21:31Z</time>
      </trkpt>
      <trkpt lat="49.1387" lon="1.40977">
        <ele>23.4</ele>
        <time>2021-04-14T14:21:33Z</time>
      </trkpt>
      <trkpt lat="49.13877" lon="1.40992">
        <ele>23.4</ele>
        <time>2021-04-14T14:21:35Z</time>
      </trkpt>
      <trkpt lat="49.13888" lon="1.41006">
        <ele>23.4</ele>
        <time>2021-04-14T14:21:37Z</time>
      </trkpt>
      <trkpt lat="49.13903" lon="1.41024">
        <ele>23</ele>
        <time>2021-04-14T14:21:40Z</time>
      </trkpt>
      <trkpt lat="49.13927" lon="1.41052">
        <ele>22.4</ele>
        <time>2021-04-14T14:21:45Z</time>
      </trkpt>
      <trkpt lat="49.13962" lon="1.41087">
        <ele>22.2</ele>
        <time>2021-04-14T14:21:52Z</time>
      </trkpt>
      <trkpt lat="49.13996" lon="1.41118">
        <ele>22</ele>
        <time>2021-04-14T14:21:58Z</time>
      </trkpt>
      <trkpt lat="49.14001" lon="1.41122">
        <ele>22</ele>
        <time>2021-04-14T14:21:59Z</time>
      </trkpt>
      <trkpt lat="49.14027" lon="1.41147">
        <ele>20.8</ele>
        <time>2021-04-14T14:22:04Z</time>
      </trkpt>
      <trkpt lat="49.14037" lon="1.41157">
        <ele>20.2</ele>
        <time>2021-04-14T14:22:06Z</time>
      </trkpt>
      <trkpt lat="49.14069" lon="1.41189">
        <ele>19.8</ele>
        <time>2021-04-14T14:22:13Z</time>
      </trkpt>
      <trkpt lat="49.14091" lon="1.4121">
        <ele>19.8</ele>
        <time>2021-04-14T14:22:18Z</time>
      </trkpt>
      <trkpt lat="49.141" lon="1.41217">
        <ele>19.8</ele>
        <time>2021-04-14T14:22:20Z</time>
      </trkpt>
      <trkpt lat="49.14113" lon="1.41231">
        <ele>20</ele>
        <time>2021-04-14T14:22:23Z</time>
      </trkpt>
      <trkpt lat="49.14133" lon="1.41253">
        <ele>20</ele>
        <time>2021-04-14T14:22:28Z</time>
      </trkpt>
      <trkpt lat="49.1416" lon="1.41287">
        <ele>20.2</ele>
        <time>2021-04-14T14:22:34Z</time>
      </trkpt>
      <trkpt lat="49.14165" lon="1.41293">
        <ele>20.2</ele>
        <time>2021-04-14T14:22:35Z</time>
      </trkpt>
      <trkpt lat="49.14177" lon="1.41327">
        <ele>20.2</ele>
        <time>2021-04-14T14:22:39Z</time>
      </trkpt>
      <trkpt lat="49.14202" lon="1.41382">
        <ele>19.6</ele>
        <time>2021-04-14T14:22:46Z</time>
      </trkpt>
      <trkpt lat="49.1423" lon="1.41442">
        <ele>18.8</ele>
        <time>2021-04-14T14:22:54Z</time>
      </trkpt>
      <trkpt lat="49.14235" lon="1.41453">
        <ele>18.6</ele>
        <time>2021-04-14T14:22:57Z</time>
      </trkpt>
      <trkpt lat="49.14229" lon="1.41466">
        <ele>18.6</ele>
        <time>2021-04-14T14:23:01Z</time>
      </trkpt>
      <trkpt lat="49.14227" lon="1.41471">
        <ele>18.6</ele>
        <time>2021-04-14T14:23:02Z</time>
      </trkpt>
      <trkpt lat="49.14219" lon="1.41488">
        <ele>18.8</ele>
        <time>2021-04-14T14:23:05Z</time>
      </trkpt>
      <trkpt lat="49.14213" lon="1.415">
        <ele>18.8</ele>
        <time>2021-04-14T14:23:07Z</time>
      </trkpt>
      <trkpt lat="49.142" lon="1.41531">
        <ele>18.8</ele>
        <time>2021-04-14T14:23:13Z</time>
      </trkpt>
      <trkpt lat="49.14201" lon="1.41535">
        <ele>18.8</ele>
        <time>2021-04-14T14:23:17Z</time>
      </trkpt>
      <trkpt lat="49.14204" lon="1.4154">
        <ele>18.8</ele>
        <time>2021-04-14T14:23:19Z</time>
      </trkpt>
      <trkpt lat="49.14203" lon="1.41544">
        <ele>18.8</ele>
        <time>2021-04-14T14:23:20Z</time>
      </trkpt>
      <trkpt lat="49.14191" lon="1.4157">
        <ele>18.8</ele>
        <time>2021-04-14T14:23:25Z</time>
      </trkpt>
      <trkpt lat="49.14186" lon="1.41581">
        <ele>18.6</ele>
        <time>2021-04-14T14:23:27Z</time>
      </trkpt>
      <trkpt lat="49.14169" lon="1.41617">
        <ele>17.6</ele>
        <time>2021-04-14T14:23:33Z</time>
      </trkpt>
      <trkpt lat="49.14166" lon="1.41623">
        <ele>17.6</ele>
        <time>2021-04-14T14:23:34Z</time>
      </trkpt>
      <trkpt lat="49.14145" lon="1.41665">
        <ele>17.4</ele>
        <time>2021-04-14T14:23:42Z</time>
      </trkpt>
      <trkpt lat="49.14134" lon="1.41685">
        <ele>17.4</ele>
        <time>2021-04-14T14:23:47Z</time>
      </trkpt>
      <trkpt lat="49.14129" lon="1.41696">
        <ele>17.6</ele>
        <time>2021-04-14T14:23:49Z</time>
      </trkpt>
      <trkpt lat="49.1412" lon="1.41717">
        <ele>18.2</ele>
        <time>2021-04-14T14:23:53Z</time>
      </trkpt>
      <trkpt lat="49.14113" lon="1.41735">
        <ele>18.2</ele>
        <time>2021-04-14T14:23:57Z</time>
      </trkpt>
      <trkpt lat="49.14114" lon="1.41741">
        <ele>18.2</ele>
        <time>2021-04-14T14:23:58Z</time>
      </trkpt>
      <trkpt lat="49.14115" lon="1.41768">
        <ele>18.2</ele>
        <time>2021-04-14T14:24:02Z</time>
      </trkpt>
      <trkpt lat="49.14115" lon="1.41776">
        <ele>18.2</ele>
        <time>2021-04-14T14:24:03Z</time>
      </trkpt>
      <trkpt lat="49.14116" lon="1.41797">
        <ele>18.2</ele>
        <time>2021-04-14T14:24:06Z</time>
      </trkpt>
      <trkpt lat="49.14117" lon="1.41811">
        <ele>17.4</ele>
        <time>2021-04-14T14:24:09Z</time>
      </trkpt>
      <trkpt lat="49.14109" lon="1.41821">
        <ele>16.4</ele>
        <time>2021-04-14T14:24:12Z</time>
      </trkpt>
      <trkpt lat="49.14106" lon="1.41825">
        <ele>16.2</ele>
        <time>2021-04-14T14:24:13Z</time>
      </trkpt>
      <trkpt lat="49.14103" lon="1.41829">
        <ele>16</ele>
        <time>2021-04-14T14:24:14Z</time>
      </trkpt>
      <trkpt lat="49.14099" lon="1.41834">
        <ele>15.8</ele>
        <time>2021-04-14T14:24:15Z</time>
      </trkpt>
      <trkpt lat="49.14081" lon="1.41857">
        <ele>15.6</ele>
        <time>2021-04-14T14:24:20Z</time>
      </trkpt>
      <trkpt lat="49.14071" lon="1.41871">
        <ele>15.6</ele>
        <time>2021-04-14T14:24:23Z</time>
      </trkpt>
      <trkpt lat="49.14067" lon="1.41885">
        <ele>15.6</ele>
        <time>2021-04-14T14:24:25Z</time>
      </trkpt>
      <trkpt lat="49.1406" lon="1.419">
        <ele>15.6</ele>
        <time>2021-04-14T14:24:28Z</time>
      </trkpt>
      <trkpt lat="49.14057" lon="1.41907">
        <ele>15.8</ele>
        <time>2021-04-14T14:24:32Z</time>
      </trkpt>
      <trkpt lat="49.14058" lon="1.41906">
        <ele>15.8</ele>
        <time>2021-04-14T14:24:33Z</time>
      </trkpt>
      <trkpt lat="49.1406" lon="1.41907">
        <ele>17.6</ele>
        <time>2021-04-14T14:33:10Z</time>
      </trkpt>
      <trkpt lat="49.1406" lon="1.41905">
        <ele>17.6</ele>
        <time>2021-04-14T14:33:11Z</time>
      </trkpt>
      <trkpt lat="49.14061" lon="1.41903">
        <ele>17.6</ele>
        <time>2021-04-14T14:33:12Z</time>
      </trkpt>
      <trkpt lat="49.14066" lon="1.41898">
        <ele>17.6</ele>
        <time>2021-04-14T14:33:15Z</time>
      </trkpt>
      <trkpt lat="49.1407" lon="1.41892">
        <ele>17.4</ele>
        <time>2021-04-14T14:33:17Z</time>
      </trkpt>
      <trkpt lat="49.14076" lon="1.41875">
        <ele>17.4</ele>
        <time>2021-04-14T14:33:22Z</time>
      </trkpt>
      <trkpt lat="49.1409" lon="1.4186">
        <ele>17.4</ele>
        <time>2021-04-14T14:33:27Z</time>
      </trkpt>
      <trkpt lat="49.14107" lon="1.4184">
        <ele>17.2</ele>
        <time>2021-04-14T14:33:33Z</time>
      </trkpt>
      <trkpt lat="49.14124" lon="1.41822">
        <ele>17</ele>
        <time>2021-04-14T14:33:39Z</time>
      </trkpt>
      <trkpt lat="49.1413" lon="1.41811">
        <ele>17</ele>
        <time>2021-04-14T14:33:42Z</time>
      </trkpt>
      <trkpt lat="49.1413" lon="1.41807">
        <ele>17</ele>
        <time>2021-04-14T14:33:43Z</time>
      </trkpt>
      <trkpt lat="49.14125" lon="1.41782">
        <ele>17.2</ele>
        <time>2021-04-14T14:33:50Z</time>
      </trkpt>
      <trkpt lat="49.14122" lon="1.41761">
        <ele>18</ele>
        <time>2021-04-14T14:33:55Z</time>
      </trkpt>
      <trkpt lat="49.1412" lon="1.41739">
        <ele>18.8</ele>
        <time>2021-04-14T14:34:01Z</time>
      </trkpt>
      <trkpt lat="49.14121" lon="1.41736">
        <ele>19</ele>
        <time>2021-04-14T14:34:02Z</time>
      </trkpt>
      <trkpt lat="49.14121" lon="1.41728">
        <ele>19.4</ele>
        <time>2021-04-14T14:34:04Z</time>
      </trkpt>
      <trkpt lat="49.14125" lon="1.4172">
        <ele>19.6</ele>
        <time>2021-04-14T14:34:06Z</time>
      </trkpt>
      <trkpt lat="49.14137" lon="1.4169">
        <ele>19.6</ele>
        <time>2021-04-14T14:34:12Z</time>
      </trkpt>
      <trkpt lat="49.14148" lon="1.41658">
        <ele>19.4</ele>
        <time>2021-04-14T14:34:18Z</time>
      </trkpt>
      <trkpt lat="49.14142" lon="1.41646">
        <ele>19.4</ele>
        <time>2021-04-14T14:34:21Z</time>
      </trkpt>
      <trkpt lat="49.14134" lon="1.41634">
        <ele>19.4</ele>
        <time>2021-04-14T14:34:24Z</time>
      </trkpt>
      <trkpt lat="49.14127" lon="1.41621">
        <ele>19.4</ele>
        <time>2021-04-14T14:34:27Z</time>
      </trkpt>
      <trkpt lat="49.14117" lon="1.41595">
        <ele>19.8</ele>
        <time>2021-04-14T14:34:33Z</time>
      </trkpt>
      <trkpt lat="49.14108" lon="1.41575">
        <ele>20.4</ele>
        <time>2021-04-14T14:34:39Z</time>
      </trkpt>
      <trkpt lat="49.14102" lon="1.41564">
        <ele>20.8</ele>
        <time>2021-04-14T14:34:43Z</time>
      </trkpt>
      <trkpt lat="49.14099" lon="1.41559">
        <ele>21.6</ele>
        <time>2021-04-14T14:34:45Z</time>
      </trkpt>
      <trkpt lat="49.14098" lon="1.41554">
        <ele>21.8</ele>
        <time>2021-04-14T14:34:47Z</time>
      </trkpt>
      <trkpt lat="49.14098" lon="1.41544">
        <ele>22.4</ele>
        <time>2021-04-14T14:34:50Z</time>
      </trkpt>
      <trkpt lat="49.14099" lon="1.41541">
        <ele>22.8</ele>
        <time>2021-04-14T14:34:51Z</time>
      </trkpt>
      <trkpt lat="49.14099" lon="1.41538">
        <ele>22.8</ele>
        <time>2021-04-14T14:34:52Z</time>
      </trkpt>
      <trkpt lat="49.14098" lon="1.41534">
        <ele>23.2</ele>
        <time>2021-04-14T14:34:54Z</time>
      </trkpt>
      <trkpt lat="49.14096" lon="1.4153">
        <ele>23.6</ele>
        <time>2021-04-14T14:34:56Z</time>
      </trkpt>
      <trkpt lat="49.14096" lon="1.41525">
        <ele>24</ele>
        <time>2021-04-14T14:34:58Z</time>
      </trkpt>
      <trkpt lat="49.14093" lon="1.41513">
        <ele>24.8</ele>
        <time>2021-04-14T14:35:03Z</time>
      </trkpt>
      <trkpt lat="49.14093" lon="1.41511">
        <ele>25.2</ele>
        <time>2021-04-14T14:35:04Z</time>
      </trkpt>
      <trkpt lat="49.14092" lon="1.41509">
        <ele>25.4</ele>
        <time>2021-04-14T14:35:05Z</time>
      </trkpt>
      <trkpt lat="49.14091" lon="1.415">
        <ele>26.4</ele>
        <time>2021-04-14T14:35:09Z</time>
      </trkpt>
      <trkpt lat="49.14091" lon="1.41491">
        <ele>27.4</ele>
        <time>2021-04-14T14:35:13Z</time>
      </trkpt>
      <trkpt lat="49.14089" lon="1.41486">
        <ele>28.2</ele>
        <time>2021-04-14T14:35:15Z</time>
      </trkpt>
      <trkpt lat="49.14088" lon="1.41484">
        <ele>28.6</ele>
        <time>2021-04-14T14:35:16Z</time>
      </trkpt>
      <trkpt lat="49.14085" lon="1.41476">
        <ele>29.8</ele>
        <time>2021-04-14T14:35:20Z</time>
      </trkpt>
      <trkpt lat="49.14084" lon="1.4147">
        <ele>30.6</ele>
        <time>2021-04-14T14:35:23Z</time>
      </trkpt>
      <trkpt lat="49.14083" lon="1.41468">
        <ele>31</ele>
        <time>2021-04-14T14:35:24Z</time>
      </trkpt>
      <trkpt lat="49.1408" lon="1.41457">
        <ele>32</ele>
        <time>2021-04-14T14:35:29Z</time>
      </trkpt>
      <trkpt lat="49.14079" lon="1.41455">
        <ele>32.4</ele>
        <time>2021-04-14T14:35:30Z</time>
      </trkpt>
      <trkpt lat="49.14076" lon="1.41447">
        <ele>33.2</ele>
        <time>2021-04-14T14:35:34Z</time>
      </trkpt>
      <trkpt lat="49.14074" lon="1.41444">
        <ele>33.6</ele>
        <time>2021-04-14T14:35:36Z</time>
      </trkpt>
      <trkpt lat="49.14072" lon="1.41441">
        <ele>34</ele>
        <time>2021-04-14T14:35:38Z</time>
      </trkpt>
      <trkpt lat="49.14071" lon="1.41439">
        <ele>34.2</ele>
        <time>2021-04-14T14:35:39Z</time>
      </trkpt>
      <trkpt lat="49.14066" lon="1.41432">
        <ele>35.4</ele>
        <time>2021-04-14T14:35:44Z</time>
      </trkpt>
      <trkpt lat="49.1406" lon="1.41426">
        <ele>36.4</ele>
        <time>2021-04-14T14:35:49Z</time>
      </trkpt>
      <trkpt lat="49.14059" lon="1.41424">
        <ele>36.6</ele>
        <time>2021-04-14T14:35:50Z</time>
      </trkpt>
      <trkpt lat="49.14056" lon="1.41422">
        <ele>37</ele>
        <time>2021-04-14T14:35:52Z</time>
      </trkpt>
      <trkpt lat="49.14053" lon="1.4142">
        <ele>37.4</ele>
        <time>2021-04-14T14:35:54Z</time>
      </trkpt>
      <trkpt lat="49.14052" lon="1.41418">
        <ele>37.6</ele>
        <time>2021-04-14T14:35:55Z</time>
      </trkpt>
      <trkpt lat="49.14044" lon="1.4141">
        <ele>38.6</ele>
        <time>2021-04-14T14:36:00Z</time>
      </trkpt>
      <trkpt lat="49.1404" lon="1.41406">
        <ele>39.4</ele>
        <time>2021-04-14T14:36:03Z</time>
      </trkpt>
      <trkpt lat="49.14038" lon="1.41403">
        <ele>39.6</ele>
        <time>2021-04-14T14:36:05Z</time>
      </trkpt>
      <trkpt lat="49.14032" lon="1.41395">
        <ele>40.8</ele>
        <time>2021-04-14T14:36:11Z</time>
      </trkpt>
      <trkpt lat="49.14031" lon="1.41395">
        <ele>41</ele>
        <time>2021-04-14T14:36:12Z</time>
      </trkpt>
      <trkpt lat="49.14027" lon="1.41392">
        <ele>41.6</ele>
        <time>2021-04-14T14:36:15Z</time>
      </trkpt>
      <trkpt lat="49.14024" lon="1.41389">
        <ele>41.8</ele>
        <time>2021-04-14T14:36:17Z</time>
      </trkpt>
      <trkpt lat="49.14023" lon="1.41388">
        <ele>42</ele>
        <time>2021-04-14T14:36:18Z</time>
      </trkpt>
      <trkpt lat="49.14021" lon="1.41385">
        <ele>42.4</ele>
        <time>2021-04-14T14:36:20Z</time>
      </trkpt>
      <trkpt lat="49.14016" lon="1.41382">
        <ele>43.2</ele>
        <time>2021-04-14T14:36:23Z</time>
      </trkpt>
      <trkpt lat="49.14011" lon="1.41378">
        <ele>44.2</ele>
        <time>2021-04-14T14:36:27Z</time>
      </trkpt>
      <trkpt lat="49.14009" lon="1.41377">
        <ele>44.4</ele>
        <time>2021-04-14T14:36:28Z</time>
      </trkpt>
      <trkpt lat="49.14001" lon="1.41373">
        <ele>45.4</ele>
        <time>2021-04-14T14:36:33Z</time>
      </trkpt>
      <trkpt lat="49.13997" lon="1.41371">
        <ele>46.2</ele>
        <time>2021-04-14T14:36:36Z</time>
      </trkpt>
      <trkpt lat="49.13994" lon="1.41369">
        <ele>46.6</ele>
        <time>2021-04-14T14:36:38Z</time>
      </trkpt>
      <trkpt lat="49.13987" lon="1.41367">
        <ele>47.6</ele>
        <time>2021-04-14T14:36:42Z</time>
      </trkpt>
      <trkpt lat="49.13986" lon="1.41367">
        <ele>47.8</ele>
        <time>2021-04-14T14:36:43Z</time>
      </trkpt>
      <trkpt lat="49.1398" lon="1.41364">
        <ele>48.6</ele>
        <time>2021-04-14T14:36:47Z</time>
      </trkpt>
      <trkpt lat="49.13978" lon="1.41364">
        <ele>48.8</ele>
        <time>2021-04-14T14:36:48Z</time>
      </trkpt>
      <trkpt lat="49.13971" lon="1.41362">
        <ele>49.8</ele>
        <time>2021-04-14T14:36:53Z</time>
      </trkpt>
      <trkpt lat="49.1397" lon="1.41362">
        <ele>50</ele>
        <time>2021-04-14T14:36:54Z</time>
      </trkpt>
      <trkpt lat="49.13964" lon="1.41359">
        <ele>51</ele>
        <time>2021-04-14T14:36:58Z</time>
      </trkpt>
      <trkpt lat="49.13963" lon="1.41358">
        <ele>51.4</ele>
        <time>2021-04-14T14:36:59Z</time>
      </trkpt>
      <trkpt lat="49.13957" lon="1.41356">
        <ele>52.2</ele>
        <time>2021-04-14T14:37:03Z</time>
      </trkpt>
      <trkpt lat="49.13954" lon="1.41354">
        <ele>52.4</ele>
        <time>2021-04-14T14:37:05Z</time>
      </trkpt>
      <trkpt lat="49.13947" lon="1.41351">
        <ele>53.4</ele>
        <time>2021-04-14T14:37:09Z</time>
      </trkpt>
      <trkpt lat="49.13941" lon="1.41348">
        <ele>54</ele>
        <time>2021-04-14T14:37:13Z</time>
      </trkpt>
      <trkpt lat="49.13938" lon="1.41346">
        <ele>54.4</ele>
        <time>2021-04-14T14:37:15Z</time>
      </trkpt>
      <trkpt lat="49.13927" lon="1.41342">
        <ele>55.8</ele>
        <time>2021-04-14T14:37:22Z</time>
      </trkpt>
      <trkpt lat="49.13919" lon="1.41339">
        <ele>56.8</ele>
        <time>2021-04-14T14:37:27Z</time>
      </trkpt>
      <trkpt lat="49.13917" lon="1.41339">
        <ele>57</ele>
        <time>2021-04-14T14:37:28Z</time>
      </trkpt>
      <trkpt lat="49.1391" lon="1.41336">
        <ele>58</ele>
        <time>2021-04-14T14:37:33Z</time>
      </trkpt>
      <trkpt lat="49.13908" lon="1.41335">
        <ele>58.2</ele>
        <time>2021-04-14T14:37:34Z</time>
      </trkpt>
      <trkpt lat="49.13904" lon="1.41333">
        <ele>59</ele>
        <time>2021-04-14T14:37:37Z</time>
      </trkpt>
      <trkpt lat="49.13899" lon="1.41332">
        <ele>59.6</ele>
        <time>2021-04-14T14:37:40Z</time>
      </trkpt>
      <trkpt lat="49.13897" lon="1.4133">
        <ele>60</ele>
        <time>2021-04-14T14:37:42Z</time>
      </trkpt>
      <trkpt lat="49.13893" lon="1.41328">
        <ele>60.6</ele>
        <time>2021-04-14T14:37:45Z</time>
      </trkpt>
      <trkpt lat="49.1389" lon="1.41327">
        <ele>61</ele>
        <time>2021-04-14T14:37:47Z</time>
      </trkpt>
      <trkpt lat="49.13884" lon="1.41325">
        <ele>61.8</ele>
        <time>2021-04-14T14:37:51Z</time>
      </trkpt>
      <trkpt lat="49.13883" lon="1.41324">
        <ele>62</ele>
        <time>2021-04-14T14:37:52Z</time>
      </trkpt>
      <trkpt lat="49.13877" lon="1.41322">
        <ele>62.6</ele>
        <time>2021-04-14T14:37:55Z</time>
      </trkpt>
      <trkpt lat="49.13872" lon="1.41321">
        <ele>63.2</ele>
        <time>2021-04-14T14:37:58Z</time>
      </trkpt>
      <trkpt lat="49.13865" lon="1.4132">
        <ele>63.8</ele>
        <time>2021-04-14T14:38:01Z</time>
      </trkpt>
      <trkpt lat="49.13861" lon="1.4132">
        <ele>64.2</ele>
        <time>2021-04-14T14:38:03Z</time>
      </trkpt>
      <trkpt lat="49.13856" lon="1.4132">
        <ele>65</ele>
        <time>2021-04-14T14:38:06Z</time>
      </trkpt>
      <trkpt lat="49.13854" lon="1.41321">
        <ele>65.4</ele>
        <time>2021-04-14T14:38:07Z</time>
      </trkpt>
      <trkpt lat="49.13844" lon="1.41323">
        <ele>66.4</ele>
        <time>2021-04-14T14:38:12Z</time>
      </trkpt>
      <trkpt lat="49.13836" lon="1.41325">
        <ele>67.6</ele>
        <time>2021-04-14T14:38:16Z</time>
      </trkpt>
      <trkpt lat="49.13831" lon="1.41326">
        <ele>68.4</ele>
        <time>2021-04-14T14:38:19Z</time>
      </trkpt>
      <trkpt lat="49.13829" lon="1.41326">
        <ele>68.6</ele>
        <time>2021-04-14T14:38:20Z</time>
      </trkpt>
      <trkpt lat="49.1382" lon="1.41327">
        <ele>69.8</ele>
        <time>2021-04-14T14:38:24Z</time>
      </trkpt>
      <trkpt lat="49.13819" lon="1.41327">
        <ele>70</ele>
        <time>2021-04-14T14:38:25Z</time>
      </trkpt>
      <trkpt lat="49.13815" lon="1.41331">
        <ele>71</ele>
        <time>2021-04-14T14:38:28Z</time>
      </trkpt>
      <trkpt lat="49.13814" lon="1.41334">
        <ele>71.4</ele>
        <time>2021-04-14T14:38:30Z</time>
      </trkpt>
      <trkpt lat="49.13818" lon="1.41337">
        <ele>72</ele>
        <time>2021-04-14T14:38:33Z</time>
      </trkpt>
      <trkpt lat="49.13819" lon="1.41338">
        <ele>72.2</ele>
        <time>2021-04-14T14:38:34Z</time>
      </trkpt>
      <trkpt lat="49.13822" lon="1.41339">
        <ele>73</ele>
        <time>2021-04-14T14:38:36Z</time>
      </trkpt>
      <trkpt lat="49.13825" lon="1.41338">
        <ele>74</ele>
        <time>2021-04-14T14:38:39Z</time>
      </trkpt>
      <trkpt lat="49.13826" lon="1.41338">
        <ele>74.4</ele>
        <time>2021-04-14T14:38:40Z</time>
      </trkpt>
      <trkpt lat="49.1383" lon="1.41338">
        <ele>74.8</ele>
        <time>2021-04-14T14:38:43Z</time>
      </trkpt>
      <trkpt lat="49.13831" lon="1.41338">
        <ele>74.8</ele>
        <time>2021-04-14T14:38:44Z</time>
      </trkpt>
      <trkpt lat="49.13836" lon="1.41339">
        <ele>75.4</ele>
        <time>2021-04-14T14:38:47Z</time>
      </trkpt>
      <trkpt lat="49.13837" lon="1.41343">
        <ele>75.8</ele>
        <time>2021-04-14T14:38:49Z</time>
      </trkpt>
      <trkpt lat="49.13833" lon="1.41348">
        <ele>76.8</ele>
        <time>2021-04-14T14:38:53Z</time>
      </trkpt>
      <trkpt lat="49.13826" lon="1.4135">
        <ele>78</ele>
        <time>2021-04-14T14:38:57Z</time>
      </trkpt>
      <trkpt lat="49.13822" lon="1.41352">
        <ele>78.6</ele>
        <time>2021-04-14T14:38:59Z</time>
      </trkpt>
      <trkpt lat="49.13819" lon="1.41353">
        <ele>79</ele>
        <time>2021-04-14T14:39:01Z</time>
      </trkpt>
      <trkpt lat="49.13816" lon="1.41355">
        <ele>79.8</ele>
        <time>2021-04-14T14:39:03Z</time>
      </trkpt>
      <trkpt lat="49.1381" lon="1.41359">
        <ele>80.2</ele>
        <time>2021-04-14T14:39:07Z</time>
      </trkpt>
      <trkpt lat="49.13808" lon="1.4136">
        <ele>80.4</ele>
        <time>2021-04-14T14:39:08Z</time>
      </trkpt>
      <trkpt lat="49.13802" lon="1.41364">
        <ele>81.4</ele>
        <time>2021-04-14T14:39:12Z</time>
      </trkpt>
      <trkpt lat="49.13796" lon="1.41368">
        <ele>81.8</ele>
        <time>2021-04-14T14:39:15Z</time>
      </trkpt>
      <trkpt lat="49.13791" lon="1.41371">
        <ele>82.6</ele>
        <time>2021-04-14T14:39:18Z</time>
      </trkpt>
      <trkpt lat="49.13786" lon="1.41374">
        <ele>83.2</ele>
        <time>2021-04-14T14:39:21Z</time>
      </trkpt>
      <trkpt lat="49.13784" lon="1.41375">
        <ele>83.4</ele>
        <time>2021-04-14T14:39:22Z</time>
      </trkpt>
      <trkpt lat="49.13783" lon="1.41376">
        <ele>83.6</ele>
        <time>2021-04-14T14:39:23Z</time>
      </trkpt>
      <trkpt lat="49.13778" lon="1.41379">
        <ele>84.2</ele>
        <time>2021-04-14T14:39:26Z</time>
      </trkpt>
      <trkpt lat="49.13775" lon="1.41382">
        <ele>84.6</ele>
        <time>2021-04-14T14:39:28Z</time>
      </trkpt>
      <trkpt lat="49.13773" lon="1.41383">
        <ele>84.8</ele>
        <time>2021-04-14T14:39:29Z</time>
      </trkpt>
      <trkpt lat="49.1377" lon="1.41386">
        <ele>85.4</ele>
        <time>2021-04-14T14:39:31Z</time>
      </trkpt>
      <trkpt lat="49.13763" lon="1.41389">
        <ele>85.6</ele>
        <time>2021-04-14T14:39:34Z</time>
      </trkpt>
      <trkpt lat="49.13757" lon="1.41393">
        <ele>86.2</ele>
        <time>2021-04-14T14:39:37Z</time>
      </trkpt>
      <trkpt lat="49.13751" lon="1.41396">
        <ele>86.8</ele>
        <time>2021-04-14T14:39:40Z</time>
      </trkpt>
      <trkpt lat="49.13746" lon="1.41399">
        <ele>87.4</ele>
        <time>2021-04-14T14:39:43Z</time>
      </trkpt>
      <trkpt lat="49.13742" lon="1.41401">
        <ele>87.6</ele>
        <time>2021-04-14T14:39:45Z</time>
      </trkpt>
      <trkpt lat="49.1374" lon="1.41402">
        <ele>87.8</ele>
        <time>2021-04-14T14:39:46Z</time>
      </trkpt>
      <trkpt lat="49.13739" lon="1.41404">
        <ele>88</ele>
        <time>2021-04-14T14:39:47Z</time>
      </trkpt>
      <trkpt lat="49.1373" lon="1.4141">
        <ele>88.6</ele>
        <time>2021-04-14T14:39:51Z</time>
      </trkpt>
      <trkpt lat="49.13729" lon="1.41411">
        <ele>88.8</ele>
        <time>2021-04-14T14:39:52Z</time>
      </trkpt>
      <trkpt lat="49.13726" lon="1.41413">
        <ele>89</ele>
        <time>2021-04-14T14:39:53Z</time>
      </trkpt>
      <trkpt lat="49.13718" lon="1.41418">
        <ele>89.8</ele>
        <time>2021-04-14T14:39:57Z</time>
      </trkpt>
      <trkpt lat="49.13716" lon="1.41418">
        <ele>90</ele>
        <time>2021-04-14T14:39:58Z</time>
      </trkpt>
      <trkpt lat="49.13709" lon="1.41423">
        <ele>90.8</ele>
        <time>2021-04-14T14:40:01Z</time>
      </trkpt>
      <trkpt lat="49.13706" lon="1.41425">
        <ele>91</ele>
        <time>2021-04-14T14:40:02Z</time>
      </trkpt>
      <trkpt lat="49.13699" lon="1.41431">
        <ele>91.4</ele>
        <time>2021-04-14T14:40:05Z</time>
      </trkpt>
      <trkpt lat="49.13691" lon="1.41438">
        <ele>92</ele>
        <time>2021-04-14T14:40:09Z</time>
      </trkpt>
      <trkpt lat="49.13688" lon="1.41442">
        <ele>92.6</ele>
        <time>2021-04-14T14:40:11Z</time>
      </trkpt>
      <trkpt lat="49.13682" lon="1.41447">
        <ele>93.4</ele>
        <time>2021-04-14T14:40:14Z</time>
      </trkpt>
      <trkpt lat="49.13678" lon="1.4145">
        <ele>93.8</ele>
        <time>2021-04-14T14:40:16Z</time>
      </trkpt>
      <trkpt lat="49.13673" lon="1.41457">
        <ele>94.4</ele>
        <time>2021-04-14T14:40:19Z</time>
      </trkpt>
      <trkpt lat="49.13669" lon="1.41461">
        <ele>95</ele>
        <time>2021-04-14T14:40:21Z</time>
      </trkpt>
      <trkpt lat="49.13664" lon="1.41466">
        <ele>95.4</ele>
        <time>2021-04-14T14:40:23Z</time>
      </trkpt>
      <trkpt lat="49.13662" lon="1.41469">
        <ele>95.6</ele>
        <time>2021-04-14T14:40:24Z</time>
      </trkpt>
      <trkpt lat="49.13658" lon="1.41474">
        <ele>96.2</ele>
        <time>2021-04-14T14:40:26Z</time>
      </trkpt>
      <trkpt lat="49.13653" lon="1.4148">
        <ele>96.8</ele>
        <time>2021-04-14T14:40:29Z</time>
      </trkpt>
      <trkpt lat="49.13649" lon="1.41485">
        <ele>97</ele>
        <time>2021-04-14T14:40:31Z</time>
      </trkpt>
      <trkpt lat="49.13642" lon="1.41493">
        <ele>97.8</ele>
        <time>2021-04-14T14:40:34Z</time>
      </trkpt>
      <trkpt lat="49.13638" lon="1.41497">
        <ele>98.2</ele>
        <time>2021-04-14T14:40:36Z</time>
      </trkpt>
      <trkpt lat="49.13632" lon="1.41501">
        <ele>98.8</ele>
        <time>2021-04-14T14:40:39Z</time>
      </trkpt>
      <trkpt lat="49.1363" lon="1.41502">
        <ele>99</ele>
        <time>2021-04-14T14:40:40Z</time>
      </trkpt>
      <trkpt lat="49.13622" lon="1.4151">
        <ele>100</ele>
        <time>2021-04-14T14:40:44Z</time>
      </trkpt>
      <trkpt lat="49.1362" lon="1.41511">
        <ele>100.2</ele>
        <time>2021-04-14T14:40:45Z</time>
      </trkpt>
      <trkpt lat="49.13612" lon="1.41518">
        <ele>101</ele>
        <time>2021-04-14T14:40:49Z</time>
      </trkpt>
      <trkpt lat="49.1361" lon="1.41521">
        <ele>101</ele>
        <time>2021-04-14T14:40:50Z</time>
      </trkpt>
      <trkpt lat="49.13605" lon="1.41525">
        <ele>101.4</ele>
        <time>2021-04-14T14:40:52Z</time>
      </trkpt>
      <trkpt lat="49.13602" lon="1.41528">
        <ele>101.8</ele>
        <time>2021-04-14T14:40:54Z</time>
      </trkpt>
      <trkpt lat="49.13598" lon="1.41532">
        <ele>102.2</ele>
        <time>2021-04-14T14:40:56Z</time>
      </trkpt>
      <trkpt lat="49.13593" lon="1.41537">
        <ele>102.6</ele>
        <time>2021-04-14T14:40:59Z</time>
      </trkpt>
      <trkpt lat="49.13587" lon="1.41543">
        <ele>103.4</ele>
        <time>2021-04-14T14:41:02Z</time>
      </trkpt>
      <trkpt lat="49.13583" lon="1.41546">
        <ele>103.6</ele>
        <time>2021-04-14T14:41:04Z</time>
      </trkpt>
      <trkpt lat="49.13573" lon="1.41553">
        <ele>104.4</ele>
        <time>2021-04-14T14:41:09Z</time>
      </trkpt>
      <trkpt lat="49.13564" lon="1.41561">
        <ele>105.6</ele>
        <time>2021-04-14T14:41:13Z</time>
      </trkpt>
      <trkpt lat="49.13561" lon="1.41563">
        <ele>106</ele>
        <time>2021-04-14T14:41:15Z</time>
      </trkpt>
      <trkpt lat="49.13555" lon="1.41567">
        <ele>106.6</ele>
        <time>2021-04-14T14:41:18Z</time>
      </trkpt>
      <trkpt lat="49.13553" lon="1.41569">
        <ele>106.8</ele>
        <time>2021-04-14T14:41:19Z</time>
      </trkpt>
      <trkpt lat="49.13551" lon="1.41572">
        <ele>107</ele>
        <time>2021-04-14T14:41:20Z</time>
      </trkpt>
      <trkpt lat="49.13545" lon="1.4158">
        <ele>108</ele>
        <time>2021-04-14T14:41:24Z</time>
      </trkpt>
      <trkpt lat="49.13543" lon="1.41582">
        <ele>108.4</ele>
        <time>2021-04-14T14:41:25Z</time>
      </trkpt>
      <trkpt lat="49.13535" lon="1.41588">
        <ele>109</ele>
        <time>2021-04-14T14:41:29Z</time>
      </trkpt>
      <trkpt lat="49.13533" lon="1.4159">
        <ele>109.2</ele>
        <time>2021-04-14T14:41:30Z</time>
      </trkpt>
      <trkpt lat="49.13525" lon="1.41597">
        <ele>110</ele>
        <time>2021-04-14T14:41:34Z</time>
      </trkpt>
      <trkpt lat="49.13523" lon="1.41599">
        <ele>110.2</ele>
        <time>2021-04-14T14:41:35Z</time>
      </trkpt>
      <trkpt lat="49.13516" lon="1.41606">
        <ele>111</ele>
        <time>2021-04-14T14:41:39Z</time>
      </trkpt>
      <trkpt lat="49.13511" lon="1.41611">
        <ele>111.2</ele>
        <time>2021-04-14T14:41:41Z</time>
      </trkpt>
      <trkpt lat="49.13503" lon="1.41616">
        <ele>111.6</ele>
        <time>2021-04-14T14:41:44Z</time>
      </trkpt>
      <trkpt lat="49.13496" lon="1.41621">
        <ele>112.4</ele>
        <time>2021-04-14T14:41:47Z</time>
      </trkpt>
      <trkpt lat="49.13492" lon="1.41625">
        <ele>112.6</ele>
        <time>2021-04-14T14:41:49Z</time>
      </trkpt>
      <trkpt lat="49.13483" lon="1.41634">
        <ele>113.6</ele>
        <time>2021-04-14T14:41:53Z</time>
      </trkpt>
      <trkpt lat="49.13481" lon="1.41636">
        <ele>113.6</ele>
        <time>2021-04-14T14:41:54Z</time>
      </trkpt>
      <trkpt lat="49.13479" lon="1.41638">
        <ele>113.8</ele>
        <time>2021-04-14T14:41:55Z</time>
      </trkpt>
      <trkpt lat="49.13474" lon="1.41643">
        <ele>114</ele>
        <time>2021-04-14T14:41:57Z</time>
      </trkpt>
      <trkpt lat="49.13464" lon="1.41652">
        <ele>114.8</ele>
        <time>2021-04-14T14:42:01Z</time>
      </trkpt>
      <trkpt lat="49.1346" lon="1.41656">
        <ele>115</ele>
        <time>2021-04-14T14:42:03Z</time>
      </trkpt>
      <trkpt lat="49.13451" lon="1.41665">
        <ele>115.8</ele>
        <time>2021-04-14T14:42:07Z</time>
      </trkpt>
      <trkpt lat="49.13449" lon="1.41667">
        <ele>116</ele>
        <time>2021-04-14T14:42:08Z</time>
      </trkpt>
      <trkpt lat="49.13439" lon="1.41677">
        <ele>116.8</ele>
        <time>2021-04-14T14:42:13Z</time>
      </trkpt>
      <trkpt lat="49.13429" lon="1.41687">
        <ele>117.6</ele>
        <time>2021-04-14T14:42:18Z</time>
      </trkpt>
      <trkpt lat="49.13426" lon="1.4169">
        <ele>117.8</ele>
        <time>2021-04-14T14:42:19Z</time>
      </trkpt>
      <trkpt lat="49.13421" lon="1.41698">
        <ele>118.8</ele>
        <time>2021-04-14T14:42:22Z</time>
      </trkpt>
      <trkpt lat="49.13419" lon="1.41699">
        <ele>119</ele>
        <time>2021-04-14T14:42:23Z</time>
      </trkpt>
      <trkpt lat="49.13409" lon="1.41708">
        <ele>120</ele>
        <time>2021-04-14T14:42:28Z</time>
      </trkpt>
      <trkpt lat="49.13401" lon="1.41717">
        <ele>121</ele>
        <time>2021-04-14T14:42:33Z</time>
      </trkpt>
      <trkpt lat="49.13388" lon="1.41727">
        <ele>121.8</ele>
        <time>2021-04-14T14:42:38Z</time>
      </trkpt>
      <trkpt lat="49.13382" lon="1.41732">
        <ele>122.2</ele>
        <time>2021-04-14T14:42:40Z</time>
      </trkpt>
      <trkpt lat="49.13377" lon="1.41737">
        <ele>122.8</ele>
        <time>2021-04-14T14:42:42Z</time>
      </trkpt>
      <trkpt lat="49.13368" lon="1.41744">
        <ele>123.4</ele>
        <time>2021-04-14T14:42:46Z</time>
      </trkpt>
      <trkpt lat="49.13364" lon="1.41747">
        <ele>123.8</ele>
        <time>2021-04-14T14:42:48Z</time>
      </trkpt>
      <trkpt lat="49.13355" lon="1.41756">
        <ele>124.6</ele>
        <time>2021-04-14T14:42:52Z</time>
      </trkpt>
      <trkpt lat="49.13349" lon="1.4176">
        <ele>124.8</ele>
        <time>2021-04-14T14:42:54Z</time>
      </trkpt>
      <trkpt lat="49.13337" lon="1.41771">
        <ele>125.8</ele>
        <time>2021-04-14T14:42:59Z</time>
      </trkpt>
      <trkpt lat="49.13334" lon="1.41774">
        <ele>125.8</ele>
        <time>2021-04-14T14:43:00Z</time>
      </trkpt>
      <trkpt lat="49.13326" lon="1.41784">
        <ele>126.4</ele>
        <time>2021-04-14T14:43:04Z</time>
      </trkpt>
      <trkpt lat="49.13316" lon="1.4179">
        <ele>127</ele>
        <time>2021-04-14T14:43:07Z</time>
      </trkpt>
      <trkpt lat="49.13313" lon="1.41792">
        <ele>127</ele>
        <time>2021-04-14T14:43:08Z</time>
      </trkpt>
      <trkpt lat="49.13308" lon="1.41794">
        <ele>127.2</ele>
        <time>2021-04-14T14:43:10Z</time>
      </trkpt>
      <trkpt lat="49.13304" lon="1.41796">
        <ele>127.4</ele>
        <time>2021-04-14T14:43:12Z</time>
      </trkpt>
      <trkpt lat="49.13301" lon="1.41801">
        <ele>127.6</ele>
        <time>2021-04-14T14:43:14Z</time>
      </trkpt>
      <trkpt lat="49.13301" lon="1.41802">
        <ele>127.8</ele>
        <time>2021-04-14T14:43:15Z</time>
      </trkpt>
      <trkpt lat="49.13296" lon="1.4181">
        <ele>128.6</ele>
        <time>2021-04-14T14:45:50Z</time>
      </trkpt>
      <trkpt lat="49.13292" lon="1.41813">
        <ele>128.6</ele>
        <time>2021-04-14T14:45:52Z</time>
      </trkpt>
      <trkpt lat="49.13283" lon="1.41822">
        <ele>128.6</ele>
        <time>2021-04-14T14:45:57Z</time>
      </trkpt>
      <trkpt lat="49.13274" lon="1.4183">
        <ele>128.6</ele>
        <time>2021-04-14T14:46:01Z</time>
      </trkpt>
      <trkpt lat="49.13262" lon="1.41843">
        <ele>128.8</ele>
        <time>2021-04-14T14:46:06Z</time>
      </trkpt>
      <trkpt lat="49.13246" lon="1.41857">
        <ele>129.4</ele>
        <time>2021-04-14T14:46:12Z</time>
      </trkpt>
      <trkpt lat="49.13231" lon="1.41871">
        <ele>129.6</ele>
        <time>2021-04-14T14:46:18Z</time>
      </trkpt>
      <trkpt lat="49.13228" lon="1.41874">
        <ele>129.8</ele>
        <time>2021-04-14T14:46:19Z</time>
      </trkpt>
      <trkpt lat="49.13217" lon="1.41883">
        <ele>130</ele>
        <time>2021-04-14T14:46:23Z</time>
      </trkpt>
      <trkpt lat="49.13215" lon="1.41885">
        <ele>130.2</ele>
        <time>2021-04-14T14:46:24Z</time>
      </trkpt>
      <trkpt lat="49.13208" lon="1.41894">
        <ele>130.6</ele>
        <time>2021-04-14T14:46:28Z</time>
      </trkpt>
      <trkpt lat="49.13203" lon="1.41899">
        <ele>130.8</ele>
        <time>2021-04-14T14:46:30Z</time>
      </trkpt>
      <trkpt lat="49.13201" lon="1.419">
        <ele>130.8</ele>
        <time>2021-04-14T14:46:31Z</time>
      </trkpt>
      <trkpt lat="49.13196" lon="1.41905">
        <ele>131.2</ele>
        <time>2021-04-14T14:46:33Z</time>
      </trkpt>
      <trkpt lat="49.13183" lon="1.41917">
        <ele>131.4</ele>
        <time>2021-04-14T14:46:38Z</time>
      </trkpt>
      <trkpt lat="49.13173" lon="1.41927">
        <ele>131.4</ele>
        <time>2021-04-14T14:46:42Z</time>
      </trkpt>
      <trkpt lat="49.13165" lon="1.41936">
        <ele>131.6</ele>
        <time>2021-04-14T14:46:46Z</time>
      </trkpt>
      <trkpt lat="49.13155" lon="1.41947">
        <ele>131.6</ele>
        <time>2021-04-14T14:46:50Z</time>
      </trkpt>
      <trkpt lat="49.13149" lon="1.41951">
        <ele>131.8</ele>
        <time>2021-04-14T14:46:52Z</time>
      </trkpt>
      <trkpt lat="49.13138" lon="1.41958">
        <ele>131.8</ele>
        <time>2021-04-14T14:46:55Z</time>
      </trkpt>
      <trkpt lat="49.13125" lon="1.41969">
        <ele>131.8</ele>
        <time>2021-04-14T14:46:59Z</time>
      </trkpt>
      <trkpt lat="49.13112" lon="1.4198">
        <ele>131.8</ele>
        <time>2021-04-14T14:47:04Z</time>
      </trkpt>
      <trkpt lat="49.1311" lon="1.41982">
        <ele>131.6</ele>
        <time>2021-04-14T14:47:05Z</time>
      </trkpt>
      <trkpt lat="49.13102" lon="1.41989">
        <ele>131.4</ele>
        <time>2021-04-14T14:47:08Z</time>
      </trkpt>
      <trkpt lat="49.13092" lon="1.41995">
        <ele>131.4</ele>
        <time>2021-04-14T14:47:11Z</time>
      </trkpt>
      <trkpt lat="49.13089" lon="1.41996">
        <ele>131.4</ele>
        <time>2021-04-14T14:47:12Z</time>
      </trkpt>
      <trkpt lat="49.13073" lon="1.42011">
        <ele>131.4</ele>
        <time>2021-04-14T14:47:17Z</time>
      </trkpt>
      <trkpt lat="49.13063" lon="1.42021">
        <ele>131.4</ele>
        <time>2021-04-14T14:47:20Z</time>
      </trkpt>
      <trkpt lat="49.13059" lon="1.42025">
        <ele>131.4</ele>
        <time>2021-04-14T14:47:21Z</time>
      </trkpt>
      <trkpt lat="49.13042" lon="1.42043">
        <ele>131.4</ele>
        <time>2021-04-14T14:47:26Z</time>
      </trkpt>
      <trkpt lat="49.13026" lon="1.42068">
        <ele>131.6</ele>
        <time>2021-04-14T14:47:31Z</time>
      </trkpt>
      <trkpt lat="49.13016" lon="1.4209">
        <ele>131.6</ele>
        <time>2021-04-14T14:47:35Z</time>
      </trkpt>
      <trkpt lat="49.13006" lon="1.42104">
        <ele>131.6</ele>
        <time>2021-04-14T14:47:38Z</time>
      </trkpt>
      <trkpt lat="49.1299" lon="1.42117">
        <ele>131.4</ele>
        <time>2021-04-14T14:47:42Z</time>
      </trkpt>
      <trkpt lat="49.12986" lon="1.42122">
        <ele>131.4</ele>
        <time>2021-04-14T14:47:43Z</time>
      </trkpt>
      <trkpt lat="49.12972" lon="1.4214">
        <ele>131</ele>
        <time>2021-04-14T14:47:46Z</time>
      </trkpt>
      <trkpt lat="49.12963" lon="1.42141">
        <ele>130.6</ele>
        <time>2021-04-14T14:47:49Z</time>
      </trkpt>
      <trkpt lat="49.12955" lon="1.4214">
        <ele>129.4</ele>
        <time>2021-04-14T14:47:52Z</time>
      </trkpt>
      <trkpt lat="49.12951" lon="1.42141">
        <ele>129</ele>
        <time>2021-04-14T14:47:53Z</time>
      </trkpt>
      <trkpt lat="49.12945" lon="1.42144">
        <ele>128.4</ele>
        <time>2021-04-14T14:47:55Z</time>
      </trkpt>
      <trkpt lat="49.12941" lon="1.42143">
        <ele>128.2</ele>
        <time>2021-04-14T14:47:57Z</time>
      </trkpt>
      <trkpt lat="49.1293" lon="1.42141">
        <ele>128</ele>
        <time>2021-04-14T14:48:01Z</time>
      </trkpt>
      <trkpt lat="49.1292" lon="1.42143">
        <ele>127.6</ele>
        <time>2021-04-14T14:48:04Z</time>
      </trkpt>
      <trkpt lat="49.12915" lon="1.42149">
        <ele>127.4</ele>
        <time>2021-04-14T14:48:06Z</time>
      </trkpt>
      <trkpt lat="49.12915" lon="1.42151">
        <ele>127.4</ele>
        <time>2021-04-14T14:48:07Z</time>
      </trkpt>
      <trkpt lat="49.12914" lon="1.42164">
        <ele>126.6</ele>
        <time>2021-04-14T14:48:11Z</time>
      </trkpt>
      <trkpt lat="49.12913" lon="1.42169">
        <ele>126.2</ele>
        <time>2021-04-14T14:48:12Z</time>
      </trkpt>
      <trkpt lat="49.12909" lon="1.42182">
        <ele>125.6</ele>
        <time>2021-04-14T14:48:15Z</time>
      </trkpt>
      <trkpt lat="49.12909" lon="1.42185">
        <ele>125.4</ele>
        <time>2021-04-14T14:48:16Z</time>
      </trkpt>
      <trkpt lat="49.12908" lon="1.42188">
        <ele>125.2</ele>
        <time>2021-04-14T14:48:17Z</time>
      </trkpt>
      <trkpt lat="49.12907" lon="1.42206">
        <ele>124.8</ele>
        <time>2021-04-14T14:48:21Z</time>
      </trkpt>
      <trkpt lat="49.12907" lon="1.42209">
        <ele>124.6</ele>
        <time>2021-04-14T14:48:22Z</time>
      </trkpt>
      <trkpt lat="49.12907" lon="1.42213">
        <ele>124</ele>
        <time>2021-04-14T14:48:24Z</time>
      </trkpt>
      <trkpt lat="49.12907" lon="1.42214">
        <ele>123.6</ele>
        <time>2021-04-14T14:48:25Z</time>
      </trkpt>
      <trkpt lat="49.12907" lon="1.42218">
        <ele>121.4</ele>
        <time>2021-04-14T14:48:33Z</time>
      </trkpt>
      <trkpt lat="49.12908" lon="1.42221">
        <ele>121.4</ele>
        <time>2021-04-14T14:48:34Z</time>
      </trkpt>
      <trkpt lat="49.12909" lon="1.42223">
        <ele>121.4</ele>
        <time>2021-04-14T14:48:35Z</time>
      </trkpt>
      <trkpt lat="49.12908" lon="1.42237">
        <ele>121.2</ele>
        <time>2021-04-14T14:48:38Z</time>
      </trkpt>
      <trkpt lat="49.12908" lon="1.42242">
        <ele>121.2</ele>
        <time>2021-04-14T14:48:39Z</time>
      </trkpt>
      <trkpt lat="49.1291" lon="1.42273">
        <ele>121</ele>
        <time>2021-04-14T14:48:44Z</time>
      </trkpt>
      <trkpt lat="49.12915" lon="1.42286">
        <ele>120.2</ele>
        <time>2021-04-14T14:48:47Z</time>
      </trkpt>
      <trkpt lat="49.12913" lon="1.42299">
        <ele>118.8</ele>
        <time>2021-04-14T14:48:50Z</time>
      </trkpt>
      <trkpt lat="49.12912" lon="1.42305">
        <ele>118</ele>
        <time>2021-04-14T14:48:51Z</time>
      </trkpt>
      <trkpt lat="49.12911" lon="1.42311">
        <ele>117.4</ele>
        <time>2021-04-14T14:48:52Z</time>
      </trkpt>
      <trkpt lat="49.12908" lon="1.42324">
        <ele>116.2</ele>
        <time>2021-04-14T14:48:54Z</time>
      </trkpt>
      <trkpt lat="49.12908" lon="1.42331">
        <ele>115.8</ele>
        <time>2021-04-14T14:48:55Z</time>
      </trkpt>
      <trkpt lat="49.12904" lon="1.42344">
        <ele>114.6</ele>
        <time>2021-04-14T14:48:57Z</time>
      </trkpt>
      <trkpt lat="49.12902" lon="1.42352">
        <ele>114.2</ele>
        <time>2021-04-14T14:48:58Z</time>
      </trkpt>
      <trkpt lat="49.12899" lon="1.42358">
        <ele>113.2</ele>
        <time>2021-04-14T14:48:59Z</time>
      </trkpt>
      <trkpt lat="49.12896" lon="1.42365">
        <ele>112.4</ele>
        <time>2021-04-14T14:49:00Z</time>
      </trkpt>
      <trkpt lat="49.12893" lon="1.42372">
        <ele>111.6</ele>
        <time>2021-04-14T14:49:01Z</time>
      </trkpt>
      <trkpt lat="49.1289" lon="1.4238">
        <ele>110.6</ele>
        <time>2021-04-14T14:49:02Z</time>
      </trkpt>
      <trkpt lat="49.12885" lon="1.42397">
        <ele>108.6</ele>
        <time>2021-04-14T14:49:04Z</time>
      </trkpt>
      <trkpt lat="49.12881" lon="1.42406">
        <ele>107.6</ele>
        <time>2021-04-14T14:49:05Z</time>
      </trkpt>
      <trkpt lat="49.12877" lon="1.42415">
        <ele>106.4</ele>
        <time>2021-04-14T14:49:06Z</time>
      </trkpt>
      <trkpt lat="49.12874" lon="1.42424">
        <ele>105.2</ele>
        <time>2021-04-14T14:49:07Z</time>
      </trkpt>
      <trkpt lat="49.1287" lon="1.4243">
        <ele>104.2</ele>
        <time>2021-04-14T14:49:08Z</time>
      </trkpt>
      <trkpt lat="49.12867" lon="1.42436">
        <ele>103.2</ele>
        <time>2021-04-14T14:49:09Z</time>
      </trkpt>
      <trkpt lat="49.12866" lon="1.42441">
        <ele>102.2</ele>
        <time>2021-04-14T14:49:10Z</time>
      </trkpt>
      <trkpt lat="49.12866" lon="1.42447">
        <ele>100.8</ele>
        <time>2021-04-14T14:49:11Z</time>
      </trkpt>
      <trkpt lat="49.12866" lon="1.42453">
        <ele>99.2</ele>
        <time>2021-04-14T14:49:12Z</time>
      </trkpt>
      <trkpt lat="49.12867" lon="1.42459">
        <ele>97.8</ele>
        <time>2021-04-14T14:49:13Z</time>
      </trkpt>
      <trkpt lat="49.12867" lon="1.42463">
        <ele>96.6</ele>
        <time>2021-04-14T14:49:14Z</time>
      </trkpt>
      <trkpt lat="49.12866" lon="1.42466">
        <ele>95.4</ele>
        <time>2021-04-14T14:49:15Z</time>
      </trkpt>
      <trkpt lat="49.12866" lon="1.42469">
        <ele>93.4</ele>
        <time>2021-04-14T14:49:17Z</time>
      </trkpt>
      <trkpt lat="49.12865" lon="1.42475">
        <ele>86</ele>
        <time>2021-04-14T14:50:06Z</time>
      </trkpt>
      <trkpt lat="49.12864" lon="1.42476">
        <ele>86</ele>
        <time>2021-04-14T14:50:07Z</time>
      </trkpt>
      <trkpt lat="49.1286" lon="1.4248">
        <ele>86</ele>
        <time>2021-04-14T14:50:09Z</time>
      </trkpt>
      <trkpt lat="49.12846" lon="1.42502">
        <ele>86</ele>
        <time>2021-04-14T14:50:15Z</time>
      </trkpt>
      <trkpt lat="49.12839" lon="1.42522">
        <ele>85.4</ele>
        <time>2021-04-14T14:50:19Z</time>
      </trkpt>
      <trkpt lat="49.12831" lon="1.42524">
        <ele>85</ele>
        <time>2021-04-14T14:50:22Z</time>
      </trkpt>
      <trkpt lat="49.12823" lon="1.42515">
        <ele>84</ele>
        <time>2021-04-14T14:50:26Z</time>
      </trkpt>
      <trkpt lat="49.12821" lon="1.42514">
        <ele>83.8</ele>
        <time>2021-04-14T14:50:27Z</time>
      </trkpt>
      <trkpt lat="49.12815" lon="1.42513">
        <ele>83.8</ele>
        <time>2021-04-14T14:50:29Z</time>
      </trkpt>
      <trkpt lat="49.12808" lon="1.42514">
        <ele>82.8</ele>
        <time>2021-04-14T14:50:32Z</time>
      </trkpt>
      <trkpt lat="49.12807" lon="1.42514">
        <ele>82</ele>
        <time>2021-04-14T14:50:33Z</time>
      </trkpt>
      <trkpt lat="49.12807" lon="1.42514">
        <ele>81</ele>
        <time>2021-04-14T14:50:34Z</time>
      </trkpt>
      <trkpt lat="49.12807" lon="1.42514">
        <ele>80.2</ele>
        <time>2021-04-14T14:50:35Z</time>
      </trkpt>
      <trkpt lat="49.12805" lon="1.42513">
        <ele>74</ele>
        <time>2021-04-14T14:51:30Z</time>
      </trkpt>
      <trkpt lat="49.12805" lon="1.4251">
        <ele>74</ele>
        <time>2021-04-14T14:51:33Z</time>
      </trkpt>
      <trkpt lat="49.12802" lon="1.42502">
        <ele>74</ele>
        <time>2021-04-14T14:51:41Z</time>
      </trkpt>
      <trkpt lat="49.12802" lon="1.42501">
        <ele>74</ele>
        <time>2021-04-14T14:51:42Z</time>
      </trkpt>
      <trkpt lat="49.12802" lon="1.42498">
        <ele>74.2</ele>
        <time>2021-04-14T14:51:44Z</time>
      </trkpt>
      <trkpt lat="49.12802" lon="1.42492">
        <ele>74.4</ele>
        <time>2021-04-14T14:51:47Z</time>
      </trkpt>
      <trkpt lat="49.12802" lon="1.4248">
        <ele>75</ele>
        <time>2021-04-14T14:51:52Z</time>
      </trkpt>
      <trkpt lat="49.12802" lon="1.42474">
        <ele>75.4</ele>
        <time>2021-04-14T14:51:55Z</time>
      </trkpt>
      <trkpt lat="49.12803" lon="1.42471">
        <ele>75.8</ele>
        <time>2021-04-14T14:51:57Z</time>
      </trkpt>
      <trkpt lat="49.12803" lon="1.42469">
        <ele>76</ele>
        <time>2021-04-14T14:51:58Z</time>
      </trkpt>
      <trkpt lat="49.12803" lon="1.42464">
        <ele>76.6</ele>
        <time>2021-04-14T14:52:00Z</time>
      </trkpt>
      <trkpt lat="49.12804" lon="1.4246">
        <ele>77</ele>
        <time>2021-04-14T14:52:02Z</time>
      </trkpt>
      <trkpt lat="49.12805" lon="1.42455">
        <ele>77.4</ele>
        <time>2021-04-14T14:52:04Z</time>
      </trkpt>
      <trkpt lat="49.12805" lon="1.42447">
        <ele>78</ele>
        <time>2021-04-14T14:52:07Z</time>
      </trkpt>
      <trkpt lat="49.12806" lon="1.42444">
        <ele>78.2</ele>
        <time>2021-04-14T14:52:08Z</time>
      </trkpt>
      <trkpt lat="49.12807" lon="1.4243">
        <ele>79</ele>
        <time>2021-04-14T14:52:13Z</time>
      </trkpt>
      <trkpt lat="49.12807" lon="1.42425">
        <ele>79.4</ele>
        <time>2021-04-14T14:52:15Z</time>
      </trkpt>
      <trkpt lat="49.12807" lon="1.42416">
        <ele>80.2</ele>
        <time>2021-04-14T14:52:18Z</time>
      </trkpt>
      <trkpt lat="49.12807" lon="1.42408">
        <ele>81</ele>
        <time>2021-04-14T14:52:21Z</time>
      </trkpt>
      <trkpt lat="49.12807" lon="1.42405">
        <ele>81.2</ele>
        <time>2021-04-14T14:52:22Z</time>
      </trkpt>
      <trkpt lat="49.12804" lon="1.42396">
        <ele>82</ele>
        <time>2021-04-14T14:52:25Z</time>
      </trkpt>
      <trkpt lat="49.12803" lon="1.42387">
        <ele>82.4</ele>
        <time>2021-04-14T14:52:28Z</time>
      </trkpt>
      <trkpt lat="49.12802" lon="1.42383">
        <ele>82.6</ele>
        <time>2021-04-14T14:52:29Z</time>
      </trkpt>
      <trkpt lat="49.12801" lon="1.4238">
        <ele>82.8</ele>
        <time>2021-04-14T14:52:30Z</time>
      </trkpt>
      <trkpt lat="49.128" lon="1.42377">
        <ele>83</ele>
        <time>2021-04-14T14:52:31Z</time>
      </trkpt>
      <trkpt lat="49.12797" lon="1.42369">
        <ele>83.6</ele>
        <time>2021-04-14T14:52:34Z</time>
      </trkpt>
      <trkpt lat="49.12795" lon="1.42364">
        <ele>84</ele>
        <time>2021-04-14T14:52:36Z</time>
      </trkpt>
      <trkpt lat="49.12793" lon="1.42359">
        <ele>84.4</ele>
        <time>2021-04-14T14:52:38Z</time>
      </trkpt>
      <trkpt lat="49.12792" lon="1.42355">
        <ele>84.8</ele>
        <time>2021-04-14T14:52:40Z</time>
      </trkpt>
      <trkpt lat="49.12787" lon="1.42345">
        <ele>86</ele>
        <time>2021-04-14T14:52:45Z</time>
      </trkpt>
      <trkpt lat="49.12784" lon="1.42339">
        <ele>86.8</ele>
        <time>2021-04-14T14:52:48Z</time>
      </trkpt>
      <trkpt lat="49.12782" lon="1.42335">
        <ele>87</ele>
        <time>2021-04-14T14:52:50Z</time>
      </trkpt>
      <trkpt lat="49.1278" lon="1.42331">
        <ele>87.4</ele>
        <time>2021-04-14T14:52:52Z</time>
      </trkpt>
      <trkpt lat="49.12777" lon="1.42325">
        <ele>88</ele>
        <time>2021-04-14T14:52:55Z</time>
      </trkpt>
      <trkpt lat="49.12773" lon="1.42321">
        <ele>88.6</ele>
        <time>2021-04-14T14:52:58Z</time>
      </trkpt>
      <trkpt lat="49.12768" lon="1.42316">
        <ele>89.2</ele>
        <time>2021-04-14T14:53:02Z</time>
      </trkpt>
      <trkpt lat="49.12766" lon="1.42315">
        <ele>89.4</ele>
        <time>2021-04-14T14:53:03Z</time>
      </trkpt>
      <trkpt lat="49.12765" lon="1.42313">
        <ele>89.6</ele>
        <time>2021-04-14T14:53:04Z</time>
      </trkpt>
      <trkpt lat="49.12759" lon="1.42306">
        <ele>90.2</ele>
        <time>2021-04-14T14:53:08Z</time>
      </trkpt>
      <trkpt lat="49.12756" lon="1.42304">
        <ele>90.6</ele>
        <time>2021-04-14T14:53:10Z</time>
      </trkpt>
      <trkpt lat="49.1275" lon="1.42297">
        <ele>91.2</ele>
        <time>2021-04-14T14:53:14Z</time>
      </trkpt>
      <trkpt lat="49.12747" lon="1.42294">
        <ele>91.6</ele>
        <time>2021-04-14T14:53:16Z</time>
      </trkpt>
      <trkpt lat="49.12745" lon="1.42291">
        <ele>92.4</ele>
        <time>2021-04-14T14:53:18Z</time>
      </trkpt>
      <trkpt lat="49.1274" lon="1.42286">
        <ele>93.2</ele>
        <time>2021-04-14T14:53:22Z</time>
      </trkpt>
      <trkpt lat="49.12739" lon="1.42285">
        <ele>93.4</ele>
        <time>2021-04-14T14:53:23Z</time>
      </trkpt>
      <trkpt lat="49.12733" lon="1.4228">
        <ele>94.2</ele>
        <time>2021-04-14T14:53:27Z</time>
      </trkpt>
      <trkpt lat="49.1273" lon="1.42277">
        <ele>94.6</ele>
        <time>2021-04-14T14:53:29Z</time>
      </trkpt>
      <trkpt lat="49.12728" lon="1.42274">
        <ele>95</ele>
        <time>2021-04-14T14:53:31Z</time>
      </trkpt>
      <trkpt lat="49.12725" lon="1.42271">
        <ele>95.4</ele>
        <time>2021-04-14T14:53:33Z</time>
      </trkpt>
      <trkpt lat="49.12722" lon="1.42269">
        <ele>95.4</ele>
        <time>2021-04-14T14:53:35Z</time>
      </trkpt>
      <trkpt lat="49.12718" lon="1.42265">
        <ele>96</ele>
        <time>2021-04-14T14:53:38Z</time>
      </trkpt>
      <trkpt lat="49.12716" lon="1.42264">
        <ele>96.2</ele>
        <time>2021-04-14T14:53:39Z</time>
      </trkpt>
      <trkpt lat="49.12714" lon="1.42261">
        <ele>96.6</ele>
        <time>2021-04-14T14:53:41Z</time>
      </trkpt>
      <trkpt lat="49.12712" lon="1.4226">
        <ele>96.8</ele>
        <time>2021-04-14T14:53:42Z</time>
      </trkpt>
      <trkpt lat="49.12707" lon="1.42257">
        <ele>97.6</ele>
        <time>2021-04-14T14:53:45Z</time>
      </trkpt>
      <trkpt lat="49.12698" lon="1.42253">
        <ele>98.6</ele>
        <time>2021-04-14T14:53:51Z</time>
      </trkpt>
      <trkpt lat="49.12689" lon="1.4225">
        <ele>100</ele>
        <time>2021-04-14T14:53:56Z</time>
      </trkpt>
      <trkpt lat="49.12687" lon="1.4225">
        <ele>100.2</ele>
        <time>2021-04-14T14:53:57Z</time>
      </trkpt>
      <trkpt lat="49.12682" lon="1.42246">
        <ele>101</ele>
        <time>2021-04-14T14:54:02Z</time>
      </trkpt>
      <trkpt lat="49.1268" lon="1.42246">
        <ele>101</ele>
        <time>2021-04-14T14:54:03Z</time>
      </trkpt>
      <trkpt lat="49.12673" lon="1.42242">
        <ele>102</ele>
        <time>2021-04-14T14:54:08Z</time>
      </trkpt>
      <trkpt lat="49.12671" lon="1.42241">
        <ele>102.2</ele>
        <time>2021-04-14T14:54:09Z</time>
      </trkpt>
      <trkpt lat="49.12662" lon="1.4224">
        <ele>103.4</ele>
        <time>2021-04-14T14:54:14Z</time>
      </trkpt>
      <trkpt lat="49.12659" lon="1.42239">
        <ele>103.8</ele>
        <time>2021-04-14T14:54:16Z</time>
      </trkpt>
      <trkpt lat="49.12658" lon="1.42238">
        <ele>104.2</ele>
        <time>2021-04-14T14:54:17Z</time>
      </trkpt>
      <trkpt lat="49.12655" lon="1.42236">
        <ele>104.4</ele>
        <time>2021-04-14T14:54:19Z</time>
      </trkpt>
      <trkpt lat="49.12647" lon="1.42232">
        <ele>105.6</ele>
        <time>2021-04-14T14:54:24Z</time>
      </trkpt>
      <trkpt lat="49.12637" lon="1.42226">
        <ele>106.8</ele>
        <time>2021-04-14T14:54:30Z</time>
      </trkpt>
      <trkpt lat="49.12632" lon="1.42222">
        <ele>107.2</ele>
        <time>2021-04-14T14:54:33Z</time>
      </trkpt>
      <trkpt lat="49.12628" lon="1.42218">
        <ele>107.8</ele>
        <time>2021-04-14T14:54:36Z</time>
      </trkpt>
      <trkpt lat="49.12627" lon="1.42217">
        <ele>108.2</ele>
        <time>2021-04-14T14:54:37Z</time>
      </trkpt>
      <trkpt lat="49.12625" lon="1.42216">
        <ele>108.4</ele>
        <time>2021-04-14T14:54:38Z</time>
      </trkpt>
      <trkpt lat="49.12621" lon="1.42211">
        <ele>109</ele>
        <time>2021-04-14T14:54:41Z</time>
      </trkpt>
      <trkpt lat="49.12619" lon="1.42207">
        <ele>109.4</ele>
        <time>2021-04-14T14:54:43Z</time>
      </trkpt>
      <trkpt lat="49.12614" lon="1.42199">
        <ele>110.2</ele>
        <time>2021-04-14T14:54:47Z</time>
      </trkpt>
      <trkpt lat="49.12612" lon="1.42196">
        <ele>110.4</ele>
        <time>2021-04-14T14:54:49Z</time>
      </trkpt>
      <trkpt lat="49.1261" lon="1.42193">
        <ele>110.8</ele>
        <time>2021-04-14T14:54:51Z</time>
      </trkpt>
      <trkpt lat="49.12609" lon="1.4219">
        <ele>111.2</ele>
        <time>2021-04-14T14:54:53Z</time>
      </trkpt>
      <trkpt lat="49.12608" lon="1.42189">
        <ele>111.4</ele>
        <time>2021-04-14T14:54:54Z</time>
      </trkpt>
      <trkpt lat="49.12601" lon="1.42184">
        <ele>112.2</ele>
        <time>2021-04-14T14:54:58Z</time>
      </trkpt>
      <trkpt lat="49.12599" lon="1.42183">
        <ele>112.6</ele>
        <time>2021-04-14T14:54:59Z</time>
      </trkpt>
      <trkpt lat="49.12591" lon="1.42181">
        <ele>113.6</ele>
        <time>2021-04-14T14:55:03Z</time>
      </trkpt>
      <trkpt lat="49.12588" lon="1.42181">
        <ele>114</ele>
        <time>2021-04-14T14:55:05Z</time>
      </trkpt>
      <trkpt lat="49.12584" lon="1.42181">
        <ele>114.6</ele>
        <time>2021-04-14T14:55:07Z</time>
      </trkpt>
      <trkpt lat="49.12575" lon="1.42179">
        <ele>115.8</ele>
        <time>2021-04-14T14:55:11Z</time>
      </trkpt>
      <trkpt lat="49.12573" lon="1.42179">
        <ele>116</ele>
        <time>2021-04-14T14:55:12Z</time>
      </trkpt>
      <trkpt lat="49.12566" lon="1.4218">
        <ele>116.8</ele>
        <time>2021-04-14T14:55:16Z</time>
      </trkpt>
      <trkpt lat="49.12563" lon="1.4218">
        <ele>117.2</ele>
        <time>2021-04-14T14:55:18Z</time>
      </trkpt>
      <trkpt lat="49.12558" lon="1.4218">
        <ele>118</ele>
        <time>2021-04-14T14:55:21Z</time>
      </trkpt>
      <trkpt lat="49.12556" lon="1.42179">
        <ele>118.4</ele>
        <time>2021-04-14T14:55:23Z</time>
      </trkpt>
      <trkpt lat="49.12551" lon="1.42177">
        <ele>119</ele>
        <time>2021-04-14T14:55:26Z</time>
      </trkpt>
      <trkpt lat="49.12548" lon="1.42176">
        <ele>119.4</ele>
        <time>2021-04-14T14:55:28Z</time>
      </trkpt>
      <trkpt lat="49.12544" lon="1.42175">
        <ele>120</ele>
        <time>2021-04-14T14:55:30Z</time>
      </trkpt>
      <trkpt lat="49.12537" lon="1.42172">
        <ele>120.8</ele>
        <time>2021-04-14T14:55:34Z</time>
      </trkpt>
      <trkpt lat="49.12533" lon="1.4217">
        <ele>121</ele>
        <time>2021-04-14T14:55:36Z</time>
      </trkpt>
      <trkpt lat="49.12526" lon="1.42168">
        <ele>122.2</ele>
        <time>2021-04-14T14:55:40Z</time>
      </trkpt>
      <trkpt lat="49.12524" lon="1.42167">
        <ele>122.4</ele>
        <time>2021-04-14T14:55:41Z</time>
      </trkpt>
      <trkpt lat="49.12517" lon="1.42163">
        <ele>123.2</ele>
        <time>2021-04-14T14:55:45Z</time>
      </trkpt>
      <trkpt lat="49.12511" lon="1.42159">
        <ele>123.8</ele>
        <time>2021-04-14T14:55:48Z</time>
      </trkpt>
      <trkpt lat="49.12506" lon="1.42156">
        <ele>124.4</ele>
        <time>2021-04-14T14:55:51Z</time>
      </trkpt>
      <trkpt lat="49.12505" lon="1.42155">
        <ele>124.6</ele>
        <time>2021-04-14T14:55:52Z</time>
      </trkpt>
      <trkpt lat="49.125" lon="1.42152">
        <ele>125.4</ele>
        <time>2021-04-14T14:55:54Z</time>
      </trkpt>
      <trkpt lat="49.12497" lon="1.42151">
        <ele>125.6</ele>
        <time>2021-04-14T14:55:55Z</time>
      </trkpt>
      <trkpt lat="49.12487" lon="1.42146">
        <ele>126.4</ele>
        <time>2021-04-14T14:55:59Z</time>
      </trkpt>
      <trkpt lat="49.12484" lon="1.42145">
        <ele>126.4</ele>
        <time>2021-04-14T14:56:00Z</time>
      </trkpt>
      <trkpt lat="49.12474" lon="1.42138">
        <ele>127.6</ele>
        <time>2021-04-14T14:56:05Z</time>
      </trkpt>
      <trkpt lat="49.12467" lon="1.42136">
        <ele>129</ele>
        <time>2021-04-14T14:56:08Z</time>
      </trkpt>
      <trkpt lat="49.12465" lon="1.42137">
        <ele>129.2</ele>
        <time>2021-04-14T14:56:09Z</time>
      </trkpt>
      <trkpt lat="49.12461" lon="1.42144">
        <ele>129.8</ele>
        <time>2021-04-14T14:56:12Z</time>
      </trkpt>
      <trkpt lat="49.1246" lon="1.42147">
        <ele>130</ele>
        <time>2021-04-14T14:56:13Z</time>
      </trkpt>
      <trkpt lat="49.12454" lon="1.42163">
        <ele>131</ele>
        <time>2021-04-14T14:56:19Z</time>
      </trkpt>
      <trkpt lat="49.12451" lon="1.42165">
        <ele>131.2</ele>
        <time>2021-04-14T14:56:23Z</time>
      </trkpt>
      <trkpt lat="49.12451" lon="1.42168">
        <ele>132</ele>
        <time>2021-04-14T14:56:36Z</time>
      </trkpt>
      <trkpt lat="49.12445" lon="1.42181">
        <ele>131.8</ele>
        <time>2021-04-14T14:56:41Z</time>
      </trkpt>
      <trkpt lat="49.12433" lon="1.42201">
        <ele>131.8</ele>
        <time>2021-04-14T14:56:48Z</time>
      </trkpt>
      <trkpt lat="49.12419" lon="1.42223">
        <ele>132</ele>
        <time>2021-04-14T14:56:55Z</time>
      </trkpt>
      <trkpt lat="49.12418" lon="1.42227">
        <ele>132.2</ele>
        <time>2021-04-14T14:56:56Z</time>
      </trkpt>
      <trkpt lat="49.12417" lon="1.42231">
        <ele>132.2</ele>
        <time>2021-04-14T14:56:57Z</time>
      </trkpt>
      <trkpt lat="49.12417" lon="1.42234">
        <ele>132.2</ele>
        <time>2021-04-14T14:56:58Z</time>
      </trkpt>
      <trkpt lat="49.12412" lon="1.42244">
        <ele>132.4</ele>
        <time>2021-04-14T14:57:02Z</time>
      </trkpt>
      <trkpt lat="49.1241" lon="1.42252">
        <ele>132.6</ele>
        <time>2021-04-14T14:57:04Z</time>
      </trkpt>
      <trkpt lat="49.12407" lon="1.42261">
        <ele>132.8</ele>
        <time>2021-04-14T14:57:06Z</time>
      </trkpt>
      <trkpt lat="49.12396" lon="1.42284">
        <ele>133.2</ele>
        <time>2021-04-14T14:57:12Z</time>
      </trkpt>
      <trkpt lat="49.12391" lon="1.42293">
        <ele>133.2</ele>
        <time>2021-04-14T14:57:14Z</time>
      </trkpt>
      <trkpt lat="49.12386" lon="1.42304">
        <ele>133.2</ele>
        <time>2021-04-14T14:57:17Z</time>
      </trkpt>
      <trkpt lat="49.12377" lon="1.42318">
        <ele>133.4</ele>
        <time>2021-04-14T14:57:22Z</time>
      </trkpt>
      <trkpt lat="49.12371" lon="1.42327">
        <ele>133.8</ele>
        <time>2021-04-14T14:57:25Z</time>
      </trkpt>
      <trkpt lat="49.12369" lon="1.42329">
        <ele>133.8</ele>
        <time>2021-04-14T14:57:26Z</time>
      </trkpt>
      <trkpt lat="49.12361" lon="1.42339">
        <ele>134.4</ele>
        <time>2021-04-14T14:57:30Z</time>
      </trkpt>
      <trkpt lat="49.12354" lon="1.42346">
        <ele>134.6</ele>
        <time>2021-04-14T14:57:33Z</time>
      </trkpt>
      <trkpt lat="49.12343" lon="1.42357">
        <ele>135.2</ele>
        <time>2021-04-14T14:57:38Z</time>
      </trkpt>
      <trkpt lat="49.12335" lon="1.42363">
        <ele>135.4</ele>
        <time>2021-04-14T14:57:41Z</time>
      </trkpt>
      <trkpt lat="49.12328" lon="1.42369">
        <ele>135.6</ele>
        <time>2021-04-14T14:57:44Z</time>
      </trkpt>
      <trkpt lat="49.12314" lon="1.42378">
        <ele>136.2</ele>
        <time>2021-04-14T14:57:50Z</time>
      </trkpt>
      <trkpt lat="49.12304" lon="1.42384">
        <ele>136.4</ele>
        <time>2021-04-14T14:57:53Z</time>
      </trkpt>
      <trkpt lat="49.1229" lon="1.42394">
        <ele>136.6</ele>
        <time>2021-04-14T14:57:57Z</time>
      </trkpt>
      <trkpt lat="49.1227" lon="1.42409">
        <ele>137.2</ele>
        <time>2021-04-14T14:58:03Z</time>
      </trkpt>
      <trkpt lat="49.12247" lon="1.42417">
        <ele>137.4</ele>
        <time>2021-04-14T14:58:09Z</time>
      </trkpt>
      <trkpt lat="49.12244" lon="1.42419">
        <ele>137.4</ele>
        <time>2021-04-14T14:58:10Z</time>
      </trkpt>
      <trkpt lat="49.12222" lon="1.42424">
        <ele>137.8</ele>
        <time>2021-04-14T14:58:16Z</time>
      </trkpt>
      <trkpt lat="49.12197" lon="1.42428">
        <ele>138.6</ele>
        <time>2021-04-14T14:58:24Z</time>
      </trkpt>
      <trkpt lat="49.12193" lon="1.42429">
        <ele>138.8</ele>
        <time>2021-04-14T14:58:25Z</time>
      </trkpt>
      <trkpt lat="49.1217" lon="1.42434">
        <ele>139.4</ele>
        <time>2021-04-14T14:58:32Z</time>
      </trkpt>
      <trkpt lat="49.12156" lon="1.42445">
        <ele>139.6</ele>
        <time>2021-04-14T14:58:37Z</time>
      </trkpt>
      <trkpt lat="49.12143" lon="1.42462">
        <ele>139.4</ele>
        <time>2021-04-14T14:58:43Z</time>
      </trkpt>
      <trkpt lat="49.12132" lon="1.42474">
        <ele>139.2</ele>
        <time>2021-04-14T14:58:48Z</time>
      </trkpt>
      <trkpt lat="49.12121" lon="1.4249">
        <ele>139</ele>
        <time>2021-04-14T14:58:53Z</time>
      </trkpt>
      <trkpt lat="49.12111" lon="1.42517">
        <ele>138.8</ele>
        <time>2021-04-14T14:58:58Z</time>
      </trkpt>
      <trkpt lat="49.12102" lon="1.42537">
        <ele>138.6</ele>
        <time>2021-04-14T14:59:02Z</time>
      </trkpt>
      <trkpt lat="49.12084" lon="1.42555">
        <ele>138</ele>
        <time>2021-04-14T14:59:07Z</time>
      </trkpt>
      <trkpt lat="49.12079" lon="1.42559">
        <ele>137.8</ele>
        <time>2021-04-14T14:59:08Z</time>
      </trkpt>
      <trkpt lat="49.12063" lon="1.42577">
        <ele>137.2</ele>
        <time>2021-04-14T14:59:13Z</time>
      </trkpt>
      <trkpt lat="49.12053" lon="1.42582">
        <ele>136.8</ele>
        <time>2021-04-14T14:59:16Z</time>
      </trkpt>
      <trkpt lat="49.12041" lon="1.42592">
        <ele>136.6</ele>
        <time>2021-04-14T14:59:20Z</time>
      </trkpt>
      <trkpt lat="49.1203" lon="1.42609">
        <ele>136.4</ele>
        <time>2021-04-14T14:59:24Z</time>
      </trkpt>
      <trkpt lat="49.12026" lon="1.42615">
        <ele>136.4</ele>
        <time>2021-04-14T14:59:25Z</time>
      </trkpt>
      <trkpt lat="49.12015" lon="1.42632">
        <ele>135.8</ele>
        <time>2021-04-14T14:59:28Z</time>
      </trkpt>
      <trkpt lat="49.12012" lon="1.42638">
        <ele>135.6</ele>
        <time>2021-04-14T14:59:29Z</time>
      </trkpt>
      <trkpt lat="49.11999" lon="1.42658">
        <ele>134.4</ele>
        <time>2021-04-14T14:59:32Z</time>
      </trkpt>
      <trkpt lat="49.1199" lon="1.42673">
        <ele>133.6</ele>
        <time>2021-04-14T14:59:34Z</time>
      </trkpt>
      <trkpt lat="49.11985" lon="1.4268">
        <ele>133.2</ele>
        <time>2021-04-14T14:59:35Z</time>
      </trkpt>
      <trkpt lat="49.11979" lon="1.42688">
        <ele>132.6</ele>
        <time>2021-04-14T14:59:36Z</time>
      </trkpt>
      <trkpt lat="49.11974" lon="1.42696">
        <ele>132</ele>
        <time>2021-04-14T14:59:37Z</time>
      </trkpt>
      <trkpt lat="49.11962" lon="1.42707">
        <ele>130.6</ele>
        <time>2021-04-14T14:59:39Z</time>
      </trkpt>
      <trkpt lat="49.11956" lon="1.4271">
        <ele>130</ele>
        <time>2021-04-14T14:59:40Z</time>
      </trkpt>
      <trkpt lat="49.11951" lon="1.42713">
        <ele>129.2</ele>
        <time>2021-04-14T14:59:41Z</time>
      </trkpt>
      <trkpt lat="49.11943" lon="1.4272">
        <ele>128</ele>
        <time>2021-04-14T14:59:43Z</time>
      </trkpt>
      <trkpt lat="49.11939" lon="1.42724">
        <ele>127.2</ele>
        <time>2021-04-14T14:59:44Z</time>
      </trkpt>
      <trkpt lat="49.11934" lon="1.42729">
        <ele>126</ele>
        <time>2021-04-14T14:59:45Z</time>
      </trkpt>
      <trkpt lat="49.11929" lon="1.42732">
        <ele>125</ele>
        <time>2021-04-14T14:59:46Z</time>
      </trkpt>
      <trkpt lat="49.11923" lon="1.42734">
        <ele>123.8</ele>
        <time>2021-04-14T14:59:47Z</time>
      </trkpt>
      <trkpt lat="49.11912" lon="1.42739">
        <ele>122.6</ele>
        <time>2021-04-14T14:59:49Z</time>
      </trkpt>
      <trkpt lat="49.11901" lon="1.42745">
        <ele>121.8</ele>
        <time>2021-04-14T14:59:51Z</time>
      </trkpt>
      <trkpt lat="49.11895" lon="1.42746">
        <ele>121.2</ele>
        <time>2021-04-14T14:59:52Z</time>
      </trkpt>
      <trkpt lat="49.11884" lon="1.42749">
        <ele>119.6</ele>
        <time>2021-04-14T14:59:54Z</time>
      </trkpt>
      <trkpt lat="49.11879" lon="1.42749">
        <ele>117.6</ele>
        <time>2021-04-14T14:59:55Z</time>
      </trkpt>
      <trkpt lat="49.11875" lon="1.4275">
        <ele>116.6</ele>
        <time>2021-04-14T14:59:56Z</time>
      </trkpt>
      <trkpt lat="49.11871" lon="1.4275">
        <ele>115.4</ele>
        <time>2021-04-14T14:59:57Z</time>
      </trkpt>
      <trkpt lat="49.11862" lon="1.42751">
        <ele>113.6</ele>
        <time>2021-04-14T14:59:59Z</time>
      </trkpt>
      <trkpt lat="49.11852" lon="1.42749">
        <ele>112</ele>
        <time>2021-04-14T15:00:01Z</time>
      </trkpt>
      <trkpt lat="49.11841" lon="1.42742">
        <ele>110.4</ele>
        <time>2021-04-14T15:00:03Z</time>
      </trkpt>
      <trkpt lat="49.11829" lon="1.42736">
        <ele>109.4</ele>
        <time>2021-04-14T15:00:05Z</time>
      </trkpt>
      <trkpt lat="49.1182" lon="1.42723">
        <ele>108</ele>
        <time>2021-04-14T15:00:08Z</time>
      </trkpt>
      <trkpt lat="49.11815" lon="1.42717">
        <ele>106.4</ele>
        <time>2021-04-14T15:00:11Z</time>
      </trkpt>
      <trkpt lat="49.11816" lon="1.42715">
        <ele>105.8</ele>
        <time>2021-04-14T15:00:12Z</time>
      </trkpt>
      <trkpt lat="49.11818" lon="1.42714">
        <ele>105.2</ele>
        <time>2021-04-14T15:00:13Z</time>
      </trkpt>
      <trkpt lat="49.1182" lon="1.42715">
        <ele>104.8</ele>
        <time>2021-04-14T15:00:14Z</time>
      </trkpt>
      <trkpt lat="49.11824" lon="1.42714">
        <ele>104.6</ele>
        <time>2021-04-14T15:00:16Z</time>
      </trkpt>
      <trkpt lat="49.11833" lon="1.42704">
        <ele>104.4</ele>
        <time>2021-04-14T15:00:22Z</time>
      </trkpt>
      <trkpt lat="49.11837" lon="1.42688">
        <ele>104.6</ele>
        <time>2021-04-14T15:00:28Z</time>
      </trkpt>
      <trkpt lat="49.11836" lon="1.42682">
        <ele>104.8</ele>
        <time>2021-04-14T15:00:30Z</time>
      </trkpt>
      <trkpt lat="49.11831" lon="1.42674">
        <ele>105.4</ele>
        <time>2021-04-14T15:00:33Z</time>
      </trkpt>
      <trkpt lat="49.11817" lon="1.42662">
        <ele>105.6</ele>
        <time>2021-04-14T15:00:39Z</time>
      </trkpt>
      <trkpt lat="49.11798" lon="1.42649">
        <ele>106</ele>
        <time>2021-04-14T15:00:46Z</time>
      </trkpt>
      <trkpt lat="49.11796" lon="1.42647">
        <ele>106.2</ele>
        <time>2021-04-14T15:00:47Z</time>
      </trkpt>
      <trkpt lat="49.11783" lon="1.42639">
        <ele>107.2</ele>
        <time>2021-04-14T15:00:52Z</time>
      </trkpt>
      <trkpt lat="49.11777" lon="1.42634">
        <ele>107.4</ele>
        <time>2021-04-14T15:00:55Z</time>
      </trkpt>
      <trkpt lat="49.11761" lon="1.42621">
        <ele>108.2</ele>
        <time>2021-04-14T15:01:02Z</time>
      </trkpt>
      <trkpt lat="49.11758" lon="1.42619">
        <ele>108.4</ele>
        <time>2021-04-14T15:01:03Z</time>
      </trkpt>
      <trkpt lat="49.11743" lon="1.4261">
        <ele>109.4</ele>
        <time>2021-04-14T15:01:10Z</time>
      </trkpt>
      <trkpt lat="49.1173" lon="1.42605">
        <ele>110.4</ele>
        <time>2021-04-14T15:01:16Z</time>
      </trkpt>
      <trkpt lat="49.11728" lon="1.42604">
        <ele>110.6</ele>
        <time>2021-04-14T15:01:17Z</time>
      </trkpt>
      <trkpt lat="49.11719" lon="1.42603">
        <ele>111.6</ele>
        <time>2021-04-14T15:01:21Z</time>
      </trkpt>
      <trkpt lat="49.11714" lon="1.42602">
        <ele>112</ele>
        <time>2021-04-14T15:01:23Z</time>
      </trkpt>
      <trkpt lat="49.11712" lon="1.42601">
        <ele>112.2</ele>
        <time>2021-04-14T15:01:24Z</time>
      </trkpt>
      <trkpt lat="49.11703" lon="1.42601">
        <ele>112.8</ele>
        <time>2021-04-14T15:01:28Z</time>
      </trkpt>
      <trkpt lat="49.11693" lon="1.426">
        <ele>113.6</ele>
        <time>2021-04-14T15:01:33Z</time>
      </trkpt>
      <trkpt lat="49.11688" lon="1.426">
        <ele>113.8</ele>
        <time>2021-04-14T15:01:35Z</time>
      </trkpt>
      <trkpt lat="49.11683" lon="1.42601">
        <ele>114</ele>
        <time>2021-04-14T15:01:37Z</time>
      </trkpt>
      <trkpt lat="49.1168" lon="1.42601">
        <ele>114.2</ele>
        <time>2021-04-14T15:01:38Z</time>
      </trkpt>
      <trkpt lat="49.11671" lon="1.42602">
        <ele>114.8</ele>
        <time>2021-04-14T15:01:42Z</time>
      </trkpt>
      <trkpt lat="49.11669" lon="1.42602">
        <ele>115</ele>
        <time>2021-04-14T15:01:43Z</time>
      </trkpt>
      <trkpt lat="49.11655" lon="1.42602">
        <ele>116</ele>
        <time>2021-04-14T15:01:48Z</time>
      </trkpt>
      <trkpt lat="49.11642" lon="1.42601">
        <ele>117</ele>
        <time>2021-04-14T15:01:53Z</time>
      </trkpt>
      <trkpt lat="49.11628" lon="1.42596">
        <ele>118</ele>
        <time>2021-04-14T15:01:59Z</time>
      </trkpt>
      <trkpt lat="49.11626" lon="1.42595">
        <ele>118.2</ele>
        <time>2021-04-14T15:02:00Z</time>
      </trkpt>
      <trkpt lat="49.11619" lon="1.42591">
        <ele>118.8</ele>
        <time>2021-04-14T15:02:04Z</time>
      </trkpt>
      <trkpt lat="49.11615" lon="1.42588">
        <ele>119.2</ele>
        <time>2021-04-14T15:02:06Z</time>
      </trkpt>
      <trkpt lat="49.11608" lon="1.42585">
        <ele>119.8</ele>
        <time>2021-04-14T15:02:09Z</time>
      </trkpt>
      <trkpt lat="49.11603" lon="1.42579">
        <ele>120.4</ele>
        <time>2021-04-14T15:02:12Z</time>
      </trkpt>
      <trkpt lat="49.116" lon="1.42576">
        <ele>120.6</ele>
        <time>2021-04-14T15:02:14Z</time>
      </trkpt>
      <trkpt lat="49.11593" lon="1.42568">
        <ele>121.4</ele>
        <time>2021-04-14T15:02:18Z</time>
      </trkpt>
      <trkpt lat="49.11592" lon="1.42566">
        <ele>121.6</ele>
        <time>2021-04-14T15:02:19Z</time>
      </trkpt>
      <trkpt lat="49.11579" lon="1.42554">
        <ele>122.4</ele>
        <time>2021-04-14T15:02:25Z</time>
      </trkpt>
      <trkpt lat="49.11577" lon="1.42552">
        <ele>122.6</ele>
        <time>2021-04-14T15:02:26Z</time>
      </trkpt>
      <trkpt lat="49.11571" lon="1.42545">
        <ele>123.2</ele>
        <time>2021-04-14T15:02:30Z</time>
      </trkpt>
      <trkpt lat="49.11568" lon="1.42541">
        <ele>123.6</ele>
        <time>2021-04-14T15:02:32Z</time>
      </trkpt>
      <trkpt lat="49.11563" lon="1.42535">
        <ele>124.2</ele>
        <time>2021-04-14T15:02:35Z</time>
      </trkpt>
      <trkpt lat="49.11556" lon="1.42527">
        <ele>124.6</ele>
        <time>2021-04-14T15:02:39Z</time>
      </trkpt>
      <trkpt lat="49.11554" lon="1.42525">
        <ele>124.8</ele>
        <time>2021-04-14T15:02:40Z</time>
      </trkpt>
      <trkpt lat="49.11547" lon="1.42517">
        <ele>125.4</ele>
        <time>2021-04-14T15:02:44Z</time>
      </trkpt>
      <trkpt lat="49.11546" lon="1.42514">
        <ele>125.8</ele>
        <time>2021-04-14T15:02:45Z</time>
      </trkpt>
      <trkpt lat="49.11544" lon="1.42512">
        <ele>126</ele>
        <time>2021-04-14T15:02:46Z</time>
      </trkpt>
      <trkpt lat="49.11535" lon="1.425">
        <ele>126.8</ele>
        <time>2021-04-14T15:02:51Z</time>
      </trkpt>
      <trkpt lat="49.11533" lon="1.42498">
        <ele>127</ele>
        <time>2021-04-14T15:02:52Z</time>
      </trkpt>
      <trkpt lat="49.11524" lon="1.42487">
        <ele>127.8</ele>
        <time>2021-04-14T15:02:57Z</time>
      </trkpt>
      <trkpt lat="49.11522" lon="1.42485">
        <ele>127.8</ele>
        <time>2021-04-14T15:02:58Z</time>
      </trkpt>
      <trkpt lat="49.11515" lon="1.42476">
        <ele>128.6</ele>
        <time>2021-04-14T15:03:02Z</time>
      </trkpt>
      <trkpt lat="49.11513" lon="1.42473">
        <ele>128.6</ele>
        <time>2021-04-14T15:03:03Z</time>
      </trkpt>
      <trkpt lat="49.11507" lon="1.42466">
        <ele>129</ele>
        <time>2021-04-14T15:03:06Z</time>
      </trkpt>
      <trkpt lat="49.11503" lon="1.42462">
        <ele>129.4</ele>
        <time>2021-04-14T15:03:08Z</time>
      </trkpt>
      <trkpt lat="49.11499" lon="1.4246">
        <ele>129.8</ele>
        <time>2021-04-14T15:03:10Z</time>
      </trkpt>
      <trkpt lat="49.11494" lon="1.42463">
        <ele>130.2</ele>
        <time>2021-04-14T15:03:13Z</time>
      </trkpt>
      <trkpt lat="49.1149" lon="1.42474">
        <ele>130.8</ele>
        <time>2021-04-14T15:03:18Z</time>
      </trkpt>
      <trkpt lat="49.11489" lon="1.42478">
        <ele>130.8</ele>
        <time>2021-04-14T15:03:19Z</time>
      </trkpt>
      <trkpt lat="49.11487" lon="1.42489">
        <ele>130.8</ele>
        <time>2021-04-14T15:03:22Z</time>
      </trkpt>
      <trkpt lat="49.11482" lon="1.42507">
        <ele>130.6</ele>
        <time>2021-04-14T15:03:27Z</time>
      </trkpt>
      <trkpt lat="49.1148" lon="1.42531">
        <ele>129.8</ele>
        <time>2021-04-14T15:03:33Z</time>
      </trkpt>
      <trkpt lat="49.1148" lon="1.42554">
        <ele>128.8</ele>
        <time>2021-04-14T15:03:36Z</time>
      </trkpt>
      <trkpt lat="49.11481" lon="1.42562">
        <ele>128.6</ele>
        <time>2021-04-14T15:03:37Z</time>
      </trkpt>
      <trkpt lat="49.1148" lon="1.4259">
        <ele>127.6</ele>
        <time>2021-04-14T15:03:40Z</time>
      </trkpt>
      <trkpt lat="49.11478" lon="1.42601">
        <ele>127.2</ele>
        <time>2021-04-14T15:03:41Z</time>
      </trkpt>
      <trkpt lat="49.11476" lon="1.42612">
        <ele>126.8</ele>
        <time>2021-04-14T15:03:42Z</time>
      </trkpt>
      <trkpt lat="49.11474" lon="1.42624">
        <ele>126.2</ele>
        <time>2021-04-14T15:03:43Z</time>
      </trkpt>
      <trkpt lat="49.11471" lon="1.42634">
        <ele>124.8</ele>
        <time>2021-04-14T15:03:44Z</time>
      </trkpt>
      <trkpt lat="49.11463" lon="1.42652">
        <ele>123.4</ele>
        <time>2021-04-14T15:03:46Z</time>
      </trkpt>
      <trkpt lat="49.11453" lon="1.42666">
        <ele>121.8</ele>
        <time>2021-04-14T15:03:48Z</time>
      </trkpt>
      <trkpt lat="49.11446" lon="1.42673">
        <ele>120.8</ele>
        <time>2021-04-14T15:03:49Z</time>
      </trkpt>
      <trkpt lat="49.11438" lon="1.4268">
        <ele>119.8</ele>
        <time>2021-04-14T15:03:50Z</time>
      </trkpt>
      <trkpt lat="49.1143" lon="1.42686">
        <ele>118.6</ele>
        <time>2021-04-14T15:03:51Z</time>
      </trkpt>
      <trkpt lat="49.11421" lon="1.42693">
        <ele>117.6</ele>
        <time>2021-04-14T15:03:52Z</time>
      </trkpt>
      <trkpt lat="49.11413" lon="1.427">
        <ele>116.6</ele>
        <time>2021-04-14T15:03:53Z</time>
      </trkpt>
      <trkpt lat="49.11406" lon="1.42709">
        <ele>115.4</ele>
        <time>2021-04-14T15:03:54Z</time>
      </trkpt>
      <trkpt lat="49.114" lon="1.4272">
        <ele>114</ele>
        <time>2021-04-14T15:03:55Z</time>
      </trkpt>
      <trkpt lat="49.11395" lon="1.42732">
        <ele>113</ele>
        <time>2021-04-14T15:03:56Z</time>
      </trkpt>
      <trkpt lat="49.11391" lon="1.42745">
        <ele>112</ele>
        <time>2021-04-14T15:03:57Z</time>
      </trkpt>
      <trkpt lat="49.11379" lon="1.42767">
        <ele>110.2</ele>
        <time>2021-04-14T15:03:59Z</time>
      </trkpt>
      <trkpt lat="49.11374" lon="1.42777">
        <ele>109</ele>
        <time>2021-04-14T15:04:00Z</time>
      </trkpt>
      <trkpt lat="49.11369" lon="1.42787">
        <ele>107.6</ele>
        <time>2021-04-14T15:04:01Z</time>
      </trkpt>
      <trkpt lat="49.11363" lon="1.42797">
        <ele>106.2</ele>
        <time>2021-04-14T15:04:02Z</time>
      </trkpt>
      <trkpt lat="49.11357" lon="1.42807">
        <ele>105</ele>
        <time>2021-04-14T15:04:03Z</time>
      </trkpt>
      <trkpt lat="49.11351" lon="1.42817">
        <ele>103.8</ele>
        <time>2021-04-14T15:04:04Z</time>
      </trkpt>
      <trkpt lat="49.11346" lon="1.42828">
        <ele>102.8</ele>
        <time>2021-04-14T15:04:05Z</time>
      </trkpt>
      <trkpt lat="49.1134" lon="1.42837">
        <ele>101.8</ele>
        <time>2021-04-14T15:04:06Z</time>
      </trkpt>
      <trkpt lat="49.11335" lon="1.42847">
        <ele>101.2</ele>
        <time>2021-04-14T15:04:07Z</time>
      </trkpt>
      <trkpt lat="49.11318" lon="1.42875">
        <ele>99.6</ele>
        <time>2021-04-14T15:04:10Z</time>
      </trkpt>
      <trkpt lat="49.11305" lon="1.42894">
        <ele>98.2</ele>
        <time>2021-04-14T15:04:12Z</time>
      </trkpt>
      <trkpt lat="49.11298" lon="1.42904">
        <ele>97.6</ele>
        <time>2021-04-14T15:04:13Z</time>
      </trkpt>
      <trkpt lat="49.11292" lon="1.42914">
        <ele>97.2</ele>
        <time>2021-04-14T15:04:14Z</time>
      </trkpt>
      <trkpt lat="49.11287" lon="1.42925">
        <ele>96.6</ele>
        <time>2021-04-14T15:04:15Z</time>
      </trkpt>
      <trkpt lat="49.11281" lon="1.42951">
        <ele>95.8</ele>
        <time>2021-04-14T15:04:17Z</time>
      </trkpt>
      <trkpt lat="49.1128" lon="1.42965">
        <ele>95.4</ele>
        <time>2021-04-14T15:04:18Z</time>
      </trkpt>
      <trkpt lat="49.1128" lon="1.42979">
        <ele>94.8</ele>
        <time>2021-04-14T15:04:19Z</time>
      </trkpt>
      <trkpt lat="49.11279" lon="1.43002">
        <ele>93.8</ele>
        <time>2021-04-14T15:04:21Z</time>
      </trkpt>
      <trkpt lat="49.11279" lon="1.4302">
        <ele>92.4</ele>
        <time>2021-04-14T15:04:24Z</time>
      </trkpt>
      <trkpt lat="49.11279" lon="1.43023">
        <ele>91.6</ele>
        <time>2021-04-14T15:04:25Z</time>
      </trkpt>
      <trkpt lat="49.11278" lon="1.43026">
        <ele>91.2</ele>
        <time>2021-04-14T15:04:26Z</time>
      </trkpt>
      <trkpt lat="49.11273" lon="1.4303">
        <ele>90</ele>
        <time>2021-04-14T15:04:29Z</time>
      </trkpt>
      <trkpt lat="49.11259" lon="1.43045">
        <ele>89.8</ele>
        <time>2021-04-14T15:04:34Z</time>
      </trkpt>
      <trkpt lat="49.1124" lon="1.43063">
        <ele>90</ele>
        <time>2021-04-14T15:04:40Z</time>
      </trkpt>
      <trkpt lat="49.11235" lon="1.43068">
        <ele>90.2</ele>
        <time>2021-04-14T15:04:44Z</time>
      </trkpt>
      <trkpt lat="49.11235" lon="1.43068">
        <ele>90.2</ele>
        <time>2021-04-14T15:04:45Z</time>
      </trkpt>
      <trkpt lat="49.11232" lon="1.43071">
        <ele>89.8</ele>
        <time>2021-04-14T15:05:23Z</time>
      </trkpt>
      <trkpt lat="49.11229" lon="1.43075">
        <ele>89.8</ele>
        <time>2021-04-14T15:05:25Z</time>
      </trkpt>
      <trkpt lat="49.11217" lon="1.43086">
        <ele>89.8</ele>
        <time>2021-04-14T15:05:30Z</time>
      </trkpt>
      <trkpt lat="49.11202" lon="1.43096">
        <ele>89.2</ele>
        <time>2021-04-14T15:05:35Z</time>
      </trkpt>
      <trkpt lat="49.11199" lon="1.43098">
        <ele>89</ele>
        <time>2021-04-14T15:05:36Z</time>
      </trkpt>
      <trkpt lat="49.11186" lon="1.43099">
        <ele>88.2</ele>
        <time>2021-04-14T15:05:40Z</time>
      </trkpt>
      <trkpt lat="49.11183" lon="1.43097">
        <ele>88</ele>
        <time>2021-04-14T15:05:41Z</time>
      </trkpt>
      <trkpt lat="49.11169" lon="1.43094">
        <ele>87.8</ele>
        <time>2021-04-14T15:05:46Z</time>
      </trkpt>
      <trkpt lat="49.11162" lon="1.4309">
        <ele>87.6</ele>
        <time>2021-04-14T15:05:49Z</time>
      </trkpt>
      <trkpt lat="49.11161" lon="1.43087">
        <ele>87.6</ele>
        <time>2021-04-14T15:05:50Z</time>
      </trkpt>
      <trkpt lat="49.11153" lon="1.43066">
        <ele>88</ele>
        <time>2021-04-14T15:05:56Z</time>
      </trkpt>
      <trkpt lat="49.11145" lon="1.43045">
        <ele>88.4</ele>
        <time>2021-04-14T15:06:02Z</time>
      </trkpt>
      <trkpt lat="49.11138" lon="1.43024">
        <ele>89.2</ele>
        <time>2021-04-14T15:06:07Z</time>
      </trkpt>
      <trkpt lat="49.11135" lon="1.43015">
        <ele>89.4</ele>
        <time>2021-04-14T15:06:09Z</time>
      </trkpt>
      <trkpt lat="49.11128" lon="1.42997">
        <ele>90.2</ele>
        <time>2021-04-14T15:06:13Z</time>
      </trkpt>
      <trkpt lat="49.11125" lon="1.4299">
        <ele>90.6</ele>
        <time>2021-04-14T15:06:15Z</time>
      </trkpt>
      <trkpt lat="49.11118" lon="1.42974">
        <ele>91.2</ele>
        <time>2021-04-14T15:06:19Z</time>
      </trkpt>
      <trkpt lat="49.11116" lon="1.42967">
        <ele>91.6</ele>
        <time>2021-04-14T15:06:21Z</time>
      </trkpt>
      <trkpt lat="49.1111" lon="1.42952">
        <ele>92</ele>
        <time>2021-04-14T15:06:25Z</time>
      </trkpt>
      <trkpt lat="49.11106" lon="1.42941">
        <ele>92.4</ele>
        <time>2021-04-14T15:06:28Z</time>
      </trkpt>
      <trkpt lat="49.11098" lon="1.42925">
        <ele>93.2</ele>
        <time>2021-04-14T15:06:32Z</time>
      </trkpt>
      <trkpt lat="49.11095" lon="1.42918">
        <ele>93.6</ele>
        <time>2021-04-14T15:06:34Z</time>
      </trkpt>
      <trkpt lat="49.11089" lon="1.42906">
        <ele>94.2</ele>
        <time>2021-04-14T15:06:37Z</time>
      </trkpt>
      <trkpt lat="49.11087" lon="1.42897">
        <ele>94.6</ele>
        <time>2021-04-14T15:06:39Z</time>
      </trkpt>
      <trkpt lat="49.11086" lon="1.42882">
        <ele>95</ele>
        <time>2021-04-14T15:06:42Z</time>
      </trkpt>
      <trkpt lat="49.11085" lon="1.42879">
        <ele>95</ele>
        <time>2021-04-14T15:06:43Z</time>
      </trkpt>
      <trkpt lat="49.11082" lon="1.42876">
        <ele>95.2</ele>
        <time>2021-04-14T15:06:45Z</time>
      </trkpt>
      <trkpt lat="49.11074" lon="1.42864">
        <ele>95.2</ele>
        <time>2021-04-14T15:06:49Z</time>
      </trkpt>
      <trkpt lat="49.11074" lon="1.4286">
        <ele>95.2</ele>
        <time>2021-04-14T15:06:50Z</time>
      </trkpt>
      <trkpt lat="49.11068" lon="1.42848">
        <ele>95.2</ele>
        <time>2021-04-14T15:06:54Z</time>
      </trkpt>
      <trkpt lat="49.11062" lon="1.42831">
        <ele>95.2</ele>
        <time>2021-04-14T15:06:59Z</time>
      </trkpt>
      <trkpt lat="49.1106" lon="1.42813">
        <ele>95.4</ele>
        <time>2021-04-14T15:07:05Z</time>
      </trkpt>
      <trkpt lat="49.1106" lon="1.4281">
        <ele>95.6</ele>
        <time>2021-04-14T15:07:06Z</time>
      </trkpt>
      <trkpt lat="49.11056" lon="1.42801">
        <ele>96.2</ele>
        <time>2021-04-14T15:07:09Z</time>
      </trkpt>
      <trkpt lat="49.11055" lon="1.42798">
        <ele>96.6</ele>
        <time>2021-04-14T15:07:10Z</time>
      </trkpt>
      <trkpt lat="49.11054" lon="1.42796">
        <ele>96.8</ele>
        <time>2021-04-14T15:07:11Z</time>
      </trkpt>
      <trkpt lat="49.11049" lon="1.42787">
        <ele>97.4</ele>
        <time>2021-04-14T15:07:15Z</time>
      </trkpt>
      <trkpt lat="49.11047" lon="1.42787">
        <ele>97.6</ele>
        <time>2021-04-14T15:07:16Z</time>
      </trkpt>
      <trkpt lat="49.11042" lon="1.42788">
        <ele>98.8</ele>
        <time>2021-04-14T15:07:19Z</time>
      </trkpt>
      <trkpt lat="49.11036" lon="1.42786">
        <ele>100</ele>
        <time>2021-04-14T15:07:22Z</time>
      </trkpt>
      <trkpt lat="49.11034" lon="1.42786">
        <ele>100.2</ele>
        <time>2021-04-14T15:07:23Z</time>
      </trkpt>
      <trkpt lat="49.11018" lon="1.42788">
        <ele>101</ele>
        <time>2021-04-14T15:07:28Z</time>
      </trkpt>
      <trkpt lat="49.11012" lon="1.42789">
        <ele>101</ele>
        <time>2021-04-14T15:07:30Z</time>
      </trkpt>
      <trkpt lat="49.11003" lon="1.4279">
        <ele>101</ele>
        <time>2021-04-14T15:07:33Z</time>
      </trkpt>
      <trkpt lat="49.1099" lon="1.42794">
        <ele>100.6</ele>
        <time>2021-04-14T15:07:38Z</time>
      </trkpt>
      <trkpt lat="49.10974" lon="1.42798">
        <ele>100</ele>
        <time>2021-04-14T15:07:42Z</time>
      </trkpt>
      <trkpt lat="49.1097" lon="1.428">
        <ele>99.8</ele>
        <time>2021-04-14T15:07:43Z</time>
      </trkpt>
      <trkpt lat="49.10951" lon="1.42807">
        <ele>98.8</ele>
        <time>2021-04-14T15:07:48Z</time>
      </trkpt>
      <trkpt lat="49.10948" lon="1.42808">
        <ele>98.6</ele>
        <time>2021-04-14T15:07:49Z</time>
      </trkpt>
      <trkpt lat="49.1094" lon="1.42811">
        <ele>97.8</ele>
        <time>2021-04-14T15:07:52Z</time>
      </trkpt>
      <trkpt lat="49.10932" lon="1.42812">
        <ele>97.6</ele>
        <time>2021-04-14T15:07:55Z</time>
      </trkpt>
      <trkpt lat="49.10924" lon="1.42815">
        <ele>97.6</ele>
        <time>2021-04-14T15:07:58Z</time>
      </trkpt>
      <trkpt lat="49.10912" lon="1.42816">
        <ele>97.6</ele>
        <time>2021-04-14T15:08:02Z</time>
      </trkpt>
      <trkpt lat="49.10902" lon="1.42819">
        <ele>98.2</ele>
        <time>2021-04-14T15:08:06Z</time>
      </trkpt>
      <trkpt lat="49.10892" lon="1.42823">
        <ele>98.6</ele>
        <time>2021-04-14T15:08:09Z</time>
      </trkpt>
      <trkpt lat="49.10889" lon="1.42823">
        <ele>98.8</ele>
        <time>2021-04-14T15:08:10Z</time>
      </trkpt>
      <trkpt lat="49.1088" lon="1.42828">
        <ele>99</ele>
        <time>2021-04-14T15:08:14Z</time>
      </trkpt>
      <trkpt lat="49.10872" lon="1.42832">
        <ele>99</ele>
        <time>2021-04-14T15:08:20Z</time>
      </trkpt>
      <trkpt lat="49.1087" lon="1.42834">
        <ele>99.4</ele>
        <time>2021-04-14T15:08:23Z</time>
      </trkpt>
      <trkpt lat="49.1086" lon="1.42838">
        <ele>104</ele>
        <time>2021-04-14T15:09:28Z</time>
      </trkpt>
      <trkpt lat="49.10861" lon="1.42837">
        <ele>104</ele>
        <time>2021-04-14T15:09:30Z</time>
      </trkpt>
      <trkpt lat="49.10862" lon="1.42837">
        <ele>104</ele>
        <time>2021-04-14T15:09:31Z</time>
      </trkpt>
      <trkpt lat="49.10866" lon="1.42834">
        <ele>103.4</ele>
        <time>2021-04-14T15:09:38Z</time>
      </trkpt>
      <trkpt lat="49.10866" lon="1.42832">
        <ele>99.4</ele>
        <time>2021-04-14T15:09:52Z</time>
      </trkpt>
      <trkpt lat="49.10865" lon="1.42833">
        <ele>99.4</ele>
        <time>2021-04-14T15:09:53Z</time>
      </trkpt>
      <trkpt lat="49.10862" lon="1.42835">
        <ele>99.4</ele>
        <time>2021-04-14T15:09:56Z</time>
      </trkpt>
      <trkpt lat="49.10858" lon="1.42837">
        <ele>99.4</ele>
        <time>2021-04-14T15:10:02Z</time>
      </trkpt>
      <trkpt lat="49.10857" lon="1.42838">
        <ele>99.8</ele>
        <time>2021-04-14T15:10:07Z</time>
      </trkpt>
      <trkpt lat="49.1086" lon="1.42834">
        <ele>102.4</ele>
        <time>2021-04-14T15:10:23Z</time>
      </trkpt>
      <trkpt lat="49.10861" lon="1.42834">
        <ele>102.4</ele>
        <time>2021-04-14T15:10:24Z</time>
      </trkpt>
      <trkpt lat="49.10863" lon="1.42833">
        <ele>102.4</ele>
        <time>2021-04-14T15:10:25Z</time>
      </trkpt>
      <trkpt lat="49.10863" lon="1.42832">
        <ele>101.6</ele>
        <time>2021-04-14T15:10:30Z</time>
      </trkpt>
      <trkpt lat="49.1086" lon="1.42837">
        <ele>99.6</ele>
        <time>2021-04-14T15:10:37Z</time>
      </trkpt>
      <trkpt lat="49.10859" lon="1.42837">
        <ele>99.6</ele>
        <time>2021-04-14T15:10:38Z</time>
      </trkpt>
      <trkpt lat="49.10856" lon="1.42839">
        <ele>99.6</ele>
        <time>2021-04-14T15:10:42Z</time>
      </trkpt>
      <trkpt lat="49.10852" lon="1.42844">
        <ele>100.6</ele>
        <time>2021-04-14T15:10:48Z</time>
      </trkpt>
      <trkpt lat="49.10851" lon="1.42844">
        <ele>102</ele>
        <time>2021-04-14T15:10:51Z</time>
      </trkpt>
      <trkpt lat="49.1085" lon="1.42844">
        <ele>103</ele>
        <time>2021-04-14T15:10:52Z</time>
      </trkpt>
      <trkpt lat="49.10847" lon="1.42844">
        <ele>106.2</ele>
        <time>2021-04-14T15:11:00Z</time>
      </trkpt>
      <trkpt lat="49.10843" lon="1.42844">
        <ele>106.4</ele>
        <time>2021-04-14T15:11:05Z</time>
      </trkpt>
      <trkpt lat="49.10841" lon="1.42847">
        <ele>106.4</ele>
        <time>2021-04-14T15:11:10Z</time>
      </trkpt>
      <trkpt lat="49.1084" lon="1.42848">
        <ele>107</ele>
        <time>2021-04-14T15:11:12Z</time>
      </trkpt>
      <trkpt lat="49.10837" lon="1.4285">
        <ele>108.6</ele>
        <time>2021-04-14T15:14:30Z</time>
      </trkpt>
      <trkpt lat="49.10836" lon="1.4285">
        <ele>108.6</ele>
        <time>2021-04-14T15:14:31Z</time>
      </trkpt>
      <trkpt lat="49.10829" lon="1.42856">
        <ele>108.6</ele>
        <time>2021-04-14T15:14:37Z</time>
      </trkpt>
      <trkpt lat="49.10825" lon="1.42853">
        <ele>108.6</ele>
        <time>2021-04-14T15:14:41Z</time>
      </trkpt>
      <trkpt lat="49.10824" lon="1.42848">
        <ele>108.6</ele>
        <time>2021-04-14T15:14:43Z</time>
      </trkpt>
      <trkpt lat="49.10824" lon="1.42843">
        <ele>108.6</ele>
        <time>2021-04-14T15:14:45Z</time>
      </trkpt>
      <trkpt lat="49.1082" lon="1.4283">
        <ele>109.8</ele>
        <time>2021-04-14T15:14:51Z</time>
      </trkpt>
      <trkpt lat="49.1082" lon="1.42828">
        <ele>109.8</ele>
        <time>2021-04-14T15:14:52Z</time>
      </trkpt>
      <trkpt lat="49.10817" lon="1.4282">
        <ele>110.8</ele>
        <time>2021-04-14T15:14:56Z</time>
      </trkpt>
      <trkpt lat="49.10817" lon="1.42819">
        <ele>111</ele>
        <time>2021-04-14T15:14:57Z</time>
      </trkpt>
      <trkpt lat="49.10815" lon="1.42816">
        <ele>111.6</ele>
        <time>2021-04-14T15:14:59Z</time>
      </trkpt>
      <trkpt lat="49.10814" lon="1.42814">
        <ele>112</ele>
        <time>2021-04-14T15:15:00Z</time>
      </trkpt>
      <trkpt lat="49.10811" lon="1.42809">
        <ele>113.2</ele>
        <time>2021-04-14T15:15:04Z</time>
      </trkpt>
      <trkpt lat="49.10809" lon="1.42806">
        <ele>113.6</ele>
        <time>2021-04-14T15:15:06Z</time>
      </trkpt>
      <trkpt lat="49.10806" lon="1.42804">
        <ele>114.2</ele>
        <time>2021-04-14T15:15:08Z</time>
      </trkpt>
      <trkpt lat="49.10801" lon="1.428">
        <ele>115.2</ele>
        <time>2021-04-14T15:15:12Z</time>
      </trkpt>
      <trkpt lat="49.10799" lon="1.42799">
        <ele>115.4</ele>
        <time>2021-04-14T15:15:13Z</time>
      </trkpt>
      <trkpt lat="49.10796" lon="1.42797">
        <ele>116.2</ele>
        <time>2021-04-14T15:15:16Z</time>
      </trkpt>
      <trkpt lat="49.10793" lon="1.42796">
        <ele>116.8</ele>
        <time>2021-04-14T15:15:18Z</time>
      </trkpt>
      <trkpt lat="49.10791" lon="1.42794">
        <ele>117.4</ele>
        <time>2021-04-14T15:15:20Z</time>
      </trkpt>
      <trkpt lat="49.10786" lon="1.4279">
        <ele>118.4</ele>
        <time>2021-04-14T15:15:24Z</time>
      </trkpt>
      <trkpt lat="49.10782" lon="1.42787">
        <ele>119.2</ele>
        <time>2021-04-14T15:15:27Z</time>
      </trkpt>
      <trkpt lat="49.10781" lon="1.42786">
        <ele>119.6</ele>
        <time>2021-04-14T15:15:28Z</time>
      </trkpt>
      <trkpt lat="49.10776" lon="1.4278">
        <ele>120.6</ele>
        <time>2021-04-14T15:15:32Z</time>
      </trkpt>
      <trkpt lat="49.10775" lon="1.42779">
        <ele>120.8</ele>
        <time>2021-04-14T15:15:33Z</time>
      </trkpt>
      <trkpt lat="49.10772" lon="1.42774">
        <ele>121.8</ele>
        <time>2021-04-14T15:15:36Z</time>
      </trkpt>
      <trkpt lat="49.1077" lon="1.42771">
        <ele>122.4</ele>
        <time>2021-04-14T15:15:38Z</time>
      </trkpt>
      <trkpt lat="49.10769" lon="1.42769">
        <ele>122.8</ele>
        <time>2021-04-14T15:15:39Z</time>
      </trkpt>
      <trkpt lat="49.10766" lon="1.42761">
        <ele>123.8</ele>
        <time>2021-04-14T15:15:43Z</time>
      </trkpt>
      <trkpt lat="49.10764" lon="1.42757">
        <ele>124.2</ele>
        <time>2021-04-14T15:15:45Z</time>
      </trkpt>
      <trkpt lat="49.10763" lon="1.42753">
        <ele>124.8</ele>
        <time>2021-04-14T15:15:47Z</time>
      </trkpt>
      <trkpt lat="49.10762" lon="1.42747">
        <ele>125.6</ele>
        <time>2021-04-14T15:15:50Z</time>
      </trkpt>
      <trkpt lat="49.10761" lon="1.42745">
        <ele>125.8</ele>
        <time>2021-04-14T15:15:51Z</time>
      </trkpt>
      <trkpt lat="49.10756" lon="1.42733">
        <ele>127</ele>
        <time>2021-04-14T15:15:57Z</time>
      </trkpt>
      <trkpt lat="49.10754" lon="1.42725">
        <ele>127.4</ele>
        <time>2021-04-14T15:16:00Z</time>
      </trkpt>
      <trkpt lat="49.10753" lon="1.42719">
        <ele>127.8</ele>
        <time>2021-04-14T15:16:02Z</time>
      </trkpt>
      <trkpt lat="49.10752" lon="1.42716">
        <ele>128</ele>
        <time>2021-04-14T15:16:03Z</time>
      </trkpt>
      <trkpt lat="49.10751" lon="1.42711">
        <ele>128.4</ele>
        <time>2021-04-14T15:16:05Z</time>
      </trkpt>
      <trkpt lat="49.10749" lon="1.42706">
        <ele>129</ele>
        <time>2021-04-14T15:16:07Z</time>
      </trkpt>
      <trkpt lat="49.10748" lon="1.42704">
        <ele>129.2</ele>
        <time>2021-04-14T15:16:08Z</time>
      </trkpt>
      <trkpt lat="49.10747" lon="1.42701">
        <ele>129.6</ele>
        <time>2021-04-14T15:16:10Z</time>
      </trkpt>
      <trkpt lat="49.10745" lon="1.42694">
        <ele>130.2</ele>
        <time>2021-04-14T15:16:13Z</time>
      </trkpt>
      <trkpt lat="49.10742" lon="1.42685">
        <ele>131.2</ele>
        <time>2021-04-14T15:16:18Z</time>
      </trkpt>
      <trkpt lat="49.10741" lon="1.42683">
        <ele>131.4</ele>
        <time>2021-04-14T15:16:19Z</time>
      </trkpt>
      <trkpt lat="49.1074" lon="1.42681">
        <ele>131.6</ele>
        <time>2021-04-14T15:16:20Z</time>
      </trkpt>
      <trkpt lat="49.10737" lon="1.42671">
        <ele>132.2</ele>
        <time>2021-04-14T15:16:23Z</time>
      </trkpt>
      <trkpt lat="49.10736" lon="1.42665">
        <ele>132.6</ele>
        <time>2021-04-14T15:16:25Z</time>
      </trkpt>
      <trkpt lat="49.10736" lon="1.42662">
        <ele>132.6</ele>
        <time>2021-04-14T15:16:26Z</time>
      </trkpt>
      <trkpt lat="49.10735" lon="1.4266">
        <ele>132.8</ele>
        <time>2021-04-14T15:16:27Z</time>
      </trkpt>
      <trkpt lat="49.10734" lon="1.42658">
        <ele>133</ele>
        <time>2021-04-14T15:16:28Z</time>
      </trkpt>
      <trkpt lat="49.10733" lon="1.42653">
        <ele>133.6</ele>
        <time>2021-04-14T15:16:30Z</time>
      </trkpt>
      <trkpt lat="49.10732" lon="1.42651">
        <ele>133.8</ele>
        <time>2021-04-14T15:16:31Z</time>
      </trkpt>
      <trkpt lat="49.10731" lon="1.42648">
        <ele>134.2</ele>
        <time>2021-04-14T15:16:32Z</time>
      </trkpt>
      <trkpt lat="49.1073" lon="1.42645">
        <ele>134.4</ele>
        <time>2021-04-14T15:16:33Z</time>
      </trkpt>
      <trkpt lat="49.10729" lon="1.42643">
        <ele>135</ele>
        <time>2021-04-14T15:16:34Z</time>
      </trkpt>
      <trkpt lat="49.10722" lon="1.4263">
        <ele>136</ele>
        <time>2021-04-14T15:16:39Z</time>
      </trkpt>
      <trkpt lat="49.10721" lon="1.42628">
        <ele>136.2</ele>
        <time>2021-04-14T15:16:40Z</time>
      </trkpt>
      <trkpt lat="49.10718" lon="1.42623">
        <ele>136.6</ele>
        <time>2021-04-14T15:16:42Z</time>
      </trkpt>
      <trkpt lat="49.10716" lon="1.42618">
        <ele>137</ele>
        <time>2021-04-14T15:16:44Z</time>
      </trkpt>
      <trkpt lat="49.10715" lon="1.42616">
        <ele>137.2</ele>
        <time>2021-04-14T15:16:45Z</time>
      </trkpt>
      <trkpt lat="49.10711" lon="1.42609">
        <ele>137.6</ele>
        <time>2021-04-14T15:16:49Z</time>
      </trkpt>
      <trkpt lat="49.10713" lon="1.42602">
        <ele>138.2</ele>
        <time>2021-04-14T15:16:52Z</time>
      </trkpt>
      <trkpt lat="49.10716" lon="1.42596">
        <ele>138.6</ele>
        <time>2021-04-14T15:16:55Z</time>
      </trkpt>
      <trkpt lat="49.10721" lon="1.42581">
        <ele>139</ele>
        <time>2021-04-14T15:17:00Z</time>
      </trkpt>
      <trkpt lat="49.10724" lon="1.42562">
        <ele>139</ele>
        <time>2021-04-14T15:17:05Z</time>
      </trkpt>
      <trkpt lat="49.1073" lon="1.42537">
        <ele>138.8</ele>
        <time>2021-04-14T15:17:10Z</time>
      </trkpt>
      <trkpt lat="49.10736" lon="1.42512">
        <ele>138.8</ele>
        <time>2021-04-14T15:17:16Z</time>
      </trkpt>
      <trkpt lat="49.10742" lon="1.42487">
        <ele>138.6</ele>
        <time>2021-04-14T15:17:22Z</time>
      </trkpt>
      <trkpt lat="49.10748" lon="1.42469">
        <ele>138.4</ele>
        <time>2021-04-14T15:17:27Z</time>
      </trkpt>
      <trkpt lat="49.1075" lon="1.42465">
        <ele>138.4</ele>
        <time>2021-04-14T15:17:28Z</time>
      </trkpt>
      <trkpt lat="49.10756" lon="1.42461">
        <ele>138.2</ele>
        <time>2021-04-14T15:17:30Z</time>
      </trkpt>
      <trkpt lat="49.10767" lon="1.4246">
        <ele>138</ele>
        <time>2021-04-14T15:17:33Z</time>
      </trkpt>
      <trkpt lat="49.10771" lon="1.4246">
        <ele>138</ele>
        <time>2021-04-14T15:17:34Z</time>
      </trkpt>
      <trkpt lat="49.10794" lon="1.4246">
        <ele>137.2</ele>
        <time>2021-04-14T15:17:40Z</time>
      </trkpt>
      <trkpt lat="49.10821" lon="1.42462">
        <ele>136.4</ele>
        <time>2021-04-14T15:17:48Z</time>
      </trkpt>
      <trkpt lat="49.10846" lon="1.42464">
        <ele>136.8</ele>
        <time>2021-04-14T15:17:56Z</time>
      </trkpt>
      <trkpt lat="49.10851" lon="1.42464">
        <ele>137.4</ele>
        <time>2021-04-14T15:18:01Z</time>
      </trkpt>
      <trkpt lat="49.10858" lon="1.42464">
        <ele>138</ele>
        <time>2021-04-14T15:18:07Z</time>
      </trkpt>
      <trkpt lat="49.10864" lon="1.42465">
        <ele>138.2</ele>
        <time>2021-04-14T15:18:10Z</time>
      </trkpt>
      <trkpt lat="49.1087" lon="1.42465">
        <ele>138.6</ele>
        <time>2021-04-14T15:18:14Z</time>
      </trkpt>
      <trkpt lat="49.10888" lon="1.42468">
        <ele>138.8</ele>
        <time>2021-04-14T15:18:20Z</time>
      </trkpt>
      <trkpt lat="49.1091" lon="1.42471">
        <ele>138.8</ele>
        <time>2021-04-14T15:18:26Z</time>
      </trkpt>
      <trkpt lat="49.10936" lon="1.42476">
        <ele>138.6</ele>
        <time>2021-04-14T15:18:32Z</time>
      </trkpt>
      <trkpt lat="49.1097" lon="1.42482">
        <ele>138.4</ele>
        <time>2021-04-14T15:18:40Z</time>
      </trkpt>
      <trkpt lat="49.11008" lon="1.42489">
        <ele>138.8</ele>
        <time>2021-04-14T15:18:48Z</time>
      </trkpt>
      <trkpt lat="49.11025" lon="1.42494">
        <ele>139</ele>
        <time>2021-04-14T15:18:52Z</time>
      </trkpt>
      <trkpt lat="49.11032" lon="1.42496">
        <ele>139.4</ele>
        <time>2021-04-14T15:18:54Z</time>
      </trkpt>
      <trkpt lat="49.11038" lon="1.42498">
        <ele>139.6</ele>
        <time>2021-04-14T15:18:57Z</time>
      </trkpt>
      <trkpt lat="49.11049" lon="1.425">
        <ele>139.8</ele>
        <time>2021-04-14T15:19:02Z</time>
      </trkpt>
      <trkpt lat="49.11065" lon="1.42503">
        <ele>139.8</ele>
        <time>2021-04-14T15:19:07Z</time>
      </trkpt>
      <trkpt lat="49.11089" lon="1.42509">
        <ele>139.6</ele>
        <time>2021-04-14T15:19:13Z</time>
      </trkpt>
      <trkpt lat="49.11108" lon="1.4251">
        <ele>139.6</ele>
        <time>2021-04-14T15:19:18Z</time>
      </trkpt>
      <trkpt lat="49.11123" lon="1.42513">
        <ele>139.8</ele>
        <time>2021-04-14T15:19:22Z</time>
      </trkpt>
      <trkpt lat="49.1114" lon="1.4252">
        <ele>139.8</ele>
        <time>2021-04-14T15:19:27Z</time>
      </trkpt>
      <trkpt lat="49.11159" lon="1.42522">
        <ele>139.8</ele>
        <time>2021-04-14T15:19:32Z</time>
      </trkpt>
      <trkpt lat="49.11177" lon="1.42527">
        <ele>139.8</ele>
        <time>2021-04-14T15:19:37Z</time>
      </trkpt>
      <trkpt lat="49.11193" lon="1.42531">
        <ele>139.6</ele>
        <time>2021-04-14T15:19:41Z</time>
      </trkpt>
      <trkpt lat="49.11198" lon="1.42532">
        <ele>139.6</ele>
        <time>2021-04-14T15:19:42Z</time>
      </trkpt>
      <trkpt lat="49.11216" lon="1.42535">
        <ele>139.6</ele>
        <time>2021-04-14T15:19:46Z</time>
      </trkpt>
      <trkpt lat="49.11221" lon="1.42536">
        <ele>139.4</ele>
        <time>2021-04-14T15:19:47Z</time>
      </trkpt>
      <trkpt lat="49.11238" lon="1.4254">
        <ele>139.2</ele>
        <time>2021-04-14T15:19:51Z</time>
      </trkpt>
      <trkpt lat="49.11247" lon="1.42543">
        <ele>139.2</ele>
        <time>2021-04-14T15:19:53Z</time>
      </trkpt>
      <trkpt lat="49.11252" lon="1.42544">
        <ele>139</ele>
        <time>2021-04-14T15:19:54Z</time>
      </trkpt>
      <trkpt lat="49.11265" lon="1.42547">
        <ele>138.8</ele>
        <time>2021-04-14T15:19:57Z</time>
      </trkpt>
      <trkpt lat="49.11283" lon="1.42549">
        <ele>138.4</ele>
        <time>2021-04-14T15:20:01Z</time>
      </trkpt>
      <trkpt lat="49.11287" lon="1.4255">
        <ele>138.2</ele>
        <time>2021-04-14T15:20:02Z</time>
      </trkpt>
      <trkpt lat="49.11305" lon="1.42553">
        <ele>137.4</ele>
        <time>2021-04-14T15:20:06Z</time>
      </trkpt>
      <trkpt lat="49.11312" lon="1.42555">
        <ele>137</ele>
        <time>2021-04-14T15:20:08Z</time>
      </trkpt>
      <trkpt lat="49.1132" lon="1.42557">
        <ele>136.4</ele>
        <time>2021-04-14T15:20:10Z</time>
      </trkpt>
      <trkpt lat="49.11324" lon="1.42559">
        <ele>136.2</ele>
        <time>2021-04-14T15:20:11Z</time>
      </trkpt>
      <trkpt lat="49.11331" lon="1.42566">
        <ele>135.8</ele>
        <time>2021-04-14T15:20:13Z</time>
      </trkpt>
      <trkpt lat="49.11335" lon="1.42569">
        <ele>135.4</ele>
        <time>2021-04-14T15:20:14Z</time>
      </trkpt>
      <trkpt lat="49.11348" lon="1.42583">
        <ele>134.6</ele>
        <time>2021-04-14T15:20:17Z</time>
      </trkpt>
      <trkpt lat="49.11358" lon="1.42591">
        <ele>133.8</ele>
        <time>2021-04-14T15:20:19Z</time>
      </trkpt>
      <trkpt lat="49.11364" lon="1.42594">
        <ele>133.4</ele>
        <time>2021-04-14T15:20:20Z</time>
      </trkpt>
      <trkpt lat="49.11378" lon="1.426">
        <ele>131.8</ele>
        <time>2021-04-14T15:20:22Z</time>
      </trkpt>
      <trkpt lat="49.11387" lon="1.42607">
        <ele>130.8</ele>
        <time>2021-04-14T15:20:24Z</time>
      </trkpt>
      <trkpt lat="49.11392" lon="1.4261">
        <ele>130.4</ele>
        <time>2021-04-14T15:20:25Z</time>
      </trkpt>
      <trkpt lat="49.114" lon="1.42612">
        <ele>129</ele>
        <time>2021-04-14T15:20:27Z</time>
      </trkpt>
      <trkpt lat="49.11407" lon="1.42612">
        <ele>127.4</ele>
        <time>2021-04-14T15:20:29Z</time>
      </trkpt>
      <trkpt lat="49.11414" lon="1.42611">
        <ele>126</ele>
        <time>2021-04-14T15:20:32Z</time>
      </trkpt>
      <trkpt lat="49.11418" lon="1.42609">
        <ele>124.4</ele>
        <time>2021-04-14T15:21:00Z</time>
      </trkpt>
      <trkpt lat="49.11419" lon="1.42608">
        <ele>124.4</ele>
        <time>2021-04-14T15:21:01Z</time>
      </trkpt>
      <trkpt lat="49.11422" lon="1.42596">
        <ele>124.4</ele>
        <time>2021-04-14T15:21:07Z</time>
      </trkpt>
      <trkpt lat="49.11423" lon="1.42593">
        <ele>124.4</ele>
        <time>2021-04-14T15:21:08Z</time>
      </trkpt>
      <trkpt lat="49.11424" lon="1.42589">
        <ele>124.4</ele>
        <time>2021-04-14T15:21:10Z</time>
      </trkpt>
      <trkpt lat="49.11424" lon="1.42584">
        <ele>124.4</ele>
        <time>2021-04-14T15:21:12Z</time>
      </trkpt>
      <trkpt lat="49.11433" lon="1.42565">
        <ele>125.2</ele>
        <time>2021-04-14T15:21:18Z</time>
      </trkpt>
      <trkpt lat="49.11436" lon="1.42564">
        <ele>125.6</ele>
        <time>2021-04-14T15:21:19Z</time>
      </trkpt>
      <trkpt lat="49.11441" lon="1.42558">
        <ele>126.4</ele>
        <time>2021-04-14T15:21:21Z</time>
      </trkpt>
      <trkpt lat="49.11443" lon="1.42554">
        <ele>126.6</ele>
        <time>2021-04-14T15:21:22Z</time>
      </trkpt>
      <trkpt lat="49.11451" lon="1.42542">
        <ele>127.6</ele>
        <time>2021-04-14T15:21:26Z</time>
      </trkpt>
      <trkpt lat="49.11452" lon="1.42539">
        <ele>127.8</ele>
        <time>2021-04-14T15:21:27Z</time>
      </trkpt>
      <trkpt lat="49.1146" lon="1.42519">
        <ele>128</ele>
        <time>2021-04-14T15:21:32Z</time>
      </trkpt>
      <trkpt lat="49.11464" lon="1.42507">
        <ele>128.2</ele>
        <time>2021-04-14T15:21:35Z</time>
      </trkpt>
      <trkpt lat="49.11465" lon="1.42497">
        <ele>128.2</ele>
        <time>2021-04-14T15:21:37Z</time>
      </trkpt>
      <trkpt lat="49.11473" lon="1.42468">
        <ele>128.4</ele>
        <time>2021-04-14T15:21:43Z</time>
      </trkpt>
      <trkpt lat="49.11474" lon="1.42454">
        <ele>128.8</ele>
        <time>2021-04-14T15:21:46Z</time>
      </trkpt>
      <trkpt lat="49.11472" lon="1.42447">
        <ele>129.2</ele>
        <time>2021-04-14T15:21:48Z</time>
      </trkpt>
      <trkpt lat="49.1147" lon="1.42441">
        <ele>129.6</ele>
        <time>2021-04-14T15:21:50Z</time>
      </trkpt>
      <trkpt lat="49.11466" lon="1.42437">
        <ele>130</ele>
        <time>2021-04-14T15:21:52Z</time>
      </trkpt>
      <trkpt lat="49.11461" lon="1.42428">
        <ele>130.6</ele>
        <time>2021-04-14T15:21:55Z</time>
      </trkpt>
      <trkpt lat="49.11458" lon="1.42422">
        <ele>130.6</ele>
        <time>2021-04-14T15:21:57Z</time>
      </trkpt>
      <trkpt lat="49.11455" lon="1.42416">
        <ele>131.2</ele>
        <time>2021-04-14T15:21:59Z</time>
      </trkpt>
      <trkpt lat="49.11452" lon="1.42407">
        <ele>131.8</ele>
        <time>2021-04-14T15:22:02Z</time>
      </trkpt>
      <trkpt lat="49.1145" lon="1.424">
        <ele>132.2</ele>
        <time>2021-04-14T15:22:04Z</time>
      </trkpt>
      <trkpt lat="49.11446" lon="1.4238">
        <ele>133.2</ele>
        <time>2021-04-14T15:22:10Z</time>
      </trkpt>
      <trkpt lat="49.11445" lon="1.42377">
        <ele>133.4</ele>
        <time>2021-04-14T15:22:11Z</time>
      </trkpt>
      <trkpt lat="49.11442" lon="1.42359">
        <ele>134.2</ele>
        <time>2021-04-14T15:22:16Z</time>
      </trkpt>
      <trkpt lat="49.11442" lon="1.42356">
        <ele>134.4</ele>
        <time>2021-04-14T15:22:17Z</time>
      </trkpt>
      <trkpt lat="49.11439" lon="1.42338">
        <ele>135.4</ele>
        <time>2021-04-14T15:22:23Z</time>
      </trkpt>
      <trkpt lat="49.11438" lon="1.42334">
        <ele>135.6</ele>
        <time>2021-04-14T15:22:24Z</time>
      </trkpt>
      <trkpt lat="49.11436" lon="1.42318">
        <ele>136.4</ele>
        <time>2021-04-14T15:22:29Z</time>
      </trkpt>
      <trkpt lat="49.11436" lon="1.42315">
        <ele>136.6</ele>
        <time>2021-04-14T15:22:30Z</time>
      </trkpt>
      <trkpt lat="49.11432" lon="1.42297">
        <ele>137.4</ele>
        <time>2021-04-14T15:22:35Z</time>
      </trkpt>
      <trkpt lat="49.11431" lon="1.4229">
        <ele>137.6</ele>
        <time>2021-04-14T15:22:37Z</time>
      </trkpt>
      <trkpt lat="49.11426" lon="1.42269">
        <ele>138.4</ele>
        <time>2021-04-14T15:22:42Z</time>
      </trkpt>
      <trkpt lat="49.11425" lon="1.42261">
        <ele>138.8</ele>
        <time>2021-04-14T15:22:44Z</time>
      </trkpt>
      <trkpt lat="49.11424" lon="1.42249">
        <ele>139.8</ele>
        <time>2021-04-14T15:22:47Z</time>
      </trkpt>
      <trkpt lat="49.11422" lon="1.42245">
        <ele>140</ele>
        <time>2021-04-14T15:22:48Z</time>
      </trkpt>
      <trkpt lat="49.11418" lon="1.42228">
        <ele>140.4</ele>
        <time>2021-04-14T15:22:52Z</time>
      </trkpt>
      <trkpt lat="49.11414" lon="1.42215">
        <ele>141</ele>
        <time>2021-04-14T15:22:55Z</time>
      </trkpt>
      <trkpt lat="49.1141" lon="1.42202">
        <ele>141.6</ele>
        <time>2021-04-14T15:22:58Z</time>
      </trkpt>
      <trkpt lat="49.11403" lon="1.42177">
        <ele>142</ele>
        <time>2021-04-14T15:23:03Z</time>
      </trkpt>
      <trkpt lat="49.11395" lon="1.42155">
        <ele>142.4</ele>
        <time>2021-04-14T15:23:07Z</time>
      </trkpt>
      <trkpt lat="49.11392" lon="1.42145">
        <ele>142.6</ele>
        <time>2021-04-14T15:23:09Z</time>
      </trkpt>
      <trkpt lat="49.1138" lon="1.42118">
        <ele>143.2</ele>
        <time>2021-04-14T15:23:14Z</time>
      </trkpt>
      <trkpt lat="49.11364" lon="1.42078">
        <ele>143.4</ele>
        <time>2021-04-14T15:23:21Z</time>
      </trkpt>
      <trkpt lat="49.11362" lon="1.42073">
        <ele>143.4</ele>
        <time>2021-04-14T15:23:22Z</time>
      </trkpt>
      <trkpt lat="49.11355" lon="1.42053">
        <ele>143.6</ele>
        <time>2021-04-14T15:23:26Z</time>
      </trkpt>
      <trkpt lat="49.11338" lon="1.42015">
        <ele>144.4</ele>
        <time>2021-04-14T15:23:33Z</time>
      </trkpt>
      <trkpt lat="49.1133" lon="1.41998">
        <ele>144.4</ele>
        <time>2021-04-14T15:23:36Z</time>
      </trkpt>
      <trkpt lat="49.11326" lon="1.41986">
        <ele>144.4</ele>
        <time>2021-04-14T15:23:38Z</time>
      </trkpt>
      <trkpt lat="49.11306" lon="1.41947">
        <ele>144.6</ele>
        <time>2021-04-14T15:23:45Z</time>
      </trkpt>
      <trkpt lat="49.11296" lon="1.41926">
        <ele>144.6</ele>
        <time>2021-04-14T15:23:49Z</time>
      </trkpt>
      <trkpt lat="49.1129" lon="1.41915">
        <ele>144.6</ele>
        <time>2021-04-14T15:23:51Z</time>
      </trkpt>
      <trkpt lat="49.11284" lon="1.41898">
        <ele>144.6</ele>
        <time>2021-04-14T15:23:54Z</time>
      </trkpt>
      <trkpt lat="49.11281" lon="1.41893">
        <ele>144.8</ele>
        <time>2021-04-14T15:23:55Z</time>
      </trkpt>
      <trkpt lat="49.11273" lon="1.41878">
        <ele>144.8</ele>
        <time>2021-04-14T15:23:58Z</time>
      </trkpt>
      <trkpt lat="49.11268" lon="1.41867">
        <ele>144.8</ele>
        <time>2021-04-14T15:24:00Z</time>
      </trkpt>
      <trkpt lat="49.1125" lon="1.4183">
        <ele>144.8</ele>
        <time>2021-04-14T15:24:06Z</time>
      </trkpt>
      <trkpt lat="49.11239" lon="1.41804">
        <ele>144.8</ele>
        <time>2021-04-14T15:24:10Z</time>
      </trkpt>
      <trkpt lat="49.11236" lon="1.41798">
        <ele>144.8</ele>
        <time>2021-04-14T15:24:11Z</time>
      </trkpt>
      <trkpt lat="49.11227" lon="1.41778">
        <ele>144.8</ele>
        <time>2021-04-14T15:24:14Z</time>
      </trkpt>
      <trkpt lat="49.11217" lon="1.41758">
        <ele>144.8</ele>
        <time>2021-04-14T15:24:17Z</time>
      </trkpt>
      <trkpt lat="49.1121" lon="1.41745">
        <ele>144.8</ele>
        <time>2021-04-14T15:24:19Z</time>
      </trkpt>
      <trkpt lat="49.112" lon="1.41724">
        <ele>144.6</ele>
        <time>2021-04-14T15:24:22Z</time>
      </trkpt>
      <trkpt lat="49.1119" lon="1.41704">
        <ele>144.6</ele>
        <time>2021-04-14T15:24:25Z</time>
      </trkpt>
      <trkpt lat="49.11179" lon="1.41685">
        <ele>144.6</ele>
        <time>2021-04-14T15:24:28Z</time>
      </trkpt>
      <trkpt lat="49.11152" lon="1.41635">
        <ele>144.4</ele>
        <time>2021-04-14T15:24:36Z</time>
      </trkpt>
      <trkpt lat="49.11142" lon="1.41618">
        <ele>144.4</ele>
        <time>2021-04-14T15:24:39Z</time>
      </trkpt>
      <trkpt lat="49.11132" lon="1.416">
        <ele>144.4</ele>
        <time>2021-04-14T15:24:42Z</time>
      </trkpt>
      <trkpt lat="49.11116" lon="1.4157">
        <ele>144.6</ele>
        <time>2021-04-14T15:24:47Z</time>
      </trkpt>
      <trkpt lat="49.11109" lon="1.41559">
        <ele>144.6</ele>
        <time>2021-04-14T15:24:49Z</time>
      </trkpt>
      <trkpt lat="49.11102" lon="1.41544">
        <ele>144.6</ele>
        <time>2021-04-14T15:24:52Z</time>
      </trkpt>
      <trkpt lat="49.11087" lon="1.41517">
        <ele>144.8</ele>
        <time>2021-04-14T15:24:57Z</time>
      </trkpt>
      <trkpt lat="49.1107" lon="1.41487">
        <ele>145</ele>
        <time>2021-04-14T15:25:03Z</time>
      </trkpt>
      <trkpt lat="49.11057" lon="1.41467">
        <ele>145</ele>
        <time>2021-04-14T15:25:07Z</time>
      </trkpt>
      <trkpt lat="49.11049" lon="1.41457">
        <ele>145</ele>
        <time>2021-04-14T15:25:09Z</time>
      </trkpt>
      <trkpt lat="49.11042" lon="1.41447">
        <ele>145</ele>
        <time>2021-04-14T15:25:11Z</time>
      </trkpt>
      <trkpt lat="49.11027" lon="1.41427">
        <ele>145</ele>
        <time>2021-04-14T15:25:15Z</time>
      </trkpt>
      <trkpt lat="49.11023" lon="1.41422">
        <ele>145</ele>
        <time>2021-04-14T15:25:16Z</time>
      </trkpt>
      <trkpt lat="49.11006" lon="1.41402">
        <ele>145.2</ele>
        <time>2021-04-14T15:25:20Z</time>
      </trkpt>
      <trkpt lat="49.10977" lon="1.41368">
        <ele>145.4</ele>
        <time>2021-04-14T15:25:27Z</time>
      </trkpt>
      <trkpt lat="49.10949" lon="1.41331">
        <ele>145.8</ele>
        <time>2021-04-14T15:25:34Z</time>
      </trkpt>
      <trkpt lat="49.10929" lon="1.41304">
        <ele>145.8</ele>
        <time>2021-04-14T15:25:39Z</time>
      </trkpt>
      <trkpt lat="49.10923" lon="1.41292">
        <ele>146</ele>
        <time>2021-04-14T15:25:41Z</time>
      </trkpt>
      <trkpt lat="49.10895" lon="1.4124">
        <ele>146.2</ele>
        <time>2021-04-14T15:25:50Z</time>
      </trkpt>
      <trkpt lat="49.10871" lon="1.41198">
        <ele>146.2</ele>
        <time>2021-04-14T15:25:57Z</time>
      </trkpt>
      <trkpt lat="49.10844" lon="1.41154">
        <ele>146</ele>
        <time>2021-04-14T15:26:05Z</time>
      </trkpt>
      <trkpt lat="49.10813" lon="1.41112">
        <ele>145.8</ele>
        <time>2021-04-14T15:26:13Z</time>
      </trkpt>
      <trkpt lat="49.10784" lon="1.4107">
        <ele>145.8</ele>
        <time>2021-04-14T15:26:21Z</time>
      </trkpt>
      <trkpt lat="49.1078" lon="1.41064">
        <ele>145.8</ele>
        <time>2021-04-14T15:26:22Z</time>
      </trkpt>
      <trkpt lat="49.10772" lon="1.41045">
        <ele>145.8</ele>
        <time>2021-04-14T15:26:25Z</time>
      </trkpt>
      <trkpt lat="49.1077" lon="1.41039">
        <ele>145.8</ele>
        <time>2021-04-14T15:26:26Z</time>
      </trkpt>
      <trkpt lat="49.10758" lon="1.41016">
        <ele>145.8</ele>
        <time>2021-04-14T15:26:30Z</time>
      </trkpt>
      <trkpt lat="49.10743" lon="1.40981">
        <ele>145.6</ele>
        <time>2021-04-14T15:26:36Z</time>
      </trkpt>
      <trkpt lat="49.10728" lon="1.40943">
        <ele>145.2</ele>
        <time>2021-04-14T15:26:42Z</time>
      </trkpt>
      <trkpt lat="49.10725" lon="1.40936">
        <ele>145.2</ele>
        <time>2021-04-14T15:26:43Z</time>
      </trkpt>
      <trkpt lat="49.10721" lon="1.40929">
        <ele>145</ele>
        <time>2021-04-14T15:26:44Z</time>
      </trkpt>
      <trkpt lat="49.10718" lon="1.40922">
        <ele>144.8</ele>
        <time>2021-04-14T15:26:45Z</time>
      </trkpt>
      <trkpt lat="49.10709" lon="1.40903">
        <ele>144.4</ele>
        <time>2021-04-14T15:26:48Z</time>
      </trkpt>
      <trkpt lat="49.10705" lon="1.4089">
        <ele>144</ele>
        <time>2021-04-14T15:26:50Z</time>
      </trkpt>
      <trkpt lat="49.10701" lon="1.40871">
        <ele>143.8</ele>
        <time>2021-04-14T15:26:53Z</time>
      </trkpt>
      <trkpt lat="49.10705" lon="1.40842">
        <ele>143.2</ele>
        <time>2021-04-14T15:26:57Z</time>
      </trkpt>
      <trkpt lat="49.10706" lon="1.40834">
        <ele>143.2</ele>
        <time>2021-04-14T15:26:58Z</time>
      </trkpt>
      <trkpt lat="49.10711" lon="1.40801">
        <ele>143</ele>
        <time>2021-04-14T15:27:02Z</time>
      </trkpt>
      <trkpt lat="49.10713" lon="1.40784">
        <ele>142.6</ele>
        <time>2021-04-14T15:27:04Z</time>
      </trkpt>
      <trkpt lat="49.10729" lon="1.4072">
        <ele>142</ele>
        <time>2021-04-14T15:27:12Z</time>
      </trkpt>
      <trkpt lat="49.10734" lon="1.40705">
        <ele>141.8</ele>
        <time>2021-04-14T15:27:14Z</time>
      </trkpt>
      <trkpt lat="49.1075" lon="1.40673">
        <ele>141.4</ele>
        <time>2021-04-14T15:27:19Z</time>
      </trkpt>
      <trkpt lat="49.10776" lon="1.40635">
        <ele>141.4</ele>
        <time>2021-04-14T15:27:26Z</time>
      </trkpt>
      <trkpt lat="49.10801" lon="1.40599">
        <ele>141.2</ele>
        <time>2021-04-14T15:27:33Z</time>
      </trkpt>
      <trkpt lat="49.10831" lon="1.40557">
        <ele>141.2</ele>
        <time>2021-04-14T15:27:41Z</time>
      </trkpt>
      <trkpt lat="49.10862" lon="1.40513">
        <ele>141.2</ele>
        <time>2021-04-14T15:27:49Z</time>
      </trkpt>
      <trkpt lat="49.10875" lon="1.40496">
        <ele>140.8</ele>
        <time>2021-04-14T15:27:52Z</time>
      </trkpt>
      <trkpt lat="49.109" lon="1.4046">
        <ele>140</ele>
        <time>2021-04-14T15:27:58Z</time>
      </trkpt>
      <trkpt lat="49.10905" lon="1.40455">
        <ele>139.8</ele>
        <time>2021-04-14T15:27:59Z</time>
      </trkpt>
      <trkpt lat="49.10931" lon="1.40418">
        <ele>139</ele>
        <time>2021-04-14T15:28:05Z</time>
      </trkpt>
      <trkpt lat="49.10935" lon="1.40412">
        <ele>138.8</ele>
        <time>2021-04-14T15:28:06Z</time>
      </trkpt>
      <trkpt lat="49.10953" lon="1.40386">
        <ele>137.6</ele>
        <time>2021-04-14T15:28:10Z</time>
      </trkpt>
      <trkpt lat="49.10958" lon="1.40379">
        <ele>137.4</ele>
        <time>2021-04-14T15:28:11Z</time>
      </trkpt>
      <trkpt lat="49.10978" lon="1.40352">
        <ele>136.6</ele>
        <time>2021-04-14T15:28:15Z</time>
      </trkpt>
      <trkpt lat="49.10983" lon="1.40346">
        <ele>136.2</ele>
        <time>2021-04-14T15:28:16Z</time>
      </trkpt>
      <trkpt lat="49.10991" lon="1.40334">
        <ele>135.6</ele>
        <time>2021-04-14T15:28:18Z</time>
      </trkpt>
      <trkpt lat="49.11002" lon="1.40321">
        <ele>134.2</ele>
        <time>2021-04-14T15:28:21Z</time>
      </trkpt>
      <trkpt lat="49.1101" lon="1.40309">
        <ele>133.8</ele>
        <time>2021-04-14T15:28:24Z</time>
      </trkpt>
      <trkpt lat="49.1101" lon="1.40305">
        <ele>133.8</ele>
        <time>2021-04-14T15:28:25Z</time>
      </trkpt>
      <trkpt lat="49.11002" lon="1.40294">
        <ele>133.8</ele>
        <time>2021-04-14T15:28:28Z</time>
      </trkpt>
      <trkpt lat="49.10993" lon="1.40279">
        <ele>133.8</ele>
        <time>2021-04-14T15:28:31Z</time>
      </trkpt>
      <trkpt lat="49.10983" lon="1.40261">
        <ele>133.8</ele>
        <time>2021-04-14T15:28:34Z</time>
      </trkpt>
      <trkpt lat="49.10961" lon="1.40223">
        <ele>133.6</ele>
        <time>2021-04-14T15:28:40Z</time>
      </trkpt>
      <trkpt lat="49.10954" lon="1.40209">
        <ele>133.2</ele>
        <time>2021-04-14T15:28:42Z</time>
      </trkpt>
      <trkpt lat="49.10944" lon="1.40189">
        <ele>132.4</ele>
        <time>2021-04-14T15:28:45Z</time>
      </trkpt>
      <trkpt lat="49.1094" lon="1.40182">
        <ele>132</ele>
        <time>2021-04-14T15:28:46Z</time>
      </trkpt>
      <trkpt lat="49.10932" lon="1.40167">
        <ele>131.2</ele>
        <time>2021-04-14T15:28:48Z</time>
      </trkpt>
      <trkpt lat="49.10927" lon="1.4016">
        <ele>130.8</ele>
        <time>2021-04-14T15:28:49Z</time>
      </trkpt>
      <trkpt lat="49.10923" lon="1.40152">
        <ele>130.6</ele>
        <time>2021-04-14T15:28:50Z</time>
      </trkpt>
      <trkpt lat="49.10914" lon="1.40137">
        <ele>129.8</ele>
        <time>2021-04-14T15:28:52Z</time>
      </trkpt>
      <trkpt lat="49.1091" lon="1.4013">
        <ele>129.4</ele>
        <time>2021-04-14T15:28:53Z</time>
      </trkpt>
      <trkpt lat="49.10905" lon="1.40126">
        <ele>129</ele>
        <time>2021-04-14T15:28:54Z</time>
      </trkpt>
      <trkpt lat="49.10899" lon="1.40125">
        <ele>128.6</ele>
        <time>2021-04-14T15:28:55Z</time>
      </trkpt>
      <trkpt lat="49.10888" lon="1.40127">
        <ele>127.2</ele>
        <time>2021-04-14T15:28:57Z</time>
      </trkpt>
      <trkpt lat="49.10882" lon="1.40127">
        <ele>126.8</ele>
        <time>2021-04-14T15:28:58Z</time>
      </trkpt>
      <trkpt lat="49.10871" lon="1.40125">
        <ele>126</ele>
        <time>2021-04-14T15:29:00Z</time>
      </trkpt>
      <trkpt lat="49.10865" lon="1.40123">
        <ele>125.6</ele>
        <time>2021-04-14T15:29:01Z</time>
      </trkpt>
      <trkpt lat="49.10859" lon="1.40119">
        <ele>125</ele>
        <time>2021-04-14T15:29:02Z</time>
      </trkpt>
      <trkpt lat="49.10853" lon="1.40114">
        <ele>124.6</ele>
        <time>2021-04-14T15:29:03Z</time>
      </trkpt>
      <trkpt lat="49.10845" lon="1.40101">
        <ele>123.6</ele>
        <time>2021-04-14T15:29:05Z</time>
      </trkpt>
      <trkpt lat="49.10839" lon="1.40084">
        <ele>122.4</ele>
        <time>2021-04-14T15:29:07Z</time>
      </trkpt>
      <trkpt lat="49.10834" lon="1.40064">
        <ele>121.4</ele>
        <time>2021-04-14T15:29:09Z</time>
      </trkpt>
      <trkpt lat="49.10824" lon="1.40032">
        <ele>120</ele>
        <time>2021-04-14T15:29:12Z</time>
      </trkpt>
      <trkpt lat="49.10821" lon="1.40021">
        <ele>119.6</ele>
        <time>2021-04-14T15:29:13Z</time>
      </trkpt>
      <trkpt lat="49.10815" lon="1.39998">
        <ele>118.8</ele>
        <time>2021-04-14T15:29:15Z</time>
      </trkpt>
      <trkpt lat="49.10809" lon="1.39978">
        <ele>117.2</ele>
        <time>2021-04-14T15:29:17Z</time>
      </trkpt>
      <trkpt lat="49.10807" lon="1.39969">
        <ele>116.4</ele>
        <time>2021-04-14T15:29:18Z</time>
      </trkpt>
      <trkpt lat="49.10805" lon="1.39962">
        <ele>115.6</ele>
        <time>2021-04-14T15:29:19Z</time>
      </trkpt>
      <trkpt lat="49.10801" lon="1.3995">
        <ele>113.8</ele>
        <time>2021-04-14T15:29:21Z</time>
      </trkpt>
      <trkpt lat="49.10799" lon="1.39946">
        <ele>113</ele>
        <time>2021-04-14T15:29:22Z</time>
      </trkpt>
      <trkpt lat="49.10798" lon="1.39942">
        <ele>112.6</ele>
        <time>2021-04-14T15:29:23Z</time>
      </trkpt>
      <trkpt lat="49.10794" lon="1.39927">
        <ele>112.2</ele>
        <time>2021-04-14T15:29:27Z</time>
      </trkpt>
      <trkpt lat="49.10793" lon="1.39907">
        <ele>112.6</ele>
        <time>2021-04-14T15:29:33Z</time>
      </trkpt>
      <trkpt lat="49.10791" lon="1.39898">
        <ele>113.6</ele>
        <time>2021-04-14T15:29:36Z</time>
      </trkpt>
      <trkpt lat="49.10789" lon="1.39891">
        <ele>114.8</ele>
        <time>2021-04-14T15:29:39Z</time>
      </trkpt>
      <trkpt lat="49.10788" lon="1.39888">
        <ele>115.2</ele>
        <time>2021-04-14T15:29:40Z</time>
      </trkpt>
      <trkpt lat="49.10788" lon="1.39886">
        <ele>115.8</ele>
        <time>2021-04-14T15:29:41Z</time>
      </trkpt>
      <trkpt lat="49.10787" lon="1.39878">
        <ele>117</ele>
        <time>2021-04-14T15:29:44Z</time>
      </trkpt>
      <trkpt lat="49.10786" lon="1.39874">
        <ele>118</ele>
        <time>2021-04-14T15:29:46Z</time>
      </trkpt>
      <trkpt lat="49.10785" lon="1.39873">
        <ele>118.4</ele>
        <time>2021-04-14T15:29:47Z</time>
      </trkpt>
      <trkpt lat="49.10783" lon="1.39868">
        <ele>119.6</ele>
        <time>2021-04-14T15:29:50Z</time>
      </trkpt>
      <trkpt lat="49.10783" lon="1.39866">
        <ele>120</ele>
        <time>2021-04-14T15:29:51Z</time>
      </trkpt>
      <trkpt lat="49.10783" lon="1.39864">
        <ele>120.4</ele>
        <time>2021-04-14T15:29:52Z</time>
      </trkpt>
      <trkpt lat="49.10782" lon="1.39862">
        <ele>120.8</ele>
        <time>2021-04-14T15:29:53Z</time>
      </trkpt>
      <trkpt lat="49.1078" lon="1.39856">
        <ele>121.8</ele>
        <time>2021-04-14T15:29:55Z</time>
      </trkpt>
      <trkpt lat="49.10778" lon="1.39851">
        <ele>122.4</ele>
        <time>2021-04-14T15:29:57Z</time>
      </trkpt>
      <trkpt lat="49.10776" lon="1.39844">
        <ele>122.8</ele>
        <time>2021-04-14T15:29:59Z</time>
      </trkpt>
      <trkpt lat="49.10773" lon="1.39832">
        <ele>123.8</ele>
        <time>2021-04-14T15:30:03Z</time>
      </trkpt>
      <trkpt lat="49.10773" lon="1.39828">
        <ele>124</ele>
        <time>2021-04-14T15:30:04Z</time>
      </trkpt>
      <trkpt lat="49.10771" lon="1.39808">
        <ele>125</ele>
        <time>2021-04-14T15:30:11Z</time>
      </trkpt>
      <trkpt lat="49.10771" lon="1.39805">
        <ele>125.2</ele>
        <time>2021-04-14T15:30:12Z</time>
      </trkpt>
      <trkpt lat="49.1077" lon="1.39783">
        <ele>126</ele>
        <time>2021-04-14T15:30:19Z</time>
      </trkpt>
      <trkpt lat="49.10769" lon="1.39772">
        <ele>126.2</ele>
        <time>2021-04-14T15:30:22Z</time>
      </trkpt>
      <trkpt lat="49.10766" lon="1.39756">
        <ele>126.6</ele>
        <time>2021-04-14T15:30:26Z</time>
      </trkpt>
      <trkpt lat="49.10763" lon="1.39738">
        <ele>127.4</ele>
        <time>2021-04-14T15:30:30Z</time>
      </trkpt>
      <trkpt lat="49.10758" lon="1.39712">
        <ele>128</ele>
        <time>2021-04-14T15:30:36Z</time>
      </trkpt>
      <trkpt lat="49.10754" lon="1.39699">
        <ele>128.4</ele>
        <time>2021-04-14T15:30:39Z</time>
      </trkpt>
      <trkpt lat="49.1075" lon="1.39686">
        <ele>128.6</ele>
        <time>2021-04-14T15:30:42Z</time>
      </trkpt>
      <trkpt lat="49.1074" lon="1.39655">
        <ele>129.4</ele>
        <time>2021-04-14T15:30:49Z</time>
      </trkpt>
      <trkpt lat="49.10736" lon="1.3964">
        <ele>129.6</ele>
        <time>2021-04-14T15:30:52Z</time>
      </trkpt>
      <trkpt lat="49.1073" lon="1.39619">
        <ele>129.8</ele>
        <time>2021-04-14T15:30:56Z</time>
      </trkpt>
      <trkpt lat="49.10716" lon="1.39579">
        <ele>130</ele>
        <time>2021-04-14T15:31:04Z</time>
      </trkpt>
      <trkpt lat="49.10706" lon="1.39553">
        <ele>130.6</ele>
        <time>2021-04-14T15:31:09Z</time>
      </trkpt>
      <trkpt lat="49.10702" lon="1.39543">
        <ele>131</ele>
        <time>2021-04-14T15:31:11Z</time>
      </trkpt>
      <trkpt lat="49.10694" lon="1.3952">
        <ele>131.2</ele>
        <time>2021-04-14T15:31:15Z</time>
      </trkpt>
      <trkpt lat="49.10688" lon="1.39502">
        <ele>131.6</ele>
        <time>2021-04-14T15:31:18Z</time>
      </trkpt>
      <trkpt lat="49.10687" lon="1.39496">
        <ele>131.8</ele>
        <time>2021-04-14T15:31:19Z</time>
      </trkpt>
      <trkpt lat="49.10685" lon="1.39489">
        <ele>132</ele>
        <time>2021-04-14T15:31:20Z</time>
      </trkpt>
      <trkpt lat="49.10677" lon="1.3946">
        <ele>132</ele>
        <time>2021-04-14T15:31:24Z</time>
      </trkpt>
      <trkpt lat="49.10674" lon="1.39445">
        <ele>132</ele>
        <time>2021-04-14T15:31:26Z</time>
      </trkpt>
      <trkpt lat="49.10674" lon="1.39422">
        <ele>132</ele>
        <time>2021-04-14T15:31:29Z</time>
      </trkpt>
      <trkpt lat="49.10683" lon="1.39395">
        <ele>131.6</ele>
        <time>2021-04-14T15:31:33Z</time>
      </trkpt>
      <trkpt lat="49.10696" lon="1.39363">
        <ele>131.2</ele>
        <time>2021-04-14T15:31:37Z</time>
      </trkpt>
      <trkpt lat="49.10694" lon="1.39347">
        <ele>130.8</ele>
        <time>2021-04-14T15:31:39Z</time>
      </trkpt>
      <trkpt lat="49.10693" lon="1.39341">
        <ele>130.6</ele>
        <time>2021-04-14T15:31:40Z</time>
      </trkpt>
      <trkpt lat="49.10691" lon="1.39336">
        <ele>130.2</ele>
        <time>2021-04-14T15:31:41Z</time>
      </trkpt>
      <trkpt lat="49.10689" lon="1.39331">
        <ele>129.6</ele>
        <time>2021-04-14T15:31:42Z</time>
      </trkpt>
      <trkpt lat="49.10687" lon="1.3932">
        <ele>128.2</ele>
        <time>2021-04-14T15:31:44Z</time>
      </trkpt>
      <trkpt lat="49.10683" lon="1.39309">
        <ele>127.8</ele>
        <time>2021-04-14T15:31:46Z</time>
      </trkpt>
      <trkpt lat="49.10672" lon="1.39278">
        <ele>127.2</ele>
        <time>2021-04-14T15:31:51Z</time>
      </trkpt>
      <trkpt lat="49.1067" lon="1.39272">
        <ele>127.2</ele>
        <time>2021-04-14T15:31:52Z</time>
      </trkpt>
      <trkpt lat="49.10655" lon="1.39225">
        <ele>126.6</ele>
        <time>2021-04-14T15:31:59Z</time>
      </trkpt>
      <trkpt lat="49.10648" lon="1.39199">
        <ele>126.6</ele>
        <time>2021-04-14T15:32:03Z</time>
      </trkpt>
      <trkpt lat="49.1064" lon="1.39174">
        <ele>126.8</ele>
        <time>2021-04-14T15:32:07Z</time>
      </trkpt>
      <trkpt lat="49.10623" lon="1.39119">
        <ele>127</ele>
        <time>2021-04-14T15:32:16Z</time>
      </trkpt>
      <trkpt lat="49.10605" lon="1.39069">
        <ele>127.8</ele>
        <time>2021-04-14T15:32:25Z</time>
      </trkpt>
      <trkpt lat="49.10602" lon="1.39058">
        <ele>128</ele>
        <time>2021-04-14T15:32:27Z</time>
      </trkpt>
      <trkpt lat="49.10597" lon="1.39041">
        <ele>128.6</ele>
        <time>2021-04-14T15:32:30Z</time>
      </trkpt>
      <trkpt lat="49.10594" lon="1.39029">
        <ele>128.8</ele>
        <time>2021-04-14T15:32:32Z</time>
      </trkpt>
      <trkpt lat="49.10589" lon="1.39013">
        <ele>129.6</ele>
        <time>2021-04-14T15:32:35Z</time>
      </trkpt>
      <trkpt lat="49.10586" lon="1.38991">
        <ele>130</ele>
        <time>2021-04-14T15:32:39Z</time>
      </trkpt>
      <trkpt lat="49.10585" lon="1.38956">
        <ele>130.8</ele>
        <time>2021-04-14T15:32:45Z</time>
      </trkpt>
      <trkpt lat="49.10583" lon="1.38915">
        <ele>131.8</ele>
        <time>2021-04-14T15:32:53Z</time>
      </trkpt>
      <trkpt lat="49.10582" lon="1.3891">
        <ele>131.8</ele>
        <time>2021-04-14T15:32:54Z</time>
      </trkpt>
      <trkpt lat="49.10574" lon="1.3889">
        <ele>132.6</ele>
        <time>2021-04-14T15:32:59Z</time>
      </trkpt>
      <trkpt lat="49.10564" lon="1.38874">
        <ele>133</ele>
        <time>2021-04-14T15:33:03Z</time>
      </trkpt>
      <trkpt lat="49.10557" lon="1.38862">
        <ele>133</ele>
        <time>2021-04-14T15:33:06Z</time>
      </trkpt>
      <trkpt lat="49.10536" lon="1.38827">
        <ele>133</ele>
        <time>2021-04-14T15:33:14Z</time>
      </trkpt>
      <trkpt lat="49.10513" lon="1.38789">
        <ele>133</ele>
        <time>2021-04-14T15:33:22Z</time>
      </trkpt>
      <trkpt lat="49.10492" lon="1.38754">
        <ele>133</ele>
        <time>2021-04-14T15:33:30Z</time>
      </trkpt>
      <trkpt lat="49.10482" lon="1.38736">
        <ele>133</ele>
        <time>2021-04-14T15:33:35Z</time>
      </trkpt>
      <trkpt lat="49.10472" lon="1.38726">
        <ele>133.4</ele>
        <time>2021-04-14T15:33:40Z</time>
      </trkpt>
      <trkpt lat="49.10451" lon="1.38699">
        <ele>133.6</ele>
        <time>2021-04-14T15:33:47Z</time>
      </trkpt>
      <trkpt lat="49.10427" lon="1.38665">
        <ele>133.6</ele>
        <time>2021-04-14T15:33:55Z</time>
      </trkpt>
      <trkpt lat="49.10406" lon="1.38631">
        <ele>133.2</ele>
        <time>2021-04-14T15:34:03Z</time>
      </trkpt>
      <trkpt lat="49.1039" lon="1.38604">
        <ele>133.2</ele>
        <time>2021-04-14T15:34:09Z</time>
      </trkpt>
      <trkpt lat="49.10387" lon="1.386">
        <ele>133.4</ele>
        <time>2021-04-14T15:34:10Z</time>
      </trkpt>
      <trkpt lat="49.10368" lon="1.38575">
        <ele>133.4</ele>
        <time>2021-04-14T15:34:16Z</time>
      </trkpt>
      <trkpt lat="49.10364" lon="1.38572">
        <ele>133.4</ele>
        <time>2021-04-14T15:34:17Z</time>
      </trkpt>
      <trkpt lat="49.1035" lon="1.3856">
        <ele>133.6</ele>
        <time>2021-04-14T15:34:21Z</time>
      </trkpt>
      <trkpt lat="49.10338" lon="1.3855">
        <ele>133.6</ele>
        <time>2021-04-14T15:34:25Z</time>
      </trkpt>
      <trkpt lat="49.10323" lon="1.38535">
        <ele>133.6</ele>
        <time>2021-04-14T15:34:29Z</time>
      </trkpt>
      <trkpt lat="49.10307" lon="1.38522">
        <ele>133.8</ele>
        <time>2021-04-14T15:34:33Z</time>
      </trkpt>
      <trkpt lat="49.10298" lon="1.38517">
        <ele>133.8</ele>
        <time>2021-04-14T15:34:35Z</time>
      </trkpt>
      <trkpt lat="49.10294" lon="1.38513">
        <ele>133.8</ele>
        <time>2021-04-14T15:34:36Z</time>
      </trkpt>
      <trkpt lat="49.10275" lon="1.38495">
        <ele>134</ele>
        <time>2021-04-14T15:34:41Z</time>
      </trkpt>
      <trkpt lat="49.10268" lon="1.38489">
        <ele>134</ele>
        <time>2021-04-14T15:34:43Z</time>
      </trkpt>
      <trkpt lat="49.10259" lon="1.38484">
        <ele>134.2</ele>
        <time>2021-04-14T15:34:45Z</time>
      </trkpt>
      <trkpt lat="49.10246" lon="1.38476">
        <ele>134.2</ele>
        <time>2021-04-14T15:34:48Z</time>
      </trkpt>
      <trkpt lat="49.10237" lon="1.38471">
        <ele>134.2</ele>
        <time>2021-04-14T15:34:50Z</time>
      </trkpt>
      <trkpt lat="49.10224" lon="1.38465">
        <ele>134.2</ele>
        <time>2021-04-14T15:34:53Z</time>
      </trkpt>
      <trkpt lat="49.10215" lon="1.38463">
        <ele>134.2</ele>
        <time>2021-04-14T15:34:55Z</time>
      </trkpt>
      <trkpt lat="49.10206" lon="1.38463">
        <ele>134.2</ele>
        <time>2021-04-14T15:34:57Z</time>
      </trkpt>
      <trkpt lat="49.10184" lon="1.38458">
        <ele>134</ele>
        <time>2021-04-14T15:35:01Z</time>
      </trkpt>
      <trkpt lat="49.10166" lon="1.38458">
        <ele>133.8</ele>
        <time>2021-04-14T15:35:04Z</time>
      </trkpt>
      <trkpt lat="49.10153" lon="1.38457">
        <ele>133.6</ele>
        <time>2021-04-14T15:35:06Z</time>
      </trkpt>
      <trkpt lat="49.1014" lon="1.38455">
        <ele>133</ele>
        <time>2021-04-14T15:35:08Z</time>
      </trkpt>
      <trkpt lat="49.10128" lon="1.38448">
        <ele>132</ele>
        <time>2021-04-14T15:35:10Z</time>
      </trkpt>
      <trkpt lat="49.10123" lon="1.38442">
        <ele>131.6</ele>
        <time>2021-04-14T15:35:11Z</time>
      </trkpt>
      <trkpt lat="49.10118" lon="1.38435">
        <ele>131.2</ele>
        <time>2021-04-14T15:35:12Z</time>
      </trkpt>
      <trkpt lat="49.10107" lon="1.38422">
        <ele>130.2</ele>
        <time>2021-04-14T15:35:14Z</time>
      </trkpt>
      <trkpt lat="49.10087" lon="1.38397">
        <ele>129</ele>
        <time>2021-04-14T15:35:18Z</time>
      </trkpt>
      <trkpt lat="49.10082" lon="1.38392">
        <ele>128.6</ele>
        <time>2021-04-14T15:35:19Z</time>
      </trkpt>
      <trkpt lat="49.10071" lon="1.38383">
        <ele>127.8</ele>
        <time>2021-04-14T15:35:21Z</time>
      </trkpt>
      <trkpt lat="49.10065" lon="1.38378">
        <ele>127.6</ele>
        <time>2021-04-14T15:35:22Z</time>
      </trkpt>
      <trkpt lat="49.10056" lon="1.38367">
        <ele>127.4</ele>
        <time>2021-04-14T15:35:24Z</time>
      </trkpt>
      <trkpt lat="49.10048" lon="1.38356">
        <ele>127.4</ele>
        <time>2021-04-14T15:35:26Z</time>
      </trkpt>
      <trkpt lat="49.10037" lon="1.38337">
        <ele>127</ele>
        <time>2021-04-14T15:35:29Z</time>
      </trkpt>
      <trkpt lat="49.10026" lon="1.38317">
        <ele>126.8</ele>
        <time>2021-04-14T15:35:32Z</time>
      </trkpt>
      <trkpt lat="49.10021" lon="1.38308">
        <ele>126.6</ele>
        <time>2021-04-14T15:35:33Z</time>
      </trkpt>
      <trkpt lat="49.10013" lon="1.38292">
        <ele>126.6</ele>
        <time>2021-04-14T15:35:35Z</time>
      </trkpt>
      <trkpt lat="49.10002" lon="1.38278">
        <ele>126.4</ele>
        <time>2021-04-14T15:35:37Z</time>
      </trkpt>
      <trkpt lat="49.09991" lon="1.38265">
        <ele>125.6</ele>
        <time>2021-04-14T15:35:39Z</time>
      </trkpt>
      <trkpt lat="49.09976" lon="1.38245">
        <ele>124.6</ele>
        <time>2021-04-14T15:35:42Z</time>
      </trkpt>
      <trkpt lat="49.09967" lon="1.38232">
        <ele>123.8</ele>
        <time>2021-04-14T15:35:44Z</time>
      </trkpt>
      <trkpt lat="49.09962" lon="1.38225">
        <ele>123.4</ele>
        <time>2021-04-14T15:35:45Z</time>
      </trkpt>
      <trkpt lat="49.09933" lon="1.38182">
        <ele>122.8</ele>
        <time>2021-04-14T15:35:52Z</time>
      </trkpt>
      <trkpt lat="49.09907" lon="1.38142">
        <ele>123.2</ele>
        <time>2021-04-14T15:35:59Z</time>
      </trkpt>
      <trkpt lat="49.09879" lon="1.38091">
        <ele>123.8</ele>
        <time>2021-04-14T15:36:07Z</time>
      </trkpt>
      <trkpt lat="49.09856" lon="1.38057">
        <ele>123.8</ele>
        <time>2021-04-14T15:36:12Z</time>
      </trkpt>
      <trkpt lat="49.09828" lon="1.38024">
        <ele>122.6</ele>
        <time>2021-04-14T15:36:17Z</time>
      </trkpt>
      <trkpt lat="49.09823" lon="1.38017">
        <ele>122</ele>
        <time>2021-04-14T15:36:18Z</time>
      </trkpt>
      <trkpt lat="49.09812" lon="1.38006">
        <ele>121</ele>
        <time>2021-04-14T15:36:20Z</time>
      </trkpt>
      <trkpt lat="49.09802" lon="1.37995">
        <ele>119.8</ele>
        <time>2021-04-14T15:36:22Z</time>
      </trkpt>
      <trkpt lat="49.09797" lon="1.3799">
        <ele>119</ele>
        <time>2021-04-14T15:36:23Z</time>
      </trkpt>
      <trkpt lat="49.09793" lon="1.37985">
        <ele>118.6</ele>
        <time>2021-04-14T15:36:24Z</time>
      </trkpt>
      <trkpt lat="49.09789" lon="1.37981">
        <ele>118.2</ele>
        <time>2021-04-14T15:36:25Z</time>
      </trkpt>
      <trkpt lat="49.09779" lon="1.3797">
        <ele>117.6</ele>
        <time>2021-04-14T15:36:28Z</time>
      </trkpt>
      <trkpt lat="49.09762" lon="1.37961">
        <ele>117.4</ele>
        <time>2021-04-14T15:36:34Z</time>
      </trkpt>
      <trkpt lat="49.09755" lon="1.37953">
        <ele>118.4</ele>
        <time>2021-04-14T15:36:37Z</time>
      </trkpt>
      <trkpt lat="49.09754" lon="1.37949">
        <ele>118.6</ele>
        <time>2021-04-14T15:36:38Z</time>
      </trkpt>
      <trkpt lat="49.09752" lon="1.37945">
        <ele>118.8</ele>
        <time>2021-04-14T15:36:39Z</time>
      </trkpt>
      <trkpt lat="49.0974" lon="1.37926">
        <ele>120</ele>
        <time>2021-04-14T15:36:44Z</time>
      </trkpt>
      <trkpt lat="49.09738" lon="1.37923">
        <ele>120</ele>
        <time>2021-04-14T15:36:45Z</time>
      </trkpt>
      <trkpt lat="49.09722" lon="1.37906">
        <ele>120.2</ele>
        <time>2021-04-14T15:36:51Z</time>
      </trkpt>
      <trkpt lat="49.09712" lon="1.37897">
        <ele>120.2</ele>
        <time>2021-04-14T15:36:54Z</time>
      </trkpt>
      <trkpt lat="49.09703" lon="1.37892">
        <ele>120.2</ele>
        <time>2021-04-14T15:36:56Z</time>
      </trkpt>
      <trkpt lat="49.09685" lon="1.37873">
        <ele>120.2</ele>
        <time>2021-04-14T15:37:00Z</time>
      </trkpt>
      <trkpt lat="49.0968" lon="1.37869">
        <ele>120</ele>
        <time>2021-04-14T15:37:01Z</time>
      </trkpt>
      <trkpt lat="49.09662" lon="1.37862">
        <ele>119.2</ele>
        <time>2021-04-14T15:37:04Z</time>
      </trkpt>
      <trkpt lat="49.09655" lon="1.37859">
        <ele>119</ele>
        <time>2021-04-14T15:37:05Z</time>
      </trkpt>
      <trkpt lat="49.09648" lon="1.37857">
        <ele>118.8</ele>
        <time>2021-04-14T15:37:06Z</time>
      </trkpt>
      <trkpt lat="49.09633" lon="1.37852">
        <ele>117.8</ele>
        <time>2021-04-14T15:37:08Z</time>
      </trkpt>
      <trkpt lat="49.09618" lon="1.37848">
        <ele>117</ele>
        <time>2021-04-14T15:37:10Z</time>
      </trkpt>
      <trkpt lat="49.09612" lon="1.37847">
        <ele>116.6</ele>
        <time>2021-04-14T15:37:11Z</time>
      </trkpt>
      <trkpt lat="49.09593" lon="1.37842">
        <ele>115.4</ele>
        <time>2021-04-14T15:37:14Z</time>
      </trkpt>
      <trkpt lat="49.09587" lon="1.37841">
        <ele>114.8</ele>
        <time>2021-04-14T15:37:15Z</time>
      </trkpt>
      <trkpt lat="49.09582" lon="1.37839">
        <ele>114.2</ele>
        <time>2021-04-14T15:37:16Z</time>
      </trkpt>
      <trkpt lat="49.09566" lon="1.37833">
        <ele>113</ele>
        <time>2021-04-14T15:37:19Z</time>
      </trkpt>
      <trkpt lat="49.09562" lon="1.37832">
        <ele>112.4</ele>
        <time>2021-04-14T15:37:20Z</time>
      </trkpt>
      <trkpt lat="49.09559" lon="1.37834">
        <ele>112</ele>
        <time>2021-04-14T15:37:21Z</time>
      </trkpt>
      <trkpt lat="49.09556" lon="1.37839">
        <ele>111</ele>
        <time>2021-04-14T15:37:23Z</time>
      </trkpt>
      <trkpt lat="49.09555" lon="1.37841">
        <ele>110.6</ele>
        <time>2021-04-14T15:37:24Z</time>
      </trkpt>
      <trkpt lat="49.09555" lon="1.37849">
        <ele>109.4</ele>
        <time>2021-04-14T15:37:27Z</time>
      </trkpt>
      <trkpt lat="49.09555" lon="1.37852">
        <ele>109.4</ele>
        <time>2021-04-14T15:37:28Z</time>
      </trkpt>
      <trkpt lat="49.09555" lon="1.37855">
        <ele>109.2</ele>
        <time>2021-04-14T15:37:29Z</time>
      </trkpt>
      <trkpt lat="49.09554" lon="1.37877">
        <ele>109.4</ele>
        <time>2021-04-14T15:37:37Z</time>
      </trkpt>
      <trkpt lat="49.09552" lon="1.37891">
        <ele>110.8</ele>
        <time>2021-04-14T15:37:41Z</time>
      </trkpt>
      <trkpt lat="49.09552" lon="1.37899">
        <ele>112</ele>
        <time>2021-04-14T15:37:43Z</time>
      </trkpt>
      <trkpt lat="49.09552" lon="1.37903">
        <ele>112.6</ele>
        <time>2021-04-14T15:37:44Z</time>
      </trkpt>
      <trkpt lat="49.09552" lon="1.37911">
        <ele>113.2</ele>
        <time>2021-04-14T15:37:46Z</time>
      </trkpt>
      <trkpt lat="49.09555" lon="1.37931">
        <ele>114.4</ele>
        <time>2021-04-14T15:37:52Z</time>
      </trkpt>
      <trkpt lat="49.09556" lon="1.37948">
        <ele>115.6</ele>
        <time>2021-04-14T15:37:57Z</time>
      </trkpt>
      <trkpt lat="49.09554" lon="1.37954">
        <ele>116</ele>
        <time>2021-04-14T15:37:59Z</time>
      </trkpt>
      <trkpt lat="49.09553" lon="1.3796">
        <ele>116.8</ele>
        <time>2021-04-14T15:38:01Z</time>
      </trkpt>
      <trkpt lat="49.09548" lon="1.37974">
        <ele>118</ele>
        <time>2021-04-14T15:38:06Z</time>
      </trkpt>
      <trkpt lat="49.09547" lon="1.37977">
        <ele>118.2</ele>
        <time>2021-04-14T15:38:07Z</time>
      </trkpt>
      <trkpt lat="49.09544" lon="1.37982">
        <ele>119</ele>
        <time>2021-04-14T15:38:09Z</time>
      </trkpt>
      <trkpt lat="49.0954" lon="1.37994">
        <ele>120.4</ele>
        <time>2021-04-14T15:38:13Z</time>
      </trkpt>
      <trkpt lat="49.09539" lon="1.38002">
        <ele>121.2</ele>
        <time>2021-04-14T15:38:16Z</time>
      </trkpt>
      <trkpt lat="49.09538" lon="1.38005">
        <ele>121.8</ele>
        <time>2021-04-14T15:38:17Z</time>
      </trkpt>
      <trkpt lat="49.09538" lon="1.38018">
        <ele>122.6</ele>
        <time>2021-04-14T15:38:21Z</time>
      </trkpt>
      <trkpt lat="49.09538" lon="1.38028">
        <ele>123.8</ele>
        <time>2021-04-14T15:38:24Z</time>
      </trkpt>
      <trkpt lat="49.09538" lon="1.38031">
        <ele>124</ele>
        <time>2021-04-14T15:38:25Z</time>
      </trkpt>
      <trkpt lat="49.09539" lon="1.38045">
        <ele>124.8</ele>
        <time>2021-04-14T15:38:29Z</time>
      </trkpt>
      <trkpt lat="49.0954" lon="1.38058">
        <ele>125.8</ele>
        <time>2021-04-14T15:38:33Z</time>
      </trkpt>
      <trkpt lat="49.09541" lon="1.38065">
        <ele>126</ele>
        <time>2021-04-14T15:38:35Z</time>
      </trkpt>
      <trkpt lat="49.09541" lon="1.38083">
        <ele>127.2</ele>
        <time>2021-04-14T15:38:40Z</time>
      </trkpt>
      <trkpt lat="49.09541" lon="1.38097">
        <ele>127.8</ele>
        <time>2021-04-14T15:38:44Z</time>
      </trkpt>
      <trkpt lat="49.09542" lon="1.38103">
        <ele>128.4</ele>
        <time>2021-04-14T15:38:46Z</time>
      </trkpt>
      <trkpt lat="49.09543" lon="1.38127">
        <ele>129.2</ele>
        <time>2021-04-14T15:38:53Z</time>
      </trkpt>
      <trkpt lat="49.09543" lon="1.3813">
        <ele>129.6</ele>
        <time>2021-04-14T15:38:54Z</time>
      </trkpt>
      <trkpt lat="49.09544" lon="1.38151">
        <ele>130.6</ele>
        <time>2021-04-14T15:39:00Z</time>
      </trkpt>
      <trkpt lat="49.09544" lon="1.38155">
        <ele>130.6</ele>
        <time>2021-04-14T15:39:01Z</time>
      </trkpt>
      <trkpt lat="49.09545" lon="1.38168">
        <ele>131.8</ele>
        <time>2021-04-14T15:39:05Z</time>
      </trkpt>
      <trkpt lat="49.09545" lon="1.38186">
        <ele>132.8</ele>
        <time>2021-04-14T15:39:10Z</time>
      </trkpt>
      <trkpt lat="49.09545" lon="1.38213">
        <ele>134</ele>
        <time>2021-04-14T15:39:17Z</time>
      </trkpt>
      <trkpt lat="49.09545" lon="1.38216">
        <ele>134.2</ele>
        <time>2021-04-14T15:39:18Z</time>
      </trkpt>
      <trkpt lat="49.09545" lon="1.38231">
        <ele>135.2</ele>
        <time>2021-04-14T15:39:22Z</time>
      </trkpt>
      <trkpt lat="49.09545" lon="1.38251">
        <ele>136.4</ele>
        <time>2021-04-14T15:39:27Z</time>
      </trkpt>
      <trkpt lat="49.09545" lon="1.38271">
        <ele>137.4</ele>
        <time>2021-04-14T15:39:32Z</time>
      </trkpt>
      <trkpt lat="49.09545" lon="1.38288">
        <ele>137.8</ele>
        <time>2021-04-14T15:39:35Z</time>
      </trkpt>
      <trkpt lat="49.09545" lon="1.38321">
        <ele>138.2</ele>
        <time>2021-04-14T15:39:41Z</time>
      </trkpt>
      <trkpt lat="49.09542" lon="1.38335">
        <ele>138.4</ele>
        <time>2021-04-14T15:39:45Z</time>
      </trkpt>
      <trkpt lat="49.0954" lon="1.38336">
        <ele>138.4</ele>
        <time>2021-04-14T15:39:46Z</time>
      </trkpt>
      <trkpt lat="49.09538" lon="1.38336">
        <ele>138.6</ele>
        <time>2021-04-14T15:39:47Z</time>
      </trkpt>
      <trkpt lat="49.09533" lon="1.38335">
        <ele>138.6</ele>
        <time>2021-04-14T15:39:49Z</time>
      </trkpt>
      <trkpt lat="49.09524" lon="1.38334">
        <ele>138.6</ele>
        <time>2021-04-14T15:39:52Z</time>
      </trkpt>
      <trkpt lat="49.09517" lon="1.38334">
        <ele>139.6</ele>
        <time>2021-04-14T15:39:56Z</time>
      </trkpt>
      <trkpt lat="49.09516" lon="1.38334">
        <ele>139.8</ele>
        <time>2021-04-14T15:39:57Z</time>
      </trkpt>
      <trkpt lat="49.09508" lon="1.38335">
        <ele>140.2</ele>
        <time>2021-04-14T15:40:02Z</time>
      </trkpt>
      <trkpt lat="49.09489" lon="1.38336">
        <ele>140.4</ele>
        <time>2021-04-14T15:40:08Z</time>
      </trkpt>
      <trkpt lat="49.09459" lon="1.3834">
        <ele>140.4</ele>
        <time>2021-04-14T15:40:16Z</time>
      </trkpt>
      <trkpt lat="49.09411" lon="1.38347">
        <ele>140.6</ele>
        <time>2021-04-14T15:40:27Z</time>
      </trkpt>
      <trkpt lat="49.09387" lon="1.3835">
        <ele>140.8</ele>
        <time>2021-04-14T15:40:33Z</time>
      </trkpt>
      <trkpt lat="49.09367" lon="1.38353">
        <ele>140.8</ele>
        <time>2021-04-14T15:40:38Z</time>
      </trkpt>
      <trkpt lat="49.09363" lon="1.38354">
        <ele>140.8</ele>
        <time>2021-04-14T15:40:39Z</time>
      </trkpt>
      <trkpt lat="49.09349" lon="1.38365">
        <ele>140.6</ele>
        <time>2021-04-14T15:40:43Z</time>
      </trkpt>
      <trkpt lat="49.09345" lon="1.38368">
        <ele>140.6</ele>
        <time>2021-04-14T15:40:44Z</time>
      </trkpt>
      <trkpt lat="49.09332" lon="1.38385">
        <ele>140.6</ele>
        <time>2021-04-14T15:40:48Z</time>
      </trkpt>
      <trkpt lat="49.09318" lon="1.38409">
        <ele>140.6</ele>
        <time>2021-04-14T15:40:54Z</time>
      </trkpt>
      <trkpt lat="49.09315" lon="1.3841">
        <ele>140.6</ele>
        <time>2021-04-14T15:40:55Z</time>
      </trkpt>
      <trkpt lat="49.09308" lon="1.3841">
        <ele>140.6</ele>
        <time>2021-04-14T15:40:58Z</time>
      </trkpt>
      <trkpt lat="49.09295" lon="1.38406">
        <ele>141.2</ele>
        <time>2021-04-14T15:41:04Z</time>
      </trkpt>
      <trkpt lat="49.09283" lon="1.38398">
        <ele>141.4</ele>
        <time>2021-04-14T15:41:10Z</time>
      </trkpt>
      <trkpt lat="49.09281" lon="1.38395">
        <ele>141.4</ele>
        <time>2021-04-14T15:41:13Z</time>
      </trkpt>
      <trkpt lat="49.09276" lon="1.38391">
        <ele>141.8</ele>
        <time>2021-04-14T15:49:08Z</time>
      </trkpt>
      <trkpt lat="49.09276" lon="1.38392">
        <ele>141.8</ele>
        <time>2021-04-14T15:49:09Z</time>
      </trkpt>
      <trkpt lat="49.09277" lon="1.38392">
        <ele>141.8</ele>
        <time>2021-04-14T15:49:10Z</time>
      </trkpt>
      <trkpt lat="49.09275" lon="1.3839">
        <ele>141.8</ele>
        <time>2021-04-14T15:49:17Z</time>
      </trkpt>
      <trkpt lat="49.09272" lon="1.38387">
        <ele>141.6</ele>
        <time>2021-04-14T15:49:19Z</time>
      </trkpt>
      <trkpt lat="49.0927" lon="1.38385">
        <ele>141.6</ele>
        <time>2021-04-14T15:49:20Z</time>
      </trkpt>
      <trkpt lat="49.09261" lon="1.38375">
        <ele>141.6</ele>
        <time>2021-04-14T15:49:23Z</time>
      </trkpt>
      <trkpt lat="49.09258" lon="1.38358">
        <ele>141.6</ele>
        <time>2021-04-14T15:49:26Z</time>
      </trkpt>
      <trkpt lat="49.09266" lon="1.3835">
        <ele>141.2</ele>
        <time>2021-04-14T15:49:29Z</time>
      </trkpt>
      <trkpt lat="49.0927" lon="1.38348">
        <ele>141</ele>
        <time>2021-04-14T15:49:30Z</time>
      </trkpt>
      <trkpt lat="49.09279" lon="1.38349">
        <ele>140.6</ele>
        <time>2021-04-14T15:49:33Z</time>
      </trkpt>
      <trkpt lat="49.09276" lon="1.38358">
        <ele>140.4</ele>
        <time>2021-04-14T15:49:35Z</time>
      </trkpt>
      <trkpt lat="49.09265" lon="1.38375">
        <ele>140.4</ele>
        <time>2021-04-14T15:49:39Z</time>
      </trkpt>
      <trkpt lat="49.09259" lon="1.3837">
        <ele>140.4</ele>
        <time>2021-04-14T15:49:41Z</time>
      </trkpt>
      <trkpt lat="49.09258" lon="1.38348">
        <ele>140.4</ele>
        <time>2021-04-14T15:49:45Z</time>
      </trkpt>
      <trkpt lat="49.0927" lon="1.38342">
        <ele>140.4</ele>
        <time>2021-04-14T15:49:48Z</time>
      </trkpt>
      <trkpt lat="49.09276" lon="1.38352">
        <ele>140.4</ele>
        <time>2021-04-14T15:49:51Z</time>
      </trkpt>
      <trkpt lat="49.09275" lon="1.38357">
        <ele>140.4</ele>
        <time>2021-04-14T15:49:52Z</time>
      </trkpt>
      <trkpt lat="49.09265" lon="1.38374">
        <ele>140.6</ele>
        <time>2021-04-14T15:49:56Z</time>
      </trkpt>
      <trkpt lat="49.09261" lon="1.38374">
        <ele>140.6</ele>
        <time>2021-04-14T15:49:57Z</time>
      </trkpt>
      <trkpt lat="49.09256" lon="1.38366">
        <ele>140.6</ele>
        <time>2021-04-14T15:49:59Z</time>
      </trkpt>
      <trkpt lat="49.09258" lon="1.38349">
        <ele>140.6</ele>
        <time>2021-04-14T15:50:02Z</time>
      </trkpt>
      <trkpt lat="49.0927" lon="1.38344">
        <ele>140.4</ele>
        <time>2021-04-14T15:50:06Z</time>
      </trkpt>
      <trkpt lat="49.09275" lon="1.38352">
        <ele>140.4</ele>
        <time>2021-04-14T15:50:09Z</time>
      </trkpt>
      <trkpt lat="49.0927" lon="1.38374">
        <ele>140.4</ele>
        <time>2021-04-14T15:50:13Z</time>
      </trkpt>
      <trkpt lat="49.09272" lon="1.38383">
        <ele>140.4</ele>
        <time>2021-04-14T15:50:16Z</time>
      </trkpt>
      <trkpt lat="49.09273" lon="1.38384">
        <ele>140.6</ele>
        <time>2021-04-14T15:50:19Z</time>
      </trkpt>
      <trkpt lat="49.09269" lon="1.38382">
        <ele>141.8</ele>
        <time>2021-04-14T15:50:56Z</time>
      </trkpt>
      <trkpt lat="49.09263" lon="1.38374">
        <ele>141.8</ele>
        <time>2021-04-14T15:50:58Z</time>
      </trkpt>
      <trkpt lat="49.0926" lon="1.38357">
        <ele>141.8</ele>
        <time>2021-04-14T15:51:01Z</time>
      </trkpt>
      <trkpt lat="49.09262" lon="1.38353">
        <ele>141.8</ele>
        <time>2021-04-14T15:51:02Z</time>
      </trkpt>
      <trkpt lat="49.09277" lon="1.38345">
        <ele>141</ele>
        <time>2021-04-14T15:51:06Z</time>
      </trkpt>
      <trkpt lat="49.09281" lon="1.38347">
        <ele>140.8</ele>
        <time>2021-04-14T15:51:07Z</time>
      </trkpt>
      <trkpt lat="49.09281" lon="1.38355">
        <ele>140.4</ele>
        <time>2021-04-14T15:51:09Z</time>
      </trkpt>
      <trkpt lat="49.09279" lon="1.3836">
        <ele>140.4</ele>
        <time>2021-04-14T15:51:10Z</time>
      </trkpt>
      <trkpt lat="49.09277" lon="1.38365">
        <ele>140.4</ele>
        <time>2021-04-14T15:51:11Z</time>
      </trkpt>
      <trkpt lat="49.09272" lon="1.38375">
        <ele>140.2</ele>
        <time>2021-04-14T15:51:13Z</time>
      </trkpt>
      <trkpt lat="49.09273" lon="1.38381">
        <ele>140.2</ele>
        <time>2021-04-14T15:51:16Z</time>
      </trkpt>
      <trkpt lat="49.09273" lon="1.38381">
        <ele>140.2</ele>
        <time>2021-04-14T15:51:18Z</time>
      </trkpt>
      <trkpt lat="49.09269" lon="1.38383">
        <ele>141.6</ele>
        <time>2021-04-14T15:53:24Z</time>
      </trkpt>
      <trkpt lat="49.09266" lon="1.38381">
        <ele>141.6</ele>
        <time>2021-04-14T15:53:26Z</time>
      </trkpt>
      <trkpt lat="49.09258" lon="1.38371">
        <ele>141.6</ele>
        <time>2021-04-14T15:53:29Z</time>
      </trkpt>
      <trkpt lat="49.09257" lon="1.38356">
        <ele>141.6</ele>
        <time>2021-04-14T15:53:32Z</time>
      </trkpt>
      <trkpt lat="49.09267" lon="1.38348">
        <ele>141.6</ele>
        <time>2021-04-14T15:53:35Z</time>
      </trkpt>
      <trkpt lat="49.09271" lon="1.38346">
        <ele>141.4</ele>
        <time>2021-04-14T15:53:36Z</time>
      </trkpt>
      <trkpt lat="49.09277" lon="1.38353">
        <ele>140.8</ele>
        <time>2021-04-14T15:53:38Z</time>
      </trkpt>
      <trkpt lat="49.09273" lon="1.38364">
        <ele>140.4</ele>
        <time>2021-04-14T15:53:40Z</time>
      </trkpt>
      <trkpt lat="49.0927" lon="1.3837">
        <ele>140.4</ele>
        <time>2021-04-14T15:53:41Z</time>
      </trkpt>
      <trkpt lat="49.09267" lon="1.38379">
        <ele>140.2</ele>
        <time>2021-04-14T15:53:43Z</time>
      </trkpt>
      <trkpt lat="49.09268" lon="1.38382">
        <ele>140.2</ele>
        <time>2021-04-14T15:53:44Z</time>
      </trkpt>
      <trkpt lat="49.09269" lon="1.38382">
        <ele>140.2</ele>
        <time>2021-04-14T15:53:47Z</time>
      </trkpt>
      <trkpt lat="49.09269" lon="1.38382">
        <ele>140.2</ele>
        <time>2021-04-14T15:53:48Z</time>
      </trkpt>
      <trkpt lat="49.09266" lon="1.38384">
        <ele>141.4</ele>
        <time>2021-04-14T15:56:57Z</time>
      </trkpt>
      <trkpt lat="49.09266" lon="1.38386">
        <ele>141.4</ele>
        <time>2021-04-14T15:56:58Z</time>
      </trkpt>
      <trkpt lat="49.09264" lon="1.38389">
        <ele>141.6</ele>
        <time>2021-04-14T15:57:00Z</time>
      </trkpt>
      <trkpt lat="49.09255" lon="1.38396">
        <ele>141.6</ele>
        <time>2021-04-14T15:57:05Z</time>
      </trkpt>
      <trkpt lat="49.09247" lon="1.38397">
        <ele>141.4</ele>
        <time>2021-04-14T15:57:09Z</time>
      </trkpt>
      <trkpt lat="49.09234" lon="1.38395">
        <ele>141.2</ele>
        <time>2021-04-14T15:57:14Z</time>
      </trkpt>
      <trkpt lat="49.09218" lon="1.38397">
        <ele>141.2</ele>
        <time>2021-04-14T15:57:19Z</time>
      </trkpt>
      <trkpt lat="49.09206" lon="1.38412">
        <ele>140.8</ele>
        <time>2021-04-14T15:57:23Z</time>
      </trkpt>
      <trkpt lat="49.09203" lon="1.38424">
        <ele>140.6</ele>
        <time>2021-04-14T15:57:25Z</time>
      </trkpt>
      <trkpt lat="49.09198" lon="1.38444">
        <ele>140.4</ele>
        <time>2021-04-14T15:57:28Z</time>
      </trkpt>
      <trkpt lat="49.09195" lon="1.38458">
        <ele>140.2</ele>
        <time>2021-04-14T15:57:30Z</time>
      </trkpt>
      <trkpt lat="49.09194" lon="1.38465">
        <ele>140</ele>
        <time>2021-04-14T15:57:31Z</time>
      </trkpt>
      <trkpt lat="49.09194" lon="1.38481">
        <ele>139.6</ele>
        <time>2021-04-14T15:57:33Z</time>
      </trkpt>
      <trkpt lat="49.09186" lon="1.38496">
        <ele>139.4</ele>
        <time>2021-04-14T15:57:36Z</time>
      </trkpt>
      <trkpt lat="49.09182" lon="1.385">
        <ele>139.4</ele>
        <time>2021-04-14T15:57:37Z</time>
      </trkpt>
      <trkpt lat="49.09178" lon="1.38505">
        <ele>139.4</ele>
        <time>2021-04-14T15:57:38Z</time>
      </trkpt>
      <trkpt lat="49.0917" lon="1.38516">
        <ele>139.4</ele>
        <time>2021-04-14T15:57:40Z</time>
      </trkpt>
      <trkpt lat="49.09162" lon="1.3853">
        <ele>139.2</ele>
        <time>2021-04-14T15:57:42Z</time>
      </trkpt>
      <trkpt lat="49.09156" lon="1.38547">
        <ele>139.2</ele>
        <time>2021-04-14T15:57:44Z</time>
      </trkpt>
      <trkpt lat="49.09146" lon="1.38588">
        <ele>139.2</ele>
        <time>2021-04-14T15:57:49Z</time>
      </trkpt>
      <trkpt lat="49.09141" lon="1.38604">
        <ele>139</ele>
        <time>2021-04-14T15:57:51Z</time>
      </trkpt>
      <trkpt lat="49.09131" lon="1.38641">
        <ele>138.2</ele>
        <time>2021-04-14T15:57:56Z</time>
      </trkpt>
      <trkpt lat="49.09129" lon="1.38648">
        <ele>138.2</ele>
        <time>2021-04-14T15:57:57Z</time>
      </trkpt>
      <trkpt lat="49.09129" lon="1.38654">
        <ele>138</ele>
        <time>2021-04-14T15:57:58Z</time>
      </trkpt>
      <trkpt lat="49.09133" lon="1.38666">
        <ele>137.8</ele>
        <time>2021-04-14T15:58:00Z</time>
      </trkpt>
      <trkpt lat="49.09136" lon="1.38672">
        <ele>137.8</ele>
        <time>2021-04-14T15:58:01Z</time>
      </trkpt>
      <trkpt lat="49.09144" lon="1.3869">
        <ele>137.8</ele>
        <time>2021-04-14T15:58:04Z</time>
      </trkpt>
      <trkpt lat="49.0915" lon="1.38708">
        <ele>137.8</ele>
        <time>2021-04-14T15:58:07Z</time>
      </trkpt>
      <trkpt lat="49.09156" lon="1.38726">
        <ele>137.8</ele>
        <time>2021-04-14T15:58:10Z</time>
      </trkpt>
      <trkpt lat="49.09163" lon="1.38767">
        <ele>138.2</ele>
        <time>2021-04-14T15:58:16Z</time>
      </trkpt>
      <trkpt lat="49.09163" lon="1.3878">
        <ele>138.4</ele>
        <time>2021-04-14T15:58:18Z</time>
      </trkpt>
      <trkpt lat="49.09166" lon="1.38812">
        <ele>138.6</ele>
        <time>2021-04-14T15:58:22Z</time>
      </trkpt>
      <trkpt lat="49.09166" lon="1.38822">
        <ele>138.6</ele>
        <time>2021-04-14T15:58:23Z</time>
      </trkpt>
      <trkpt lat="49.09167" lon="1.3884">
        <ele>138.6</ele>
        <time>2021-04-14T15:58:25Z</time>
      </trkpt>
      <trkpt lat="49.09168" lon="1.38847">
        <ele>138.6</ele>
        <time>2021-04-14T15:58:26Z</time>
      </trkpt>
      <trkpt lat="49.0917" lon="1.38855">
        <ele>138.6</ele>
        <time>2021-04-14T15:58:27Z</time>
      </trkpt>
      <trkpt lat="49.09174" lon="1.38885">
        <ele>138.2</ele>
        <time>2021-04-14T15:58:30Z</time>
      </trkpt>
      <trkpt lat="49.0917" lon="1.38916">
        <ele>137.6</ele>
        <time>2021-04-14T15:58:33Z</time>
      </trkpt>
      <trkpt lat="49.09168" lon="1.38927">
        <ele>137.4</ele>
        <time>2021-04-14T15:58:34Z</time>
      </trkpt>
      <trkpt lat="49.0916" lon="1.38966">
        <ele>136.4</ele>
        <time>2021-04-14T15:58:38Z</time>
      </trkpt>
      <trkpt lat="49.09154" lon="1.38996">
        <ele>136</ele>
        <time>2021-04-14T15:58:41Z</time>
      </trkpt>
      <trkpt lat="49.09148" lon="1.39016">
        <ele>135.6</ele>
        <time>2021-04-14T15:58:43Z</time>
      </trkpt>
      <trkpt lat="49.09143" lon="1.39024">
        <ele>135.4</ele>
        <time>2021-04-14T15:58:44Z</time>
      </trkpt>
      <trkpt lat="49.09138" lon="1.3903">
        <ele>135.2</ele>
        <time>2021-04-14T15:58:45Z</time>
      </trkpt>
      <trkpt lat="49.0912" lon="1.3904">
        <ele>134.6</ele>
        <time>2021-04-14T15:58:48Z</time>
      </trkpt>
      <trkpt lat="49.09109" lon="1.39046">
        <ele>134.2</ele>
        <time>2021-04-14T15:58:50Z</time>
      </trkpt>
      <trkpt lat="49.09102" lon="1.39049">
        <ele>133.8</ele>
        <time>2021-04-14T15:58:51Z</time>
      </trkpt>
      <trkpt lat="49.09096" lon="1.39052">
        <ele>133.8</ele>
        <time>2021-04-14T15:58:52Z</time>
      </trkpt>
      <trkpt lat="49.09081" lon="1.39059">
        <ele>133.2</ele>
        <time>2021-04-14T15:58:54Z</time>
      </trkpt>
      <trkpt lat="49.09059" lon="1.3907">
        <ele>132.8</ele>
        <time>2021-04-14T15:58:57Z</time>
      </trkpt>
      <trkpt lat="49.09043" lon="1.39092">
        <ele>132.4</ele>
        <time>2021-04-14T15:59:00Z</time>
      </trkpt>
      <trkpt lat="49.09039" lon="1.39102">
        <ele>132.2</ele>
        <time>2021-04-14T15:59:01Z</time>
      </trkpt>
      <trkpt lat="49.09028" lon="1.39116">
        <ele>131.4</ele>
        <time>2021-04-14T15:59:03Z</time>
      </trkpt>
      <trkpt lat="49.09024" lon="1.3912">
        <ele>130.8</ele>
        <time>2021-04-14T15:59:04Z</time>
      </trkpt>
      <trkpt lat="49.09013" lon="1.39134">
        <ele>129.4</ele>
        <time>2021-04-14T15:59:07Z</time>
      </trkpt>
      <trkpt lat="49.09009" lon="1.39139">
        <ele>129.2</ele>
        <time>2021-04-14T15:59:08Z</time>
      </trkpt>
      <trkpt lat="49.09005" lon="1.39145">
        <ele>128.8</ele>
        <time>2021-04-14T15:59:09Z</time>
      </trkpt>
      <trkpt lat="49.09" lon="1.39158">
        <ele>128.4</ele>
        <time>2021-04-14T15:59:12Z</time>
      </trkpt>
      <trkpt lat="49.09" lon="1.3916">
        <ele>128.4</ele>
        <time>2021-04-14T15:59:14Z</time>
      </trkpt>
      <trkpt lat="49.09001" lon="1.3916">
        <ele>128.2</ele>
        <time>2021-04-14T15:59:15Z</time>
      </trkpt>
      <trkpt lat="49.09001" lon="1.39165">
        <ele>128.2</ele>
        <time>2021-04-14T15:59:53Z</time>
      </trkpt>
      <trkpt lat="49.09001" lon="1.39166">
        <ele>128.2</ele>
        <time>2021-04-14T15:59:55Z</time>
      </trkpt>
      <trkpt lat="49.09001" lon="1.39168">
        <ele>128.2</ele>
        <time>2021-04-14T16:00:03Z</time>
      </trkpt>
      <trkpt lat="49.09001" lon="1.39171">
        <ele>128.2</ele>
        <time>2021-04-14T16:00:05Z</time>
      </trkpt>
      <trkpt lat="49.09001" lon="1.39174">
        <ele>128.2</ele>
        <time>2021-04-14T16:00:07Z</time>
      </trkpt>
      <trkpt lat="49.09007" lon="1.39178">
        <ele>128</ele>
        <time>2021-04-14T16:00:11Z</time>
      </trkpt>
      <trkpt lat="49.09014" lon="1.39183">
        <ele>127.8</ele>
        <time>2021-04-14T16:00:15Z</time>
      </trkpt>
      <trkpt lat="49.09017" lon="1.39184">
        <ele>127.8</ele>
        <time>2021-04-14T16:00:17Z</time>
      </trkpt>
      <trkpt lat="49.09031" lon="1.39191">
        <ele>127.2</ele>
        <time>2021-04-14T16:00:23Z</time>
      </trkpt>
      <trkpt lat="49.09047" lon="1.392">
        <ele>127</ele>
        <time>2021-04-14T16:00:28Z</time>
      </trkpt>
      <trkpt lat="49.09075" lon="1.39209">
        <ele>127</ele>
        <time>2021-04-14T16:00:35Z</time>
      </trkpt>
      <trkpt lat="49.091" lon="1.39219">
        <ele>127.6</ele>
        <time>2021-04-14T16:00:42Z</time>
      </trkpt>
      <trkpt lat="49.09112" lon="1.39224">
        <ele>128.2</ele>
        <time>2021-04-14T16:00:46Z</time>
      </trkpt>
      <trkpt lat="49.09118" lon="1.39227">
        <ele>128.8</ele>
        <time>2021-04-14T16:00:48Z</time>
      </trkpt>
      <trkpt lat="49.09124" lon="1.3923">
        <ele>129.2</ele>
        <time>2021-04-14T16:00:50Z</time>
      </trkpt>
      <trkpt lat="49.09135" lon="1.39236">
        <ele>130.2</ele>
        <time>2021-04-14T16:00:54Z</time>
      </trkpt>
      <trkpt lat="49.09138" lon="1.39238">
        <ele>130.4</ele>
        <time>2021-04-14T16:00:55Z</time>
      </trkpt>
      <trkpt lat="49.09148" lon="1.39244">
        <ele>131.4</ele>
        <time>2021-04-14T16:00:58Z</time>
      </trkpt>
      <trkpt lat="49.09161" lon="1.39254">
        <ele>132.4</ele>
        <time>2021-04-14T16:01:02Z</time>
      </trkpt>
      <trkpt lat="49.09164" lon="1.39257">
        <ele>132.6</ele>
        <time>2021-04-14T16:01:03Z</time>
      </trkpt>
      <trkpt lat="49.09189" lon="1.39279">
        <ele>133</ele>
        <time>2021-04-14T16:01:11Z</time>
      </trkpt>
      <trkpt lat="49.09196" lon="1.39293">
        <ele>133.4</ele>
        <time>2021-04-14T16:01:15Z</time>
      </trkpt>
      <trkpt lat="49.09196" lon="1.39297">
        <ele>133.6</ele>
        <time>2021-04-14T16:01:16Z</time>
      </trkpt>
      <trkpt lat="49.09187" lon="1.39304">
        <ele>134</ele>
        <time>2021-04-14T16:01:19Z</time>
      </trkpt>
      <trkpt lat="49.09158" lon="1.39323">
        <ele>134.4</ele>
        <time>2021-04-14T16:01:25Z</time>
      </trkpt>
      <trkpt lat="49.09138" lon="1.39342">
        <ele>134.4</ele>
        <time>2021-04-14T16:01:29Z</time>
      </trkpt>
      <trkpt lat="49.09133" lon="1.39349">
        <ele>134.4</ele>
        <time>2021-04-14T16:01:30Z</time>
      </trkpt>
      <trkpt lat="49.09104" lon="1.3939">
        <ele>132.2</ele>
        <time>2021-04-14T16:01:36Z</time>
      </trkpt>
      <trkpt lat="49.09087" lon="1.39423">
        <ele>130.8</ele>
        <time>2021-04-14T16:01:40Z</time>
      </trkpt>
      <trkpt lat="49.09076" lon="1.39445">
        <ele>129.4</ele>
        <time>2021-04-14T16:01:43Z</time>
      </trkpt>
      <trkpt lat="49.09069" lon="1.39458">
        <ele>128.4</ele>
        <time>2021-04-14T16:01:45Z</time>
      </trkpt>
      <trkpt lat="49.09053" lon="1.39491">
        <ele>127.8</ele>
        <time>2021-04-14T16:01:50Z</time>
      </trkpt>
      <trkpt lat="49.09035" lon="1.39526">
        <ele>128.2</ele>
        <time>2021-04-14T16:01:56Z</time>
      </trkpt>
      <trkpt lat="49.09022" lon="1.39553">
        <ele>129.2</ele>
        <time>2021-04-14T16:02:01Z</time>
      </trkpt>
      <trkpt lat="49.09021" lon="1.39559">
        <ele>129.2</ele>
        <time>2021-04-14T16:02:02Z</time>
      </trkpt>
      <trkpt lat="49.09023" lon="1.39571">
        <ele>129.4</ele>
        <time>2021-04-14T16:02:04Z</time>
      </trkpt>
      <trkpt lat="49.09025" lon="1.39576">
        <ele>129.6</ele>
        <time>2021-04-14T16:02:05Z</time>
      </trkpt>
      <trkpt lat="49.09041" lon="1.39615">
        <ele>130</ele>
        <time>2021-04-14T16:02:12Z</time>
      </trkpt>
      <trkpt lat="49.09056" lon="1.39635">
        <ele>130.2</ele>
        <time>2021-04-14T16:02:17Z</time>
      </trkpt>
      <trkpt lat="49.09065" lon="1.39659">
        <ele>130.4</ele>
        <time>2021-04-14T16:02:21Z</time>
      </trkpt>
      <trkpt lat="49.09067" lon="1.39666">
        <ele>130.4</ele>
        <time>2021-04-14T16:02:22Z</time>
      </trkpt>
      <trkpt lat="49.0907" lon="1.39679">
        <ele>130.6</ele>
        <time>2021-04-14T16:02:25Z</time>
      </trkpt>
      <trkpt lat="49.09074" lon="1.3969">
        <ele>130.6</ele>
        <time>2021-04-14T16:02:28Z</time>
      </trkpt>
      <trkpt lat="49.09074" lon="1.39694">
        <ele>130.8</ele>
        <time>2021-04-14T16:02:29Z</time>
      </trkpt>
      <trkpt lat="49.09073" lon="1.39696">
        <ele>130.8</ele>
        <time>2021-04-14T16:02:30Z</time>
      </trkpt>
      <trkpt lat="49.09067" lon="1.39697">
        <ele>131.8</ele>
        <time>2021-04-14T16:02:32Z</time>
      </trkpt>
      <trkpt lat="49.09064" lon="1.39697">
        <ele>132.2</ele>
        <time>2021-04-14T16:02:33Z</time>
      </trkpt>
      <trkpt lat="49.09061" lon="1.39696">
        <ele>132.8</ele>
        <time>2021-04-14T16:02:34Z</time>
      </trkpt>
      <trkpt lat="49.0905" lon="1.39693">
        <ele>134</ele>
        <time>2021-04-14T16:02:37Z</time>
      </trkpt>
      <trkpt lat="49.09038" lon="1.39689">
        <ele>135</ele>
        <time>2021-04-14T16:02:40Z</time>
      </trkpt>
      <trkpt lat="49.09034" lon="1.39688">
        <ele>135.4</ele>
        <time>2021-04-14T16:02:41Z</time>
      </trkpt>
      <trkpt lat="49.09018" lon="1.39687">
        <ele>136</ele>
        <time>2021-04-14T16:02:45Z</time>
      </trkpt>
      <trkpt lat="49.0901" lon="1.39688">
        <ele>136.4</ele>
        <time>2021-04-14T16:02:47Z</time>
      </trkpt>
      <trkpt lat="49.08994" lon="1.39691">
        <ele>136.6</ele>
        <time>2021-04-14T16:02:51Z</time>
      </trkpt>
      <trkpt lat="49.08981" lon="1.39695">
        <ele>136.6</ele>
        <time>2021-04-14T16:02:54Z</time>
      </trkpt>
      <trkpt lat="49.08962" lon="1.39702">
        <ele>136.6</ele>
        <time>2021-04-14T16:02:58Z</time>
      </trkpt>
      <trkpt lat="49.08958" lon="1.39706">
        <ele>136.6</ele>
        <time>2021-04-14T16:02:59Z</time>
      </trkpt>
      <trkpt lat="49.08946" lon="1.3972">
        <ele>136.4</ele>
        <time>2021-04-14T16:03:02Z</time>
      </trkpt>
      <trkpt lat="49.08936" lon="1.39738">
        <ele>136.4</ele>
        <time>2021-04-14T16:03:05Z</time>
      </trkpt>
      <trkpt lat="49.08933" lon="1.39745">
        <ele>136.4</ele>
        <time>2021-04-14T16:03:06Z</time>
      </trkpt>
      <trkpt lat="49.08922" lon="1.39783">
        <ele>136</ele>
        <time>2021-04-14T16:03:11Z</time>
      </trkpt>
      <trkpt lat="49.08919" lon="1.3979">
        <ele>135.8</ele>
        <time>2021-04-14T16:03:12Z</time>
      </trkpt>
      <trkpt lat="49.08914" lon="1.39803">
        <ele>135.4</ele>
        <time>2021-04-14T16:03:14Z</time>
      </trkpt>
      <trkpt lat="49.08911" lon="1.39807">
        <ele>135.4</ele>
        <time>2021-04-14T16:03:15Z</time>
      </trkpt>
      <trkpt lat="49.08894" lon="1.39806">
        <ele>135.4</ele>
        <time>2021-04-14T16:03:18Z</time>
      </trkpt>
      <trkpt lat="49.08889" lon="1.39802">
        <ele>135.4</ele>
        <time>2021-04-14T16:03:19Z</time>
      </trkpt>
      <trkpt lat="49.0887" lon="1.39793">
        <ele>135.2</ele>
        <time>2021-04-14T16:03:22Z</time>
      </trkpt>
      <trkpt lat="49.08862" lon="1.39793">
        <ele>135.2</ele>
        <time>2021-04-14T16:03:23Z</time>
      </trkpt>
      <trkpt lat="49.08828" lon="1.39801">
        <ele>134.4</ele>
        <time>2021-04-14T16:03:28Z</time>
      </trkpt>
      <trkpt lat="49.08822" lon="1.39802">
        <ele>134.2</ele>
        <time>2021-04-14T16:03:29Z</time>
      </trkpt>
      <trkpt lat="49.08803" lon="1.39806">
        <ele>133.2</ele>
        <time>2021-04-14T16:03:32Z</time>
      </trkpt>
      <trkpt lat="49.08797" lon="1.39807">
        <ele>132.8</ele>
        <time>2021-04-14T16:03:33Z</time>
      </trkpt>
      <trkpt lat="49.08793" lon="1.3981">
        <ele>132.4</ele>
        <time>2021-04-14T16:03:34Z</time>
      </trkpt>
      <trkpt lat="49.08789" lon="1.39825">
        <ele>132</ele>
        <time>2021-04-14T16:03:37Z</time>
      </trkpt>
      <trkpt lat="49.08789" lon="1.3983">
        <ele>131.8</ele>
        <time>2021-04-14T16:03:38Z</time>
      </trkpt>
      <trkpt lat="49.08788" lon="1.39862">
        <ele>131.6</ele>
        <time>2021-04-14T16:03:43Z</time>
      </trkpt>
      <trkpt lat="49.08788" lon="1.39869">
        <ele>131.6</ele>
        <time>2021-04-14T16:03:44Z</time>
      </trkpt>
      <trkpt lat="49.08786" lon="1.39891">
        <ele>131.6</ele>
        <time>2021-04-14T16:03:47Z</time>
      </trkpt>
      <trkpt lat="49.08786" lon="1.39906">
        <ele>131.6</ele>
        <time>2021-04-14T16:03:49Z</time>
      </trkpt>
      <trkpt lat="49.08786" lon="1.39948">
        <ele>131.8</ele>
        <time>2021-04-14T16:03:55Z</time>
      </trkpt>
      <trkpt lat="49.08787" lon="1.39986">
        <ele>132.4</ele>
        <time>2021-04-14T16:04:00Z</time>
      </trkpt>
      <trkpt lat="49.08784" lon="1.40039">
        <ele>132.4</ele>
        <time>2021-04-14T16:04:07Z</time>
      </trkpt>
      <trkpt lat="49.08784" lon="1.40049">
        <ele>132.4</ele>
        <time>2021-04-14T16:04:08Z</time>
      </trkpt>
      <trkpt lat="49.08785" lon="1.40096">
        <ele>132.2</ele>
        <time>2021-04-14T16:04:13Z</time>
      </trkpt>
      <trkpt lat="49.08787" lon="1.40153">
        <ele>131.2</ele>
        <time>2021-04-14T16:04:19Z</time>
      </trkpt>
      <trkpt lat="49.08789" lon="1.40191">
        <ele>131</ele>
        <time>2021-04-14T16:04:23Z</time>
      </trkpt>
      <trkpt lat="49.08789" lon="1.40219">
        <ele>131</ele>
        <time>2021-04-14T16:04:26Z</time>
      </trkpt>
      <trkpt lat="49.08788" lon="1.40229">
        <ele>131</ele>
        <time>2021-04-14T16:04:27Z</time>
      </trkpt>
      <trkpt lat="49.08788" lon="1.40239">
        <ele>131</ele>
        <time>2021-04-14T16:04:28Z</time>
      </trkpt>
      <trkpt lat="49.08785" lon="1.40265">
        <ele>130.6</ele>
        <time>2021-04-14T16:04:31Z</time>
      </trkpt>
      <trkpt lat="49.0878" lon="1.40298">
        <ele>130.2</ele>
        <time>2021-04-14T16:04:35Z</time>
      </trkpt>
      <trkpt lat="49.08778" lon="1.40305">
        <ele>130.2</ele>
        <time>2021-04-14T16:04:36Z</time>
      </trkpt>
      <trkpt lat="49.08778" lon="1.40324">
        <ele>130.2</ele>
        <time>2021-04-14T16:04:39Z</time>
      </trkpt>
      <trkpt lat="49.08777" lon="1.4033">
        <ele>130.2</ele>
        <time>2021-04-14T16:04:40Z</time>
      </trkpt>
      <trkpt lat="49.08776" lon="1.40353">
        <ele>130.4</ele>
        <time>2021-04-14T16:04:44Z</time>
      </trkpt>
      <trkpt lat="49.08776" lon="1.40384">
        <ele>131.2</ele>
        <time>2021-04-14T16:04:50Z</time>
      </trkpt>
      <trkpt lat="49.08777" lon="1.40406">
        <ele>132</ele>
        <time>2021-04-14T16:04:54Z</time>
      </trkpt>
      <trkpt lat="49.08778" lon="1.40423">
        <ele>132.8</ele>
        <time>2021-04-14T16:04:57Z</time>
      </trkpt>
      <trkpt lat="49.08778" lon="1.40433">
        <ele>133.2</ele>
        <time>2021-04-14T16:04:59Z</time>
      </trkpt>
      <trkpt lat="49.08781" lon="1.40458">
        <ele>134</ele>
        <time>2021-04-14T16:05:04Z</time>
      </trkpt>
      <trkpt lat="49.08786" lon="1.40482">
        <ele>134.4</ele>
        <time>2021-04-14T16:05:09Z</time>
      </trkpt>
      <trkpt lat="49.08788" lon="1.40486">
        <ele>134.6</ele>
        <time>2021-04-14T16:05:10Z</time>
      </trkpt>
      <trkpt lat="49.08798" lon="1.40521">
        <ele>135.2</ele>
        <time>2021-04-14T16:05:16Z</time>
      </trkpt>
      <trkpt lat="49.08801" lon="1.40556">
        <ele>135.4</ele>
        <time>2021-04-14T16:05:21Z</time>
      </trkpt>
      <trkpt lat="49.08801" lon="1.40563">
        <ele>135.4</ele>
        <time>2021-04-14T16:05:22Z</time>
      </trkpt>
      <trkpt lat="49.08798" lon="1.40613">
        <ele>135.8</ele>
        <time>2021-04-14T16:05:28Z</time>
      </trkpt>
      <trkpt lat="49.08796" lon="1.40661">
        <ele>136</ele>
        <time>2021-04-14T16:05:34Z</time>
      </trkpt>
      <trkpt lat="49.08798" lon="1.40715">
        <ele>136.2</ele>
        <time>2021-04-14T16:05:41Z</time>
      </trkpt>
      <trkpt lat="49.088" lon="1.40732">
        <ele>136.2</ele>
        <time>2021-04-14T16:05:43Z</time>
      </trkpt>
      <trkpt lat="49.08806" lon="1.40765">
        <ele>136</ele>
        <time>2021-04-14T16:05:47Z</time>
      </trkpt>
      <trkpt lat="49.08807" lon="1.40772">
        <ele>136</ele>
        <time>2021-04-14T16:05:48Z</time>
      </trkpt>
      <trkpt lat="49.08811" lon="1.40807">
        <ele>136.2</ele>
        <time>2021-04-14T16:05:52Z</time>
      </trkpt>
      <trkpt lat="49.08813" lon="1.40833">
        <ele>136.2</ele>
        <time>2021-04-14T16:05:55Z</time>
      </trkpt>
      <trkpt lat="49.08816" lon="1.40858">
        <ele>136.2</ele>
        <time>2021-04-14T16:05:58Z</time>
      </trkpt>
      <trkpt lat="49.08819" lon="1.40903">
        <ele>136.2</ele>
        <time>2021-04-14T16:06:04Z</time>
      </trkpt>
      <trkpt lat="49.08824" lon="1.40947">
        <ele>136.2</ele>
        <time>2021-04-14T16:06:10Z</time>
      </trkpt>
      <trkpt lat="49.08825" lon="1.40969">
        <ele>136.4</ele>
        <time>2021-04-14T16:06:13Z</time>
      </trkpt>
      <trkpt lat="49.08826" lon="1.40983">
        <ele>136.4</ele>
        <time>2021-04-14T16:06:15Z</time>
      </trkpt>
      <trkpt lat="49.08827" lon="1.40996">
        <ele>136.6</ele>
        <time>2021-04-14T16:06:17Z</time>
      </trkpt>
      <trkpt lat="49.08831" lon="1.41024">
        <ele>137</ele>
        <time>2021-04-14T16:06:21Z</time>
      </trkpt>
      <trkpt lat="49.08832" lon="1.4104">
        <ele>137</ele>
        <time>2021-04-14T16:06:23Z</time>
      </trkpt>
      <trkpt lat="49.08835" lon="1.41093">
        <ele>137.4</ele>
        <time>2021-04-14T16:06:30Z</time>
      </trkpt>
      <trkpt lat="49.08833" lon="1.41097">
        <ele>137.4</ele>
        <time>2021-04-14T16:06:31Z</time>
      </trkpt>
      <trkpt lat="49.08831" lon="1.411">
        <ele>137.4</ele>
        <time>2021-04-14T16:06:32Z</time>
      </trkpt>
      <trkpt lat="49.08829" lon="1.41103">
        <ele>137.6</ele>
        <time>2021-04-14T16:06:33Z</time>
      </trkpt>
      <trkpt lat="49.0881" lon="1.41125">
        <ele>137.6</ele>
        <time>2021-04-14T16:06:40Z</time>
      </trkpt>
      <trkpt lat="49.08795" lon="1.4114">
        <ele>137.6</ele>
        <time>2021-04-14T16:06:44Z</time>
      </trkpt>
      <trkpt lat="49.08786" lon="1.41148">
        <ele>137.4</ele>
        <time>2021-04-14T16:06:46Z</time>
      </trkpt>
      <trkpt lat="49.08763" lon="1.41171">
        <ele>136.6</ele>
        <time>2021-04-14T16:06:51Z</time>
      </trkpt>
      <trkpt lat="49.08759" lon="1.41175">
        <ele>136.4</ele>
        <time>2021-04-14T16:06:52Z</time>
      </trkpt>
      <trkpt lat="49.0875" lon="1.41183">
        <ele>135.8</ele>
        <time>2021-04-14T16:06:54Z</time>
      </trkpt>
      <trkpt lat="49.08742" lon="1.41191">
        <ele>135.2</ele>
        <time>2021-04-14T16:06:56Z</time>
      </trkpt>
      <trkpt lat="49.08738" lon="1.41195">
        <ele>134.8</ele>
        <time>2021-04-14T16:06:57Z</time>
      </trkpt>
      <trkpt lat="49.0872" lon="1.41212">
        <ele>134.2</ele>
        <time>2021-04-14T16:07:01Z</time>
      </trkpt>
      <trkpt lat="49.0871" lon="1.41221">
        <ele>134</ele>
        <time>2021-04-14T16:07:03Z</time>
      </trkpt>
      <trkpt lat="49.08692" lon="1.4124">
        <ele>133</ele>
        <time>2021-04-14T16:07:07Z</time>
      </trkpt>
      <trkpt lat="49.08688" lon="1.41245">
        <ele>132.8</ele>
        <time>2021-04-14T16:07:08Z</time>
      </trkpt>
      <trkpt lat="49.08669" lon="1.41266">
        <ele>132.4</ele>
        <time>2021-04-14T16:07:12Z</time>
      </trkpt>
      <trkpt lat="49.08646" lon="1.41288">
        <ele>131.8</ele>
        <time>2021-04-14T16:07:17Z</time>
      </trkpt>
      <trkpt lat="49.08625" lon="1.41307">
        <ele>131.6</ele>
        <time>2021-04-14T16:07:22Z</time>
      </trkpt>
      <trkpt lat="49.08618" lon="1.41315">
        <ele>131.6</ele>
        <time>2021-04-14T16:07:24Z</time>
      </trkpt>
      <trkpt lat="49.08595" lon="1.41335">
        <ele>132.2</ele>
        <time>2021-04-14T16:07:30Z</time>
      </trkpt>
      <trkpt lat="49.08584" lon="1.41344">
        <ele>132.8</ele>
        <time>2021-04-14T16:07:33Z</time>
      </trkpt>
      <trkpt lat="49.08575" lon="1.41354">
        <ele>133</ele>
        <time>2021-04-14T16:07:36Z</time>
      </trkpt>
      <trkpt lat="49.08572" lon="1.41355">
        <ele>133</ele>
        <time>2021-04-14T16:07:37Z</time>
      </trkpt>
      <trkpt lat="49.08568" lon="1.41357">
        <ele>133.2</ele>
        <time>2021-04-14T16:07:39Z</time>
      </trkpt>
      <trkpt lat="49.08562" lon="1.41369">
        <ele>133.6</ele>
        <time>2021-04-14T16:07:45Z</time>
      </trkpt>
      <trkpt lat="49.08557" lon="1.41377">
        <ele>133.6</ele>
        <time>2021-04-14T16:07:48Z</time>
      </trkpt>
      <trkpt lat="49.08556" lon="1.41386">
        <ele>133.6</ele>
        <time>2021-04-14T16:07:50Z</time>
      </trkpt>
      <trkpt lat="49.08559" lon="1.41395">
        <ele>133.6</ele>
        <time>2021-04-14T16:07:52Z</time>
      </trkpt>
      <trkpt lat="49.08563" lon="1.41409">
        <ele>133.6</ele>
        <time>2021-04-14T16:07:55Z</time>
      </trkpt>
      <trkpt lat="49.08565" lon="1.41418">
        <ele>133.6</ele>
        <time>2021-04-14T16:07:57Z</time>
      </trkpt>
      <trkpt lat="49.08566" lon="1.41426">
        <ele>133.6</ele>
        <time>2021-04-14T16:07:59Z</time>
      </trkpt>
      <trkpt lat="49.0857" lon="1.41445">
        <ele>133.6</ele>
        <time>2021-04-14T16:08:04Z</time>
      </trkpt>
      <trkpt lat="49.08576" lon="1.41466">
        <ele>134.2</ele>
        <time>2021-04-14T16:08:09Z</time>
      </trkpt>
      <trkpt lat="49.08579" lon="1.41474">
        <ele>134.2</ele>
        <time>2021-04-14T16:08:11Z</time>
      </trkpt>
      <trkpt lat="49.08581" lon="1.41479">
        <ele>134.6</ele>
        <time>2021-04-14T16:08:14Z</time>
      </trkpt>
      <trkpt lat="49.08583" lon="1.41497">
        <ele>136</ele>
        <time>2021-04-14T16:12:03Z</time>
      </trkpt>
      <trkpt lat="49.08586" lon="1.41506">
        <ele>135.8</ele>
        <time>2021-04-14T16:12:07Z</time>
      </trkpt>
      <trkpt lat="49.08593" lon="1.41526">
        <ele>135.8</ele>
        <time>2021-04-14T16:12:12Z</time>
      </trkpt>
      <trkpt lat="49.08601" lon="1.41546">
        <ele>135.8</ele>
        <time>2021-04-14T16:12:17Z</time>
      </trkpt>
      <trkpt lat="49.08608" lon="1.41562">
        <ele>136.2</ele>
        <time>2021-04-14T16:12:21Z</time>
      </trkpt>
      <trkpt lat="49.08618" lon="1.41586">
        <ele>136.6</ele>
        <time>2021-04-14T16:12:26Z</time>
      </trkpt>
      <trkpt lat="49.08626" lon="1.41608">
        <ele>137</ele>
        <time>2021-04-14T16:12:31Z</time>
      </trkpt>
      <trkpt lat="49.08632" lon="1.4163">
        <ele>137.2</ele>
        <time>2021-04-14T16:12:35Z</time>
      </trkpt>
      <trkpt lat="49.08636" lon="1.41639">
        <ele>137.2</ele>
        <time>2021-04-14T16:12:37Z</time>
      </trkpt>
      <trkpt lat="49.08643" lon="1.41656">
        <ele>137.4</ele>
        <time>2021-04-14T16:12:41Z</time>
      </trkpt>
      <trkpt lat="49.08649" lon="1.41676">
        <ele>137.4</ele>
        <time>2021-04-14T16:12:45Z</time>
      </trkpt>
      <trkpt lat="49.08657" lon="1.41695">
        <ele>137.6</ele>
        <time>2021-04-14T16:12:50Z</time>
      </trkpt>
      <trkpt lat="49.08665" lon="1.41707">
        <ele>137.8</ele>
        <time>2021-04-14T16:12:54Z</time>
      </trkpt>
      <trkpt lat="49.08667" lon="1.41711">
        <ele>137.8</ele>
        <time>2021-04-14T16:12:55Z</time>
      </trkpt>
      <trkpt lat="49.08678" lon="1.41737">
        <ele>138</ele>
        <time>2021-04-14T16:13:01Z</time>
      </trkpt>
      <trkpt lat="49.0868" lon="1.41747">
        <ele>138.2</ele>
        <time>2021-04-14T16:13:03Z</time>
      </trkpt>
      <trkpt lat="49.08686" lon="1.41753">
        <ele>138.2</ele>
        <time>2021-04-14T16:13:05Z</time>
      </trkpt>
      <trkpt lat="49.08688" lon="1.41757">
        <ele>138.2</ele>
        <time>2021-04-14T16:13:06Z</time>
      </trkpt>
      <trkpt lat="49.0869" lon="1.41767">
        <ele>138.2</ele>
        <time>2021-04-14T16:13:08Z</time>
      </trkpt>
      <trkpt lat="49.08691" lon="1.41771">
        <ele>138.2</ele>
        <time>2021-04-14T16:13:09Z</time>
      </trkpt>
      <trkpt lat="49.08696" lon="1.41787">
        <ele>138.4</ele>
        <time>2021-04-14T16:13:13Z</time>
      </trkpt>
      <trkpt lat="49.08706" lon="1.41803">
        <ele>138.8</ele>
        <time>2021-04-14T16:13:18Z</time>
      </trkpt>
      <trkpt lat="49.08708" lon="1.41809">
        <ele>139</ele>
        <time>2021-04-14T16:13:20Z</time>
      </trkpt>
      <trkpt lat="49.08707" lon="1.41814">
        <ele>139.2</ele>
        <time>2021-04-14T16:13:22Z</time>
      </trkpt>
      <trkpt lat="49.08705" lon="1.41819">
        <ele>139.2</ele>
        <time>2021-04-14T16:13:24Z</time>
      </trkpt>
      <trkpt lat="49.08706" lon="1.41828">
        <ele>139.4</ele>
        <time>2021-04-14T16:13:26Z</time>
      </trkpt>
      <trkpt lat="49.0871" lon="1.41837">
        <ele>139.6</ele>
        <time>2021-04-14T16:13:28Z</time>
      </trkpt>
      <trkpt lat="49.08713" lon="1.41846">
        <ele>139.8</ele>
        <time>2021-04-14T16:13:30Z</time>
      </trkpt>
      <trkpt lat="49.08722" lon="1.41869">
        <ele>140</ele>
        <time>2021-04-14T16:13:35Z</time>
      </trkpt>
      <trkpt lat="49.08725" lon="1.41882">
        <ele>140.4</ele>
        <time>2021-04-14T16:13:38Z</time>
      </trkpt>
      <trkpt lat="49.08729" lon="1.41898">
        <ele>140.6</ele>
        <time>2021-04-14T16:13:41Z</time>
      </trkpt>
      <trkpt lat="49.08736" lon="1.41919">
        <ele>140.6</ele>
        <time>2021-04-14T16:13:45Z</time>
      </trkpt>
      <trkpt lat="49.08743" lon="1.41947">
        <ele>141</ele>
        <time>2021-04-14T16:13:50Z</time>
      </trkpt>
      <trkpt lat="49.08749" lon="1.41966">
        <ele>141.4</ele>
        <time>2021-04-14T16:13:53Z</time>
      </trkpt>
      <trkpt lat="49.08757" lon="1.41985">
        <ele>141.6</ele>
        <time>2021-04-14T16:13:56Z</time>
      </trkpt>
      <trkpt lat="49.08768" lon="1.42017">
        <ele>142</ele>
        <time>2021-04-14T16:14:01Z</time>
      </trkpt>
      <trkpt lat="49.08777" lon="1.42042">
        <ele>142.4</ele>
        <time>2021-04-14T16:14:05Z</time>
      </trkpt>
      <trkpt lat="49.08779" lon="1.42049">
        <ele>142.4</ele>
        <time>2021-04-14T16:14:06Z</time>
      </trkpt>
      <trkpt lat="49.08782" lon="1.42055">
        <ele>142.4</ele>
        <time>2021-04-14T16:14:07Z</time>
      </trkpt>
      <trkpt lat="49.08793" lon="1.42084">
        <ele>142.6</ele>
        <time>2021-04-14T16:14:12Z</time>
      </trkpt>
      <trkpt lat="49.08796" lon="1.4209">
        <ele>142.6</ele>
        <time>2021-04-14T16:14:13Z</time>
      </trkpt>
      <trkpt lat="49.08812" lon="1.42132">
        <ele>143</ele>
        <time>2021-04-14T16:14:20Z</time>
      </trkpt>
      <trkpt lat="49.08825" lon="1.42166">
        <ele>143.6</ele>
        <time>2021-04-14T16:14:26Z</time>
      </trkpt>
      <trkpt lat="49.08844" lon="1.4222">
        <ele>144</ele>
        <time>2021-04-14T16:14:35Z</time>
      </trkpt>
      <trkpt lat="49.08859" lon="1.42263">
        <ele>144.6</ele>
        <time>2021-04-14T16:14:42Z</time>
      </trkpt>
      <trkpt lat="49.08873" lon="1.423">
        <ele>144.6</ele>
        <time>2021-04-14T16:14:48Z</time>
      </trkpt>
      <trkpt lat="49.08885" lon="1.42338">
        <ele>144.6</ele>
        <time>2021-04-14T16:14:54Z</time>
      </trkpt>
      <trkpt lat="49.08889" lon="1.42351">
        <ele>144.6</ele>
        <time>2021-04-14T16:14:56Z</time>
      </trkpt>
      <trkpt lat="49.08906" lon="1.42401">
        <ele>144.4</ele>
        <time>2021-04-14T16:15:04Z</time>
      </trkpt>
      <trkpt lat="49.08908" lon="1.42406">
        <ele>144.4</ele>
        <time>2021-04-14T16:15:05Z</time>
      </trkpt>
      <trkpt lat="49.08916" lon="1.42429">
        <ele>144.4</ele>
        <time>2021-04-14T16:15:09Z</time>
      </trkpt>
      <trkpt lat="49.08918" lon="1.42435">
        <ele>144.4</ele>
        <time>2021-04-14T16:15:10Z</time>
      </trkpt>
      <trkpt lat="49.08936" lon="1.42487">
        <ele>144.4</ele>
        <time>2021-04-14T16:15:19Z</time>
      </trkpt>
      <trkpt lat="49.08954" lon="1.42536">
        <ele>144</ele>
        <time>2021-04-14T16:15:28Z</time>
      </trkpt>
      <trkpt lat="49.08974" lon="1.42591">
        <ele>144</ele>
        <time>2021-04-14T16:15:38Z</time>
      </trkpt>
      <trkpt lat="49.08996" lon="1.42653">
        <ele>144.2</ele>
        <time>2021-04-14T16:15:49Z</time>
      </trkpt>
      <trkpt lat="49.09007" lon="1.42686">
        <ele>144.6</ele>
        <time>2021-04-14T16:15:55Z</time>
      </trkpt>
      <trkpt lat="49.09011" lon="1.42698">
        <ele>144.6</ele>
        <time>2021-04-14T16:15:57Z</time>
      </trkpt>
      <trkpt lat="49.09017" lon="1.42714">
        <ele>144.8</ele>
        <time>2021-04-14T16:16:00Z</time>
      </trkpt>
      <trkpt lat="49.09032" lon="1.42754">
        <ele>145</ele>
        <time>2021-04-14T16:16:07Z</time>
      </trkpt>
      <trkpt lat="49.0905" lon="1.42808">
        <ele>145.2</ele>
        <time>2021-04-14T16:16:16Z</time>
      </trkpt>
      <trkpt lat="49.09071" lon="1.42867">
        <ele>145</ele>
        <time>2021-04-14T16:16:26Z</time>
      </trkpt>
      <trkpt lat="49.09086" lon="1.42912">
        <ele>144.8</ele>
        <time>2021-04-14T16:16:33Z</time>
      </trkpt>
      <trkpt lat="49.09101" lon="1.42958">
        <ele>144.4</ele>
        <time>2021-04-14T16:16:40Z</time>
      </trkpt>
      <trkpt lat="49.09126" lon="1.43028">
        <ele>144.2</ele>
        <time>2021-04-14T16:16:51Z</time>
      </trkpt>
      <trkpt lat="49.09138" lon="1.43065">
        <ele>144</ele>
        <time>2021-04-14T16:16:57Z</time>
      </trkpt>
      <trkpt lat="49.09142" lon="1.43074">
        <ele>143.8</ele>
        <time>2021-04-14T16:16:59Z</time>
      </trkpt>
      <trkpt lat="49.09147" lon="1.43082">
        <ele>143.8</ele>
        <time>2021-04-14T16:17:02Z</time>
      </trkpt>
      <trkpt lat="49.09148" lon="1.43085">
        <ele>143.6</ele>
        <time>2021-04-14T16:17:03Z</time>
      </trkpt>
      <trkpt lat="49.09142" lon="1.43094">
        <ele>143.6</ele>
        <time>2021-04-14T16:17:06Z</time>
      </trkpt>
      <trkpt lat="49.09138" lon="1.43096">
        <ele>143.6</ele>
        <time>2021-04-14T16:17:07Z</time>
      </trkpt>
      <trkpt lat="49.09126" lon="1.43103">
        <ele>143.6</ele>
        <time>2021-04-14T16:17:10Z</time>
      </trkpt>
      <trkpt lat="49.09117" lon="1.43108">
        <ele>143.6</ele>
        <time>2021-04-14T16:17:12Z</time>
      </trkpt>
      <trkpt lat="49.09079" lon="1.4313">
        <ele>143.6</ele>
        <time>2021-04-14T16:17:20Z</time>
      </trkpt>
      <trkpt lat="49.09043" lon="1.43154">
        <ele>143.2</ele>
        <time>2021-04-14T16:17:27Z</time>
      </trkpt>
      <trkpt lat="49.09038" lon="1.43158">
        <ele>143.2</ele>
        <time>2021-04-14T16:17:28Z</time>
      </trkpt>
      <trkpt lat="49.08996" lon="1.43192">
        <ele>142.8</ele>
        <time>2021-04-14T16:17:36Z</time>
      </trkpt>
      <trkpt lat="49.08958" lon="1.43225">
        <ele>142.4</ele>
        <time>2021-04-14T16:17:43Z</time>
      </trkpt>
      <trkpt lat="49.08922" lon="1.43261">
        <ele>142.2</ele>
        <time>2021-04-14T16:17:50Z</time>
      </trkpt>
      <trkpt lat="49.08886" lon="1.43299">
        <ele>142.2</ele>
        <time>2021-04-14T16:17:57Z</time>
      </trkpt>
      <trkpt lat="49.08882" lon="1.43305">
        <ele>142.2</ele>
        <time>2021-04-14T16:17:58Z</time>
      </trkpt>
      <trkpt lat="49.0884" lon="1.43357">
        <ele>142.2</ele>
        <time>2021-04-14T16:18:07Z</time>
      </trkpt>
      <trkpt lat="49.08835" lon="1.43363">
        <ele>142.2</ele>
        <time>2021-04-14T16:18:08Z</time>
      </trkpt>
      <trkpt lat="49.08794" lon="1.43422">
        <ele>143</ele>
        <time>2021-04-14T16:18:18Z</time>
      </trkpt>
      <trkpt lat="49.08782" lon="1.4344">
        <ele>143.2</ele>
        <time>2021-04-14T16:18:21Z</time>
      </trkpt>
      <trkpt lat="49.0876" lon="1.43476">
        <ele>143.8</ele>
        <time>2021-04-14T16:18:27Z</time>
      </trkpt>
      <trkpt lat="49.0875" lon="1.43495">
        <ele>144.2</ele>
        <time>2021-04-14T16:18:30Z</time>
      </trkpt>
      <trkpt lat="49.08747" lon="1.4351">
        <ele>144.6</ele>
        <time>2021-04-14T16:18:32Z</time>
      </trkpt>
      <trkpt lat="49.08738" lon="1.43528">
        <ele>144.8</ele>
        <time>2021-04-14T16:18:35Z</time>
      </trkpt>
      <trkpt lat="49.08734" lon="1.43533">
        <ele>145.2</ele>
        <time>2021-04-14T16:18:36Z</time>
      </trkpt>
      <trkpt lat="49.08732" lon="1.43539">
        <ele>145.4</ele>
        <time>2021-04-14T16:18:37Z</time>
      </trkpt>
      <trkpt lat="49.08731" lon="1.43545">
        <ele>145.4</ele>
        <time>2021-04-14T16:18:38Z</time>
      </trkpt>
      <trkpt lat="49.08731" lon="1.43551">
        <ele>145.6</ele>
        <time>2021-04-14T16:18:39Z</time>
      </trkpt>
      <trkpt lat="49.08737" lon="1.43555">
        <ele>146</ele>
        <time>2021-04-14T16:18:41Z</time>
      </trkpt>
      <trkpt lat="49.0874" lon="1.4355">
        <ele>146.2</ele>
        <time>2021-04-14T16:18:43Z</time>
      </trkpt>
      <trkpt lat="49.08744" lon="1.43547">
        <ele>146.4</ele>
        <time>2021-04-14T16:18:45Z</time>
      </trkpt>
      <trkpt lat="49.08746" lon="1.43548">
        <ele>146.4</ele>
        <time>2021-04-14T16:18:46Z</time>
      </trkpt>
      <trkpt lat="49.08757" lon="1.43549">
        <ele>146.4</ele>
        <time>2021-04-14T16:18:49Z</time>
      </trkpt>
      <trkpt lat="49.08793" lon="1.43545">
        <ele>145.8</ele>
        <time>2021-04-14T16:18:57Z</time>
      </trkpt>
      <trkpt lat="49.08806" lon="1.43536">
        <ele>145.2</ele>
        <time>2021-04-14T16:19:00Z</time>
      </trkpt>
      <trkpt lat="49.0881" lon="1.43531">
        <ele>145</ele>
        <time>2021-04-14T16:19:01Z</time>
      </trkpt>
      <trkpt lat="49.08827" lon="1.43515">
        <ele>144</ele>
        <time>2021-04-14T16:19:05Z</time>
      </trkpt>
      <trkpt lat="49.08836" lon="1.43513">
        <ele>143.6</ele>
        <time>2021-04-14T16:19:07Z</time>
      </trkpt>
      <trkpt lat="49.08846" lon="1.43513">
        <ele>143.2</ele>
        <time>2021-04-14T16:19:09Z</time>
      </trkpt>
      <trkpt lat="49.08857" lon="1.43518">
        <ele>143</ele>
        <time>2021-04-14T16:19:11Z</time>
      </trkpt>
      <trkpt lat="49.08867" lon="1.4353">
        <ele>142.8</ele>
        <time>2021-04-14T16:19:13Z</time>
      </trkpt>
      <trkpt lat="49.08879" lon="1.43545">
        <ele>142.8</ele>
        <time>2021-04-14T16:19:15Z</time>
      </trkpt>
      <trkpt lat="49.08902" lon="1.43585">
        <ele>141.6</ele>
        <time>2021-04-14T16:19:19Z</time>
      </trkpt>
      <trkpt lat="49.08908" lon="1.43597">
        <ele>141</ele>
        <time>2021-04-14T16:19:20Z</time>
      </trkpt>
      <trkpt lat="49.08914" lon="1.43608">
        <ele>140.4</ele>
        <time>2021-04-14T16:19:21Z</time>
      </trkpt>
      <trkpt lat="49.08925" lon="1.43629">
        <ele>137.8</ele>
        <time>2021-04-14T16:19:23Z</time>
      </trkpt>
      <trkpt lat="49.08931" lon="1.43639">
        <ele>136.6</ele>
        <time>2021-04-14T16:19:24Z</time>
      </trkpt>
      <trkpt lat="49.08937" lon="1.43649">
        <ele>135.2</ele>
        <time>2021-04-14T16:19:25Z</time>
      </trkpt>
      <trkpt lat="49.08943" lon="1.43659">
        <ele>134.2</ele>
        <time>2021-04-14T16:19:26Z</time>
      </trkpt>
      <trkpt lat="49.08948" lon="1.43669">
        <ele>133</ele>
        <time>2021-04-14T16:19:27Z</time>
      </trkpt>
      <trkpt lat="49.08954" lon="1.43679">
        <ele>132</ele>
        <time>2021-04-14T16:19:28Z</time>
      </trkpt>
      <trkpt lat="49.08959" lon="1.43689">
        <ele>130.8</ele>
        <time>2021-04-14T16:19:29Z</time>
      </trkpt>
      <trkpt lat="49.08965" lon="1.43698">
        <ele>129.8</ele>
        <time>2021-04-14T16:19:30Z</time>
      </trkpt>
      <trkpt lat="49.08975" lon="1.43717">
        <ele>128.2</ele>
        <time>2021-04-14T16:19:32Z</time>
      </trkpt>
      <trkpt lat="49.08981" lon="1.43726">
        <ele>127.6</ele>
        <time>2021-04-14T16:19:33Z</time>
      </trkpt>
      <trkpt lat="49.08986" lon="1.43735">
        <ele>126.8</ele>
        <time>2021-04-14T16:19:34Z</time>
      </trkpt>
      <trkpt lat="49.08993" lon="1.43743">
        <ele>125.8</ele>
        <time>2021-04-14T16:19:35Z</time>
      </trkpt>
      <trkpt lat="49.09" lon="1.43751">
        <ele>124.8</ele>
        <time>2021-04-14T16:19:36Z</time>
      </trkpt>
      <trkpt lat="49.09007" lon="1.43757">
        <ele>123.8</ele>
        <time>2021-04-14T16:19:37Z</time>
      </trkpt>
      <trkpt lat="49.09014" lon="1.43762">
        <ele>122.6</ele>
        <time>2021-04-14T16:19:38Z</time>
      </trkpt>
      <trkpt lat="49.0902" lon="1.43767">
        <ele>121.6</ele>
        <time>2021-04-14T16:19:39Z</time>
      </trkpt>
      <trkpt lat="49.09025" lon="1.43772">
        <ele>120.4</ele>
        <time>2021-04-14T16:19:40Z</time>
      </trkpt>
      <trkpt lat="49.09032" lon="1.43779">
        <ele>119.6</ele>
        <time>2021-04-14T16:19:41Z</time>
      </trkpt>
      <trkpt lat="49.09039" lon="1.43786">
        <ele>118.4</ele>
        <time>2021-04-14T16:19:42Z</time>
      </trkpt>
      <trkpt lat="49.09046" lon="1.43794">
        <ele>117</ele>
        <time>2021-04-14T16:19:43Z</time>
      </trkpt>
      <trkpt lat="49.09052" lon="1.43801">
        <ele>115.8</ele>
        <time>2021-04-14T16:19:44Z</time>
      </trkpt>
      <trkpt lat="49.0906" lon="1.43809">
        <ele>114.8</ele>
        <time>2021-04-14T16:19:45Z</time>
      </trkpt>
      <trkpt lat="49.09068" lon="1.43818">
        <ele>113.8</ele>
        <time>2021-04-14T16:19:46Z</time>
      </trkpt>
      <trkpt lat="49.09076" lon="1.43827">
        <ele>113</ele>
        <time>2021-04-14T16:19:47Z</time>
      </trkpt>
      <trkpt lat="49.09084" lon="1.43837">
        <ele>112.2</ele>
        <time>2021-04-14T16:19:48Z</time>
      </trkpt>
      <trkpt lat="49.09098" lon="1.43857">
        <ele>110.4</ele>
        <time>2021-04-14T16:19:50Z</time>
      </trkpt>
      <trkpt lat="49.09104" lon="1.43866">
        <ele>108.4</ele>
        <time>2021-04-14T16:19:51Z</time>
      </trkpt>
      <trkpt lat="49.0911" lon="1.43875">
        <ele>107.4</ele>
        <time>2021-04-14T16:19:52Z</time>
      </trkpt>
      <trkpt lat="49.09123" lon="1.43892">
        <ele>105.6</ele>
        <time>2021-04-14T16:19:54Z</time>
      </trkpt>
      <trkpt lat="49.09137" lon="1.4391">
        <ele>104.2</ele>
        <time>2021-04-14T16:19:56Z</time>
      </trkpt>
      <trkpt lat="49.0915" lon="1.43927">
        <ele>102.6</ele>
        <time>2021-04-14T16:19:58Z</time>
      </trkpt>
      <trkpt lat="49.09165" lon="1.43945">
        <ele>101</ele>
        <time>2021-04-14T16:20:00Z</time>
      </trkpt>
      <trkpt lat="49.09181" lon="1.43964">
        <ele>99.4</ele>
        <time>2021-04-14T16:20:02Z</time>
      </trkpt>
      <trkpt lat="49.09196" lon="1.43988">
        <ele>98</ele>
        <time>2021-04-14T16:20:04Z</time>
      </trkpt>
      <trkpt lat="49.09209" lon="1.44011">
        <ele>97</ele>
        <time>2021-04-14T16:20:06Z</time>
      </trkpt>
      <trkpt lat="49.09216" lon="1.44022">
        <ele>96.4</ele>
        <time>2021-04-14T16:20:07Z</time>
      </trkpt>
      <trkpt lat="49.09229" lon="1.44044">
        <ele>95.2</ele>
        <time>2021-04-14T16:20:09Z</time>
      </trkpt>
      <trkpt lat="49.09239" lon="1.4406">
        <ele>93.6</ele>
        <time>2021-04-14T16:20:11Z</time>
      </trkpt>
      <trkpt lat="49.09245" lon="1.44066">
        <ele>91.8</ele>
        <time>2021-04-14T16:20:13Z</time>
      </trkpt>
      <trkpt lat="49.0925" lon="1.44068">
        <ele>90</ele>
        <time>2021-04-14T16:20:15Z</time>
      </trkpt>
      <trkpt lat="49.09253" lon="1.44072">
        <ele>88.2</ele>
        <time>2021-04-14T16:20:17Z</time>
      </trkpt>
      <trkpt lat="49.09254" lon="1.44072">
        <ele>87</ele>
        <time>2021-04-14T16:20:19Z</time>
      </trkpt>
      <trkpt lat="49.09257" lon="1.44073">
        <ele>86.6</ele>
        <time>2021-04-14T16:21:07Z</time>
      </trkpt>
      <trkpt lat="49.09259" lon="1.44075">
        <ele>86.6</ele>
        <time>2021-04-14T16:21:08Z</time>
      </trkpt>
      <trkpt lat="49.09273" lon="1.44089">
        <ele>86.6</ele>
        <time>2021-04-14T16:21:15Z</time>
      </trkpt>
      <trkpt lat="49.09283" lon="1.44101">
        <ele>85.8</ele>
        <time>2021-04-14T16:21:19Z</time>
      </trkpt>
      <trkpt lat="49.09286" lon="1.44105">
        <ele>85.6</ele>
        <time>2021-04-14T16:21:20Z</time>
      </trkpt>
      <trkpt lat="49.09294" lon="1.44125">
        <ele>84.6</ele>
        <time>2021-04-14T16:21:24Z</time>
      </trkpt>
      <trkpt lat="49.09297" lon="1.44138">
        <ele>84</ele>
        <time>2021-04-14T16:21:26Z</time>
      </trkpt>
      <trkpt lat="49.093" lon="1.44151">
        <ele>83.4</ele>
        <time>2021-04-14T16:21:28Z</time>
      </trkpt>
      <trkpt lat="49.09302" lon="1.44164">
        <ele>82.6</ele>
        <time>2021-04-14T16:21:30Z</time>
      </trkpt>
      <trkpt lat="49.09303" lon="1.44171">
        <ele>82.4</ele>
        <time>2021-04-14T16:21:31Z</time>
      </trkpt>
      <trkpt lat="49.09305" lon="1.44178">
        <ele>82</ele>
        <time>2021-04-14T16:21:32Z</time>
      </trkpt>
      <trkpt lat="49.09307" lon="1.44189">
        <ele>81.4</ele>
        <time>2021-04-14T16:21:34Z</time>
      </trkpt>
      <trkpt lat="49.09309" lon="1.442">
        <ele>80.4</ele>
        <time>2021-04-14T16:21:36Z</time>
      </trkpt>
      <trkpt lat="49.09311" lon="1.44205">
        <ele>80.2</ele>
        <time>2021-04-14T16:21:37Z</time>
      </trkpt>
      <trkpt lat="49.09317" lon="1.44208">
        <ele>79.6</ele>
        <time>2021-04-14T16:21:39Z</time>
      </trkpt>
      <trkpt lat="49.09324" lon="1.44203">
        <ele>78.8</ele>
        <time>2021-04-14T16:21:41Z</time>
      </trkpt>
      <trkpt lat="49.09328" lon="1.44198">
        <ele>78.4</ele>
        <time>2021-04-14T16:21:42Z</time>
      </trkpt>
      <trkpt lat="49.09331" lon="1.44194">
        <ele>78</ele>
        <time>2021-04-14T16:21:43Z</time>
      </trkpt>
      <trkpt lat="49.09334" lon="1.44189">
        <ele>77.4</ele>
        <time>2021-04-14T16:21:44Z</time>
      </trkpt>
      <trkpt lat="49.09342" lon="1.44176">
        <ele>76.4</ele>
        <time>2021-04-14T16:21:47Z</time>
      </trkpt>
      <trkpt lat="49.09345" lon="1.44172">
        <ele>76.4</ele>
        <time>2021-04-14T16:21:48Z</time>
      </trkpt>
      <trkpt lat="49.09352" lon="1.44165">
        <ele>76</ele>
        <time>2021-04-14T16:21:50Z</time>
      </trkpt>
      <trkpt lat="49.0936" lon="1.4416">
        <ele>75.8</ele>
        <time>2021-04-14T16:21:52Z</time>
      </trkpt>
      <trkpt lat="49.0938" lon="1.44159">
        <ele>75.4</ele>
        <time>2021-04-14T16:21:57Z</time>
      </trkpt>
      <trkpt lat="49.09384" lon="1.4416">
        <ele>75.4</ele>
        <time>2021-04-14T16:21:58Z</time>
      </trkpt>
      <trkpt lat="49.09392" lon="1.44165">
        <ele>75.4</ele>
        <time>2021-04-14T16:22:00Z</time>
      </trkpt>
      <trkpt lat="49.09403" lon="1.44174">
        <ele>75.4</ele>
        <time>2021-04-14T16:22:03Z</time>
      </trkpt>
      <trkpt lat="49.0942" lon="1.44198">
        <ele>76</ele>
        <time>2021-04-14T16:22:09Z</time>
      </trkpt>
      <trkpt lat="49.09434" lon="1.4421">
        <ele>76.6</ele>
        <time>2021-04-14T16:22:13Z</time>
      </trkpt>
      <trkpt lat="49.09442" lon="1.44214">
        <ele>76.6</ele>
        <time>2021-04-14T16:22:15Z</time>
      </trkpt>
      <trkpt lat="49.09472" lon="1.44227">
        <ele>77.4</ele>
        <time>2021-04-14T16:22:23Z</time>
      </trkpt>
      <trkpt lat="49.0949" lon="1.44229">
        <ele>78.4</ele>
        <time>2021-04-14T16:22:28Z</time>
      </trkpt>
      <trkpt lat="49.09495" lon="1.44228">
        <ele>78.6</ele>
        <time>2021-04-14T16:22:30Z</time>
      </trkpt>
      <trkpt lat="49.09497" lon="1.44229">
        <ele>78.8</ele>
        <time>2021-04-14T16:22:31Z</time>
      </trkpt>
      <trkpt lat="49.09499" lon="1.44231">
        <ele>79</ele>
        <time>2021-04-14T16:22:32Z</time>
      </trkpt>
      <trkpt lat="49.09505" lon="1.44236">
        <ele>79.4</ele>
        <time>2021-04-14T16:22:35Z</time>
      </trkpt>
      <trkpt lat="49.09511" lon="1.44243">
        <ele>79.4</ele>
        <time>2021-04-14T16:22:37Z</time>
      </trkpt>
      <trkpt lat="49.09514" lon="1.44247">
        <ele>79.6</ele>
        <time>2021-04-14T16:22:38Z</time>
      </trkpt>
      <trkpt lat="49.09526" lon="1.44256">
        <ele>79.6</ele>
        <time>2021-04-14T16:22:41Z</time>
      </trkpt>
      <trkpt lat="49.09534" lon="1.44263">
        <ele>79.8</ele>
        <time>2021-04-14T16:22:43Z</time>
      </trkpt>
      <trkpt lat="49.09545" lon="1.44279">
        <ele>80</ele>
        <time>2021-04-14T16:22:47Z</time>
      </trkpt>
      <trkpt lat="49.09566" lon="1.44312">
        <ele>80.2</ele>
        <time>2021-04-14T16:22:54Z</time>
      </trkpt>
      <trkpt lat="49.09587" lon="1.44347">
        <ele>80.6</ele>
        <time>2021-04-14T16:23:01Z</time>
      </trkpt>
      <trkpt lat="49.09614" lon="1.4438">
        <ele>80.8</ele>
        <time>2021-04-14T16:23:09Z</time>
      </trkpt>
      <trkpt lat="49.09632" lon="1.44399">
        <ele>80.8</ele>
        <time>2021-04-14T16:23:15Z</time>
      </trkpt>
      <trkpt lat="49.09644" lon="1.44404">
        <ele>80.8</ele>
        <time>2021-04-14T16:23:19Z</time>
      </trkpt>
      <trkpt lat="49.09648" lon="1.44403">
        <ele>81</ele>
        <time>2021-04-14T16:23:20Z</time>
      </trkpt>
      <trkpt lat="49.09659" lon="1.44387">
        <ele>81.6</ele>
        <time>2021-04-14T16:23:25Z</time>
      </trkpt>
      <trkpt lat="49.09668" lon="1.44374">
        <ele>82</ele>
        <time>2021-04-14T16:23:29Z</time>
      </trkpt>
      <trkpt lat="49.09678" lon="1.44359">
        <ele>83</ele>
        <time>2021-04-14T16:23:34Z</time>
      </trkpt>
      <trkpt lat="49.0968" lon="1.44356">
        <ele>83.2</ele>
        <time>2021-04-14T16:23:35Z</time>
      </trkpt>
      <trkpt lat="49.09682" lon="1.44341">
        <ele>84.4</ele>
        <time>2021-04-14T16:23:39Z</time>
      </trkpt>
      <trkpt lat="49.09682" lon="1.44325">
        <ele>85.6</ele>
        <time>2021-04-14T16:23:43Z</time>
      </trkpt>
      <trkpt lat="49.09683" lon="1.44309">
        <ele>86.4</ele>
        <time>2021-04-14T16:23:47Z</time>
      </trkpt>
      <trkpt lat="49.09685" lon="1.44302">
        <ele>86.6</ele>
        <time>2021-04-14T16:23:49Z</time>
      </trkpt>
      <trkpt lat="49.09689" lon="1.44297">
        <ele>86.8</ele>
        <time>2021-04-14T16:23:51Z</time>
      </trkpt>
      <trkpt lat="49.09694" lon="1.44293">
        <ele>87</ele>
        <time>2021-04-14T16:23:53Z</time>
      </trkpt>
      <trkpt lat="49.09702" lon="1.44288">
        <ele>87.6</ele>
        <time>2021-04-14T16:23:56Z</time>
      </trkpt>
      <trkpt lat="49.09712" lon="1.44281">
        <ele>88.6</ele>
        <time>2021-04-14T16:24:00Z</time>
      </trkpt>
      <trkpt lat="49.09736" lon="1.44263">
        <ele>89.8</ele>
        <time>2021-04-14T16:24:09Z</time>
      </trkpt>
      <trkpt lat="49.09754" lon="1.44249">
        <ele>90.6</ele>
        <time>2021-04-14T16:24:15Z</time>
      </trkpt>
      <trkpt lat="49.09759" lon="1.44243">
        <ele>91</ele>
        <time>2021-04-14T16:24:17Z</time>
      </trkpt>
      <trkpt lat="49.09772" lon="1.44228">
        <ele>91.4</ele>
        <time>2021-04-14T16:24:22Z</time>
      </trkpt>
      <trkpt lat="49.09781" lon="1.4421">
        <ele>91.4</ele>
        <time>2021-04-14T16:24:27Z</time>
      </trkpt>
      <trkpt lat="49.09786" lon="1.44195">
        <ele>91.4</ele>
        <time>2021-04-14T16:24:30Z</time>
      </trkpt>
      <trkpt lat="49.09785" lon="1.4419">
        <ele>91.2</ele>
        <time>2021-04-14T16:24:31Z</time>
      </trkpt>
      <trkpt lat="49.09782" lon="1.44182">
        <ele>91.2</ele>
        <time>2021-04-14T16:24:33Z</time>
      </trkpt>
      <trkpt lat="49.09776" lon="1.4417">
        <ele>91</ele>
        <time>2021-04-14T16:24:36Z</time>
      </trkpt>
      <trkpt lat="49.09776" lon="1.44166">
        <ele>91</ele>
        <time>2021-04-14T16:24:37Z</time>
      </trkpt>
      <trkpt lat="49.09779" lon="1.44158">
        <ele>91</ele>
        <time>2021-04-14T16:24:39Z</time>
      </trkpt>
      <trkpt lat="49.09796" lon="1.44133">
        <ele>91.6</ele>
        <time>2021-04-14T16:24:45Z</time>
      </trkpt>
      <trkpt lat="49.09815" lon="1.44102">
        <ele>91.8</ele>
        <time>2021-04-14T16:24:52Z</time>
      </trkpt>
      <trkpt lat="49.09823" lon="1.44084">
        <ele>91.8</ele>
        <time>2021-04-14T16:24:57Z</time>
      </trkpt>
      <trkpt lat="49.09815" lon="1.44072">
        <ele>91.8</ele>
        <time>2021-04-14T16:25:01Z</time>
      </trkpt>
      <trkpt lat="49.09806" lon="1.44059">
        <ele>92.2</ele>
        <time>2021-04-14T16:25:05Z</time>
      </trkpt>
      <trkpt lat="49.09801" lon="1.44049">
        <ele>92.6</ele>
        <time>2021-04-14T16:25:08Z</time>
      </trkpt>
      <trkpt lat="49.09807" lon="1.44039">
        <ele>93.2</ele>
        <time>2021-04-14T16:25:11Z</time>
      </trkpt>
      <trkpt lat="49.09817" lon="1.44027">
        <ele>94.4</ele>
        <time>2021-04-14T16:25:14Z</time>
      </trkpt>
      <trkpt lat="49.09827" lon="1.44013">
        <ele>95.2</ele>
        <time>2021-04-14T16:25:18Z</time>
      </trkpt>
      <trkpt lat="49.09846" lon="1.43988">
        <ele>95.2</ele>
        <time>2021-04-14T16:25:24Z</time>
      </trkpt>
      <trkpt lat="49.09863" lon="1.43965">
        <ele>94.8</ele>
        <time>2021-04-14T16:25:30Z</time>
      </trkpt>
      <trkpt lat="49.09873" lon="1.43949">
        <ele>94.6</ele>
        <time>2021-04-14T16:25:35Z</time>
      </trkpt>
      <trkpt lat="49.0987" lon="1.43932">
        <ele>94.8</ele>
        <time>2021-04-14T16:25:39Z</time>
      </trkpt>
      <trkpt lat="49.09869" lon="1.43927">
        <ele>95</ele>
        <time>2021-04-14T16:25:40Z</time>
      </trkpt>
      <trkpt lat="49.09866" lon="1.43901">
        <ele>95</ele>
        <time>2021-04-14T16:25:45Z</time>
      </trkpt>
      <trkpt lat="49.09872" lon="1.43872">
        <ele>95.4</ele>
        <time>2021-04-14T16:25:51Z</time>
      </trkpt>
      <trkpt lat="49.0989" lon="1.43835">
        <ele>96.4</ele>
        <time>2021-04-14T16:26:00Z</time>
      </trkpt>
      <trkpt lat="49.09892" lon="1.4383">
        <ele>96.8</ele>
        <time>2021-04-14T16:26:01Z</time>
      </trkpt>
      <trkpt lat="49.09897" lon="1.43809">
        <ele>97.4</ele>
        <time>2021-04-14T16:26:06Z</time>
      </trkpt>
      <trkpt lat="49.09898" lon="1.43807">
        <ele>97.6</ele>
        <time>2021-04-14T16:26:07Z</time>
      </trkpt>
      <trkpt lat="49.09901" lon="1.43805">
        <ele>98</ele>
        <time>2021-04-14T16:26:09Z</time>
      </trkpt>
      <trkpt lat="49.09903" lon="1.43803">
        <ele>98.2</ele>
        <time>2021-04-14T16:26:10Z</time>
      </trkpt>
      <trkpt lat="49.09918" lon="1.43787">
        <ele>99</ele>
        <time>2021-04-14T16:26:15Z</time>
      </trkpt>
      <trkpt lat="49.09926" lon="1.43778">
        <ele>99</ele>
        <time>2021-04-14T16:26:17Z</time>
      </trkpt>
      <trkpt lat="49.09935" lon="1.43768">
        <ele>99</ele>
        <time>2021-04-14T16:26:20Z</time>
      </trkpt>
      <trkpt lat="49.0995" lon="1.43751">
        <ele>98.8</ele>
        <time>2021-04-14T16:26:25Z</time>
      </trkpt>
      <trkpt lat="49.09976" lon="1.43718">
        <ele>98.4</ele>
        <time>2021-04-14T16:26:32Z</time>
      </trkpt>
      <trkpt lat="49.09996" lon="1.43694">
        <ele>97.6</ele>
        <time>2021-04-14T16:26:37Z</time>
      </trkpt>
      <trkpt lat="49.10006" lon="1.43692">
        <ele>97.2</ele>
        <time>2021-04-14T16:26:40Z</time>
      </trkpt>
      <trkpt lat="49.10009" lon="1.43693">
        <ele>97</ele>
        <time>2021-04-14T16:26:41Z</time>
      </trkpt>
      <trkpt lat="49.10013" lon="1.43695">
        <ele>96.8</ele>
        <time>2021-04-14T16:26:43Z</time>
      </trkpt>
      <trkpt lat="49.10013" lon="1.43696">
        <ele>96.8</ele>
        <time>2021-04-14T16:26:44Z</time>
      </trkpt>
      <trkpt lat="49.10014" lon="1.43696">
        <ele>96.8</ele>
        <time>2021-04-14T16:26:46Z</time>
      </trkpt>
      <trkpt lat="49.10014" lon="1.43697">
        <ele>97.4</ele>
        <time>2021-04-14T16:27:16Z</time>
      </trkpt>
      <trkpt lat="49.10014" lon="1.43697">
        <ele>97.4</ele>
        <time>2021-04-14T16:27:18Z</time>
      </trkpt>
      <trkpt lat="49.10015" lon="1.43696">
        <ele>97.6</ele>
        <time>2021-04-14T16:28:11Z</time>
      </trkpt>
      <trkpt lat="49.10017" lon="1.43692">
        <ele>97.6</ele>
        <time>2021-04-14T16:28:13Z</time>
      </trkpt>
      <trkpt lat="49.10017" lon="1.43679">
        <ele>97.6</ele>
        <time>2021-04-14T16:28:19Z</time>
      </trkpt>
      <trkpt lat="49.10017" lon="1.43679">
        <ele>97.6</ele>
        <time>2021-04-14T16:28:20Z</time>
      </trkpt>
      <trkpt lat="49.10017" lon="1.43678">
        <ele>97.6</ele>
        <time>2021-04-14T16:28:21Z</time>
      </trkpt>
      <trkpt lat="49.10017" lon="1.43676">
        <ele>98.2</ele>
        <time>2021-04-14T16:29:58Z</time>
      </trkpt>
      <trkpt lat="49.10018" lon="1.43673">
        <ele>98.4</ele>
        <time>2021-04-14T16:30:00Z</time>
      </trkpt>
      <trkpt lat="49.10018" lon="1.43674">
        <ele>98.4</ele>
        <time>2021-04-14T16:30:01Z</time>
      </trkpt>
      <trkpt lat="49.10019" lon="1.43671">
        <ele>98.2</ele>
        <time>2021-04-14T16:30:34Z</time>
      </trkpt>
      <trkpt lat="49.1002" lon="1.43665">
        <ele>98.2</ele>
        <time>2021-04-14T16:30:37Z</time>
      </trkpt>
      <trkpt lat="49.10023" lon="1.43654">
        <ele>98.2</ele>
        <time>2021-04-14T16:30:42Z</time>
      </trkpt>
      <trkpt lat="49.10026" lon="1.43645">
        <ele>98.4</ele>
        <time>2021-04-14T16:30:45Z</time>
      </trkpt>
      <trkpt lat="49.10029" lon="1.43635">
        <ele>98.8</ele>
        <time>2021-04-14T16:30:48Z</time>
      </trkpt>
      <trkpt lat="49.10035" lon="1.43613">
        <ele>99.6</ele>
        <time>2021-04-14T16:30:54Z</time>
      </trkpt>
      <trkpt lat="49.10043" lon="1.43587">
        <ele>101</ele>
        <time>2021-04-14T16:31:01Z</time>
      </trkpt>
      <trkpt lat="49.10044" lon="1.43583">
        <ele>101.2</ele>
        <time>2021-04-14T16:31:02Z</time>
      </trkpt>
      <trkpt lat="49.10049" lon="1.43564">
        <ele>102</ele>
        <time>2021-04-14T16:31:07Z</time>
      </trkpt>
      <trkpt lat="49.10054" lon="1.43547">
        <ele>102.8</ele>
        <time>2021-04-14T16:31:11Z</time>
      </trkpt>
      <trkpt lat="49.10057" lon="1.43539">
        <ele>103.2</ele>
        <time>2021-04-14T16:31:13Z</time>
      </trkpt>
      <trkpt lat="49.10065" lon="1.43516">
        <ele>104</ele>
        <time>2021-04-14T16:31:19Z</time>
      </trkpt>
      <trkpt lat="49.10066" lon="1.43512">
        <ele>104.2</ele>
        <time>2021-04-14T16:31:20Z</time>
      </trkpt>
      <trkpt lat="49.10077" lon="1.4349">
        <ele>105.4</ele>
        <time>2021-04-14T16:31:26Z</time>
      </trkpt>
      <trkpt lat="49.1008" lon="1.43484">
        <ele>105.6</ele>
        <time>2021-04-14T16:31:28Z</time>
      </trkpt>
      <trkpt lat="49.10094" lon="1.43457">
        <ele>106.4</ele>
        <time>2021-04-14T16:31:36Z</time>
      </trkpt>
      <trkpt lat="49.10108" lon="1.43431">
        <ele>107.4</ele>
        <time>2021-04-14T16:31:44Z</time>
      </trkpt>
      <trkpt lat="49.10118" lon="1.43409">
        <ele>108.4</ele>
        <time>2021-04-14T16:31:50Z</time>
      </trkpt>
      <trkpt lat="49.10118" lon="1.43405">
        <ele>108.4</ele>
        <time>2021-04-14T16:31:51Z</time>
      </trkpt>
      <trkpt lat="49.10121" lon="1.4339">
        <ele>108.8</ele>
        <time>2021-04-14T16:31:55Z</time>
      </trkpt>
      <trkpt lat="49.10125" lon="1.43369">
        <ele>109.4</ele>
        <time>2021-04-14T16:32:01Z</time>
      </trkpt>
      <trkpt lat="49.10126" lon="1.43362">
        <ele>110</ele>
        <time>2021-04-14T16:32:03Z</time>
      </trkpt>
      <trkpt lat="49.10126" lon="1.43352">
        <ele>110.6</ele>
        <time>2021-04-14T16:32:06Z</time>
      </trkpt>
      <trkpt lat="49.10126" lon="1.43343">
        <ele>111.2</ele>
        <time>2021-04-14T16:32:09Z</time>
      </trkpt>
      <trkpt lat="49.10128" lon="1.43333">
        <ele>111.6</ele>
        <time>2021-04-14T16:32:12Z</time>
      </trkpt>
      <trkpt lat="49.10128" lon="1.43324">
        <ele>112.2</ele>
        <time>2021-04-14T16:32:15Z</time>
      </trkpt>
      <trkpt lat="49.10129" lon="1.43319">
        <ele>112.6</ele>
        <time>2021-04-14T16:32:17Z</time>
      </trkpt>
      <trkpt lat="49.1013" lon="1.43316">
        <ele>113</ele>
        <time>2021-04-14T16:32:18Z</time>
      </trkpt>
      <trkpt lat="49.10134" lon="1.4331">
        <ele>113.6</ele>
        <time>2021-04-14T16:32:21Z</time>
      </trkpt>
      <trkpt lat="49.10135" lon="1.43309">
        <ele>113.8</ele>
        <time>2021-04-14T16:32:22Z</time>
      </trkpt>
      <trkpt lat="49.10137" lon="1.43306">
        <ele>114.2</ele>
        <time>2021-04-14T16:32:24Z</time>
      </trkpt>
      <trkpt lat="49.10139" lon="1.43304">
        <ele>114.6</ele>
        <time>2021-04-14T16:32:25Z</time>
      </trkpt>
      <trkpt lat="49.1014" lon="1.43303">
        <ele>114.8</ele>
        <time>2021-04-14T16:32:26Z</time>
      </trkpt>
      <trkpt lat="49.10141" lon="1.433">
        <ele>115</ele>
        <time>2021-04-14T16:32:27Z</time>
      </trkpt>
      <trkpt lat="49.10142" lon="1.43297">
        <ele>115.6</ele>
        <time>2021-04-14T16:32:29Z</time>
      </trkpt>
      <trkpt lat="49.10141" lon="1.43294">
        <ele>115.8</ele>
        <time>2021-04-14T16:32:30Z</time>
      </trkpt>
      <trkpt lat="49.10141" lon="1.43288">
        <ele>116.4</ele>
        <time>2021-04-14T16:32:32Z</time>
      </trkpt>
      <trkpt lat="49.10142" lon="1.43283">
        <ele>117</ele>
        <time>2021-04-14T16:32:34Z</time>
      </trkpt>
      <trkpt lat="49.10143" lon="1.43274">
        <ele>118</ele>
        <time>2021-04-14T16:32:38Z</time>
      </trkpt>
      <trkpt lat="49.10143" lon="1.43272">
        <ele>118.2</ele>
        <time>2021-04-14T16:32:39Z</time>
      </trkpt>
      <trkpt lat="49.10144" lon="1.4327">
        <ele>118.4</ele>
        <time>2021-04-14T16:32:41Z</time>
      </trkpt>
      <trkpt lat="49.10146" lon="1.43265">
        <ele>118.6</ele>
        <time>2021-04-14T16:32:44Z</time>
      </trkpt>
      <trkpt lat="49.10147" lon="1.4326">
        <ele>119.2</ele>
        <time>2021-04-14T16:32:47Z</time>
      </trkpt>
      <trkpt lat="49.10149" lon="1.43255">
        <ele>119.4</ele>
        <time>2021-04-14T16:32:50Z</time>
      </trkpt>
      <trkpt lat="49.1015" lon="1.43253">
        <ele>119.6</ele>
        <time>2021-04-14T16:32:51Z</time>
      </trkpt>
      <trkpt lat="49.10152" lon="1.43246">
        <ele>119.8</ele>
        <time>2021-04-14T16:32:55Z</time>
      </trkpt>
      <trkpt lat="49.10153" lon="1.43244">
        <ele>120</ele>
        <time>2021-04-14T16:32:56Z</time>
      </trkpt>
      <trkpt lat="49.10154" lon="1.43244">
        <ele>120.2</ele>
        <time>2021-04-14T16:32:57Z</time>
      </trkpt>
      <trkpt lat="49.10159" lon="1.43237">
        <ele>120.8</ele>
        <time>2021-04-14T16:33:02Z</time>
      </trkpt>
      <trkpt lat="49.10159" lon="1.43235">
        <ele>121</ele>
        <time>2021-04-14T16:33:03Z</time>
      </trkpt>
      <trkpt lat="49.10162" lon="1.43225">
        <ele>122</ele>
        <time>2021-04-14T16:33:09Z</time>
      </trkpt>
      <trkpt lat="49.10162" lon="1.43223">
        <ele>122.2</ele>
        <time>2021-04-14T16:33:10Z</time>
      </trkpt>
      <trkpt lat="49.10165" lon="1.43218">
        <ele>122.8</ele>
        <time>2021-04-14T16:33:13Z</time>
      </trkpt>
      <trkpt lat="49.10167" lon="1.43214">
        <ele>123</ele>
        <time>2021-04-14T16:33:15Z</time>
      </trkpt>
      <trkpt lat="49.10168" lon="1.43213">
        <ele>123.2</ele>
        <time>2021-04-14T16:33:16Z</time>
      </trkpt>
      <trkpt lat="49.1017" lon="1.43207">
        <ele>123.8</ele>
        <time>2021-04-14T16:33:19Z</time>
      </trkpt>
      <trkpt lat="49.10171" lon="1.43203">
        <ele>124.2</ele>
        <time>2021-04-14T16:33:21Z</time>
      </trkpt>
      <trkpt lat="49.10172" lon="1.43201">
        <ele>124.4</ele>
        <time>2021-04-14T16:33:22Z</time>
      </trkpt>
      <trkpt lat="49.10175" lon="1.43191">
        <ele>125.6</ele>
        <time>2021-04-14T16:33:27Z</time>
      </trkpt>
      <trkpt lat="49.10175" lon="1.43189">
        <ele>125.8</ele>
        <time>2021-04-14T16:33:28Z</time>
      </trkpt>
      <trkpt lat="49.10178" lon="1.43182">
        <ele>126.8</ele>
        <time>2021-04-14T16:33:32Z</time>
      </trkpt>
      <trkpt lat="49.10179" lon="1.43178">
        <ele>127.6</ele>
        <time>2021-04-14T16:33:35Z</time>
      </trkpt>
      <trkpt lat="49.10179" lon="1.43175">
        <ele>127.8</ele>
        <time>2021-04-14T16:33:37Z</time>
      </trkpt>
      <trkpt lat="49.10182" lon="1.43165">
        <ele>129</ele>
        <time>2021-04-14T16:33:43Z</time>
      </trkpt>
      <trkpt lat="49.10183" lon="1.43164">
        <ele>129.2</ele>
        <time>2021-04-14T16:33:44Z</time>
      </trkpt>
      <trkpt lat="49.10184" lon="1.43157">
        <ele>130.2</ele>
        <time>2021-04-14T16:33:49Z</time>
      </trkpt>
      <trkpt lat="49.10184" lon="1.43155">
        <ele>130.2</ele>
        <time>2021-04-14T16:33:50Z</time>
      </trkpt>
      <trkpt lat="49.10188" lon="1.43153">
        <ele>131.2</ele>
        <time>2021-04-14T16:33:55Z</time>
      </trkpt>
      <trkpt lat="49.1019" lon="1.43152">
        <ele>131.4</ele>
        <time>2021-04-14T16:33:57Z</time>
      </trkpt>
      <trkpt lat="49.10191" lon="1.4315">
        <ele>131.8</ele>
        <time>2021-04-14T16:33:58Z</time>
      </trkpt>
      <trkpt lat="49.10193" lon="1.43147">
        <ele>132.2</ele>
        <time>2021-04-14T16:34:00Z</time>
      </trkpt>
      <trkpt lat="49.10194" lon="1.43146">
        <ele>132.2</ele>
        <time>2021-04-14T16:34:01Z</time>
      </trkpt>
      <trkpt lat="49.10196" lon="1.43144">
        <ele>132.6</ele>
        <time>2021-04-14T16:34:03Z</time>
      </trkpt>
      <trkpt lat="49.10196" lon="1.43143">
        <ele>132.8</ele>
        <time>2021-04-14T16:34:05Z</time>
      </trkpt>
      <trkpt lat="49.10198" lon="1.43141">
        <ele>133.8</ele>
        <time>2021-04-14T16:34:18Z</time>
      </trkpt>
      <trkpt lat="49.10202" lon="1.43138">
        <ele>133.8</ele>
        <time>2021-04-14T16:34:22Z</time>
      </trkpt>
      <trkpt lat="49.10211" lon="1.4313">
        <ele>133.6</ele>
        <time>2021-04-14T16:34:28Z</time>
      </trkpt>
      <trkpt lat="49.10221" lon="1.43118">
        <ele>133.6</ele>
        <time>2021-04-14T16:34:33Z</time>
      </trkpt>
      <trkpt lat="49.10232" lon="1.43109">
        <ele>133.6</ele>
        <time>2021-04-14T16:34:38Z</time>
      </trkpt>
      <trkpt lat="49.10234" lon="1.43108">
        <ele>133.6</ele>
        <time>2021-04-14T16:34:39Z</time>
      </trkpt>
      <trkpt lat="49.10246" lon="1.43098">
        <ele>133.8</ele>
        <time>2021-04-14T16:34:44Z</time>
      </trkpt>
      <trkpt lat="49.10261" lon="1.43085">
        <ele>134.4</ele>
        <time>2021-04-14T16:34:50Z</time>
      </trkpt>
      <trkpt lat="49.10268" lon="1.4308">
        <ele>134.8</ele>
        <time>2021-04-14T16:34:53Z</time>
      </trkpt>
      <trkpt lat="49.10271" lon="1.43077">
        <ele>135</ele>
        <time>2021-04-14T16:34:55Z</time>
      </trkpt>
      <trkpt lat="49.10284" lon="1.43066">
        <ele>135.8</ele>
        <time>2021-04-14T16:35:00Z</time>
      </trkpt>
      <trkpt lat="49.10287" lon="1.43064">
        <ele>135.8</ele>
        <time>2021-04-14T16:35:01Z</time>
      </trkpt>
      <trkpt lat="49.10304" lon="1.43047">
        <ele>136.2</ele>
        <time>2021-04-14T16:35:07Z</time>
      </trkpt>
      <trkpt lat="49.10317" lon="1.43035">
        <ele>136.6</ele>
        <time>2021-04-14T16:35:12Z</time>
      </trkpt>
      <trkpt lat="49.10323" lon="1.4303">
        <ele>137</ele>
        <time>2021-04-14T16:35:14Z</time>
      </trkpt>
      <trkpt lat="49.10337" lon="1.43018">
        <ele>138</ele>
        <time>2021-04-14T16:35:20Z</time>
      </trkpt>
      <trkpt lat="49.1035" lon="1.43008">
        <ele>138.6</ele>
        <time>2021-04-14T16:35:25Z</time>
      </trkpt>
      <trkpt lat="49.10355" lon="1.43004">
        <ele>139</ele>
        <time>2021-04-14T16:35:27Z</time>
      </trkpt>
      <trkpt lat="49.10357" lon="1.43002">
        <ele>139.4</ele>
        <time>2021-04-14T16:35:28Z</time>
      </trkpt>
      <trkpt lat="49.1036" lon="1.42999">
        <ele>139.6</ele>
        <time>2021-04-14T16:35:29Z</time>
      </trkpt>
      <trkpt lat="49.10368" lon="1.42991">
        <ele>140.4</ele>
        <time>2021-04-14T16:35:32Z</time>
      </trkpt>
      <trkpt lat="49.10373" lon="1.42987">
        <ele>140.8</ele>
        <time>2021-04-14T16:35:34Z</time>
      </trkpt>
      <trkpt lat="49.10391" lon="1.42972">
        <ele>141.4</ele>
        <time>2021-04-14T16:35:41Z</time>
      </trkpt>
      <trkpt lat="49.10404" lon="1.42963">
        <ele>141.8</ele>
        <time>2021-04-14T16:35:46Z</time>
      </trkpt>
      <trkpt lat="49.10415" lon="1.42952">
        <ele>142.4</ele>
        <time>2021-04-14T16:35:51Z</time>
      </trkpt>
      <trkpt lat="49.10419" lon="1.42948">
        <ele>142.6</ele>
        <time>2021-04-14T16:35:53Z</time>
      </trkpt>
      <trkpt lat="49.10426" lon="1.42941">
        <ele>142.6</ele>
        <time>2021-04-14T16:35:56Z</time>
      </trkpt>
      <trkpt lat="49.10439" lon="1.42929">
        <ele>142.8</ele>
        <time>2021-04-14T16:36:01Z</time>
      </trkpt>
      <trkpt lat="49.10454" lon="1.42917">
        <ele>143</ele>
        <time>2021-04-14T16:36:06Z</time>
      </trkpt>
      <trkpt lat="49.10468" lon="1.42904">
        <ele>143.6</ele>
        <time>2021-04-14T16:36:11Z</time>
      </trkpt>
      <trkpt lat="49.10471" lon="1.42901">
        <ele>143.6</ele>
        <time>2021-04-14T16:36:12Z</time>
      </trkpt>
      <trkpt lat="49.10493" lon="1.42883">
        <ele>144</ele>
        <time>2021-04-14T16:36:19Z</time>
      </trkpt>
      <trkpt lat="49.10513" lon="1.42866">
        <ele>144.4</ele>
        <time>2021-04-14T16:36:25Z</time>
      </trkpt>
      <trkpt lat="49.10528" lon="1.42854">
        <ele>144.6</ele>
        <time>2021-04-14T16:36:30Z</time>
      </trkpt>
      <trkpt lat="49.10532" lon="1.42852">
        <ele>144.8</ele>
        <time>2021-04-14T16:36:31Z</time>
      </trkpt>
      <trkpt lat="49.10554" lon="1.42832">
        <ele>145</ele>
        <time>2021-04-14T16:36:37Z</time>
      </trkpt>
      <trkpt lat="49.10572" lon="1.42813">
        <ele>145</ele>
        <time>2021-04-14T16:36:42Z</time>
      </trkpt>
      <trkpt lat="49.10591" lon="1.42798">
        <ele>144</ele>
        <time>2021-04-14T16:36:48Z</time>
      </trkpt>
      <trkpt lat="49.10617" lon="1.42774">
        <ele>143.8</ele>
        <time>2021-04-14T16:36:55Z</time>
      </trkpt>
      <trkpt lat="49.10626" lon="1.42762">
        <ele>143.4</ele>
        <time>2021-04-14T16:36:58Z</time>
      </trkpt>
      <trkpt lat="49.10634" lon="1.42748">
        <ele>142.8</ele>
        <time>2021-04-14T16:37:01Z</time>
      </trkpt>
      <trkpt lat="49.10646" lon="1.42724">
        <ele>142.4</ele>
        <time>2021-04-14T16:37:06Z</time>
      </trkpt>
      <trkpt lat="49.1066" lon="1.42693">
        <ele>142.2</ele>
        <time>2021-04-14T16:37:12Z</time>
      </trkpt>
      <trkpt lat="49.10672" lon="1.42662">
        <ele>142.2</ele>
        <time>2021-04-14T16:37:17Z</time>
      </trkpt>
      <trkpt lat="49.10686" lon="1.42625">
        <ele>142.2</ele>
        <time>2021-04-14T16:37:24Z</time>
      </trkpt>
      <trkpt lat="49.10695" lon="1.42605">
        <ele>142.2</ele>
        <time>2021-04-14T16:37:29Z</time>
      </trkpt>
      <trkpt lat="49.10695" lon="1.42603">
        <ele>142.2</ele>
        <time>2021-04-14T16:37:31Z</time>
      </trkpt>
      <trkpt lat="49.10698" lon="1.426">
        <ele>142.2</ele>
        <time>2021-04-14T16:37:56Z</time>
      </trkpt>
      <trkpt lat="49.10698" lon="1.42601">
        <ele>142.2</ele>
        <time>2021-04-14T16:37:57Z</time>
      </trkpt>
      <trkpt lat="49.10699" lon="1.42602">
        <ele>142.2</ele>
        <time>2021-04-14T16:37:58Z</time>
      </trkpt>
      <trkpt lat="49.10706" lon="1.42615">
        <ele>142.2</ele>
        <time>2021-04-14T16:38:03Z</time>
      </trkpt>
      <trkpt lat="49.10715" lon="1.42636">
        <ele>141.8</ele>
        <time>2021-04-14T16:38:08Z</time>
      </trkpt>
      <trkpt lat="49.10721" lon="1.4266">
        <ele>140.8</ele>
        <time>2021-04-14T16:38:11Z</time>
      </trkpt>
      <trkpt lat="49.10723" lon="1.42669">
        <ele>140.6</ele>
        <time>2021-04-14T16:38:12Z</time>
      </trkpt>
      <trkpt lat="49.10724" lon="1.42679">
        <ele>140.4</ele>
        <time>2021-04-14T16:38:13Z</time>
      </trkpt>
      <trkpt lat="49.10731" lon="1.42707">
        <ele>139.4</ele>
        <time>2021-04-14T16:38:16Z</time>
      </trkpt>
      <trkpt lat="49.10735" lon="1.42723">
        <ele>138.6</ele>
        <time>2021-04-14T16:38:18Z</time>
      </trkpt>
      <trkpt lat="49.10736" lon="1.42731">
        <ele>138.2</ele>
        <time>2021-04-14T16:38:19Z</time>
      </trkpt>
      <trkpt lat="49.10738" lon="1.42739">
        <ele>137.4</ele>
        <time>2021-04-14T16:38:20Z</time>
      </trkpt>
      <trkpt lat="49.1074" lon="1.42747">
        <ele>136.6</ele>
        <time>2021-04-14T16:38:21Z</time>
      </trkpt>
      <trkpt lat="49.10743" lon="1.42754">
        <ele>135.2</ele>
        <time>2021-04-14T16:38:22Z</time>
      </trkpt>
      <trkpt lat="49.1075" lon="1.42766">
        <ele>133.8</ele>
        <time>2021-04-14T16:38:24Z</time>
      </trkpt>
      <trkpt lat="49.10763" lon="1.42776">
        <ele>132.4</ele>
        <time>2021-04-14T16:38:26Z</time>
      </trkpt>
      <trkpt lat="49.10776" lon="1.42782">
        <ele>131.2</ele>
        <time>2021-04-14T16:38:28Z</time>
      </trkpt>
      <trkpt lat="49.10788" lon="1.42794">
        <ele>129.8</ele>
        <time>2021-04-14T16:38:30Z</time>
      </trkpt>
      <trkpt lat="49.10796" lon="1.42806">
        <ele>128</ele>
        <time>2021-04-14T16:38:32Z</time>
      </trkpt>
      <trkpt lat="49.10799" lon="1.42814">
        <ele>126.8</ele>
        <time>2021-04-14T16:38:33Z</time>
      </trkpt>
      <trkpt lat="49.10801" lon="1.42822">
        <ele>125.8</ele>
        <time>2021-04-14T16:38:34Z</time>
      </trkpt>
      <trkpt lat="49.10803" lon="1.42829">
        <ele>124.6</ele>
        <time>2021-04-14T16:38:35Z</time>
      </trkpt>
      <trkpt lat="49.10805" lon="1.42836">
        <ele>123.6</ele>
        <time>2021-04-14T16:38:36Z</time>
      </trkpt>
      <trkpt lat="49.10806" lon="1.42841">
        <ele>122.2</ele>
        <time>2021-04-14T16:38:37Z</time>
      </trkpt>
      <trkpt lat="49.10808" lon="1.42844">
        <ele>121</ele>
        <time>2021-04-14T16:38:38Z</time>
      </trkpt>
      <trkpt lat="49.10811" lon="1.42844">
        <ele>119.8</ele>
        <time>2021-04-14T16:38:39Z</time>
      </trkpt>
      <trkpt lat="49.10814" lon="1.42842">
        <ele>118.8</ele>
        <time>2021-04-14T16:38:40Z</time>
      </trkpt>
      <trkpt lat="49.10822" lon="1.42838">
        <ele>117.2</ele>
        <time>2021-04-14T16:38:42Z</time>
      </trkpt>
      <trkpt lat="49.10828" lon="1.42833">
        <ele>115.6</ele>
        <time>2021-04-14T16:38:44Z</time>
      </trkpt>
      <trkpt lat="49.10832" lon="1.4283">
        <ele>115.2</ele>
        <time>2021-04-14T16:38:45Z</time>
      </trkpt>
      <trkpt lat="49.10837" lon="1.42828">
        <ele>114.6</ele>
        <time>2021-04-14T16:38:46Z</time>
      </trkpt>
      <trkpt lat="49.10855" lon="1.42823">
        <ele>113.4</ele>
        <time>2021-04-14T16:38:48Z</time>
      </trkpt>
      <trkpt lat="49.10873" lon="1.42818">
        <ele>112.2</ele>
        <time>2021-04-14T16:38:50Z</time>
      </trkpt>
      <trkpt lat="49.10888" lon="1.42813">
        <ele>110</ele>
        <time>2021-04-14T16:38:52Z</time>
      </trkpt>
      <trkpt lat="49.10895" lon="1.4281">
        <ele>108.4</ele>
        <time>2021-04-14T16:38:53Z</time>
      </trkpt>
      <trkpt lat="49.10903" lon="1.42807">
        <ele>106.6</ele>
        <time>2021-04-14T16:38:54Z</time>
      </trkpt>
      <trkpt lat="49.10912" lon="1.42805">
        <ele>104.8</ele>
        <time>2021-04-14T16:38:55Z</time>
      </trkpt>
      <trkpt lat="49.1092" lon="1.42803">
        <ele>103.4</ele>
        <time>2021-04-14T16:38:56Z</time>
      </trkpt>
      <trkpt lat="49.10934" lon="1.428">
        <ele>101.8</ele>
        <time>2021-04-14T16:38:58Z</time>
      </trkpt>
      <trkpt lat="49.10947" lon="1.42796">
        <ele>100.8</ele>
        <time>2021-04-14T16:39:00Z</time>
      </trkpt>
      <trkpt lat="49.10954" lon="1.42795">
        <ele>100.4</ele>
        <time>2021-04-14T16:39:01Z</time>
      </trkpt>
      <trkpt lat="49.1097" lon="1.42791">
        <ele>100.2</ele>
        <time>2021-04-14T16:39:04Z</time>
      </trkpt>
      <trkpt lat="49.10993" lon="1.42783">
        <ele>100.2</ele>
        <time>2021-04-14T16:39:10Z</time>
      </trkpt>
      <trkpt lat="49.11013" lon="1.4278">
        <ele>102</ele>
        <time>2021-04-14T16:39:15Z</time>
      </trkpt>
      <trkpt lat="49.11021" lon="1.42777">
        <ele>103.2</ele>
        <time>2021-04-14T16:39:18Z</time>
      </trkpt>
      <trkpt lat="49.11023" lon="1.42776">
        <ele>103.6</ele>
        <time>2021-04-14T16:39:19Z</time>
      </trkpt>
      <trkpt lat="49.11029" lon="1.42774">
        <ele>104.4</ele>
        <time>2021-04-14T16:39:25Z</time>
      </trkpt>
      <trkpt lat="49.1103" lon="1.42774">
        <ele>104.4</ele>
        <time>2021-04-14T16:39:26Z</time>
      </trkpt>
      <trkpt lat="49.11033" lon="1.42772">
        <ele>104.4</ele>
        <time>2021-04-14T16:39:29Z</time>
      </trkpt>
      <trkpt lat="49.11035" lon="1.42772">
        <ele>104.4</ele>
        <time>2021-04-14T16:39:30Z</time>
      </trkpt>
      <trkpt lat="49.11044" lon="1.42768">
        <ele>104.4</ele>
        <time>2021-04-14T16:39:34Z</time>
      </trkpt>
      <trkpt lat="49.11056" lon="1.42764">
        <ele>104.2</ele>
        <time>2021-04-14T16:39:38Z</time>
      </trkpt>
      <trkpt lat="49.11073" lon="1.42759">
        <ele>104.4</ele>
        <time>2021-04-14T16:39:43Z</time>
      </trkpt>
      <trkpt lat="49.11088" lon="1.42753">
        <ele>104.4</ele>
        <time>2021-04-14T16:39:48Z</time>
      </trkpt>
      <trkpt lat="49.11105" lon="1.42748">
        <ele>104.8</ele>
        <time>2021-04-14T16:39:53Z</time>
      </trkpt>
      <trkpt lat="49.11111" lon="1.42745">
        <ele>105.2</ele>
        <time>2021-04-14T16:39:55Z</time>
      </trkpt>
      <trkpt lat="49.11121" lon="1.42743">
        <ele>106</ele>
        <time>2021-04-14T16:39:59Z</time>
      </trkpt>
      <trkpt lat="49.11124" lon="1.42742">
        <ele>106.2</ele>
        <time>2021-04-14T16:40:00Z</time>
      </trkpt>
      <trkpt lat="49.11138" lon="1.42742">
        <ele>107.6</ele>
        <time>2021-04-14T16:40:05Z</time>
      </trkpt>
      <trkpt lat="49.1114" lon="1.42741">
        <ele>107.8</ele>
        <time>2021-04-14T16:40:06Z</time>
      </trkpt>
      <trkpt lat="49.11148" lon="1.42739">
        <ele>108.6</ele>
        <time>2021-04-14T16:40:09Z</time>
      </trkpt>
      <trkpt lat="49.11154" lon="1.42736">
        <ele>109</ele>
        <time>2021-04-14T16:40:11Z</time>
      </trkpt>
      <trkpt lat="49.11163" lon="1.42732">
        <ele>109.6</ele>
        <time>2021-04-14T16:40:14Z</time>
      </trkpt>
      <trkpt lat="49.11169" lon="1.4273">
        <ele>110</ele>
        <time>2021-04-14T16:40:16Z</time>
      </trkpt>
      <trkpt lat="49.11187" lon="1.42724">
        <ele>110.8</ele>
        <time>2021-04-14T16:40:21Z</time>
      </trkpt>
      <trkpt lat="49.11205" lon="1.42722">
        <ele>111.8</ele>
        <time>2021-04-14T16:40:26Z</time>
      </trkpt>
      <trkpt lat="49.11208" lon="1.4272">
        <ele>112</ele>
        <time>2021-04-14T16:40:27Z</time>
      </trkpt>
      <trkpt lat="49.11218" lon="1.42718">
        <ele>112.6</ele>
        <time>2021-04-14T16:40:31Z</time>
      </trkpt>
      <trkpt lat="49.11226" lon="1.42714">
        <ele>113</ele>
        <time>2021-04-14T16:40:34Z</time>
      </trkpt>
      <trkpt lat="49.11234" lon="1.42711">
        <ele>113.2</ele>
        <time>2021-04-14T16:40:37Z</time>
      </trkpt>
      <trkpt lat="49.11252" lon="1.42704">
        <ele>114.2</ele>
        <time>2021-04-14T16:40:44Z</time>
      </trkpt>
      <trkpt lat="49.1127" lon="1.42697">
        <ele>115</ele>
        <time>2021-04-14T16:40:50Z</time>
      </trkpt>
      <trkpt lat="49.11276" lon="1.42695">
        <ele>115.2</ele>
        <time>2021-04-14T16:40:52Z</time>
      </trkpt>
      <trkpt lat="49.11287" lon="1.42689">
        <ele>115.6</ele>
        <time>2021-04-14T16:40:56Z</time>
      </trkpt>
      <trkpt lat="49.11303" lon="1.42679">
        <ele>116.2</ele>
        <time>2021-04-14T16:41:02Z</time>
      </trkpt>
      <trkpt lat="49.11309" lon="1.42677">
        <ele>116.4</ele>
        <time>2021-04-14T16:41:04Z</time>
      </trkpt>
      <trkpt lat="49.11317" lon="1.42674">
        <ele>116.6</ele>
        <time>2021-04-14T16:41:07Z</time>
      </trkpt>
      <trkpt lat="49.11331" lon="1.42668">
        <ele>117.4</ele>
        <time>2021-04-14T16:41:12Z</time>
      </trkpt>
      <trkpt lat="49.11333" lon="1.42668">
        <ele>117.6</ele>
        <time>2021-04-14T16:41:13Z</time>
      </trkpt>
      <trkpt lat="49.11347" lon="1.42663">
        <ele>118.6</ele>
        <time>2021-04-14T16:41:18Z</time>
      </trkpt>
      <trkpt lat="49.1136" lon="1.42658">
        <ele>119.6</ele>
        <time>2021-04-14T16:41:24Z</time>
      </trkpt>
      <trkpt lat="49.11362" lon="1.42656">
        <ele>120</ele>
        <time>2021-04-14T16:41:25Z</time>
      </trkpt>
      <trkpt lat="49.1137" lon="1.42653">
        <ele>120.6</ele>
        <time>2021-04-14T16:41:28Z</time>
      </trkpt>
      <trkpt lat="49.11375" lon="1.42652">
        <ele>120.8</ele>
        <time>2021-04-14T16:41:30Z</time>
      </trkpt>
      <trkpt lat="49.11379" lon="1.4265">
        <ele>121.2</ele>
        <time>2021-04-14T16:41:32Z</time>
      </trkpt>
      <trkpt lat="49.11388" lon="1.42644">
        <ele>122</ele>
        <time>2021-04-14T16:41:36Z</time>
      </trkpt>
      <trkpt lat="49.1139" lon="1.42643">
        <ele>122</ele>
        <time>2021-04-14T16:41:37Z</time>
      </trkpt>
      <trkpt lat="49.11398" lon="1.42639">
        <ele>123</ele>
        <time>2021-04-14T16:41:41Z</time>
      </trkpt>
      <trkpt lat="49.11403" lon="1.42635">
        <ele>123.4</ele>
        <time>2021-04-14T16:41:44Z</time>
      </trkpt>
      <trkpt lat="49.11405" lon="1.42635">
        <ele>123.6</ele>
        <time>2021-04-14T16:41:45Z</time>
      </trkpt>
      <trkpt lat="49.11415" lon="1.42631">
        <ele>124.2</ele>
        <time>2021-04-14T16:41:49Z</time>
      </trkpt>
      <trkpt lat="49.11418" lon="1.4263">
        <ele>124.4</ele>
        <time>2021-04-14T16:41:50Z</time>
      </trkpt>
      <trkpt lat="49.11423" lon="1.42625">
        <ele>124.8</ele>
        <time>2021-04-14T16:41:52Z</time>
      </trkpt>
      <trkpt lat="49.11428" lon="1.42617">
        <ele>125.2</ele>
        <time>2021-04-14T16:41:56Z</time>
      </trkpt>
      <trkpt lat="49.11433" lon="1.42605">
        <ele>126</ele>
        <time>2021-04-14T16:42:02Z</time>
      </trkpt>
      <trkpt lat="49.11436" lon="1.426">
        <ele>126.4</ele>
        <time>2021-04-14T16:42:04Z</time>
      </trkpt>
      <trkpt lat="49.11436" lon="1.42597">
        <ele>126.6</ele>
        <time>2021-04-14T16:42:05Z</time>
      </trkpt>
      <trkpt lat="49.11437" lon="1.42589">
        <ele>127</ele>
        <time>2021-04-14T16:42:08Z</time>
      </trkpt>
      <trkpt lat="49.11437" lon="1.42586">
        <ele>127.4</ele>
        <time>2021-04-14T16:42:09Z</time>
      </trkpt>
      <trkpt lat="49.11438" lon="1.42575">
        <ele>128.4</ele>
        <time>2021-04-14T16:42:14Z</time>
      </trkpt>
      <trkpt lat="49.11439" lon="1.42573">
        <ele>128.6</ele>
        <time>2021-04-14T16:42:15Z</time>
      </trkpt>
      <trkpt lat="49.1144" lon="1.4257">
        <ele>128.8</ele>
        <time>2021-04-14T16:42:16Z</time>
      </trkpt>
      <trkpt lat="49.11444" lon="1.42562">
        <ele>129.4</ele>
        <time>2021-04-14T16:42:19Z</time>
      </trkpt>
      <trkpt lat="49.11446" lon="1.42559">
        <ele>129.6</ele>
        <time>2021-04-14T16:42:21Z</time>
      </trkpt>
      <trkpt lat="49.11449" lon="1.42554">
        <ele>130.2</ele>
        <time>2021-04-14T16:42:23Z</time>
      </trkpt>
      <trkpt lat="49.1145" lon="1.42551">
        <ele>130.4</ele>
        <time>2021-04-14T16:42:24Z</time>
      </trkpt>
      <trkpt lat="49.11455" lon="1.42543">
        <ele>130.8</ele>
        <time>2021-04-14T16:42:27Z</time>
      </trkpt>
      <trkpt lat="49.11461" lon="1.42534">
        <ele>131.2</ele>
        <time>2021-04-14T16:42:30Z</time>
      </trkpt>
      <trkpt lat="49.11467" lon="1.42515">
        <ele>131.2</ele>
        <time>2021-04-14T16:42:34Z</time>
      </trkpt>
      <trkpt lat="49.11472" lon="1.42495">
        <ele>131.6</ele>
        <time>2021-04-14T16:42:39Z</time>
      </trkpt>
      <trkpt lat="49.11478" lon="1.42471">
        <ele>131.6</ele>
        <time>2021-04-14T16:42:45Z</time>
      </trkpt>
      <trkpt lat="49.11479" lon="1.42469">
        <ele>131.8</ele>
        <time>2021-04-14T16:42:46Z</time>
      </trkpt>
      <trkpt lat="49.11481" lon="1.42466">
        <ele>132.2</ele>
        <time>2021-04-14T16:42:48Z</time>
      </trkpt>
      <trkpt lat="49.11483" lon="1.42463">
        <ele>132.6</ele>
        <time>2021-04-14T16:42:50Z</time>
      </trkpt>
      <trkpt lat="49.11483" lon="1.42463">
        <ele>132.8</ele>
        <time>2021-04-14T16:42:51Z</time>
      </trkpt>
      <trkpt lat="49.11484" lon="1.42461">
        <ele>133.4</ele>
        <time>2021-04-14T16:42:57Z</time>
      </trkpt>
      <trkpt lat="49.11488" lon="1.42465">
        <ele>133.4</ele>
        <time>2021-04-14T16:43:00Z</time>
      </trkpt>
      <trkpt lat="49.11498" lon="1.42479">
        <ele>133.4</ele>
        <time>2021-04-14T16:43:05Z</time>
      </trkpt>
      <trkpt lat="49.11519" lon="1.42503">
        <ele>132.2</ele>
        <time>2021-04-14T16:43:12Z</time>
      </trkpt>
      <trkpt lat="49.11525" lon="1.42509">
        <ele>131.8</ele>
        <time>2021-04-14T16:43:14Z</time>
      </trkpt>
      <trkpt lat="49.11538" lon="1.42522">
        <ele>130.4</ele>
        <time>2021-04-14T16:43:18Z</time>
      </trkpt>
      <trkpt lat="49.11553" lon="1.42537">
        <ele>129.6</ele>
        <time>2021-04-14T16:43:22Z</time>
      </trkpt>
      <trkpt lat="49.11569" lon="1.42555">
        <ele>128.4</ele>
        <time>2021-04-14T16:43:26Z</time>
      </trkpt>
      <trkpt lat="49.11582" lon="1.42569">
        <ele>127.2</ele>
        <time>2021-04-14T16:43:29Z</time>
      </trkpt>
      <trkpt lat="49.11596" lon="1.42581">
        <ele>126</ele>
        <time>2021-04-14T16:43:32Z</time>
      </trkpt>
      <trkpt lat="49.11606" lon="1.42587">
        <ele>124.8</ele>
        <time>2021-04-14T16:43:34Z</time>
      </trkpt>
      <trkpt lat="49.11618" lon="1.42594">
        <ele>123.8</ele>
        <time>2021-04-14T16:43:36Z</time>
      </trkpt>
      <trkpt lat="49.11632" lon="1.42597">
        <ele>122.6</ele>
        <time>2021-04-14T16:43:38Z</time>
      </trkpt>
      <trkpt lat="49.11654" lon="1.42597">
        <ele>121.8</ele>
        <time>2021-04-14T16:43:41Z</time>
      </trkpt>
      <trkpt lat="49.1167" lon="1.42597">
        <ele>120.8</ele>
        <time>2021-04-14T16:43:43Z</time>
      </trkpt>
      <trkpt lat="49.11678" lon="1.42598">
        <ele>120.6</ele>
        <time>2021-04-14T16:43:44Z</time>
      </trkpt>
      <trkpt lat="49.11703" lon="1.426">
        <ele>119.4</ele>
        <time>2021-04-14T16:43:47Z</time>
      </trkpt>
      <trkpt lat="49.1172" lon="1.42605">
        <ele>118.8</ele>
        <time>2021-04-14T16:43:49Z</time>
      </trkpt>
      <trkpt lat="49.11729" lon="1.42608">
        <ele>118.4</ele>
        <time>2021-04-14T16:43:50Z</time>
      </trkpt>
      <trkpt lat="49.11737" lon="1.42613">
        <ele>117.6</ele>
        <time>2021-04-14T16:43:51Z</time>
      </trkpt>
      <trkpt lat="49.11745" lon="1.42618">
        <ele>117.4</ele>
        <time>2021-04-14T16:43:52Z</time>
      </trkpt>
      <trkpt lat="49.11754" lon="1.42623">
        <ele>116.6</ele>
        <time>2021-04-14T16:43:53Z</time>
      </trkpt>
      <trkpt lat="49.11762" lon="1.42628">
        <ele>116</ele>
        <time>2021-04-14T16:43:54Z</time>
      </trkpt>
      <trkpt lat="49.11779" lon="1.42638">
        <ele>114.6</ele>
        <time>2021-04-14T16:43:56Z</time>
      </trkpt>
      <trkpt lat="49.11796" lon="1.42648">
        <ele>113.2</ele>
        <time>2021-04-14T16:43:58Z</time>
      </trkpt>
      <trkpt lat="49.11803" lon="1.42654">
        <ele>112.2</ele>
        <time>2021-04-14T16:43:59Z</time>
      </trkpt>
      <trkpt lat="49.11811" lon="1.42658">
        <ele>111.6</ele>
        <time>2021-04-14T16:44:00Z</time>
      </trkpt>
      <trkpt lat="49.11825" lon="1.4267">
        <ele>110</ele>
        <time>2021-04-14T16:44:02Z</time>
      </trkpt>
      <trkpt lat="49.1183" lon="1.42678">
        <ele>109</ele>
        <time>2021-04-14T16:44:03Z</time>
      </trkpt>
      <trkpt lat="49.11831" lon="1.42695">
        <ele>108</ele>
        <time>2021-04-14T16:44:05Z</time>
      </trkpt>
      <trkpt lat="49.11823" lon="1.4271">
        <ele>107.6</ele>
        <time>2021-04-14T16:44:07Z</time>
      </trkpt>
      <trkpt lat="49.11819" lon="1.42727">
        <ele>107.2</ele>
        <time>2021-04-14T16:44:10Z</time>
      </trkpt>
      <trkpt lat="49.11825" lon="1.42734">
        <ele>106.8</ele>
        <time>2021-04-14T16:44:12Z</time>
      </trkpt>
      <trkpt lat="49.11829" lon="1.42736">
        <ele>106.4</ele>
        <time>2021-04-14T16:44:13Z</time>
      </trkpt>
      <trkpt lat="49.11835" lon="1.42739">
        <ele>105.8</ele>
        <time>2021-04-14T16:44:15Z</time>
      </trkpt>
      <trkpt lat="49.11845" lon="1.42747">
        <ele>105.6</ele>
        <time>2021-04-14T16:44:19Z</time>
      </trkpt>
      <trkpt lat="49.11847" lon="1.42749">
        <ele>105.4</ele>
        <time>2021-04-14T16:44:20Z</time>
      </trkpt>
      <trkpt lat="49.11847" lon="1.42754">
        <ele>105.4</ele>
        <time>2021-04-14T16:44:23Z</time>
      </trkpt>
      <trkpt lat="49.1184" lon="1.42766">
        <ele>106</ele>
        <time>2021-04-14T16:44:27Z</time>
      </trkpt>
      <trkpt lat="49.11831" lon="1.428">
        <ele>106.6</ele>
        <time>2021-04-14T16:44:33Z</time>
      </trkpt>
      <trkpt lat="49.11823" lon="1.42832">
        <ele>106.6</ele>
        <time>2021-04-14T16:44:38Z</time>
      </trkpt>
      <trkpt lat="49.11813" lon="1.42866">
        <ele>105</ele>
        <time>2021-04-14T16:44:43Z</time>
      </trkpt>
      <trkpt lat="49.11811" lon="1.42872">
        <ele>104.4</ele>
        <time>2021-04-14T16:44:44Z</time>
      </trkpt>
      <trkpt lat="49.11808" lon="1.42878">
        <ele>104</ele>
        <time>2021-04-14T16:44:45Z</time>
      </trkpt>
      <trkpt lat="49.11802" lon="1.42889">
        <ele>103.6</ele>
        <time>2021-04-14T16:44:47Z</time>
      </trkpt>
      <trkpt lat="49.11797" lon="1.42899">
        <ele>102.4</ele>
        <time>2021-04-14T16:44:49Z</time>
      </trkpt>
      <trkpt lat="49.11792" lon="1.42909">
        <ele>101</ele>
        <time>2021-04-14T16:44:51Z</time>
      </trkpt>
      <trkpt lat="49.1179" lon="1.42913">
        <ele>100.4</ele>
        <time>2021-04-14T16:44:52Z</time>
      </trkpt>
      <trkpt lat="49.11788" lon="1.42919">
        <ele>99.8</ele>
        <time>2021-04-14T16:44:53Z</time>
      </trkpt>
      <trkpt lat="49.11784" lon="1.4293">
        <ele>98.4</ele>
        <time>2021-04-14T16:44:55Z</time>
      </trkpt>
      <trkpt lat="49.11779" lon="1.42943">
        <ele>96.6</ele>
        <time>2021-04-14T16:44:57Z</time>
      </trkpt>
      <trkpt lat="49.11777" lon="1.42949">
        <ele>95.4</ele>
        <time>2021-04-14T16:44:58Z</time>
      </trkpt>
      <trkpt lat="49.11775" lon="1.42954">
        <ele>94.4</ele>
        <time>2021-04-14T16:44:59Z</time>
      </trkpt>
      <trkpt lat="49.11773" lon="1.42959">
        <ele>93.4</ele>
        <time>2021-04-14T16:45:00Z</time>
      </trkpt>
      <trkpt lat="49.11772" lon="1.42963">
        <ele>91.6</ele>
        <time>2021-04-14T16:45:01Z</time>
      </trkpt>
      <trkpt lat="49.11771" lon="1.42966">
        <ele>90.6</ele>
        <time>2021-04-14T16:45:02Z</time>
      </trkpt>
      <trkpt lat="49.11771" lon="1.4297">
        <ele>89.8</ele>
        <time>2021-04-14T16:45:03Z</time>
      </trkpt>
      <trkpt lat="49.1177" lon="1.42973">
        <ele>88.8</ele>
        <time>2021-04-14T16:45:04Z</time>
      </trkpt>
      <trkpt lat="49.1177" lon="1.42976">
        <ele>87.8</ele>
        <time>2021-04-14T16:45:05Z</time>
      </trkpt>
      <trkpt lat="49.11771" lon="1.42978">
        <ele>86.8</ele>
        <time>2021-04-14T16:45:06Z</time>
      </trkpt>
      <trkpt lat="49.11773" lon="1.4298">
        <ele>85.8</ele>
        <time>2021-04-14T16:45:07Z</time>
      </trkpt>
      <trkpt lat="49.11776" lon="1.42982">
        <ele>85</ele>
        <time>2021-04-14T16:45:08Z</time>
      </trkpt>
      <trkpt lat="49.11778" lon="1.42984">
        <ele>84</ele>
        <time>2021-04-14T16:45:09Z</time>
      </trkpt>
      <trkpt lat="49.1178" lon="1.42985">
        <ele>83</ele>
        <time>2021-04-14T16:45:10Z</time>
      </trkpt>
      <trkpt lat="49.11784" lon="1.42989">
        <ele>81.2</ele>
        <time>2021-04-14T16:45:12Z</time>
      </trkpt>
      <trkpt lat="49.11788" lon="1.42992">
        <ele>79.6</ele>
        <time>2021-04-14T16:45:14Z</time>
      </trkpt>
      <trkpt lat="49.11796" lon="1.42998">
        <ele>78.4</ele>
        <time>2021-04-14T16:45:17Z</time>
      </trkpt>
      <trkpt lat="49.11809" lon="1.43005">
        <ele>78</ele>
        <time>2021-04-14T16:45:21Z</time>
      </trkpt>
      <trkpt lat="49.11828" lon="1.43006">
        <ele>78</ele>
        <time>2021-04-14T16:45:27Z</time>
      </trkpt>
      <trkpt lat="49.11848" lon="1.43011">
        <ele>78.2</ele>
        <time>2021-04-14T16:45:32Z</time>
      </trkpt>
      <trkpt lat="49.11868" lon="1.43016">
        <ele>78.8</ele>
        <time>2021-04-14T16:45:37Z</time>
      </trkpt>
      <trkpt lat="49.11873" lon="1.43016">
        <ele>78.8</ele>
        <time>2021-04-14T16:45:38Z</time>
      </trkpt>
      <trkpt lat="49.11895" lon="1.43018">
        <ele>78.8</ele>
        <time>2021-04-14T16:45:43Z</time>
      </trkpt>
      <trkpt lat="49.11904" lon="1.43019">
        <ele>78.6</ele>
        <time>2021-04-14T16:45:45Z</time>
      </trkpt>
      <trkpt lat="49.11913" lon="1.43019">
        <ele>78</ele>
        <time>2021-04-14T16:45:47Z</time>
      </trkpt>
      <trkpt lat="49.11923" lon="1.43019">
        <ele>77.6</ele>
        <time>2021-04-14T16:45:49Z</time>
      </trkpt>
      <trkpt lat="49.11928" lon="1.43019">
        <ele>77.4</ele>
        <time>2021-04-14T16:45:50Z</time>
      </trkpt>
      <trkpt lat="49.11943" lon="1.43019">
        <ele>76.4</ele>
        <time>2021-04-14T16:45:53Z</time>
      </trkpt>
      <trkpt lat="49.11961" lon="1.43019">
        <ele>75.2</ele>
        <time>2021-04-14T16:45:57Z</time>
      </trkpt>
      <trkpt lat="49.1197" lon="1.43018">
        <ele>74.2</ele>
        <time>2021-04-14T16:45:59Z</time>
      </trkpt>
      <trkpt lat="49.11987" lon="1.43015">
        <ele>73.4</ele>
        <time>2021-04-14T16:46:02Z</time>
      </trkpt>
      <trkpt lat="49.12015" lon="1.43007">
        <ele>73</ele>
        <time>2021-04-14T16:46:07Z</time>
      </trkpt>
      <trkpt lat="49.12032" lon="1.43002">
        <ele>71.8</ele>
        <time>2021-04-14T16:46:10Z</time>
      </trkpt>
      <trkpt lat="49.12038" lon="1.43">
        <ele>71.4</ele>
        <time>2021-04-14T16:46:11Z</time>
      </trkpt>
      <trkpt lat="49.12043" lon="1.42999">
        <ele>70.8</ele>
        <time>2021-04-14T16:46:12Z</time>
      </trkpt>
      <trkpt lat="49.12058" lon="1.42996">
        <ele>69.8</ele>
        <time>2021-04-14T16:46:15Z</time>
      </trkpt>
      <trkpt lat="49.12063" lon="1.42995">
        <ele>69.6</ele>
        <time>2021-04-14T16:46:16Z</time>
      </trkpt>
      <trkpt lat="49.12088" lon="1.42993">
        <ele>68.6</ele>
        <time>2021-04-14T16:46:21Z</time>
      </trkpt>
      <trkpt lat="49.12092" lon="1.42992">
        <ele>68.4</ele>
        <time>2021-04-14T16:46:22Z</time>
      </trkpt>
      <trkpt lat="49.12111" lon="1.42983">
        <ele>68.4</ele>
        <time>2021-04-14T16:46:26Z</time>
      </trkpt>
      <trkpt lat="49.12142" lon="1.42966">
        <ele>68.2</ele>
        <time>2021-04-14T16:46:32Z</time>
      </trkpt>
      <trkpt lat="49.12162" lon="1.42957">
        <ele>67.6</ele>
        <time>2021-04-14T16:46:36Z</time>
      </trkpt>
      <trkpt lat="49.12168" lon="1.42955">
        <ele>67.4</ele>
        <time>2021-04-14T16:46:37Z</time>
      </trkpt>
      <trkpt lat="49.12174" lon="1.42954">
        <ele>67.2</ele>
        <time>2021-04-14T16:46:38Z</time>
      </trkpt>
      <trkpt lat="49.12197" lon="1.42957">
        <ele>66.8</ele>
        <time>2021-04-14T16:46:41Z</time>
      </trkpt>
      <trkpt lat="49.12203" lon="1.42957">
        <ele>66.6</ele>
        <time>2021-04-14T16:46:42Z</time>
      </trkpt>
      <trkpt lat="49.12209" lon="1.42957">
        <ele>66.4</ele>
        <time>2021-04-14T16:46:43Z</time>
      </trkpt>
      <trkpt lat="49.12213" lon="1.42955">
        <ele>66</ele>
        <time>2021-04-14T16:46:44Z</time>
      </trkpt>
      <trkpt lat="49.12217" lon="1.42952">
        <ele>65.6</ele>
        <time>2021-04-14T16:46:45Z</time>
      </trkpt>
      <trkpt lat="49.12225" lon="1.42945">
        <ele>64.2</ele>
        <time>2021-04-14T16:46:48Z</time>
      </trkpt>
      <trkpt lat="49.12226" lon="1.42944">
        <ele>62.8</ele>
        <time>2021-04-14T16:46:50Z</time>
      </trkpt>
      <trkpt lat="49.12226" lon="1.42944">
        <ele>62</ele>
        <time>2021-04-14T16:46:51Z</time>
      </trkpt>
      <trkpt lat="49.12227" lon="1.42948">
        <ele>59.4</ele>
        <time>2021-04-14T16:46:57Z</time>
      </trkpt>
      <trkpt lat="49.12223" lon="1.42956">
        <ele>59</ele>
        <time>2021-04-14T16:47:00Z</time>
      </trkpt>
      <trkpt lat="49.12214" lon="1.42972">
        <ele>59</ele>
        <time>2021-04-14T16:47:04Z</time>
      </trkpt>
      <trkpt lat="49.1222" lon="1.42977">
        <ele>58.6</ele>
        <time>2021-04-14T16:47:07Z</time>
      </trkpt>
      <trkpt lat="49.12224" lon="1.42975">
        <ele>58.4</ele>
        <time>2021-04-14T16:47:08Z</time>
      </trkpt>
      <trkpt lat="49.12227" lon="1.42974">
        <ele>58.2</ele>
        <time>2021-04-14T16:47:09Z</time>
      </trkpt>
      <trkpt lat="49.1224" lon="1.42969">
        <ele>57</ele>
        <time>2021-04-14T16:47:12Z</time>
      </trkpt>
      <trkpt lat="49.12245" lon="1.42968">
        <ele>56.6</ele>
        <time>2021-04-14T16:47:13Z</time>
      </trkpt>
      <trkpt lat="49.12255" lon="1.42964">
        <ele>56</ele>
        <time>2021-04-14T16:47:15Z</time>
      </trkpt>
      <trkpt lat="49.1228" lon="1.42956">
        <ele>55</ele>
        <time>2021-04-14T16:47:20Z</time>
      </trkpt>
      <trkpt lat="49.12285" lon="1.42954">
        <ele>54.6</ele>
        <time>2021-04-14T16:47:21Z</time>
      </trkpt>
      <trkpt lat="49.12294" lon="1.4295">
        <ele>53.6</ele>
        <time>2021-04-14T16:47:23Z</time>
      </trkpt>
      <trkpt lat="49.12314" lon="1.42943">
        <ele>53.4</ele>
        <time>2021-04-14T16:47:27Z</time>
      </trkpt>
      <trkpt lat="49.1234" lon="1.42935">
        <ele>52.4</ele>
        <time>2021-04-14T16:47:33Z</time>
      </trkpt>
      <trkpt lat="49.12344" lon="1.42934">
        <ele>52.4</ele>
        <time>2021-04-14T16:47:34Z</time>
      </trkpt>
      <trkpt lat="49.1237" lon="1.42927">
        <ele>52.2</ele>
        <time>2021-04-14T16:47:41Z</time>
      </trkpt>
      <trkpt lat="49.12393" lon="1.42919">
        <ele>52.6</ele>
        <time>2021-04-14T16:47:48Z</time>
      </trkpt>
      <trkpt lat="49.12405" lon="1.42916">
        <ele>53.8</ele>
        <time>2021-04-14T16:47:52Z</time>
      </trkpt>
      <trkpt lat="49.12411" lon="1.42914">
        <ele>54.6</ele>
        <time>2021-04-14T16:47:54Z</time>
      </trkpt>
      <trkpt lat="49.12417" lon="1.42911">
        <ele>54.8</ele>
        <time>2021-04-14T16:47:56Z</time>
      </trkpt>
      <trkpt lat="49.12434" lon="1.42903">
        <ele>55.2</ele>
        <time>2021-04-14T16:48:01Z</time>
      </trkpt>
      <trkpt lat="49.12455" lon="1.42892">
        <ele>55.8</ele>
        <time>2021-04-14T16:48:07Z</time>
      </trkpt>
      <trkpt lat="49.12473" lon="1.42883">
        <ele>55.8</ele>
        <time>2021-04-14T16:48:12Z</time>
      </trkpt>
      <trkpt lat="49.12482" lon="1.42879">
        <ele>55.4</ele>
        <time>2021-04-14T16:48:14Z</time>
      </trkpt>
      <trkpt lat="49.125" lon="1.4287">
        <ele>54</ele>
        <time>2021-04-14T16:48:18Z</time>
      </trkpt>
      <trkpt lat="49.12505" lon="1.42868">
        <ele>53.8</ele>
        <time>2021-04-14T16:48:19Z</time>
      </trkpt>
      <trkpt lat="49.12517" lon="1.42864">
        <ele>53.2</ele>
        <time>2021-04-14T16:48:22Z</time>
      </trkpt>
      <trkpt lat="49.12539" lon="1.42855">
        <ele>52.4</ele>
        <time>2021-04-14T16:48:27Z</time>
      </trkpt>
      <trkpt lat="49.12563" lon="1.4285">
        <ele>52.2</ele>
        <time>2021-04-14T16:48:32Z</time>
      </trkpt>
      <trkpt lat="49.12568" lon="1.42849">
        <ele>52.2</ele>
        <time>2021-04-14T16:48:33Z</time>
      </trkpt>
      <trkpt lat="49.12603" lon="1.42843">
        <ele>51.8</ele>
        <time>2021-04-14T16:48:40Z</time>
      </trkpt>
      <trkpt lat="49.12618" lon="1.42839">
        <ele>51.2</ele>
        <time>2021-04-14T16:48:43Z</time>
      </trkpt>
      <trkpt lat="49.12627" lon="1.42838">
        <ele>50.6</ele>
        <time>2021-04-14T16:48:45Z</time>
      </trkpt>
      <trkpt lat="49.12631" lon="1.42837">
        <ele>50.2</ele>
        <time>2021-04-14T16:48:46Z</time>
      </trkpt>
      <trkpt lat="49.12636" lon="1.42836">
        <ele>50</ele>
        <time>2021-04-14T16:48:47Z</time>
      </trkpt>
      <trkpt lat="49.12645" lon="1.42834">
        <ele>49.4</ele>
        <time>2021-04-14T16:48:49Z</time>
      </trkpt>
      <trkpt lat="49.12649" lon="1.42833">
        <ele>48.6</ele>
        <time>2021-04-14T16:48:50Z</time>
      </trkpt>
      <trkpt lat="49.12654" lon="1.42831">
        <ele>48.4</ele>
        <time>2021-04-14T16:48:51Z</time>
      </trkpt>
      <trkpt lat="49.12663" lon="1.42824">
        <ele>47.6</ele>
        <time>2021-04-14T16:48:53Z</time>
      </trkpt>
      <trkpt lat="49.12668" lon="1.42821">
        <ele>47</ele>
        <time>2021-04-14T16:48:54Z</time>
      </trkpt>
      <trkpt lat="49.12672" lon="1.42817">
        <ele>46.8</ele>
        <time>2021-04-14T16:48:55Z</time>
      </trkpt>
      <trkpt lat="49.12678" lon="1.42813">
        <ele>46.4</ele>
        <time>2021-04-14T16:48:56Z</time>
      </trkpt>
      <trkpt lat="49.12688" lon="1.42804">
        <ele>45.6</ele>
        <time>2021-04-14T16:48:58Z</time>
      </trkpt>
      <trkpt lat="49.12693" lon="1.428">
        <ele>45.2</ele>
        <time>2021-04-14T16:48:59Z</time>
      </trkpt>
      <trkpt lat="49.12708" lon="1.42787">
        <ele>44</ele>
        <time>2021-04-14T16:49:02Z</time>
      </trkpt>
      <trkpt lat="49.12715" lon="1.42784">
        <ele>43.8</ele>
        <time>2021-04-14T16:49:03Z</time>
      </trkpt>
      <trkpt lat="49.12737" lon="1.42782">
        <ele>43.2</ele>
        <time>2021-04-14T16:49:06Z</time>
      </trkpt>
      <trkpt lat="49.12743" lon="1.42782">
        <ele>43</ele>
        <time>2021-04-14T16:49:07Z</time>
      </trkpt>
      <trkpt lat="49.12749" lon="1.4278">
        <ele>42.6</ele>
        <time>2021-04-14T16:49:08Z</time>
      </trkpt>
      <trkpt lat="49.12762" lon="1.42774">
        <ele>41.6</ele>
        <time>2021-04-14T16:49:10Z</time>
      </trkpt>
      <trkpt lat="49.12771" lon="1.42776">
        <ele>40.6</ele>
        <time>2021-04-14T16:49:12Z</time>
      </trkpt>
      <trkpt lat="49.12775" lon="1.42779">
        <ele>40.4</ele>
        <time>2021-04-14T16:49:13Z</time>
      </trkpt>
      <trkpt lat="49.12782" lon="1.42789">
        <ele>39.6</ele>
        <time>2021-04-14T16:49:15Z</time>
      </trkpt>
      <trkpt lat="49.12788" lon="1.42803">
        <ele>38</ele>
        <time>2021-04-14T16:49:17Z</time>
      </trkpt>
      <trkpt lat="49.12792" lon="1.42812">
        <ele>36.8</ele>
        <time>2021-04-14T16:49:18Z</time>
      </trkpt>
      <trkpt lat="49.12807" lon="1.4285">
        <ele>36</ele>
        <time>2021-04-14T16:49:22Z</time>
      </trkpt>
      <trkpt lat="49.1281" lon="1.4286">
        <ele>35.6</ele>
        <time>2021-04-14T16:49:23Z</time>
      </trkpt>
      <trkpt lat="49.12817" lon="1.42879">
        <ele>34.6</ele>
        <time>2021-04-14T16:49:25Z</time>
      </trkpt>
      <trkpt lat="49.12822" lon="1.42898">
        <ele>33.2</ele>
        <time>2021-04-14T16:49:27Z</time>
      </trkpt>
      <trkpt lat="49.12828" lon="1.42916">
        <ele>31.6</ele>
        <time>2021-04-14T16:49:29Z</time>
      </trkpt>
      <trkpt lat="49.12831" lon="1.42925">
        <ele>31</ele>
        <time>2021-04-14T16:49:30Z</time>
      </trkpt>
      <trkpt lat="49.12834" lon="1.42935">
        <ele>30.4</ele>
        <time>2021-04-14T16:49:31Z</time>
      </trkpt>
      <trkpt lat="49.1284" lon="1.42953">
        <ele>29.2</ele>
        <time>2021-04-14T16:49:33Z</time>
      </trkpt>
      <trkpt lat="49.1285" lon="1.4298">
        <ele>28</ele>
        <time>2021-04-14T16:49:36Z</time>
      </trkpt>
      <trkpt lat="49.12858" lon="1.43005">
        <ele>27</ele>
        <time>2021-04-14T16:49:39Z</time>
      </trkpt>
      <trkpt lat="49.12866" lon="1.43028">
        <ele>25.6</ele>
        <time>2021-04-14T16:49:42Z</time>
      </trkpt>
      <trkpt lat="49.12871" lon="1.43042">
        <ele>24.8</ele>
        <time>2021-04-14T16:49:44Z</time>
      </trkpt>
      <trkpt lat="49.12873" lon="1.43048">
        <ele>24.6</ele>
        <time>2021-04-14T16:49:45Z</time>
      </trkpt>
      <trkpt lat="49.12878" lon="1.43056">
        <ele>24</ele>
        <time>2021-04-14T16:49:47Z</time>
      </trkpt>
      <trkpt lat="49.12882" lon="1.43057">
        <ele>24</ele>
        <time>2021-04-14T16:49:48Z</time>
      </trkpt>
      <trkpt lat="49.12899" lon="1.43044">
        <ele>23.8</ele>
        <time>2021-04-14T16:49:53Z</time>
      </trkpt>
      <trkpt lat="49.12921" lon="1.43025">
        <ele>23.4</ele>
        <time>2021-04-14T16:49:59Z</time>
      </trkpt>
      <trkpt lat="49.12928" lon="1.43018">
        <ele>23.2</ele>
        <time>2021-04-14T16:50:01Z</time>
      </trkpt>
      <trkpt lat="49.1295" lon="1.42999">
        <ele>22.8</ele>
        <time>2021-04-14T16:50:07Z</time>
      </trkpt>
      <trkpt lat="49.12958" lon="1.42993">
        <ele>22.8</ele>
        <time>2021-04-14T16:50:09Z</time>
      </trkpt>
      <trkpt lat="49.12962" lon="1.42991">
        <ele>22.8</ele>
        <time>2021-04-14T16:50:10Z</time>
      </trkpt>
      <trkpt lat="49.12977" lon="1.42981">
        <ele>22.8</ele>
        <time>2021-04-14T16:50:14Z</time>
      </trkpt>
      <trkpt lat="49.12979" lon="1.42983">
        <ele>22.8</ele>
        <time>2021-04-14T16:50:15Z</time>
      </trkpt>
      <trkpt lat="49.12987" lon="1.43005">
        <ele>22.8</ele>
        <time>2021-04-14T16:50:20Z</time>
      </trkpt>
      <trkpt lat="49.13001" lon="1.43047">
        <ele>23</ele>
        <time>2021-04-14T16:50:29Z</time>
      </trkpt>
      <trkpt lat="49.13004" lon="1.43053">
        <ele>23</ele>
        <time>2021-04-14T16:50:32Z</time>
      </trkpt>
      <trkpt lat="49.13004" lon="1.43053">
        <ele>23</ele>
        <time>2021-04-14T16:50:33Z</time>
      </trkpt>
      <trkpt lat="49.13005" lon="1.43053">
        <ele>23</ele>
        <time>2021-04-14T16:50:34Z</time>
      </trkpt>
      <trkpt lat="49.13007" lon="1.43054">
        <ele>22.2</ele>
        <time>2021-04-14T16:50:46Z</time>
      </trkpt>
      <trkpt lat="49.1301" lon="1.43057">
        <ele>22.2</ele>
        <time>2021-04-14T16:50:48Z</time>
      </trkpt>
      <trkpt lat="49.13013" lon="1.4306">
        <ele>22.2</ele>
        <time>2021-04-14T16:50:50Z</time>
      </trkpt>
      <trkpt lat="49.13016" lon="1.43067">
        <ele>22.2</ele>
        <time>2021-04-14T16:50:52Z</time>
      </trkpt>
      <trkpt lat="49.13026" lon="1.43078">
        <ele>22</ele>
        <time>2021-04-14T16:50:56Z</time>
      </trkpt>
      <trkpt lat="49.13035" lon="1.43086">
        <ele>22</ele>
        <time>2021-04-14T16:50:59Z</time>
      </trkpt>
      <trkpt lat="49.13038" lon="1.43093">
        <ele>22</ele>
        <time>2021-04-14T16:51:00Z</time>
      </trkpt>
      <trkpt lat="49.13045" lon="1.43104">
        <ele>21</ele>
        <time>2021-04-14T16:51:03Z</time>
      </trkpt>
      <trkpt lat="49.13048" lon="1.43106">
        <ele>20.6</ele>
        <time>2021-04-14T16:51:04Z</time>
      </trkpt>
      <trkpt lat="49.13052" lon="1.43113">
        <ele>20</ele>
        <time>2021-04-14T16:51:06Z</time>
      </trkpt>
      <trkpt lat="49.13055" lon="1.43116">
        <ele>20</ele>
        <time>2021-04-14T16:51:07Z</time>
      </trkpt>
      <trkpt lat="49.1306" lon="1.43124">
        <ele>19.6</ele>
        <time>2021-04-14T16:51:09Z</time>
      </trkpt>
      <trkpt lat="49.13072" lon="1.43144">
        <ele>18.8</ele>
        <time>2021-04-14T16:51:14Z</time>
      </trkpt>
      <trkpt lat="49.13076" lon="1.43151">
        <ele>18.6</ele>
        <time>2021-04-14T16:51:16Z</time>
      </trkpt>
      <trkpt lat="49.13093" lon="1.43176">
        <ele>18.2</ele>
        <time>2021-04-14T16:51:23Z</time>
      </trkpt>
      <trkpt lat="49.13112" lon="1.43207">
        <ele>18.6</ele>
        <time>2021-04-14T16:51:31Z</time>
      </trkpt>
      <trkpt lat="49.13125" lon="1.43233">
        <ele>19</ele>
        <time>2021-04-14T16:51:38Z</time>
      </trkpt>
      <trkpt lat="49.13133" lon="1.43242">
        <ele>19.4</ele>
        <time>2021-04-14T16:51:44Z</time>
      </trkpt>
      <trkpt lat="49.13133" lon="1.43242">
        <ele>19.4</ele>
        <time>2021-04-14T16:51:45Z</time>
      </trkpt>
      <trkpt lat="49.13136" lon="1.4324">
        <ele>20.4</ele>
        <time>2021-04-14T16:55:26Z</time>
      </trkpt>
      <trkpt lat="49.13137" lon="1.43239">
        <ele>20.4</ele>
        <time>2021-04-14T16:55:28Z</time>
      </trkpt>
      <trkpt lat="49.13141" lon="1.43233">
        <ele>20.4</ele>
        <time>2021-04-14T16:55:30Z</time>
      </trkpt>
      <trkpt lat="49.13142" lon="1.43228">
        <ele>20.4</ele>
        <time>2021-04-14T16:55:31Z</time>
      </trkpt>
      <trkpt lat="49.13153" lon="1.43207">
        <ele>20.2</ele>
        <time>2021-04-14T16:55:35Z</time>
      </trkpt>
      <trkpt lat="49.13179" lon="1.43163">
        <ele>19.8</ele>
        <time>2021-04-14T16:55:42Z</time>
      </trkpt>
      <trkpt lat="49.13199" lon="1.43129">
        <ele>19.4</ele>
        <time>2021-04-14T16:55:47Z</time>
      </trkpt>
      <trkpt lat="49.13212" lon="1.4311">
        <ele>19.2</ele>
        <time>2021-04-14T16:55:50Z</time>
      </trkpt>
      <trkpt lat="49.13244" lon="1.43076">
        <ele>19.2</ele>
        <time>2021-04-14T16:55:57Z</time>
      </trkpt>
      <trkpt lat="49.13248" lon="1.43072">
        <ele>19.2</ele>
        <time>2021-04-14T16:55:58Z</time>
      </trkpt>
      <trkpt lat="49.13268" lon="1.43047">
        <ele>19.4</ele>
        <time>2021-04-14T16:56:03Z</time>
      </trkpt>
      <trkpt lat="49.13301" lon="1.43001">
        <ele>19.8</ele>
        <time>2021-04-14T16:56:12Z</time>
      </trkpt>
      <trkpt lat="49.13336" lon="1.42956">
        <ele>20.4</ele>
        <time>2021-04-14T16:56:21Z</time>
      </trkpt>
      <trkpt lat="49.13339" lon="1.4295">
        <ele>20.4</ele>
        <time>2021-04-14T16:56:22Z</time>
      </trkpt>
      <trkpt lat="49.13362" lon="1.42914">
        <ele>20.6</ele>
        <time>2021-04-14T16:56:28Z</time>
      </trkpt>
      <trkpt lat="49.13395" lon="1.42862">
        <ele>20.4</ele>
        <time>2021-04-14T16:56:37Z</time>
      </trkpt>
      <trkpt lat="49.13414" lon="1.42835">
        <ele>20.2</ele>
        <time>2021-04-14T16:56:42Z</time>
      </trkpt>
      <trkpt lat="49.13444" lon="1.428">
        <ele>20</ele>
        <time>2021-04-14T16:56:49Z</time>
      </trkpt>
      <trkpt lat="49.13468" lon="1.42769">
        <ele>20</ele>
        <time>2021-04-14T16:56:55Z</time>
      </trkpt>
      <trkpt lat="49.13471" lon="1.42763">
        <ele>19.8</ele>
        <time>2021-04-14T16:56:56Z</time>
      </trkpt>
      <trkpt lat="49.13493" lon="1.42724">
        <ele>19.6</ele>
        <time>2021-04-14T16:57:02Z</time>
      </trkpt>
      <trkpt lat="49.13505" lon="1.42707">
        <ele>19.4</ele>
        <time>2021-04-14T16:57:05Z</time>
      </trkpt>
      <trkpt lat="49.13511" lon="1.42694">
        <ele>19.2</ele>
        <time>2021-04-14T16:57:07Z</time>
      </trkpt>
      <trkpt lat="49.13542" lon="1.42637">
        <ele>19</ele>
        <time>2021-04-14T16:57:16Z</time>
      </trkpt>
      <trkpt lat="49.13575" lon="1.42574">
        <ele>19.6</ele>
        <time>2021-04-14T16:57:26Z</time>
      </trkpt>
      <trkpt lat="49.1361" lon="1.42523">
        <ele>19.6</ele>
        <time>2021-04-14T16:57:35Z</time>
      </trkpt>
      <trkpt lat="49.13644" lon="1.42468">
        <ele>19.4</ele>
        <time>2021-04-14T16:57:44Z</time>
      </trkpt>
      <trkpt lat="49.13674" lon="1.42408">
        <ele>19.2</ele>
        <time>2021-04-14T16:57:53Z</time>
      </trkpt>
      <trkpt lat="49.1371" lon="1.42344">
        <ele>19.2</ele>
        <time>2021-04-14T16:58:03Z</time>
      </trkpt>
      <trkpt lat="49.13713" lon="1.42338">
        <ele>19.2</ele>
        <time>2021-04-14T16:58:04Z</time>
      </trkpt>
      <trkpt lat="49.13738" lon="1.423">
        <ele>19</ele>
        <time>2021-04-14T16:58:11Z</time>
      </trkpt>
      <trkpt lat="49.13774" lon="1.4225">
        <ele>19</ele>
        <time>2021-04-14T16:58:20Z</time>
      </trkpt>
      <trkpt lat="49.13778" lon="1.42245">
        <ele>19</ele>
        <time>2021-04-14T16:58:21Z</time>
      </trkpt>
      <trkpt lat="49.13798" lon="1.42217">
        <ele>19</ele>
        <time>2021-04-14T16:58:26Z</time>
      </trkpt>
      <trkpt lat="49.13823" lon="1.42186">
        <ele>19.2</ele>
        <time>2021-04-14T16:58:32Z</time>
      </trkpt>
      <trkpt lat="49.13835" lon="1.42171">
        <ele>19.2</ele>
        <time>2021-04-14T16:58:35Z</time>
      </trkpt>
      <trkpt lat="49.13844" lon="1.42162">
        <ele>19.2</ele>
        <time>2021-04-14T16:58:37Z</time>
      </trkpt>
      <trkpt lat="49.1387" lon="1.42128">
        <ele>19.2</ele>
        <time>2021-04-14T16:58:43Z</time>
      </trkpt>
      <trkpt lat="49.13885" lon="1.42112">
        <ele>19</ele>
        <time>2021-04-14T16:58:46Z</time>
      </trkpt>
      <trkpt lat="49.13899" lon="1.42094">
        <ele>19</ele>
        <time>2021-04-14T16:58:49Z</time>
      </trkpt>
      <trkpt lat="49.13922" lon="1.42069">
        <ele>18.6</ele>
        <time>2021-04-14T16:58:54Z</time>
      </trkpt>
      <trkpt lat="49.13932" lon="1.42059">
        <ele>18.4</ele>
        <time>2021-04-14T16:58:56Z</time>
      </trkpt>
      <trkpt lat="49.13936" lon="1.42054">
        <ele>18.2</ele>
        <time>2021-04-14T16:58:57Z</time>
      </trkpt>
      <trkpt lat="49.13951" lon="1.42042">
        <ele>18.2</ele>
        <time>2021-04-14T16:59:00Z</time>
      </trkpt>
      <trkpt lat="49.13971" lon="1.42014">
        <ele>18</ele>
        <time>2021-04-14T16:59:05Z</time>
      </trkpt>
      <trkpt lat="49.13979" lon="1.42003">
        <ele>18</ele>
        <time>2021-04-14T16:59:07Z</time>
      </trkpt>
      <trkpt lat="49.13987" lon="1.41994">
        <ele>18</ele>
        <time>2021-04-14T16:59:09Z</time>
      </trkpt>
      <trkpt lat="49.13991" lon="1.41989">
        <ele>18</ele>
        <time>2021-04-14T16:59:10Z</time>
      </trkpt>
      <trkpt lat="49.14016" lon="1.41958">
        <ele>18.2</ele>
        <time>2021-04-14T16:59:16Z</time>
      </trkpt>
      <trkpt lat="49.14024" lon="1.41948">
        <ele>18.4</ele>
        <time>2021-04-14T16:59:18Z</time>
      </trkpt>
      <trkpt lat="49.14038" lon="1.41933">
        <ele>18.4</ele>
        <time>2021-04-14T16:59:21Z</time>
      </trkpt>
      <trkpt lat="49.14065" lon="1.41903">
        <ele>18.4</ele>
        <time>2021-04-14T16:59:27Z</time>
      </trkpt>
      <trkpt lat="49.14075" lon="1.41877">
        <ele>18.6</ele>
        <time>2021-04-14T16:59:31Z</time>
      </trkpt>
      <trkpt lat="49.14082" lon="1.41866">
        <ele>18.6</ele>
        <time>2021-04-14T16:59:33Z</time>
      </trkpt>
      <trkpt lat="49.1409" lon="1.41856">
        <ele>18.6</ele>
        <time>2021-04-14T16:59:35Z</time>
      </trkpt>
      <trkpt lat="49.1411" lon="1.41833">
        <ele>18.6</ele>
        <time>2021-04-14T16:59:40Z</time>
      </trkpt>
      <trkpt lat="49.14114" lon="1.41828">
        <ele>18.6</ele>
        <time>2021-04-14T16:59:41Z</time>
      </trkpt>
      <trkpt lat="49.14119" lon="1.41823">
        <ele>18.6</ele>
        <time>2021-04-14T16:59:42Z</time>
      </trkpt>
      <trkpt lat="49.14151" lon="1.41784">
        <ele>17.6</ele>
        <time>2021-04-14T16:59:50Z</time>
      </trkpt>
      <trkpt lat="49.14155" lon="1.41779">
        <ele>17.6</ele>
        <time>2021-04-14T16:59:51Z</time>
      </trkpt>
      <trkpt lat="49.14181" lon="1.41752">
        <ele>17.4</ele>
        <time>2021-04-14T16:59:57Z</time>
      </trkpt>
      <trkpt lat="49.1421" lon="1.41731">
        <ele>17.8</ele>
        <time>2021-04-14T17:00:03Z</time>
      </trkpt>
      <trkpt lat="49.14237" lon="1.41715">
        <ele>18</ele>
        <time>2021-04-14T17:00:09Z</time>
      </trkpt>
      <trkpt lat="49.14272" lon="1.41696">
        <ele>18.4</ele>
        <time>2021-04-14T17:00:16Z</time>
      </trkpt>
      <trkpt lat="49.14277" lon="1.41693">
        <ele>18.4</ele>
        <time>2021-04-14T17:00:17Z</time>
      </trkpt>
      <trkpt lat="49.14292" lon="1.41688">
        <ele>18.4</ele>
        <time>2021-04-14T17:00:20Z</time>
      </trkpt>
      <trkpt lat="49.14297" lon="1.41686">
        <ele>18.6</ele>
        <time>2021-04-14T17:00:21Z</time>
      </trkpt>
      <trkpt lat="49.14322" lon="1.41671">
        <ele>18.6</ele>
        <time>2021-04-14T17:00:26Z</time>
      </trkpt>
      <trkpt lat="49.14327" lon="1.41668">
        <ele>18.6</ele>
        <time>2021-04-14T17:00:27Z</time>
      </trkpt>
      <trkpt lat="49.14348" lon="1.41656">
        <ele>18.6</ele>
        <time>2021-04-14T17:00:31Z</time>
      </trkpt>
      <trkpt lat="49.14363" lon="1.41646">
        <ele>18.8</ele>
        <time>2021-04-14T17:00:34Z</time>
      </trkpt>
      <trkpt lat="49.14393" lon="1.41624">
        <ele>19</ele>
        <time>2021-04-14T17:00:40Z</time>
      </trkpt>
      <trkpt lat="49.14411" lon="1.41606">
        <ele>19</ele>
        <time>2021-04-14T17:00:44Z</time>
      </trkpt>
      <trkpt lat="49.14415" lon="1.41602">
        <ele>19</ele>
        <time>2021-04-14T17:00:45Z</time>
      </trkpt>
      <trkpt lat="49.14438" lon="1.41581">
        <ele>18.6</ele>
        <time>2021-04-14T17:00:50Z</time>
      </trkpt>
      <trkpt lat="49.14442" lon="1.41577">
        <ele>18.6</ele>
        <time>2021-04-14T17:00:51Z</time>
      </trkpt>
      <trkpt lat="49.14465" lon="1.41557">
        <ele>18.4</ele>
        <time>2021-04-14T17:00:56Z</time>
      </trkpt>
      <trkpt lat="49.14473" lon="1.41548">
        <ele>18.4</ele>
        <time>2021-04-14T17:00:58Z</time>
      </trkpt>
      <trkpt lat="49.14481" lon="1.41538">
        <ele>18.2</ele>
        <time>2021-04-14T17:01:00Z</time>
      </trkpt>
      <trkpt lat="49.14494" lon="1.41522">
        <ele>18.2</ele>
        <time>2021-04-14T17:01:03Z</time>
      </trkpt>
      <trkpt lat="49.14502" lon="1.41511">
        <ele>18.4</ele>
        <time>2021-04-14T17:01:05Z</time>
      </trkpt>
      <trkpt lat="49.1454" lon="1.41465">
        <ele>18.4</ele>
        <time>2021-04-14T17:01:14Z</time>
      </trkpt>
      <trkpt lat="49.14574" lon="1.41429">
        <ele>18.4</ele>
        <time>2021-04-14T17:01:22Z</time>
      </trkpt>
      <trkpt lat="49.14602" lon="1.41398">
        <ele>18.6</ele>
        <time>2021-04-14T17:01:29Z</time>
      </trkpt>
      <trkpt lat="49.1461" lon="1.4139">
        <ele>18.6</ele>
        <time>2021-04-14T17:01:31Z</time>
      </trkpt>
      <trkpt lat="49.14633" lon="1.41368">
        <ele>18.8</ele>
        <time>2021-04-14T17:01:37Z</time>
      </trkpt>
      <trkpt lat="49.1464" lon="1.41359">
        <ele>19</ele>
        <time>2021-04-14T17:01:39Z</time>
      </trkpt>
      <trkpt lat="49.14659" lon="1.41338">
        <ele>19.4</ele>
        <time>2021-04-14T17:01:44Z</time>
      </trkpt>
      <trkpt lat="49.14667" lon="1.41328">
        <ele>19.6</ele>
        <time>2021-04-14T17:01:46Z</time>
      </trkpt>
      <trkpt lat="49.14702" lon="1.41283">
        <ele>19.6</ele>
        <time>2021-04-14T17:01:55Z</time>
      </trkpt>
      <trkpt lat="49.1471" lon="1.41273">
        <ele>19.6</ele>
        <time>2021-04-14T17:01:57Z</time>
      </trkpt>
      <trkpt lat="49.14731" lon="1.41247">
        <ele>19.4</ele>
        <time>2021-04-14T17:02:02Z</time>
      </trkpt>
      <trkpt lat="49.14743" lon="1.4123">
        <ele>19.2</ele>
        <time>2021-04-14T17:02:05Z</time>
      </trkpt>
      <trkpt lat="49.1475" lon="1.41218">
        <ele>19.2</ele>
        <time>2021-04-14T17:02:07Z</time>
      </trkpt>
      <trkpt lat="49.14758" lon="1.41208">
        <ele>19.2</ele>
        <time>2021-04-14T17:02:09Z</time>
      </trkpt>
      <trkpt lat="49.14791" lon="1.41163">
        <ele>19.4</ele>
        <time>2021-04-14T17:02:18Z</time>
      </trkpt>
      <trkpt lat="49.14803" lon="1.41145">
        <ele>19.6</ele>
        <time>2021-04-14T17:02:22Z</time>
      </trkpt>
      <trkpt lat="49.14813" lon="1.41131">
        <ele>20</ele>
        <time>2021-04-14T17:02:25Z</time>
      </trkpt>
      <trkpt lat="49.14816" lon="1.41126">
        <ele>20</ele>
        <time>2021-04-14T17:02:26Z</time>
      </trkpt>
      <trkpt lat="49.1483" lon="1.41105">
        <ele>20.4</ele>
        <time>2021-04-14T17:02:31Z</time>
      </trkpt>
      <trkpt lat="49.14833" lon="1.41101">
        <ele>20.6</ele>
        <time>2021-04-14T17:02:32Z</time>
      </trkpt>
      <trkpt lat="49.14843" lon="1.4109">
        <ele>20.8</ele>
        <time>2021-04-14T17:02:35Z</time>
      </trkpt>
      <trkpt lat="49.1485" lon="1.4108">
        <ele>20.8</ele>
        <time>2021-04-14T17:02:37Z</time>
      </trkpt>
      <trkpt lat="49.14875" lon="1.41051">
        <ele>21.2</ele>
        <time>2021-04-14T17:02:43Z</time>
      </trkpt>
      <trkpt lat="49.14879" lon="1.41046">
        <ele>21.4</ele>
        <time>2021-04-14T17:02:44Z</time>
      </trkpt>
      <trkpt lat="49.14896" lon="1.41028">
        <ele>21.4</ele>
        <time>2021-04-14T17:02:48Z</time>
      </trkpt>
      <trkpt lat="49.14929" lon="1.40994">
        <ele>21.2</ele>
        <time>2021-04-14T17:02:55Z</time>
      </trkpt>
      <trkpt lat="49.14954" lon="1.4097">
        <ele>20.8</ele>
        <time>2021-04-14T17:03:00Z</time>
      </trkpt>
      <trkpt lat="49.14986" lon="1.40941">
        <ele>20.4</ele>
        <time>2021-04-14T17:03:06Z</time>
      </trkpt>
      <trkpt lat="49.14991" lon="1.40937">
        <ele>20</ele>
        <time>2021-04-14T17:03:07Z</time>
      </trkpt>
      <trkpt lat="49.15012" lon="1.40921">
        <ele>19.4</ele>
        <time>2021-04-14T17:03:11Z</time>
      </trkpt>
      <trkpt lat="49.15026" lon="1.40908">
        <ele>19.2</ele>
        <time>2021-04-14T17:03:14Z</time>
      </trkpt>
      <trkpt lat="49.15036" lon="1.40897">
        <ele>19.2</ele>
        <time>2021-04-14T17:03:16Z</time>
      </trkpt>
      <trkpt lat="49.15041" lon="1.40894">
        <ele>19.2</ele>
        <time>2021-04-14T17:03:17Z</time>
      </trkpt>
      <trkpt lat="49.15056" lon="1.40883">
        <ele>19.2</ele>
        <time>2021-04-14T17:03:20Z</time>
      </trkpt>
      <trkpt lat="49.15088" lon="1.4086">
        <ele>19</ele>
        <time>2021-04-14T17:03:26Z</time>
      </trkpt>
      <trkpt lat="49.15092" lon="1.40855">
        <ele>19</ele>
        <time>2021-04-14T17:03:27Z</time>
      </trkpt>
      <trkpt lat="49.15126" lon="1.40822">
        <ele>19.2</ele>
        <time>2021-04-14T17:03:34Z</time>
      </trkpt>
      <trkpt lat="49.15162" lon="1.40791">
        <ele>19.6</ele>
        <time>2021-04-14T17:03:41Z</time>
      </trkpt>
      <trkpt lat="49.15198" lon="1.40758">
        <ele>19.6</ele>
        <time>2021-04-14T17:03:48Z</time>
      </trkpt>
      <trkpt lat="49.15242" lon="1.40718">
        <ele>19.4</ele>
        <time>2021-04-14T17:03:57Z</time>
      </trkpt>
      <trkpt lat="49.15269" lon="1.40693">
        <ele>19.4</ele>
        <time>2021-04-14T17:04:03Z</time>
      </trkpt>
      <trkpt lat="49.15296" lon="1.40667">
        <ele>19.4</ele>
        <time>2021-04-14T17:04:09Z</time>
      </trkpt>
      <trkpt lat="49.15327" lon="1.40635">
        <ele>19</ele>
        <time>2021-04-14T17:04:16Z</time>
      </trkpt>
      <trkpt lat="49.15359" lon="1.40603">
        <ele>19</ele>
        <time>2021-04-14T17:04:23Z</time>
      </trkpt>
      <trkpt lat="49.15392" lon="1.40563">
        <ele>19</ele>
        <time>2021-04-14T17:04:31Z</time>
      </trkpt>
      <trkpt lat="49.1541" lon="1.40534">
        <ele>18.8</ele>
        <time>2021-04-14T17:04:36Z</time>
      </trkpt>
      <trkpt lat="49.15434" lon="1.40488">
        <ele>18.6</ele>
        <time>2021-04-14T17:04:43Z</time>
      </trkpt>
      <trkpt lat="49.15455" lon="1.4045">
        <ele>18.6</ele>
        <time>2021-04-14T17:04:49Z</time>
      </trkpt>
      <trkpt lat="49.15486" lon="1.40402">
        <ele>18.6</ele>
        <time>2021-04-14T17:04:57Z</time>
      </trkpt>
      <trkpt lat="49.15516" lon="1.40356">
        <ele>18.8</ele>
        <time>2021-04-14T17:05:05Z</time>
      </trkpt>
      <trkpt lat="49.15543" lon="1.40319">
        <ele>18.8</ele>
        <time>2021-04-14T17:05:12Z</time>
      </trkpt>
      <trkpt lat="49.15575" lon="1.40278">
        <ele>18.8</ele>
        <time>2021-04-14T17:05:20Z</time>
      </trkpt>
      <trkpt lat="49.15595" lon="1.40255">
        <ele>18.6</ele>
        <time>2021-04-14T17:05:25Z</time>
      </trkpt>
      <trkpt lat="49.15603" lon="1.40246">
        <ele>18.6</ele>
        <time>2021-04-14T17:05:27Z</time>
      </trkpt>
      <trkpt lat="49.15629" lon="1.40216">
        <ele>18.6</ele>
        <time>2021-04-14T17:05:34Z</time>
      </trkpt>
      <trkpt lat="49.15658" lon="1.40187">
        <ele>19.2</ele>
        <time>2021-04-14T17:05:42Z</time>
      </trkpt>
      <trkpt lat="49.15687" lon="1.40159">
        <ele>19.4</ele>
        <time>2021-04-14T17:05:50Z</time>
      </trkpt>
      <trkpt lat="49.15719" lon="1.40125">
        <ele>18.4</ele>
        <time>2021-04-14T17:05:59Z</time>
      </trkpt>
      <trkpt lat="49.15748" lon="1.40092">
        <ele>18</ele>
        <time>2021-04-14T17:06:08Z</time>
      </trkpt>
      <trkpt lat="49.15764" lon="1.40069">
        <ele>18.2</ele>
        <time>2021-04-14T17:06:14Z</time>
      </trkpt>
      <trkpt lat="49.15793" lon="1.40024">
        <ele>18.8</ele>
        <time>2021-04-14T17:06:24Z</time>
      </trkpt>
      <trkpt lat="49.15796" lon="1.40019">
        <ele>18.8</ele>
        <time>2021-04-14T17:06:25Z</time>
      </trkpt>
      <trkpt lat="49.15816" lon="1.39992">
        <ele>19</ele>
        <time>2021-04-14T17:06:31Z</time>
      </trkpt>
      <trkpt lat="49.15838" lon="1.39963">
        <ele>18.8</ele>
        <time>2021-04-14T17:06:38Z</time>
      </trkpt>
      <trkpt lat="49.15862" lon="1.39927">
        <ele>18.8</ele>
        <time>2021-04-14T17:06:45Z</time>
      </trkpt>
      <trkpt lat="49.15882" lon="1.39904">
        <ele>19</ele>
        <time>2021-04-14T17:06:51Z</time>
      </trkpt>
      <trkpt lat="49.1589" lon="1.39897">
        <ele>19</ele>
        <time>2021-04-14T17:06:53Z</time>
      </trkpt>
      <trkpt lat="49.15905" lon="1.39879">
        <ele>19.2</ele>
        <time>2021-04-14T17:06:57Z</time>
      </trkpt>
      <trkpt lat="49.15929" lon="1.39857">
        <ele>19.4</ele>
        <time>2021-04-14T17:07:03Z</time>
      </trkpt>
      <trkpt lat="49.15943" lon="1.39843">
        <ele>19.4</ele>
        <time>2021-04-14T17:07:06Z</time>
      </trkpt>
      <trkpt lat="49.15956" lon="1.39831">
        <ele>19.4</ele>
        <time>2021-04-14T17:07:09Z</time>
      </trkpt>
      <trkpt lat="49.15965" lon="1.39821">
        <ele>19.4</ele>
        <time>2021-04-14T17:07:11Z</time>
      </trkpt>
      <trkpt lat="49.15972" lon="1.3981">
        <ele>19.4</ele>
        <time>2021-04-14T17:07:13Z</time>
      </trkpt>
      <trkpt lat="49.15994" lon="1.39786">
        <ele>19.2</ele>
        <time>2021-04-14T17:07:18Z</time>
      </trkpt>
      <trkpt lat="49.16012" lon="1.3976">
        <ele>19</ele>
        <time>2021-04-14T17:07:23Z</time>
      </trkpt>
      <trkpt lat="49.16031" lon="1.39735">
        <ele>19</ele>
        <time>2021-04-14T17:07:29Z</time>
      </trkpt>
      <trkpt lat="49.1605" lon="1.39714">
        <ele>19.6</ele>
        <time>2021-04-14T17:07:34Z</time>
      </trkpt>
      <trkpt lat="49.16054" lon="1.39709">
        <ele>19.8</ele>
        <time>2021-04-14T17:07:35Z</time>
      </trkpt>
      <trkpt lat="49.16071" lon="1.39684">
        <ele>19.8</ele>
        <time>2021-04-14T17:07:40Z</time>
      </trkpt>
      <trkpt lat="49.16081" lon="1.39672">
        <ele>20</ele>
        <time>2021-04-14T17:07:43Z</time>
      </trkpt>
      <trkpt lat="49.16089" lon="1.39662">
        <ele>19.8</ele>
        <time>2021-04-14T17:07:45Z</time>
      </trkpt>
      <trkpt lat="49.16101" lon="1.39647">
        <ele>19.6</ele>
        <time>2021-04-14T17:07:48Z</time>
      </trkpt>
      <trkpt lat="49.16105" lon="1.39643">
        <ele>19.6</ele>
        <time>2021-04-14T17:07:49Z</time>
      </trkpt>
      <trkpt lat="49.16117" lon="1.39622">
        <ele>19.4</ele>
        <time>2021-04-14T17:07:54Z</time>
      </trkpt>
      <trkpt lat="49.16136" lon="1.39591">
        <ele>20.4</ele>
        <time>2021-04-14T17:08:01Z</time>
      </trkpt>
      <trkpt lat="49.16139" lon="1.39587">
        <ele>20.8</ele>
        <time>2021-04-14T17:08:02Z</time>
      </trkpt>
      <trkpt lat="49.16148" lon="1.39576">
        <ele>22.2</ele>
        <time>2021-04-14T17:08:05Z</time>
      </trkpt>
      <trkpt lat="49.16156" lon="1.39567">
        <ele>23.4</ele>
        <time>2021-04-14T17:08:07Z</time>
      </trkpt>
      <trkpt lat="49.16167" lon="1.39553">
        <ele>24.6</ele>
        <time>2021-04-14T17:08:10Z</time>
      </trkpt>
      <trkpt lat="49.16182" lon="1.39535">
        <ele>24.8</ele>
        <time>2021-04-14T17:08:14Z</time>
      </trkpt>
      <trkpt lat="49.16201" lon="1.39515">
        <ele>25</ele>
        <time>2021-04-14T17:08:19Z</time>
      </trkpt>
      <trkpt lat="49.16227" lon="1.39488">
        <ele>24.6</ele>
        <time>2021-04-14T17:08:24Z</time>
      </trkpt>
      <trkpt lat="49.16238" lon="1.39476">
        <ele>24.4</ele>
        <time>2021-04-14T17:08:26Z</time>
      </trkpt>
      <trkpt lat="49.16251" lon="1.39467">
        <ele>24</ele>
        <time>2021-04-14T17:08:28Z</time>
      </trkpt>
      <trkpt lat="49.16258" lon="1.39463">
        <ele>23.4</ele>
        <time>2021-04-14T17:08:29Z</time>
      </trkpt>
      <trkpt lat="49.16272" lon="1.39457">
        <ele>22.2</ele>
        <time>2021-04-14T17:08:31Z</time>
      </trkpt>
      <trkpt lat="49.16291" lon="1.39451">
        <ele>21.6</ele>
        <time>2021-04-14T17:08:34Z</time>
      </trkpt>
      <trkpt lat="49.16297" lon="1.39451">
        <ele>21.2</ele>
        <time>2021-04-14T17:08:35Z</time>
      </trkpt>
      <trkpt lat="49.16309" lon="1.3945">
        <ele>20.2</ele>
        <time>2021-04-14T17:08:37Z</time>
      </trkpt>
      <trkpt lat="49.16314" lon="1.39448">
        <ele>20</ele>
        <time>2021-04-14T17:08:38Z</time>
      </trkpt>
      <trkpt lat="49.16318" lon="1.39446">
        <ele>19.8</ele>
        <time>2021-04-14T17:08:39Z</time>
      </trkpt>
      <trkpt lat="49.16331" lon="1.39434">
        <ele>19.4</ele>
        <time>2021-04-14T17:08:42Z</time>
      </trkpt>
      <trkpt lat="49.1634" lon="1.39427">
        <ele>19.2</ele>
        <time>2021-04-14T17:08:44Z</time>
      </trkpt>
      <trkpt lat="49.16348" lon="1.39419">
        <ele>19</ele>
        <time>2021-04-14T17:08:46Z</time>
      </trkpt>
      <trkpt lat="49.16351" lon="1.39413">
        <ele>19</ele>
        <time>2021-04-14T17:08:47Z</time>
      </trkpt>
      <trkpt lat="49.16367" lon="1.39373">
        <ele>19</ele>
        <time>2021-04-14T17:08:53Z</time>
      </trkpt>
      <trkpt lat="49.1638" lon="1.39329">
        <ele>19</ele>
        <time>2021-04-14T17:08:59Z</time>
      </trkpt>
      <trkpt lat="49.16398" lon="1.3927">
        <ele>19.2</ele>
        <time>2021-04-14T17:09:07Z</time>
      </trkpt>
      <trkpt lat="49.16415" lon="1.39219">
        <ele>19.8</ele>
        <time>2021-04-14T17:09:14Z</time>
      </trkpt>
      <trkpt lat="49.16435" lon="1.39171">
        <ele>20</ele>
        <time>2021-04-14T17:09:21Z</time>
      </trkpt>
      <trkpt lat="49.16438" lon="1.39164">
        <ele>20</ele>
        <time>2021-04-14T17:09:22Z</time>
      </trkpt>
      <trkpt lat="49.16465" lon="1.39114">
        <ele>19.6</ele>
        <time>2021-04-14T17:09:30Z</time>
      </trkpt>
      <trkpt lat="49.16496" lon="1.39054">
        <ele>19.4</ele>
        <time>2021-04-14T17:09:39Z</time>
      </trkpt>
      <trkpt lat="49.16527" lon="1.38999">
        <ele>19.2</ele>
        <time>2021-04-14T17:09:47Z</time>
      </trkpt>
      <trkpt lat="49.16545" lon="1.38963">
        <ele>19</ele>
        <time>2021-04-14T17:09:52Z</time>
      </trkpt>
      <trkpt lat="49.16564" lon="1.3892">
        <ele>19.2</ele>
        <time>2021-04-14T17:09:58Z</time>
      </trkpt>
      <trkpt lat="49.16595" lon="1.38847">
        <ele>19</ele>
        <time>2021-04-14T17:10:09Z</time>
      </trkpt>
      <trkpt lat="49.16598" lon="1.38841">
        <ele>19</ele>
        <time>2021-04-14T17:10:10Z</time>
      </trkpt>
      <trkpt lat="49.16603" lon="1.38829">
        <ele>19</ele>
        <time>2021-04-14T17:10:12Z</time>
      </trkpt>
      <trkpt lat="49.16603" lon="1.38816">
        <ele>19</ele>
        <time>2021-04-14T17:10:14Z</time>
      </trkpt>
      <trkpt lat="49.16593" lon="1.38804">
        <ele>19</ele>
        <time>2021-04-14T17:10:17Z</time>
      </trkpt>
      <trkpt lat="49.16571" lon="1.3878">
        <ele>20.8</ele>
        <time>2021-04-14T17:10:23Z</time>
      </trkpt>
      <trkpt lat="49.16567" lon="1.38776">
        <ele>21.4</ele>
        <time>2021-04-14T17:10:24Z</time>
      </trkpt>
      <trkpt lat="49.16564" lon="1.38772">
        <ele>22</ele>
        <time>2021-04-14T17:10:25Z</time>
      </trkpt>
      <trkpt lat="49.16554" lon="1.3876">
        <ele>23</ele>
        <time>2021-04-14T17:10:28Z</time>
      </trkpt>
      <trkpt lat="49.1654" lon="1.38744">
        <ele>23.4</ele>
        <time>2021-04-14T17:10:32Z</time>
      </trkpt>
      <trkpt lat="49.16519" lon="1.38722">
        <ele>24</ele>
        <time>2021-04-14T17:10:38Z</time>
      </trkpt>
      <trkpt lat="49.16517" lon="1.38718">
        <ele>24.2</ele>
        <time>2021-04-14T17:10:39Z</time>
      </trkpt>
      <trkpt lat="49.16505" lon="1.38708">
        <ele>24.6</ele>
        <time>2021-04-14T17:10:43Z</time>
      </trkpt>
      <trkpt lat="49.16491" lon="1.38703">
        <ele>25.2</ele>
        <time>2021-04-14T17:10:46Z</time>
      </trkpt>
      <trkpt lat="49.16487" lon="1.38701">
        <ele>25.4</ele>
        <time>2021-04-14T17:10:47Z</time>
      </trkpt>
      <trkpt lat="49.16482" lon="1.38698">
        <ele>25.6</ele>
        <time>2021-04-14T17:10:48Z</time>
      </trkpt>
      <trkpt lat="49.16446" lon="1.38672">
        <ele>26</ele>
        <time>2021-04-14T17:10:55Z</time>
      </trkpt>
      <trkpt lat="49.16402" lon="1.38634">
        <ele>25.8</ele>
        <time>2021-04-14T17:11:03Z</time>
      </trkpt>
      <trkpt lat="49.16353" lon="1.38588">
        <ele>25.6</ele>
        <time>2021-04-14T17:11:11Z</time>
      </trkpt>
      <trkpt lat="49.16304" lon="1.38533">
        <ele>25.6</ele>
        <time>2021-04-14T17:11:19Z</time>
      </trkpt>
      <trkpt lat="49.16259" lon="1.38499">
        <ele>24.8</ele>
        <time>2021-04-14T17:11:25Z</time>
      </trkpt>
      <trkpt lat="49.16209" lon="1.38466">
        <ele>24</ele>
        <time>2021-04-14T17:11:31Z</time>
      </trkpt>
      <trkpt lat="49.16192" lon="1.38455">
        <ele>23.4</ele>
        <time>2021-04-14T17:11:33Z</time>
      </trkpt>
      <trkpt lat="49.16175" lon="1.38442">
        <ele>22.8</ele>
        <time>2021-04-14T17:11:35Z</time>
      </trkpt>
      <trkpt lat="49.16153" lon="1.38425">
        <ele>21.6</ele>
        <time>2021-04-14T17:11:38Z</time>
      </trkpt>
      <trkpt lat="49.16117" lon="1.38398">
        <ele>21.2</ele>
        <time>2021-04-14T17:11:44Z</time>
      </trkpt>
      <trkpt lat="49.16072" lon="1.38367">
        <ele>23</ele>
        <time>2021-04-14T17:11:52Z</time>
      </trkpt>
      <trkpt lat="49.16049" lon="1.38351">
        <ele>24</ele>
        <time>2021-04-14T17:11:56Z</time>
      </trkpt>
      <trkpt lat="49.16007" lon="1.38323">
        <ele>24.8</ele>
        <time>2021-04-14T17:12:03Z</time>
      </trkpt>
      <trkpt lat="49.15957" lon="1.38289">
        <ele>25</ele>
        <time>2021-04-14T17:12:11Z</time>
      </trkpt>
      <trkpt lat="49.15944" lon="1.38281">
        <ele>25</ele>
        <time>2021-04-14T17:12:13Z</time>
      </trkpt>
      <trkpt lat="49.15894" lon="1.38247">
        <ele>24.4</ele>
        <time>2021-04-14T17:12:21Z</time>
      </trkpt>
      <trkpt lat="49.15849" lon="1.38217">
        <ele>24.2</ele>
        <time>2021-04-14T17:12:28Z</time>
      </trkpt>
      <trkpt lat="49.15804" lon="1.38182">
        <ele>24.2</ele>
        <time>2021-04-14T17:12:35Z</time>
      </trkpt>
      <trkpt lat="49.15799" lon="1.38175">
        <ele>24.2</ele>
        <time>2021-04-14T17:12:36Z</time>
      </trkpt>
      <trkpt lat="49.15791" lon="1.38145">
        <ele>24.2</ele>
        <time>2021-04-14T17:12:39Z</time>
      </trkpt>
      <trkpt lat="49.1579" lon="1.38134">
        <ele>24.2</ele>
        <time>2021-04-14T17:12:40Z</time>
      </trkpt>
      <trkpt lat="49.15782" lon="1.38056">
        <ele>23.8</ele>
        <time>2021-04-14T17:12:47Z</time>
      </trkpt>
      <trkpt lat="49.15774" lon="1.37969">
        <ele>23</ele>
        <time>2021-04-14T17:12:54Z</time>
      </trkpt>
      <trkpt lat="49.15773" lon="1.37957">
        <ele>22.6</ele>
        <time>2021-04-14T17:12:55Z</time>
      </trkpt>
      <trkpt lat="49.15771" lon="1.37933">
        <ele>21.4</ele>
        <time>2021-04-14T17:12:57Z</time>
      </trkpt>
      <trkpt lat="49.15769" lon="1.37909">
        <ele>20.4</ele>
        <time>2021-04-14T17:12:59Z</time>
      </trkpt>
      <trkpt lat="49.15767" lon="1.37885">
        <ele>19.6</ele>
        <time>2021-04-14T17:13:01Z</time>
      </trkpt>
      <trkpt lat="49.15764" lon="1.37839">
        <ele>19</ele>
        <time>2021-04-14T17:13:05Z</time>
      </trkpt>
      <trkpt lat="49.15756" lon="1.37749">
        <ele>18.8</ele>
        <time>2021-04-14T17:13:13Z</time>
      </trkpt>
      <trkpt lat="49.15755" lon="1.37738">
        <ele>18.8</ele>
        <time>2021-04-14T17:13:14Z</time>
      </trkpt>
      <trkpt lat="49.15748" lon="1.37673">
        <ele>18.8</ele>
        <time>2021-04-14T17:13:20Z</time>
      </trkpt>
      <trkpt lat="49.1574" lon="1.37583">
        <ele>19</ele>
        <time>2021-04-14T17:13:29Z</time>
      </trkpt>
      <trkpt lat="49.15734" lon="1.37509">
        <ele>19.4</ele>
        <time>2021-04-14T17:13:37Z</time>
      </trkpt>
      <trkpt lat="49.15729" lon="1.37451">
        <ele>20.2</ele>
        <time>2021-04-14T17:13:44Z</time>
      </trkpt>
      <trkpt lat="49.15726" lon="1.37426">
        <ele>20.6</ele>
        <time>2021-04-14T17:13:47Z</time>
      </trkpt>
      <trkpt lat="49.15723" lon="1.37389">
        <ele>21.6</ele>
        <time>2021-04-14T17:13:52Z</time>
      </trkpt>
      <trkpt lat="49.1572" lon="1.37342">
        <ele>22.8</ele>
        <time>2021-04-14T17:13:59Z</time>
      </trkpt>
      <trkpt lat="49.15719" lon="1.37328">
        <ele>23.4</ele>
        <time>2021-04-14T17:14:01Z</time>
      </trkpt>
      <trkpt lat="49.15717" lon="1.37298">
        <ele>24</ele>
        <time>2021-04-14T17:14:05Z</time>
      </trkpt>
      <trkpt lat="49.15714" lon="1.3727">
        <ele>24.4</ele>
        <time>2021-04-14T17:14:09Z</time>
      </trkpt>
      <trkpt lat="49.15708" lon="1.37206">
        <ele>24.6</ele>
        <time>2021-04-14T17:14:17Z</time>
      </trkpt>
      <trkpt lat="49.15704" lon="1.3718">
        <ele>25</ele>
        <time>2021-04-14T17:14:20Z</time>
      </trkpt>
      <trkpt lat="49.15704" lon="1.37172">
        <ele>25.2</ele>
        <time>2021-04-14T17:14:21Z</time>
      </trkpt>
      <trkpt lat="49.15702" lon="1.37148">
        <ele>25.4</ele>
        <time>2021-04-14T17:14:24Z</time>
      </trkpt>
      <trkpt lat="49.15694" lon="1.37076">
        <ele>25</ele>
        <time>2021-04-14T17:14:33Z</time>
      </trkpt>
      <trkpt lat="49.15688" lon="1.3701">
        <ele>25</ele>
        <time>2021-04-14T17:14:41Z</time>
      </trkpt>
      <trkpt lat="49.15682" lon="1.36953">
        <ele>25.4</ele>
        <time>2021-04-14T17:14:48Z</time>
      </trkpt>
      <trkpt lat="49.15679" lon="1.36903">
        <ele>25.6</ele>
        <time>2021-04-14T17:14:54Z</time>
      </trkpt>
      <trkpt lat="49.15677" lon="1.36896">
        <ele>25.6</ele>
        <time>2021-04-14T17:14:55Z</time>
      </trkpt>
      <trkpt lat="49.15674" lon="1.36885">
        <ele>25.6</ele>
        <time>2021-04-14T17:14:57Z</time>
      </trkpt>
      <trkpt lat="49.15674" lon="1.36875">
        <ele>25.6</ele>
        <time>2021-04-14T17:14:59Z</time>
      </trkpt>
      <trkpt lat="49.15674" lon="1.36868">
        <ele>25.4</ele>
        <time>2021-04-14T17:15:00Z</time>
      </trkpt>
      <trkpt lat="49.15671" lon="1.36821">
        <ele>25.4</ele>
        <time>2021-04-14T17:15:06Z</time>
      </trkpt>
      <trkpt lat="49.15663" lon="1.36748">
        <ele>24.8</ele>
        <time>2021-04-14T17:15:14Z</time>
      </trkpt>
      <trkpt lat="49.15662" lon="1.36738">
        <ele>24.6</ele>
        <time>2021-04-14T17:15:15Z</time>
      </trkpt>
      <trkpt lat="49.1566" lon="1.36709">
        <ele>24.4</ele>
        <time>2021-04-14T17:15:18Z</time>
      </trkpt>
      <trkpt lat="49.15657" lon="1.36689">
        <ele>24</ele>
        <time>2021-04-14T17:15:20Z</time>
      </trkpt>
      <trkpt lat="49.15655" lon="1.3668">
        <ele>24</ele>
        <time>2021-04-14T17:15:21Z</time>
      </trkpt>
      <trkpt lat="49.15649" lon="1.36655">
        <ele>23.2</ele>
        <time>2021-04-14T17:15:24Z</time>
      </trkpt>
      <trkpt lat="49.15644" lon="1.36644">
        <ele>23</ele>
        <time>2021-04-14T17:15:26Z</time>
      </trkpt>
      <trkpt lat="49.15642" lon="1.3664">
        <ele>22.8</ele>
        <time>2021-04-14T17:15:27Z</time>
      </trkpt>
      <trkpt lat="49.1563" lon="1.36621">
        <ele>22.8</ele>
        <time>2021-04-14T17:15:31Z</time>
      </trkpt>
      <trkpt lat="49.15621" lon="1.36603">
        <ele>22.8</ele>
        <time>2021-04-14T17:15:34Z</time>
      </trkpt>
      <trkpt lat="49.15615" lon="1.36592">
        <ele>22.8</ele>
        <time>2021-04-14T17:15:36Z</time>
      </trkpt>
      <trkpt lat="49.15601" lon="1.36564">
        <ele>23</ele>
        <time>2021-04-14T17:15:42Z</time>
      </trkpt>
      <trkpt lat="49.15595" lon="1.36558">
        <ele>23.2</ele>
        <time>2021-04-14T17:15:46Z</time>
      </trkpt>
      <trkpt lat="49.1558" lon="1.36544">
        <ele>23.8</ele>
        <time>2021-04-14T17:15:51Z</time>
      </trkpt>
      <trkpt lat="49.15577" lon="1.36541">
        <ele>24</ele>
        <time>2021-04-14T17:15:52Z</time>
      </trkpt>
      <trkpt lat="49.15559" lon="1.3652">
        <ele>24.2</ele>
        <time>2021-04-14T17:15:58Z</time>
      </trkpt>
      <trkpt lat="49.15539" lon="1.36495">
        <ele>25</ele>
        <time>2021-04-14T17:16:04Z</time>
      </trkpt>
      <trkpt lat="49.15535" lon="1.36491">
        <ele>25.2</ele>
        <time>2021-04-14T17:16:05Z</time>
      </trkpt>
      <trkpt lat="49.15499" lon="1.36447">
        <ele>25.4</ele>
        <time>2021-04-14T17:16:14Z</time>
      </trkpt>
      <trkpt lat="49.15468" lon="1.36409">
        <ele>25.4</ele>
        <time>2021-04-14T17:16:22Z</time>
      </trkpt>
      <trkpt lat="49.15436" lon="1.36379">
        <ele>25.2</ele>
        <time>2021-04-14T17:16:30Z</time>
      </trkpt>
      <trkpt lat="49.15413" lon="1.36359">
        <ele>25.6</ele>
        <time>2021-04-14T17:16:36Z</time>
      </trkpt>
      <trkpt lat="49.1541" lon="1.36357">
        <ele>25.6</ele>
        <time>2021-04-14T17:16:39Z</time>
      </trkpt>
      <trkpt lat="49.15401" lon="1.36353">
        <ele>25.6</ele>
        <time>2021-04-14T17:16:43Z</time>
      </trkpt>
      <trkpt lat="49.15381" lon="1.36342">
        <ele>25.8</ele>
        <time>2021-04-14T17:16:48Z</time>
      </trkpt>
      <trkpt lat="49.15358" lon="1.36329">
        <ele>25.8</ele>
        <time>2021-04-14T17:16:53Z</time>
      </trkpt>
      <trkpt lat="49.15349" lon="1.36323">
        <ele>25.8</ele>
        <time>2021-04-14T17:16:55Z</time>
      </trkpt>
      <trkpt lat="49.15311" lon="1.36292">
        <ele>26</ele>
        <time>2021-04-14T17:17:03Z</time>
      </trkpt>
      <trkpt lat="49.15266" lon="1.36251">
        <ele>26</ele>
        <time>2021-04-14T17:17:11Z</time>
      </trkpt>
      <trkpt lat="49.15216" lon="1.36214">
        <ele>26</ele>
        <time>2021-04-14T17:17:19Z</time>
      </trkpt>
      <trkpt lat="49.15163" lon="1.36181">
        <ele>25.8</ele>
        <time>2021-04-14T17:17:27Z</time>
      </trkpt>
      <trkpt lat="49.15156" lon="1.36177">
        <ele>25.8</ele>
        <time>2021-04-14T17:17:28Z</time>
      </trkpt>
      <trkpt lat="49.15105" lon="1.36148">
        <ele>25.6</ele>
        <time>2021-04-14T17:17:35Z</time>
      </trkpt>
      <trkpt lat="49.15097" lon="1.36144">
        <ele>25.6</ele>
        <time>2021-04-14T17:17:36Z</time>
      </trkpt>
      <trkpt lat="49.15043" lon="1.36128">
        <ele>25.6</ele>
        <time>2021-04-14T17:17:43Z</time>
      </trkpt>
      <trkpt lat="49.15035" lon="1.36125">
        <ele>25.6</ele>
        <time>2021-04-14T17:17:44Z</time>
      </trkpt>
      <trkpt lat="49.14976" lon="1.36109">
        <ele>25.6</ele>
        <time>2021-04-14T17:17:52Z</time>
      </trkpt>
      <trkpt lat="49.14936" lon="1.36102">
        <ele>25.8</ele>
        <time>2021-04-14T17:17:58Z</time>
      </trkpt>
      <trkpt lat="49.14929" lon="1.361">
        <ele>25.8</ele>
        <time>2021-04-14T17:17:59Z</time>
      </trkpt>
      <trkpt lat="49.14924" lon="1.36094">
        <ele>25.8</ele>
        <time>2021-04-14T17:18:00Z</time>
      </trkpt>
      <trkpt lat="49.1492" lon="1.36076">
        <ele>25.8</ele>
        <time>2021-04-14T17:18:02Z</time>
      </trkpt>
      <trkpt lat="49.14922" lon="1.36057">
        <ele>25.8</ele>
        <time>2021-04-14T17:18:04Z</time>
      </trkpt>
      <trkpt lat="49.14924" lon="1.36037">
        <ele>25.8</ele>
        <time>2021-04-14T17:18:06Z</time>
      </trkpt>
    </trkseg>
  </trk>
</gpx>